GFSSGP_sfc_wetblb_003.txt.gz
Wetbulb
56.78 54.53 54.09 51.18 43.87 42.49 40.19 45.53 54.52 51.75 52.06 55.66 59.56 57.70 56.54 57.68 55.07 51.83 67.61 68.42 69.42 69.75 71.21 71.56 71.62 72.22 72.76 73.06 73.04 72.92 72.72 72.78 72.31 72.08 71.87 71.59 70.89 70.14 69.46 69.60 70.28 69.80 69.43 69.62 69.25 69.63 70.16 69.53 69.11
55.78 56.41 52.89 48.34 41.64 37.88 42.81 51.90 49.67 51.45 54.10 57.80 58.77 57.75 56.96 54.56 60.83 62.21 64.75 68.77 69.79 70.41 71.20 71.51 71.45 71.89 72.47 72.56 72.45 72.54 72.72 72.72 72.39 72.16 71.64 70.87 70.02 69.18 68.76 68.94 69.46 68.77 68.51 68.60 68.36 67.97 67.56 67.46 67.66
57.45 56.06 46.95 44.00 41.05 38.59 42.90 51.09 50.34 52.85 55.52 55.15 55.59 59.06 57.63 56.22 61.23 62.04 69.07 70.77 71.42 71.47 72.16 72.02 71.21 71.64 72.40 72.39 72.28 72.20 72.16 71.98 71.76 71.73 70.26 69.42 69.03 68.57 68.53 68.03 68.12 67.15 67.22 67.39 67.63 67.50 67.48 67.34 67.45
53.06 50.24 46.87 40.86 39.65 45.49 49.22 50.75 53.30 54.57 55.87 58.16 57.17 54.78 58.44 60.75 60.46 64.50 70.93 70.79 70.83 70.70 71.55 70.97 70.87 71.72 71.99 72.26 71.96 71.69 71.21 70.82 70.77 70.21 69.37 69.18 68.39 68.09 67.35 66.61 66.06 65.63 65.75 65.75 65.66 65.34 65.18 65.96 66.54
53.92 48.30 40.68 39.41 43.33 49.82 51.24 53.44 53.89 53.08 53.33 55.57 59.31 55.03 55.47 59.95 62.73 63.54 69.01 70.12 69.70 69.98 71.02 71.21 70.04 71.12 71.81 72.14 71.82 70.95 70.34 69.89 69.82 69.76 69.46 68.38 67.48 67.02 66.40 65.87 65.12 64.70 64.66 64.52 64.23 63.72 63.61 64.14 64.91
46.59 45.92 39.24 37.31 44.60 50.33 50.35 52.74 54.67 53.66 53.95 55.00 57.16 56.47 55.59 59.48 59.58 61.15 65.57 67.85 69.84 69.57 70.16 70.75 70.87 70.17 70.17 70.48 70.08 69.40 69.47 69.45 69.15 68.98 68.58 67.82 67.05 66.77 65.91 65.24 64.41 63.97 63.50 63.34 62.91 62.64 62.40 62.61 63.43
44.39 42.04 39.83 43.35 46.43 47.98 49.63 51.55 48.63 51.93 51.01 53.68 58.58 53.93 56.10 57.40 58.80 59.30 61.06 65.15 68.04 68.34 67.92 67.56 68.78 68.85 68.17 67.74 67.95 67.99 68.42 68.17 68.07 67.85 67.82 67.48 66.74 66.19 66.01 65.27 64.19 63.48 62.88 62.55 62.10 62.07 62.05 62.15 62.48
47.23 44.11 41.71 43.31 45.62 43.96 48.49 48.81 48.05 50.37 47.89 53.40 57.41 51.82 52.35 57.48 58.83 57.81 59.23 61.16 62.82 64.81 65.80 65.47 65.71 66.02 65.32 66.47 67.03 67.21 67.38 67.07 66.88 67.00 66.86 66.43 66.00 65.30 65.57 64.90 64.60 64.00 63.21 62.37 62.04 62.01 61.86 61.65 62.60
49.26 40.92 39.18 41.84 46.47 43.06 45.88 44.95 46.10 49.82 50.43 52.13 54.36 57.06 58.86 59.49 58.22 56.21 55.36 56.86 59.32 63.06 64.12 64.19 64.29 64.35 64.21 64.92 66.70 67.05 67.46 66.77 66.37 66.39 66.16 65.22 64.73 64.03 63.63 63.78 64.00 64.37 63.96 63.71 63.43 63.13 62.65 62.03 61.70
44.28 39.95 41.61 45.30 45.31 42.86 44.45 43.74 45.61 46.52 47.82 48.68 55.84 58.87 59.72 59.22 57.71 55.74 54.80 55.61 57.22 59.93 62.05 62.89 62.89 64.61 63.88 65.47 64.71 64.61 65.82 65.78 65.44 65.24 64.60 64.07 63.86 63.27 63.18 63.38 63.95 64.09 63.99 64.22 64.00 63.68 62.84 61.95 58.37
43.51 41.36 43.77 44.33 45.34 45.51 43.66 44.47 46.32 46.11 44.53 47.68 54.18 56.67 58.09 58.32 57.06 56.57 55.63 56.34 57.78 60.05 62.70 63.45 62.88 62.40 61.58 62.87 63.13 63.99 63.83 64.06 64.40 63.96 62.86 63.20 62.14 62.32 61.73 61.87 62.60 61.34 63.51 62.00 62.56 61.44 59.99 58.63 57.65
42.37 45.32 45.45 44.48 45.73 44.94 43.94 44.18 43.83 42.74 45.38 49.81 53.56 59.25 59.06 57.92 57.75 56.77 55.73 55.67 58.11 59.38 63.40 63.70 63.53 62.51 61.64 59.83 59.69 59.93 61.75 61.63 62.93 63.61 62.91 61.82 60.59 58.65 58.36 57.17 57.54 58.53 60.15 59.84 59.29 58.19 57.79 57.50 57.59
44.32 44.53 45.75 45.93 45.99 46.15 47.72 44.56 45.13 44.15 48.06 49.73 51.58 59.25 58.56 58.56 57.29 57.81 57.31 56.72 58.07 58.77 63.43 63.61 63.37 62.57 62.09 60.98 60.91 61.02 61.21 61.01 60.58 61.73 61.84 60.71 59.23 57.99 57.87 57.49 56.39 55.88 55.59 55.12 55.49 55.51 55.65 55.84 55.20
46.63 45.66 44.42 44.82 45.23 46.58 45.72 44.86 46.47 46.32 47.49 48.91 52.63 56.44 56.63 57.88 57.77 57.24 57.38 56.70 57.10 59.85 64.15 63.56 62.94 63.75 63.28 60.52 61.33 61.20 60.11 60.03 60.91 59.22 59.32 60.21 58.50 58.21 57.68 56.41 57.02 56.05 56.12 55.91 55.08 54.50 54.41 54.78 55.05
47.43 43.24 44.51 45.40 46.96 45.88 46.56 43.05 44.10 47.22 47.59 47.44 49.18 51.17 55.19 58.36 58.32 58.38 57.98 57.15 58.31 60.21 64.13 63.31 65.04 64.64 60.88 60.27 60.75 61.32 56.46 57.74 57.06 57.64 57.65 58.18 57.95 57.07 57.04 56.47 56.84 57.15 57.23 56.81 55.64 55.45 55.41 54.75 55.93
43.98 43.58 39.25 45.01 47.37 47.67 45.47 39.47 44.86 48.08 48.11 45.92 47.42 48.79 49.85 55.39 57.50 57.87 57.63 57.71 57.77 61.26 63.83 63.52 63.53 63.53 61.01 59.31 58.31 58.41 57.81 57.01 57.25 56.98 57.17 57.22 57.56 57.02 55.81 55.03 55.05 56.58 56.90 56.21 55.07 54.70 54.48 53.91 53.21
41.51 37.01 40.81 43.32 47.74 47.17 44.24 41.43 46.04 47.71 47.65 46.87 46.52 46.60 48.05 49.38 53.80 56.78 57.48 57.02 56.76 56.88 61.12 61.11 59.38 60.67 59.89 57.95 57.35 57.51 57.02 56.47 55.42 54.67 54.69 54.70 56.32 56.37 54.78 55.03 54.63 55.27 55.72 54.81 54.61 54.50 53.93 53.31 52.91
38.54 40.07 40.61 40.74 43.23 43.83 41.52 41.58 45.18 48.03 48.41 47.64 45.26 48.48 50.48 53.62 54.26 56.87 56.69 56.35 55.71 56.71 61.89 60.34 59.83 59.19 56.80 56.92 55.85 54.66 53.44 53.33 53.15 52.32 52.16 52.82 54.30 54.15 53.01 52.67 53.01 52.51 52.21 51.43 51.66 50.80 51.33 50.84 51.41
43.58 41.60 41.40 41.65 46.03 43.93 42.92 42.70 45.38 47.96 46.67 47.70 50.49 52.31 52.24 53.00 55.07 56.94 57.06 56.35 56.72 58.20 57.36 56.47 55.90 53.77 54.49 52.79 52.30 51.60 50.28 50.86 50.91 51.59 53.05 52.85 52.44 52.95 51.56 50.94 51.62 50.77 49.91 49.20 49.54 49.95 49.52 49.52 50.01
44.05 42.53 41.69 43.56 46.51 43.23 40.94 41.48 45.22 48.18 47.81 47.88 50.31 50.04 50.83 52.29 54.01 54.93 54.52 53.90 53.89 53.94 53.29 53.09 52.98 52.56 52.60 52.20 51.55 51.30 50.69 50.88 50.65 51.06 51.57 52.73 52.23 51.51 51.48 50.06 50.09 49.40 48.77 47.71 47.28 47.23 47.18 46.64 47.64
43.75 42.30 41.67 42.13 44.51 43.48 41.83 40.18 43.60 47.04 48.91 50.02 49.55 49.80 50.64 50.97 51.58 53.12 53.23 51.71 52.00 51.23 51.02 51.40 51.06 51.09 51.41 51.63 50.48 49.85 49.09 49.11 49.65 50.84 50.96 51.49 51.84 50.56 49.57 48.90 48.29 47.69 47.93 46.43 45.97 46.69 45.57 44.50 45.55
41.94 46.67 45.60 43.80 40.43 35.28 41.11 32.60 40.84 45.04 46.18 47.77 48.32 48.10 48.87 50.24 52.19 52.84 51.98 50.50 50.78 50.26 50.40 50.74 51.11 50.89 51.33 50.23 48.95 47.82 47.71 48.16 49.63 49.04 48.83 49.72 48.98 48.46 48.97 47.80 46.68 46.87 46.38 45.67 45.93 47.78 45.05 44.87 43.24
44.40 47.24 44.77 43.77 39.82 37.94 39.84 36.02 40.55 45.91 43.59 44.98 45.92 47.59 47.80 48.84 49.69 50.07 50.54 51.20 50.84 50.59 49.68 49.53 50.26 50.63 50.70 49.12 48.55 48.47 47.21 47.28 47.67 47.61 45.72 45.05 45.69 46.42 46.93 46.65 45.27 45.58 45.53 44.40 44.33 44.30 43.42 43.40 42.36
47.85 45.98 45.16 43.61 40.54 31.18 40.03 38.51 39.40 42.05 43.75 45.31 47.62 48.80 48.55 48.29 49.14 50.15 51.14 51.57 50.34 49.70 49.40 49.31 49.10 49.62 49.74 49.10 48.57 48.28 46.11 45.67 45.27 43.57 42.65 42.99 43.38 44.56 44.91 45.74 44.57 44.93 43.94 43.41 42.99 43.57 42.21 41.35 42.84
45.26 41.05 31.19 30.41 28.53 28.69 43.14 39.99 39.38 44.14 46.48 46.98 47.07 47.06 48.21 48.89 48.75 48.96 49.57 49.15 49.35 48.40 48.97 49.07 49.84 49.75 49.18 48.42 47.48 46.53 45.73 44.31 42.78 41.78 41.13 41.62 42.56 42.66 43.26 43.35 42.79 42.33 42.24 42.38 41.83 41.04 40.64 40.34 38.92
42.89 41.40 31.02 27.34 24.79 31.46 39.41 35.40 37.45 45.46 47.01 47.64 48.05 47.88 48.77 48.56 48.82 48.30 49.14 48.62 49.20 49.76 49.72 49.69 50.17 50.26 50.43 48.23 46.45 45.37 45.13 43.99 43.29 43.92 43.41 43.22 42.09 41.88 43.14 42.21 42.13 42.02 41.83 40.82 39.96 39.22 39.24 40.16 38.98
43.87 36.05 41.81 34.95 32.03 28.73 35.05 39.37 43.64 45.78 45.90 46.89 46.42 47.10 46.99 47.28 47.68 48.48 50.65 51.53 51.18 51.08 49.96 49.29 49.53 49.11 46.53 45.95 44.66 44.74 46.27 46.14 44.71 44.50 42.87 41.75 42.41 44.01 42.06 41.89 41.23 40.98 40.63 40.52 39.91 38.01 37.76 38.54 37.67
43.83 44.77 35.41 33.74 25.94 24.35 31.88 36.17 36.59 42.65 43.93 45.90 44.44 44.83 45.76 47.22 48.28 48.72 49.42 48.87 48.16 48.10 48.58 48.21 47.65 46.62 45.63 43.99 45.73 47.12 46.77 46.32 45.86 42.54 41.62 41.37 41.07 41.41 40.77 39.97 39.55 39.22 38.96 39.20 38.28 37.14 36.65 36.30 35.69
42.03 40.80 40.57 39.03 32.66 25.47 23.29 30.61 42.13 42.59 44.09 43.62 44.48 45.31 45.54 45.90 46.03 46.78 46.73 47.16 47.37 46.98 46.85 46.56 46.77 46.54 44.67 45.94 46.74 45.70 45.35 43.44 42.70 41.43 40.14 39.95 39.78 39.48 39.78 39.05 38.34 37.84 37.47 37.37 37.30 36.22 36.34 35.89 35.50
43.64 41.86 41.34 28.80 31.16 29.80 26.86 29.43 43.55 44.14 45.02 44.81 45.78 46.55 46.21 46.15 45.66 45.96 46.37 46.17 45.11 44.41 44.61 44.25 44.75 44.87 44.67 45.10 44.47 43.24 43.10 42.54 40.87 39.90 39.00 38.80 38.62 38.74 38.40 37.46 35.93 35.32 34.76 33.95 34.56 35.21 35.77 34.17 32.58

GFSSGP_sfc_wetblb_006.txt.gz
Wetbulb
55.45 52.88 53.42 50.82 43.54 41.69 37.56 43.62 53.29 51.39 52.50 57.84 59.59 56.92 55.02 56.06 54.25 51.38 66.37 68.14 69.71 69.74 70.41 70.89 71.28 72.48 72.79 72.65 72.50 72.22 72.33 72.17 71.68 71.23 70.90 70.40 69.60 68.81 68.80 69.09 69.16 68.91 68.66 68.28 68.29 68.08 67.89 67.91 67.78
53.88 55.11 52.07 47.01 40.68 36.74 40.19 49.21 50.13 53.36 55.69 58.13 58.55 58.59 57.47 56.28 62.63 63.75 64.79 68.90 69.87 70.06 70.14 70.48 71.32 71.99 72.41 72.36 72.30 72.09 72.27 71.99 71.78 70.90 70.39 69.72 68.78 68.51 68.26 67.99 68.44 67.58 67.40 67.49 67.81 67.79 67.66 67.44 67.37
55.78 55.22 46.45 43.42 39.26 35.77 41.58 49.06 51.05 54.02 56.62 57.20 55.43 57.58 57.65 57.09 63.32 63.83 67.19 69.42 70.17 69.83 70.32 70.78 70.75 71.31 71.79 71.86 71.95 71.92 71.83 71.63 71.18 70.54 69.70 68.95 68.49 68.00 67.30 66.90 66.79 66.20 66.17 66.07 66.07 66.08 66.05 66.14 66.34
52.24 49.01 45.87 40.34 36.94 41.52 48.39 49.43 54.18 55.64 57.41 58.38 56.99 53.89 57.58 61.57 62.33 67.47 70.03 70.74 69.87 70.44 69.78 69.59 70.04 70.98 71.74 71.83 71.69 71.39 71.08 70.63 69.94 69.66 68.95 68.31 67.78 67.06 66.42 65.72 65.28 64.98 64.74 64.64 64.50 63.95 63.91 64.31 64.76
52.36 46.27 40.19 37.37 39.40 48.99 51.17 52.89 53.94 52.69 55.73 56.03 56.94 53.48 55.23 63.33 69.18 69.52 69.56 69.85 68.77 69.63 70.84 70.81 69.51 70.59 71.34 71.57 71.08 70.63 70.21 69.76 69.73 69.60 68.75 67.64 67.16 66.41 65.80 65.13 64.29 63.80 63.57 63.43 63.31 62.78 62.80 62.72 63.25
45.68 44.60 38.22 35.18 44.15 49.66 50.29 53.25 54.17 55.93 55.91 55.57 55.26 55.04 54.70 62.38 67.16 68.26 69.54 69.20 69.80 68.99 70.42 71.13 70.75 70.54 70.41 70.54 69.93 69.12 68.85 68.96 69.09 68.78 68.28 67.07 66.55 66.17 65.31 64.58 63.90 62.98 62.63 62.38 62.21 62.05 61.96 62.09 62.37
44.02 41.72 38.86 40.32 46.97 47.68 48.68 49.75 50.13 52.84 54.35 54.97 56.78 51.82 54.75 58.90 64.67 67.45 68.20 68.56 69.01 69.22 69.34 69.04 69.13 69.17 68.36 67.80 67.59 67.68 68.27 68.15 68.01 67.97 67.57 66.89 66.23 66.13 65.68 64.93 63.95 63.20 62.45 61.96 61.89 62.04 61.99 61.91 61.92
45.35 42.95 39.70 41.96 45.85 44.00 47.31 46.62 48.27 50.59 49.68 58.28 58.34 51.35 51.44 55.39 61.75 64.69 66.48 66.43 66.63 66.69 66.90 65.56 65.81 66.13 65.70 66.09 66.79 66.74 66.70 66.51 66.71 66.87 66.24 65.57 65.14 65.41 65.50 64.92 64.64 64.31 63.55 62.99 62.95 63.11 62.66 61.83 62.12
46.88 39.50 37.58 40.34 43.65 45.34 46.64 45.84 45.56 49.29 51.71 52.75 53.53 56.03 57.35 56.35 57.08 58.54 58.61 60.03 61.59 63.94 64.10 63.67 63.74 63.78 64.09 64.32 66.01 66.76 66.78 66.17 65.75 65.79 65.68 64.34 63.25 62.28 62.76 63.71 63.46 64.56 63.83 63.59 63.82 63.86 63.20 62.00 61.77
43.99 39.40 40.35 44.77 46.57 44.02 43.75 44.52 45.45 47.72 51.84 52.52 54.47 57.61 56.71 55.46 56.36 56.21 55.55 57.93 59.49 60.67 62.19 62.47 62.33 62.42 63.13 65.34 64.75 63.96 65.01 64.30 64.07 64.10 63.65 63.30 62.80 62.44 62.60 62.96 64.08 64.07 63.74 63.85 64.21 63.97 63.82 62.57 57.75
42.10 40.06 42.83 43.55 46.56 44.92 43.32 43.90 45.26 45.98 46.23 54.05 54.08 54.55 54.90 54.69 53.74 54.63 54.87 57.65 59.65 61.04 62.60 62.50 63.28 62.90 61.65 62.25 62.35 62.38 63.09 62.94 63.24 63.55 63.15 62.47 63.03 60.83 61.97 60.31 60.77 60.64 61.95 60.74 61.55 60.95 59.74 58.69 57.31
40.37 42.60 43.75 43.77 44.08 43.35 43.10 43.72 43.70 43.72 46.26 56.58 57.60 57.10 56.32 54.92 54.73 54.61 54.02 55.19 57.50 61.04 61.65 61.89 62.19 62.37 59.77 61.11 62.05 62.07 62.25 62.71 62.71 62.73 61.87 60.38 59.67 57.40 57.09 57.34 58.42 57.77 57.30 58.45 58.64 58.67 58.17 56.72 57.49
41.70 42.28 43.79 44.46 45.99 43.69 44.49 42.73 43.42 43.08 47.38 57.79 58.11 57.76 56.69 56.51 55.97 56.48 56.10 56.12 57.70 61.15 62.18 61.71 61.25 60.70 60.30 59.69 60.50 60.59 61.00 61.87 62.03 61.93 61.57 59.23 58.49 56.27 56.39 56.01 55.26 54.76 54.15 54.34 54.05 55.36 54.60 53.65 54.80
44.17 43.42 42.96 43.52 44.39 44.87 43.75 43.10 44.76 44.02 47.24 56.20 57.20 56.33 57.04 57.56 57.15 56.34 54.71 54.87 57.73 62.29 61.32 62.04 62.30 62.18 61.18 60.63 60.20 60.26 60.08 59.34 60.12 60.60 59.52 59.05 57.47 57.02 56.48 55.12 55.30 55.07 55.14 55.39 54.06 53.37 53.31 53.67 53.87
44.51 40.85 41.70 41.17 43.53 43.17 45.55 41.48 41.57 45.98 47.45 54.85 56.33 56.73 56.94 57.32 57.48 57.07 56.58 55.73 57.89 62.64 62.49 62.66 62.54 61.43 60.18 59.81 60.67 60.41 56.52 56.90 57.14 56.29 56.08 56.64 56.69 55.60 55.27 54.10 53.38 54.24 55.39 54.61 54.10 53.51 53.26 53.08 53.68
42.64 41.23 37.19 42.63 44.69 45.41 43.41 38.10 43.81 44.43 44.94 46.26 51.40 54.84 55.15 55.74 56.92 56.69 56.12 55.53 58.55 62.28 62.31 62.65 61.81 62.11 58.83 58.55 57.72 56.82 56.49 55.37 54.79 55.34 55.00 55.72 55.89 54.67 53.46 52.46 52.15 53.06 53.27 52.70 52.07 52.57 52.19 51.18 50.93
39.62 34.76 37.59 40.82 45.29 44.14 41.98 39.23 43.58 45.18 45.12 43.87 43.55 46.22 49.68 51.50 53.77 54.29 54.05 54.12 61.43 62.28 61.89 60.38 61.01 60.12 58.70 57.58 56.69 55.35 54.68 54.54 53.55 53.02 51.89 54.10 54.58 54.41 51.88 51.04 51.02 52.14 50.92 50.14 50.35 49.93 50.27 49.08 48.25
35.96 37.45 35.89 39.01 41.81 43.29 40.39 39.37 43.39 44.55 47.27 47.87 48.74 50.20 51.82 51.62 51.86 54.12 54.82 56.73 56.15 59.70 59.08 58.47 59.34 59.09 55.53 52.69 52.84 52.49 52.92 52.20 51.05 50.55 51.63 52.35 52.01 51.81 50.27 50.18 50.30 50.17 49.22 48.24 47.72 46.98 47.20 47.28 47.19
43.06 40.10 38.54 39.14 43.61 42.18 41.29 41.21 42.49 46.17 48.99 48.38 49.17 50.85 50.90 50.19 51.85 53.08 53.64 53.78 53.66 53.21 53.29 52.76 53.08 54.80 52.59 51.43 51.49 51.22 49.03 49.23 49.33 49.87 51.25 51.47 51.76 51.41 49.75 48.89 49.05 48.56 47.51 46.57 46.44 46.08 46.02 45.97 46.10
43.51 41.41 39.92 42.49 45.23 42.01 40.96 40.17 43.53 47.03 46.99 48.49 49.17 49.69 49.83 50.00 50.53 51.32 51.46 51.41 50.50 50.53 51.99 52.19 51.16 50.97 51.57 52.34 51.33 50.29 48.65 48.48 49.51 52.61 51.88 50.89 49.91 49.35 48.96 46.91 46.17 46.85 46.08 45.12 44.82 45.29 44.33 44.79 45.12
42.08 40.54 39.67 40.28 41.92 41.91 42.56 39.11 42.54 45.41 46.67 47.40 47.32 49.06 50.05 50.04 49.45 50.33 50.51 48.69 48.26 48.27 49.12 49.37 49.16 49.45 50.38 50.09 49.11 48.63 48.68 49.25 49.59 48.54 47.85 48.04 47.47 47.33 46.45 45.61 45.43 45.38 45.15 43.91 43.60 43.89 43.37 42.39 43.40
39.67 44.52 43.53 41.61 38.09 33.39 38.93 30.58 38.72 42.45 44.04 46.14 47.39 47.65 49.12 49.51 50.49 50.35 49.03 48.12 48.20 47.34 47.44 48.19 49.07 48.83 49.03 49.13 47.90 48.39 47.44 46.29 47.27 46.50 44.92 44.09 45.15 45.53 45.76 45.14 44.65 44.64 44.55 42.99 43.22 45.01 42.70 42.34 40.76
42.61 45.19 42.77 41.71 37.53 35.98 37.16 33.92 37.28 43.03 41.11 42.85 43.82 46.51 47.01 48.32 48.93 48.55 48.67 48.91 48.43 47.92 47.57 47.80 48.72 48.82 48.39 48.00 47.56 47.14 45.87 45.01 45.30 43.85 42.22 42.28 43.46 44.46 44.24 44.66 45.15 44.42 43.37 42.75 41.86 42.35 41.26 41.41 40.48
45.90 43.96 42.96 41.22 38.11 29.77 37.93 36.13 36.17 38.54 41.71 43.99 44.82 45.65 46.91 46.77 47.58 48.59 49.19 49.47 48.50 47.80 47.47 46.77 47.53 48.43 48.43 47.49 46.89 47.21 44.59 43.77 42.20 40.93 40.41 41.05 42.10 42.68 43.18 43.75 41.68 40.92 41.16 40.46 40.30 39.40 39.64 38.77 38.65
43.39 39.40 29.94 29.33 27.10 27.63 40.55 36.72 37.27 43.49 45.23 46.06 45.27 45.23 46.02 46.46 47.14 47.80 48.06 48.01 48.06 47.99 47.86 47.76 48.13 48.57 48.28 47.11 45.07 44.21 42.83 41.73 40.63 40.91 42.46 42.33 43.39 42.43 42.13 41.42 40.78 40.14 40.16 39.85 39.29 38.44 38.92 39.27 38.67
41.09 39.19 29.96 26.66 23.96 29.56 38.41 32.89 35.98 44.65 47.35 48.00 48.19 46.91 47.16 47.12 47.21 47.15 47.16 46.93 46.95 47.73 47.62 47.52 46.37 44.62 45.42 44.54 43.71 43.78 43.54 44.29 44.38 44.17 40.89 42.78 42.27 41.41 41.13 40.66 40.26 39.93 39.76 38.98 38.26 37.16 36.80 37.16 36.41
41.57 34.42 40.36 32.59 29.40 27.40 32.74 37.07 41.33 44.77 44.89 46.57 46.76 48.12 45.22 44.91 45.06 46.12 46.44 46.61 47.00 46.93 46.06 47.23 46.40 44.88 44.25 44.42 44.11 44.18 45.56 45.47 45.12 45.45 43.21 42.79 40.69 41.88 39.85 39.67 38.94 38.44 38.21 37.97 37.69 35.90 35.41 34.60 34.34
41.02 42.91 34.75 31.43 24.78 22.89 29.78 33.28 34.79 39.98 41.66 42.85 42.29 42.52 43.95 44.77 45.12 45.57 45.76 45.50 45.48 46.05 47.15 47.75 46.82 44.80 43.62 43.79 45.29 46.91 45.96 45.00 43.89 41.59 40.08 39.25 39.20 39.72 39.04 37.77 37.04 37.09 36.85 36.69 36.59 35.22 34.87 34.31 34.10
40.12 38.34 38.12 36.44 30.08 24.47 21.80 28.76 39.76 41.57 42.26 41.42 42.03 43.21 43.46 43.76 43.90 44.46 44.49 44.50 44.10 44.27 43.68 44.00 43.72 44.59 43.68 43.49 43.66 42.80 42.40 42.00 41.29 39.69 40.19 39.04 39.01 39.91 39.61 37.87 36.63 35.53 34.51 34.33 33.37 33.77 34.41 34.22 32.91
41.57 39.75 37.98 27.47 30.71 27.37 25.00 28.53 41.57 41.64 43.08 44.28 44.09 44.03 44.55 44.23 44.53 44.01 43.43 42.91 42.17 41.71 41.58 40.75 41.79 42.64 42.86 42.90 43.03 42.58 42.19 41.39 40.03 38.91 38.15 38.53 38.47 38.10 37.54 37.78 35.67 33.70 33.04 32.09 31.41 31.90 31.79 29.91 28.99

GFSSGP_sfc_wetblb_009.txt.gz
Wetbulb
55.01 51.19 52.75 50.65 43.24 40.58 36.83 42.36 51.50 50.76 52.97 57.95 58.78 56.94 56.03 57.99 54.99 50.34 65.14 67.55 69.56 69.25 70.10 70.61 71.30 71.94 71.86 72.11 71.98 71.74 71.91 71.17 70.99 70.64 70.08 69.39 68.72 68.64 68.49 68.25 67.94 67.28 67.28 67.33 67.47 67.60 67.31 67.26 67.15
51.69 52.99 50.79 46.23 39.61 36.20 39.79 48.99 50.70 53.67 56.29 57.73 58.66 59.01 58.54 57.83 63.12 63.98 64.73 69.15 69.49 69.36 69.55 70.58 71.34 71.89 71.94 71.86 71.87 71.94 71.54 71.19 70.88 70.29 69.71 68.73 68.49 67.96 67.40 67.01 67.45 66.73 66.42 66.53 66.27 66.22 66.32 66.16 66.25
52.38 53.06 45.80 42.64 37.88 34.86 40.54 49.20 51.55 54.86 57.31 56.69 55.70 57.15 57.62 59.72 63.67 63.85 67.00 69.33 69.55 68.81 69.60 70.89 70.77 71.39 71.83 71.89 71.81 71.53 71.65 71.29 70.70 70.10 69.31 68.52 67.91 66.88 66.20 65.98 66.18 65.69 65.46 65.19 65.13 64.84 64.35 64.40 64.46
49.26 47.21 44.07 40.20 37.95 40.30 45.44 48.43 52.70 53.87 56.42 58.26 56.71 54.32 58.20 62.88 63.66 65.76 68.67 69.35 68.79 68.46 69.31 69.49 69.76 70.61 71.60 71.66 71.61 71.43 71.07 70.09 69.75 69.50 68.48 67.86 67.12 66.28 65.39 65.24 64.70 64.50 64.30 64.16 63.58 63.08 62.86 62.89 63.10
48.03 43.08 39.30 37.62 39.32 44.30 47.48 51.63 54.61 53.62 54.46 55.66 56.60 53.76 55.68 65.12 67.03 68.31 68.92 69.08 68.48 68.71 69.67 69.83 69.11 70.28 70.92 71.26 70.99 70.76 70.04 69.33 69.37 68.76 67.97 67.29 66.48 65.69 64.88 64.32 63.78 63.62 63.34 63.01 62.91 62.56 62.38 62.18 62.24
42.87 41.51 36.89 36.25 42.73 48.30 48.76 51.78 55.13 54.93 55.40 56.09 56.32 54.69 53.89 65.93 67.21 68.09 68.82 68.15 69.25 69.38 70.56 70.00 70.33 70.01 70.21 70.23 69.89 69.24 68.99 69.10 68.94 68.63 67.72 66.81 66.28 65.72 64.56 63.73 63.23 62.98 62.58 62.49 62.70 62.56 62.47 62.41 62.08
39.58 39.08 35.90 39.78 44.76 46.04 49.11 50.51 54.47 54.01 54.14 54.45 56.84 50.75 55.17 63.22 65.83 68.55 68.19 68.14 68.30 68.84 69.01 70.02 70.42 69.79 68.93 67.92 67.74 67.38 67.64 67.87 67.84 67.75 67.33 66.83 66.01 65.55 65.13 64.36 63.30 62.67 62.25 62.62 62.88 62.93 62.71 62.43 62.31
43.18 40.96 37.14 43.01 43.76 44.41 48.76 47.78 50.90 55.33 52.49 57.75 56.65 50.61 53.43 57.43 65.55 67.51 67.21 67.36 67.83 67.84 67.81 67.22 66.06 65.93 65.25 65.62 66.60 66.77 66.79 66.59 67.00 67.01 66.23 65.07 64.80 65.13 65.35 64.77 64.35 64.12 63.32 63.30 63.45 63.42 63.24 62.80 62.64
43.64 37.97 35.46 39.58 42.91 47.18 51.87 45.02 47.07 52.01 54.87 53.84 54.09 54.17 60.72 61.96 64.82 64.02 63.94 64.32 64.55 65.37 64.20 63.64 63.78 63.63 63.34 63.62 65.57 66.42 66.45 66.01 65.85 65.76 65.34 63.58 61.87 61.01 61.37 63.45 63.68 64.11 63.93 63.54 63.69 63.97 63.62 63.03 62.09
42.27 36.10 39.21 44.11 46.31 46.39 45.38 48.13 50.22 51.56 51.85 52.62 52.54 54.70 59.63 59.98 61.55 60.68 60.54 60.43 60.77 61.43 62.33 62.57 62.27 62.09 62.76 65.23 63.90 63.18 64.28 63.33 63.15 63.06 62.90 62.44 61.62 61.27 62.01 62.33 63.58 64.02 64.02 64.04 64.04 64.07 63.85 63.18 58.19
41.44 40.04 41.74 42.58 48.14 47.24 44.98 43.56 45.58 50.34 47.52 52.82 51.51 52.74 56.32 58.29 58.12 58.17 58.60 59.52 59.70 61.03 61.97 61.67 61.35 61.72 61.94 62.33 62.46 62.11 62.50 62.15 62.28 62.74 62.06 61.76 62.49 61.26 60.84 59.77 59.30 58.94 61.23 59.38 60.31 59.90 59.24 58.31 57.20
39.42 43.01 42.82 43.30 45.22 43.66 42.72 43.53 45.71 43.90 51.51 55.40 55.58 54.43 54.74 55.36 56.00 56.89 57.67 58.41 58.35 60.17 61.15 61.79 61.46 61.17 60.57 60.87 60.86 61.19 61.80 62.03 62.13 62.44 62.42 60.53 59.50 57.62 56.96 56.97 55.91 54.47 54.28 54.06 56.44 56.44 57.00 56.23 55.55
40.95 40.49 41.79 43.56 44.01 42.37 43.65 41.77 43.40 42.23 49.32 56.59 56.02 54.48 54.35 54.82 54.71 56.59 58.18 57.98 59.19 60.43 61.20 61.52 62.09 60.94 59.97 60.42 60.69 60.93 61.22 62.52 62.64 62.01 61.54 60.36 57.86 55.42 55.16 54.77 54.26 54.01 53.92 53.77 53.20 52.89 52.92 52.60 53.29
43.38 41.43 40.66 42.31 43.37 43.01 42.25 41.54 41.59 42.38 53.21 54.37 54.54 53.48 53.75 54.06 54.37 53.54 53.39 55.44 58.56 60.92 60.83 60.61 61.53 60.38 59.52 58.55 59.81 60.10 60.53 61.38 61.55 60.99 60.03 58.48 56.63 55.57 55.42 54.18 53.59 53.14 53.77 53.72 53.07 52.53 52.11 52.13 52.36
43.25 39.68 40.25 40.00 41.26 41.19 43.55 39.41 39.69 43.41 53.86 53.72 54.20 54.60 54.40 54.74 54.47 54.47 54.29 54.43 58.48 60.82 61.26 60.60 60.46 60.36 58.77 59.01 58.87 58.68 59.26 58.58 58.84 56.92 56.49 56.43 55.90 54.95 53.97 52.28 51.50 51.79 52.36 51.33 50.62 50.68 50.37 49.44 50.11
40.74 39.01 36.03 40.93 42.63 42.46 41.24 36.59 41.71 44.26 52.50 51.98 52.63 52.19 53.38 52.87 53.14 53.31 54.28 53.17 56.32 59.99 60.51 60.86 62.14 59.83 59.47 58.28 58.24 56.84 55.37 54.15 54.76 54.94 54.19 54.73 54.80 53.39 51.50 49.97 49.63 50.11 50.79 50.30 49.23 49.04 47.92 47.07 47.00
37.69 33.42 35.95 39.19 43.45 41.78 40.36 37.77 42.25 41.43 48.36 44.64 47.44 48.73 49.98 50.66 51.89 53.61 54.90 55.11 58.01 60.00 59.90 59.91 61.60 60.75 58.92 56.98 56.47 55.11 53.43 51.89 51.48 51.32 52.12 52.28 52.13 51.71 49.49 48.90 49.12 49.83 49.14 47.73 47.48 46.75 46.81 45.80 45.85
33.92 35.51 33.62 37.24 40.06 40.77 38.38 38.17 41.88 45.18 46.14 46.08 46.63 47.18 48.05 49.31 50.60 53.21 55.14 57.15 57.14 56.66 58.12 58.51 57.99 56.94 55.55 54.17 52.05 52.24 52.72 52.34 51.10 49.75 49.72 50.52 50.70 50.34 49.36 48.53 48.02 48.26 46.72 45.75 45.34 44.61 45.55 45.09 45.22
39.91 37.54 36.84 36.84 41.68 40.43 38.80 39.29 42.68 45.38 47.51 47.17 46.78 46.93 47.62 48.34 49.47 50.71 51.01 52.11 52.22 52.57 53.65 54.01 55.03 55.78 53.61 51.23 51.57 51.51 48.17 48.79 48.95 49.72 50.92 49.62 49.81 49.07 46.33 45.86 45.90 46.11 44.88 43.83 44.41 44.32 43.75 43.54 44.28
41.60 38.70 37.25 40.48 42.73 41.64 41.11 39.26 42.62 44.89 45.49 47.42 46.89 46.69 47.05 47.88 48.80 49.54 49.89 49.74 49.79 51.27 52.28 52.13 51.62 51.19 51.61 51.80 50.46 50.26 49.30 48.62 51.65 50.95 48.87 48.16 46.97 45.91 45.59 44.41 44.42 44.43 43.88 42.94 42.55 42.53 42.28 42.36 43.41
40.78 38.05 37.79 38.91 40.73 41.45 41.33 38.32 39.71 43.93 45.31 47.18 47.20 47.55 47.64 47.84 47.90 48.77 48.83 46.78 47.15 48.00 48.50 48.55 48.64 49.27 50.16 51.54 49.83 47.84 47.90 48.20 47.15 45.90 44.54 44.40 45.66 44.97 44.51 43.94 44.13 43.66 42.93 41.84 41.88 42.18 41.43 40.56 41.74
38.08 42.77 41.43 40.08 37.41 33.62 38.05 29.20 37.13 40.50 42.47 44.88 45.99 46.60 47.57 48.10 48.55 47.83 46.92 46.14 45.97 45.33 46.26 46.93 47.59 47.88 48.31 47.90 47.18 46.86 46.00 45.61 45.40 43.86 41.85 42.10 43.96 43.48 44.02 43.61 43.45 42.73 42.23 41.11 41.96 41.77 39.86 39.68 38.26
41.09 43.41 40.84 39.92 35.46 34.43 35.28 31.95 35.02 40.77 39.77 42.18 43.86 46.89 48.14 48.33 47.11 47.08 47.02 47.22 46.75 46.28 45.92 46.12 47.36 47.86 47.46 46.87 46.68 46.41 44.96 43.47 43.38 41.15 40.50 40.96 42.13 42.57 43.46 42.51 42.82 42.82 41.65 39.69 39.16 38.85 37.99 38.10 36.97
44.32 42.51 41.04 39.06 36.22 28.45 35.47 33.68 33.68 36.68 39.95 41.82 44.31 46.54 48.02 46.67 46.04 47.09 47.82 48.00 46.69 45.82 45.32 45.13 46.32 46.55 46.99 46.13 45.13 44.62 42.52 41.81 39.80 39.56 40.29 40.14 41.03 41.98 42.31 43.49 41.79 40.71 39.97 38.73 38.13 37.41 36.91 36.22 36.24
42.01 37.63 28.91 28.44 26.18 26.74 37.54 34.83 35.31 41.72 42.90 43.87 44.44 44.48 45.43 45.82 46.58 48.33 48.19 46.53 45.74 45.02 45.18 46.64 45.30 44.05 43.56 43.04 42.58 42.08 40.77 40.20 40.89 42.89 43.43 42.65 42.37 42.51 41.18 40.42 39.54 39.42 39.23 38.44 37.80 36.44 35.67 35.36 33.92
38.96 37.85 30.07 26.05 23.33 28.58 36.56 31.16 35.39 42.73 45.31 46.13 45.70 45.15 44.82 46.77 47.06 45.38 44.70 44.53 44.21 44.14 42.86 42.52 43.00 42.70 43.32 43.34 42.83 42.46 43.01 42.73 44.17 44.92 44.08 42.26 40.95 40.59 40.03 39.13 38.64 39.34 38.69 37.72 36.73 35.60 34.64 34.06 32.70
39.32 33.50 38.39 31.07 28.22 27.10 30.89 34.90 40.25 42.39 43.51 44.35 44.95 44.79 43.09 43.27 43.72 44.18 44.61 44.43 43.98 44.14 44.18 43.56 42.87 42.80 43.55 43.81 43.62 43.61 43.54 43.63 43.23 42.96 41.68 40.03 39.54 40.75 39.34 40.20 39.91 40.01 37.74 37.21 36.33 34.53 33.84 33.45 32.89
40.34 41.98 33.19 30.22 23.66 21.91 28.48 30.74 31.76 37.91 40.28 41.56 40.96 41.49 42.18 42.79 43.16 43.56 43.56 43.17 42.99 43.40 43.67 43.72 43.95 43.05 42.82 42.48 42.74 43.73 42.94 42.59 42.09 41.47 39.79 38.79 38.52 40.91 40.32 40.56 39.29 37.95 37.36 36.93 35.02 33.80 33.21 33.46 32.78
38.96 36.42 35.50 34.53 28.79 23.30 20.95 28.91 37.59 39.48 40.31 40.09 40.29 41.75 42.03 41.84 42.51 42.89 42.90 43.03 42.23 41.24 40.90 40.40 41.56 41.06 39.29 39.56 40.57 40.80 41.13 41.13 40.51 39.18 38.64 37.93 37.92 39.60 39.83 38.95 36.96 36.57 34.99 33.87 32.90 31.59 32.49 33.11 31.53
39.65 37.58 35.53 26.02 28.66 26.01 23.13 27.70 39.57 40.63 41.46 42.15 41.36 41.77 41.97 42.24 42.13 42.24 41.85 41.61 40.86 38.67 37.50 37.52 36.96 36.62 37.12 37.98 38.43 38.63 38.95 38.98 38.59 38.52 37.31 38.33 38.49 36.76 36.01 37.66 37.79 35.30 33.87 32.51 31.65 31.25 31.78 29.25 27.64

GFSSGP_sfc_wetblb_012.txt.gz
Wetbulb
55.06 52.09 48.89 47.50 41.07 40.52 35.44 40.67 50.34 50.13 52.93 57.44 59.38 57.77 57.03 58.90 55.25 51.22 66.15 67.98 68.96 69.03 70.24 70.48 70.99 71.71 71.96 71.73 71.42 71.68 71.39 70.94 70.57 70.13 69.48 68.64 68.39 68.08 67.71 67.38 68.18 67.44 67.09 66.97 66.89 66.79 66.66 66.74 66.64
49.02 50.75 47.63 43.32 37.43 33.18 36.66 45.40 50.23 53.83 56.02 57.32 57.85 57.46 58.02 56.90 62.85 63.50 65.09 69.14 69.19 69.24 69.55 70.37 70.91 71.46 71.67 71.39 71.52 71.64 71.38 70.89 70.39 69.86 68.73 68.42 67.72 67.14 66.54 66.63 67.52 66.38 66.03 65.67 65.32 64.92 64.71 64.47 64.42
50.05 50.78 43.11 39.24 34.93 35.60 38.30 50.08 52.63 54.69 56.61 56.43 55.17 57.16 57.37 58.77 63.53 63.86 67.43 69.04 68.99 68.51 69.84 70.22 70.50 71.00 71.44 71.53 71.57 71.37 71.34 70.88 70.39 69.55 68.48 68.01 67.02 66.15 65.84 65.74 66.24 65.31 64.74 64.23 63.91 63.47 63.09 62.92 63.05
48.02 45.81 41.91 37.03 34.41 39.93 44.01 50.23 53.99 54.06 56.18 57.50 56.02 54.46 58.65 62.58 63.54 66.54 69.18 68.94 67.84 67.66 68.54 69.30 69.77 70.82 71.55 71.72 71.56 71.24 70.93 70.34 70.03 69.39 68.12 67.40 66.58 65.62 65.21 64.69 64.40 64.19 63.77 63.55 63.22 62.71 62.62 62.49 62.54
45.52 40.99 36.01 33.87 35.00 40.08 44.16 51.75 53.39 53.32 54.02 54.72 55.29 53.49 56.25 64.56 66.69 68.04 68.21 68.37 67.73 68.18 68.45 69.21 69.08 70.27 71.04 71.55 71.21 70.91 69.91 69.39 69.32 68.90 68.19 67.03 66.10 65.14 64.40 64.14 63.88 63.40 63.49 63.49 63.38 63.24 63.06 62.55 62.58
41.79 39.83 34.72 32.65 38.09 45.53 46.52 53.09 55.28 54.38 54.96 55.52 55.36 54.79 55.85 66.27 66.31 67.73 68.43 67.86 68.65 68.78 69.22 68.76 69.79 69.95 70.06 70.28 70.38 69.54 68.88 68.83 68.72 68.25 67.59 66.45 66.09 65.31 64.18 63.82 63.52 62.98 63.26 63.28 63.68 63.17 63.06 63.15 63.16
39.37 36.69 33.93 36.58 44.20 44.09 46.13 54.65 54.15 53.68 54.40 54.42 56.02 51.28 58.82 63.40 66.69 67.99 67.85 68.55 69.06 69.31 69.31 68.79 68.40 69.03 68.87 68.16 68.04 67.84 68.13 68.10 67.83 67.48 67.11 66.70 65.75 65.15 64.70 64.27 64.12 63.42 63.44 63.93 63.90 63.99 63.75 63.36 63.37
41.22 38.65 35.57 41.30 44.06 43.81 49.91 48.23 54.80 54.04 52.76 56.79 56.63 53.72 57.03 61.34 66.76 67.48 67.04 66.96 67.38 67.63 67.72 67.66 68.14 68.82 66.41 65.81 66.74 66.59 66.74 66.76 66.72 66.86 66.06 64.96 64.74 64.57 64.65 63.95 63.82 64.33 63.73 63.80 64.14 64.08 64.15 63.81 63.43
41.40 36.88 34.18 40.51 44.92 45.80 52.21 46.07 48.70 53.80 54.17 54.11 54.29 56.39 60.76 65.34 66.25 64.96 65.16 65.50 66.10 66.76 66.94 66.85 66.92 66.10 64.02 63.72 65.40 66.47 66.64 66.25 65.84 65.64 65.24 63.24 60.65 60.24 60.75 63.40 64.03 64.34 64.23 64.32 64.21 64.37 64.05 63.68 62.45
40.52 36.24 37.43 42.61 46.83 48.50 51.72 48.14 50.02 52.63 51.98 50.89 52.26 60.04 63.53 64.52 63.64 62.39 61.97 62.00 63.29 64.01 64.47 64.84 63.06 62.41 62.38 64.92 63.50 62.52 63.23 63.00 62.78 62.94 62.64 61.46 60.92 60.50 61.77 62.27 63.26 63.38 63.71 64.10 63.90 63.99 63.84 62.17 58.28
38.75 38.47 40.62 42.09 49.52 49.76 45.27 48.38 47.86 51.63 47.86 51.03 53.62 57.36 60.24 61.84 61.44 61.29 61.23 61.72 62.14 63.32 63.16 61.99 61.46 61.51 61.47 62.21 61.77 61.29 61.61 61.26 61.57 61.67 61.16 60.91 61.47 60.50 59.78 59.45 58.41 57.71 59.98 57.17 57.77 58.26 57.80 57.59 56.88
39.10 42.86 42.99 42.95 47.52 44.52 45.30 44.78 49.30 47.30 50.02 55.07 57.98 59.24 58.75 59.34 58.91 59.48 59.05 59.47 58.67 59.76 61.16 61.46 61.01 60.54 60.48 60.66 60.78 60.41 60.98 60.83 60.92 61.75 61.69 60.36 59.41 57.54 56.43 55.57 53.70 53.37 53.41 53.50 53.96 54.45 54.79 54.14 53.43
41.94 42.25 42.38 42.92 43.23 42.27 43.39 42.70 47.86 43.26 51.09 54.61 57.33 58.06 57.37 58.00 57.32 57.10 57.95 58.50 58.14 58.79 59.84 60.10 60.23 59.81 59.97 59.90 60.09 59.82 60.35 61.33 61.18 61.22 60.82 59.20 57.50 54.70 54.58 53.78 53.78 53.48 53.63 53.10 52.37 52.19 52.27 52.08 52.07
43.89 40.41 41.49 42.60 40.81 39.92 41.17 40.60 40.91 41.88 52.24 52.31 54.59 55.23 55.47 56.36 55.60 54.04 55.41 55.66 57.30 59.22 59.38 60.34 60.48 60.17 59.19 58.97 59.33 59.61 59.96 60.69 60.93 60.22 59.31 58.23 56.19 54.74 54.44 53.30 52.38 51.56 52.15 51.31 51.00 51.18 50.85 50.11 50.01
41.85 39.15 39.71 40.45 40.02 40.21 42.74 38.48 37.44 44.75 52.37 51.32 51.91 52.71 51.11 52.13 51.57 51.46 52.93 54.24 56.47 58.62 59.44 59.59 59.87 58.98 58.76 58.65 59.10 59.83 59.82 59.63 58.57 57.43 56.76 56.77 55.50 54.34 51.71 50.05 49.18 49.40 50.46 49.79 48.98 49.08 47.97 47.04 47.74
39.82 38.05 35.07 38.91 40.87 41.09 39.49 34.20 40.15 47.50 51.33 49.22 50.16 51.45 51.39 51.20 51.92 51.59 53.47 53.40 55.24 59.00 59.54 60.21 60.96 60.17 60.06 58.12 58.68 59.07 56.53 56.33 54.53 54.23 54.80 53.66 52.53 50.79 48.94 48.48 48.72 49.87 49.08 47.55 47.33 47.36 45.62 45.56 45.47
37.19 32.11 34.54 37.48 41.01 40.70 39.21 35.27 41.14 42.86 49.38 46.61 47.12 47.58 49.63 49.91 52.04 53.52 55.04 52.08 57.37 59.58 59.91 59.61 60.13 60.20 59.44 57.70 57.36 55.87 53.33 52.97 50.27 50.79 50.17 50.08 50.42 50.12 48.61 49.42 49.36 47.75 46.20 45.37 45.58 45.09 44.87 44.51 44.48
32.83 33.58 32.62 34.67 38.39 39.76 37.58 38.69 42.73 44.58 45.58 45.23 44.77 46.23 47.70 47.96 48.05 51.96 54.66 55.89 56.63 57.83 58.32 57.80 57.54 57.67 56.63 54.94 52.68 52.69 52.08 51.20 51.37 50.00 49.23 49.74 50.32 49.42 49.17 47.48 46.09 45.34 44.21 43.67 43.59 43.24 43.70 43.69 43.75
38.55 36.33 34.44 34.46 39.19 39.98 38.71 39.04 41.40 44.77 44.55 43.86 44.41 45.36 45.87 46.88 48.28 50.67 52.10 53.33 53.30 53.90 55.73 54.86 54.82 54.39 53.12 50.97 51.56 49.75 48.98 49.72 49.37 48.09 47.83 48.64 48.62 47.07 44.82 44.38 44.34 44.05 42.94 42.29 43.02 42.67 42.32 42.18 43.21
39.79 36.84 35.40 37.89 41.30 40.80 39.47 37.66 40.44 42.60 43.53 44.12 44.62 44.89 45.71 46.09 47.20 48.44 49.31 50.22 51.12 51.57 53.71 53.82 52.41 51.27 51.51 51.07 50.23 50.64 48.56 48.29 47.66 45.93 44.68 45.03 44.70 44.31 44.42 43.64 43.23 42.72 42.18 41.89 41.80 41.52 40.99 41.29 42.22
38.98 37.32 35.90 36.69 41.04 40.53 39.42 37.19 38.66 43.04 45.39 46.10 45.86 45.31 46.22 46.54 46.65 47.41 47.32 46.47 49.01 49.50 48.24 48.47 48.62 48.65 49.41 50.23 47.72 46.57 46.89 47.26 45.44 44.19 41.71 42.65 43.49 43.63 43.30 43.50 42.79 42.12 41.58 41.38 40.69 40.49 39.77 38.81 39.86
36.19 41.02 39.41 38.39 36.41 32.94 37.26 30.09 35.70 39.60 41.80 43.94 44.56 44.38 45.09 45.84 45.89 46.19 45.17 45.19 45.36 44.24 45.10 46.02 46.81 46.56 47.13 46.62 46.19 45.48 44.32 43.87 43.47 41.27 40.13 41.04 42.49 42.94 43.20 42.91 42.39 41.33 41.18 42.11 40.57 40.26 38.94 39.38 36.34
39.42 42.44 39.81 37.75 34.76 33.30 33.96 31.83 33.36 40.39 39.76 42.00 43.41 44.92 44.92 44.84 45.26 46.88 45.24 45.37 44.68 45.05 44.65 44.80 46.10 46.35 45.96 45.26 45.57 44.70 42.49 42.64 40.64 39.75 40.36 40.22 41.30 42.33 42.33 41.78 41.35 41.41 40.13 38.90 38.26 37.33 36.45 36.76 35.40
42.87 41.10 39.34 37.33 34.78 27.64 33.09 32.20 31.73 36.02 39.80 41.91 43.38 45.33 45.49 45.02 44.57 45.61 46.14 47.10 46.81 45.41 44.32 44.36 44.51 43.70 44.10 43.70 43.53 42.74 41.88 39.53 39.57 40.33 40.62 40.20 40.35 40.79 41.04 41.79 39.81 39.30 38.65 37.93 37.12 36.62 35.59 35.06 34.72
40.97 36.38 28.32 27.74 25.13 26.10 35.23 33.05 34.08 40.01 41.84 44.00 44.20 44.39 44.66 44.25 44.19 44.78 45.27 45.90 44.37 43.21 43.41 43.81 42.64 42.14 42.74 42.49 41.86 41.47 40.79 40.12 40.91 41.17 41.02 41.06 40.86 40.76 40.33 39.26 38.75 38.06 38.44 39.85 38.48 35.49 34.73 33.97 32.48
37.07 36.63 29.18 24.70 22.79 27.94 34.81 30.35 34.84 41.04 43.23 45.28 44.94 44.31 44.17 44.78 45.83 45.06 43.46 42.05 41.74 41.66 41.24 41.71 41.87 41.92 42.51 42.42 41.82 41.70 41.21 40.92 41.59 41.72 41.60 41.12 40.22 39.70 38.98 38.62 37.85 37.82 39.04 39.09 39.05 37.40 34.23 34.42 33.33
37.37 32.25 37.10 30.43 27.66 26.45 29.68 34.24 38.70 41.11 41.60 42.82 43.37 43.51 42.99 43.04 42.10 42.61 42.95 42.62 42.56 42.81 42.47 41.56 41.94 42.22 42.25 41.80 41.40 41.51 41.99 41.61 41.37 41.22 40.95 40.01 39.41 40.02 38.50 37.73 39.13 38.22 39.86 38.42 36.48 34.33 33.53 34.01 33.51
38.43 40.44 31.76 29.32 22.86 21.35 26.82 29.46 31.01 36.96 39.84 41.71 41.38 41.24 41.41 41.88 42.03 42.32 41.72 41.46 41.35 41.64 41.77 42.83 42.20 39.50 38.76 38.14 39.38 39.59 38.81 39.03 38.92 38.78 38.46 38.69 37.98 38.54 39.93 39.67 39.21 39.24 37.77 36.72 36.20 35.10 33.02 32.64 32.26
37.63 35.14 33.78 32.90 27.75 21.94 19.37 27.17 36.18 38.76 41.82 39.63 39.76 40.93 41.25 41.12 41.06 40.68 40.39 40.30 40.12 41.11 40.47 40.42 38.27 37.78 36.60 36.79 37.41 36.86 36.95 37.36 37.66 37.53 37.88 36.99 36.94 38.15 38.38 38.78 36.70 35.12 35.39 34.19 32.19 31.30 30.68 30.76 31.39
38.16 35.76 33.77 25.25 26.52 25.03 22.08 26.08 37.18 38.82 40.32 40.72 40.23 41.00 40.43 40.86 40.49 40.06 39.89 40.13 38.65 37.71 38.30 36.57 36.50 36.71 36.58 36.22 35.84 35.49 36.26 36.73 36.58 36.70 36.57 36.07 36.25 36.56 36.08 35.98 37.51 37.04 34.05 31.74 29.92 29.69 29.91 29.97 28.27

GFSSGP_sfc_wetblb_015.txt.gz
Wetbulb
60.13 55.41 55.12 53.80 45.99 46.34 42.42 44.36 53.38 52.92 55.44 59.39 60.88 59.68 58.10 59.08 56.07 53.23 67.52 69.02 69.95 70.79 71.46 70.93 70.20 71.46 71.17 71.14 71.56 71.71 71.51 70.72 70.45 69.72 68.97 68.58 68.15 67.69 67.50 67.83 68.27 67.72 66.51 66.17 65.77 65.22 64.85 64.74 64.35
52.54 52.87 53.10 50.28 44.00 40.80 44.06 49.09 52.99 55.57 58.20 58.86 58.15 57.62 57.36 55.69 62.50 64.27 65.83 69.49 70.46 70.92 71.44 70.67 70.23 71.25 71.26 71.16 71.59 71.66 71.31 70.72 70.25 69.26 68.68 68.12 67.45 66.89 66.87 66.75 67.30 66.70 65.14 64.60 64.09 63.69 63.46 63.36 63.28
53.67 52.90 50.30 47.34 43.43 41.12 44.64 53.92 54.66 56.10 58.19 57.61 55.44 58.00 58.15 56.49 63.73 64.59 68.15 69.84 70.16 70.64 71.23 70.70 70.21 70.64 71.11 71.30 71.50 71.54 71.30 70.94 70.47 69.41 68.37 67.57 66.64 66.24 66.07 66.22 66.48 65.04 64.33 64.09 63.59 63.19 62.71 62.76 63.32
52.65 52.30 48.26 44.95 41.67 43.88 48.68 54.81 56.16 55.78 55.91 57.97 58.13 54.54 59.95 63.39 64.26 66.65 69.65 69.98 69.49 70.27 70.76 69.52 69.35 70.53 71.20 71.35 71.51 71.41 70.90 70.34 69.82 69.18 68.29 67.20 66.13 65.39 65.04 65.42 65.42 64.43 64.72 64.45 64.21 63.65 63.07 62.91 63.77
50.92 48.10 44.55 41.99 42.04 44.93 47.49 56.55 56.18 54.90 55.23 56.07 56.09 54.21 57.74 64.81 67.73 69.02 68.82 69.22 68.99 69.64 70.74 70.66 69.04 69.86 71.08 71.64 71.42 70.80 70.19 69.63 69.34 68.98 68.49 67.13 65.95 64.82 64.30 64.56 64.30 64.46 64.48 64.19 64.04 63.89 63.60 63.56 64.06
49.30 47.15 42.71 41.31 45.32 48.48 51.87 57.01 56.76 55.83 56.52 55.63 56.70 56.40 58.91 66.75 66.62 68.07 68.75 68.51 69.37 69.08 70.48 70.98 70.12 70.12 70.45 70.80 70.34 69.34 68.91 68.95 68.60 68.32 67.90 66.60 65.76 65.19 64.58 64.15 63.89 64.04 64.13 64.34 64.01 63.85 63.79 63.85 63.81
46.87 44.76 42.15 43.87 46.61 48.42 50.09 57.80 55.75 55.96 55.74 55.11 58.84 55.35 61.04 64.61 67.64 68.39 68.66 69.15 69.22 69.88 69.75 70.61 71.03 70.50 68.93 68.52 68.52 67.91 68.04 68.10 67.72 67.31 67.16 66.51 65.60 64.91 64.99 64.91 64.45 63.87 64.56 64.91 64.69 64.46 64.47 63.99 63.85
47.03 45.97 43.70 47.21 46.80 46.83 52.56 52.27 55.76 55.24 54.34 59.39 60.52 56.48 58.41 63.87 67.93 68.44 68.84 68.72 69.22 69.14 69.40 69.46 69.93 69.93 70.10 70.12 67.29 67.11 66.99 66.92 66.94 66.57 65.82 64.95 64.58 64.40 64.33 63.38 64.39 64.86 64.81 64.65 64.71 64.82 64.77 64.36 63.80
46.79 43.85 43.98 46.73 48.04 48.53 53.09 50.81 53.60 57.10 56.27 56.08 56.11 60.59 63.24 66.29 67.60 66.46 65.65 66.09 66.89 67.30 68.00 68.34 67.89 68.13 69.51 69.16 67.92 66.75 66.74 66.41 66.07 66.07 65.06 63.94 64.77 64.92 64.43 63.93 64.04 64.48 64.57 64.76 64.85 64.78 64.57 64.09 63.07
46.95 43.57 43.15 48.32 52.36 51.12 53.04 52.55 53.13 54.98 54.73 53.28 59.06 63.41 65.45 65.42 64.71 63.93 63.71 63.60 65.17 65.65 66.42 67.22 67.45 67.02 68.52 67.16 67.42 66.82 66.29 66.04 65.93 65.83 66.19 65.90 65.59 65.82 65.15 64.48 62.86 62.51 63.25 62.94 62.42 62.57 62.60 62.72 63.56
45.72 45.03 45.23 45.73 53.01 54.93 52.91 50.28 53.44 54.73 53.04 54.78 57.91 59.91 62.23 63.45 62.94 62.53 62.79 64.06 64.70 65.92 65.23 65.94 66.09 67.00 66.79 66.12 66.31 65.83 65.61 65.46 65.83 65.89 65.92 66.19 66.24 66.21 66.31 65.92 64.67 63.75 60.65 61.76 61.80 62.52 62.46 61.86 61.24
44.33 45.72 44.63 46.30 52.09 52.82 50.00 50.55 53.39 56.07 54.65 57.42 61.84 63.22 62.51 61.83 61.64 62.48 62.76 63.31 64.05 64.59 65.67 66.45 66.80 65.83 65.37 65.57 65.33 64.78 64.62 65.13 65.40 66.02 65.94 66.21 65.78 65.09 64.03 62.70 61.75 61.46 60.91 60.81 60.34 60.47 60.56 60.11 59.12
44.95 46.02 44.88 45.12 48.34 49.12 48.02 49.35 53.09 52.09 55.42 60.00 62.25 62.95 63.09 63.03 63.35 63.33 62.92 62.99 63.51 63.27 64.63 65.30 64.69 64.10 64.03 63.89 64.77 64.43 64.76 64.86 65.10 65.65 65.84 66.17 65.05 63.39 62.70 61.24 60.33 59.87 59.72 58.92 58.76 58.94 58.38 57.90 56.99
47.35 44.52 44.25 44.53 44.67 44.47 46.40 45.16 49.31 49.28 55.81 59.68 61.04 61.48 62.28 61.81 61.40 60.47 60.25 60.41 61.38 62.58 63.39 63.65 63.58 63.38 63.27 63.25 63.74 64.08 64.31 64.13 64.10 63.63 63.29 63.47 63.11 62.37 61.10 58.61 57.56 57.62 58.19 57.61 57.60 57.31 56.11 55.40 54.95
44.37 43.19 43.65 44.39 44.84 44.23 46.67 44.09 42.33 50.04 55.03 57.02 59.30 58.39 58.78 58.88 59.09 59.25 59.84 59.71 61.21 62.53 63.14 63.17 62.46 62.47 62.94 63.02 61.78 61.31 59.59 60.73 60.87 61.55 60.00 59.61 59.95 58.04 57.59 57.09 57.16 56.78 56.63 56.28 56.41 55.71 55.08 54.58 53.33
43.07 43.20 40.58 43.85 45.62 44.92 44.44 40.12 46.15 48.64 53.32 53.43 54.66 55.01 55.70 55.09 55.93 56.64 57.98 58.92 61.06 62.88 63.25 63.34 62.83 62.36 61.67 59.88 59.10 57.25 56.76 58.10 58.43 58.50 57.81 57.26 56.52 56.80 56.98 56.17 55.34 55.09 54.69 53.54 54.11 53.23 52.70 52.46 51.57
42.18 39.37 39.81 42.28 45.33 45.07 44.83 41.44 47.08 49.04 52.63 50.80 51.97 53.34 54.09 54.93 55.27 57.18 59.31 58.05 61.91 62.92 62.38 62.53 62.97 61.68 60.20 58.38 56.78 56.08 55.45 55.69 55.85 56.45 56.01 55.81 55.49 55.14 55.29 54.46 53.55 52.96 52.72 52.30 51.66 51.11 51.01 50.09 49.22
39.07 39.19 40.11 41.21 43.40 45.69 44.90 43.62 46.89 48.65 51.14 50.04 50.94 51.88 52.86 52.58 52.80 56.00 58.25 60.03 61.36 61.65 62.16 61.86 60.83 58.93 57.58 57.15 55.88 55.91 56.09 55.40 55.46 54.80 53.98 53.61 53.72 53.54 52.70 52.15 52.10 52.06 51.12 50.70 50.81 50.04 49.83 49.40 48.12
41.38 40.53 39.93 41.00 43.68 44.86 42.77 43.60 45.23 47.80 48.46 49.13 50.07 50.94 51.52 51.78 53.59 56.24 57.75 59.47 59.67 60.15 60.25 60.14 59.31 57.52 56.85 55.49 56.17 55.86 56.34 55.07 53.12 52.60 52.43 52.21 51.57 51.42 51.78 51.36 51.15 51.08 50.22 50.51 50.36 50.03 47.78 47.31 48.11
42.79 40.88 39.58 42.48 44.59 44.94 43.71 43.10 46.13 47.25 47.04 48.14 49.60 50.45 51.38 51.93 53.05 54.42 56.31 58.22 59.60 59.56 59.02 58.96 58.01 56.67 57.33 57.86 57.29 57.54 55.83 54.35 51.68 50.77 50.71 50.40 50.61 50.45 50.37 50.82 50.60 50.75 50.28 49.90 49.16 47.96 46.48 46.85 47.57
42.22 41.54 40.17 41.15 44.06 45.02 44.43 42.21 44.05 46.88 48.20 48.78 49.34 50.27 51.36 52.55 53.11 53.42 54.60 56.93 57.66 58.16 56.87 55.59 55.59 56.01 55.83 55.55 54.57 54.06 54.13 53.23 51.80 50.04 49.23 48.98 49.86 50.01 50.69 50.68 51.35 50.55 49.42 48.63 47.39 46.81 45.78 43.79 45.33
41.02 44.21 42.82 42.12 41.56 38.88 41.93 37.47 41.49 45.10 46.12 47.84 48.83 49.94 50.85 51.52 52.59 52.35 51.53 51.50 52.28 51.85 53.25 53.58 53.23 52.69 52.21 52.59 52.94 52.62 52.30 51.62 49.75 48.56 49.08 50.26 49.72 50.33 50.03 49.73 49.44 48.72 48.31 47.01 46.32 45.53 44.39 42.96 39.95
42.60 44.60 43.62 41.25 40.02 39.87 39.92 40.17 39.42 45.08 44.27 46.79 48.33 48.93 49.62 50.17 50.68 49.62 49.58 49.66 50.09 50.90 51.70 51.60 51.34 51.07 50.98 51.90 52.31 51.46 50.02 49.16 48.79 49.49 49.04 48.77 49.28 48.69 48.00 47.82 48.06 47.63 46.69 45.75 44.96 43.91 42.13 42.02 39.99
45.62 44.27 42.97 41.59 40.26 35.66 37.95 38.62 38.50 41.66 45.46 46.87 48.35 48.92 49.12 49.31 49.74 49.58 50.40 50.83 49.88 50.41 50.57 50.43 49.89 49.52 50.67 51.04 51.22 50.89 49.52 48.15 48.77 49.08 48.84 49.12 49.10 49.28 48.57 47.08 47.01 46.41 45.49 44.44 43.76 42.77 41.36 41.10 40.82
44.77 42.09 35.95 34.94 35.22 33.41 38.20 37.15 40.93 44.19 46.41 48.92 48.12 49.07 49.63 50.10 49.60 49.31 49.76 49.73 49.51 49.48 49.26 49.07 48.97 47.74 48.62 48.58 48.23 48.20 47.75 47.75 47.67 48.12 48.19 48.07 48.10 48.55 48.51 46.64 45.66 44.60 43.57 43.39 42.55 41.41 40.23 40.57 39.53
41.70 42.09 36.70 28.99 30.67 34.44 38.28 36.04 41.57 44.47 47.34 49.89 50.43 50.27 49.71 49.71 49.52 49.59 48.89 47.90 47.51 47.81 48.05 48.27 48.21 47.64 48.31 48.33 48.08 48.82 48.86 48.08 47.11 46.30 45.70 45.56 45.83 46.42 47.23 46.13 44.60 43.77 43.37 42.36 42.04 42.01 41.53 40.96 40.28
41.14 38.54 41.35 34.49 31.53 32.36 36.02 39.16 43.49 43.83 44.62 47.12 47.44 48.35 48.71 49.22 49.02 48.43 47.24 47.30 47.07 47.26 47.49 48.00 47.20 45.80 44.99 45.89 45.86 45.15 44.96 44.38 44.02 44.53 44.87 44.58 45.39 45.05 45.68 44.88 43.67 44.42 43.50 42.51 42.70 41.49 41.05 40.52 40.34
43.40 42.80 37.31 36.22 29.04 26.88 32.40 34.26 38.15 40.83 42.85 45.50 45.86 47.18 48.06 48.20 47.63 47.19 46.96 46.55 47.40 47.94 47.80 46.76 44.97 43.42 43.54 44.02 43.94 43.04 43.24 43.51 43.71 43.57 42.63 43.17 44.29 44.68 44.87 43.93 44.06 43.61 43.18 42.60 41.78 40.69 40.72 39.51 39.41
41.41 39.27 37.01 37.31 33.77 29.79 27.98 34.20 41.93 43.55 45.00 44.91 47.30 47.55 47.53 47.00 46.93 46.14 45.23 45.83 46.10 46.74 45.38 43.26 41.05 43.02 42.43 42.55 42.52 42.69 42.75 43.11 43.25 42.74 42.70 42.70 43.59 43.93 43.67 43.82 43.12 42.50 41.14 40.60 40.14 40.02 38.87 37.17 37.64
43.04 40.42 39.06 34.38 30.88 30.46 31.16 34.92 41.74 43.39 45.42 46.06 46.03 45.67 46.70 46.65 45.83 44.87 44.73 43.94 43.59 42.88 42.09 39.99 42.84 42.54 42.16 41.56 41.59 41.80 42.32 42.57 42.14 41.88 42.10 42.80 42.04 42.40 41.74 41.77 40.75 41.25 41.40 40.39 38.66 37.78 37.07 36.36 36.18

GFSSGP_sfc_wetblb_018.txt.gz
Wetbulb
63.23 59.90 57.81 57.23 50.22 50.04 48.05 48.96 56.44 57.62 57.95 61.81 62.76 60.71 59.06 60.74 58.14 55.17 68.85 70.78 72.02 71.08 71.52 71.16 70.85 71.14 71.18 71.33 71.76 71.69 71.55 70.66 70.03 69.29 68.98 68.25 68.00 67.98 67.81 68.32 68.24 66.95 65.78 65.23 64.73 64.28 63.78 63.65 63.80
56.31 54.65 57.85 55.84 47.94 45.91 47.66 50.55 53.51 58.55 60.09 60.72 58.68 59.39 59.01 56.20 63.13 65.47 67.01 70.76 71.22 71.36 71.34 71.31 70.52 70.75 71.22 71.47 71.78 71.65 71.34 70.58 69.63 68.81 68.20 67.71 67.47 67.18 67.06 66.93 67.20 66.33 64.57 64.12 63.57 63.12 63.34 63.79 64.01
55.27 57.15 53.77 50.40 47.90 45.43 47.51 55.14 57.22 59.50 59.92 58.35 56.06 59.86 58.23 57.56 62.65 66.37 69.50 71.32 71.26 70.70 71.96 71.75 70.14 70.52 71.21 71.05 71.21 71.26 71.38 70.87 70.01 69.26 67.98 67.05 66.76 66.37 66.16 66.04 66.47 65.19 64.85 64.77 64.22 63.42 63.76 63.59 63.84
54.14 55.44 53.94 47.44 46.03 47.59 52.00 57.35 58.69 58.37 59.49 58.92 58.65 53.12 59.00 62.44 62.25 66.34 70.24 71.10 69.78 70.78 71.10 69.20 69.30 69.93 70.56 70.96 71.08 71.45 70.91 70.21 69.80 69.26 68.03 66.41 65.92 65.42 65.15 65.15 65.87 65.19 64.94 64.74 64.33 64.07 63.80 63.89 64.41
55.92 54.04 48.16 46.32 45.93 48.08 54.49 59.67 58.85 55.68 57.24 58.11 59.32 56.38 55.83 63.05 67.25 68.93 69.17 68.75 68.20 69.60 71.26 70.53 68.29 68.99 69.85 70.25 71.61 70.95 70.32 69.63 69.31 68.97 68.23 66.50 65.04 64.54 64.44 64.70 65.01 65.13 64.62 64.43 64.30 64.18 64.06 64.31 64.45
51.26 52.69 46.06 45.08 47.74 51.49 52.54 60.39 58.95 56.69 56.15 57.38 57.06 58.62 60.87 67.81 67.65 69.08 68.90 68.53 70.29 70.44 71.14 70.96 69.00 68.90 69.52 70.84 70.46 69.56 69.51 69.27 68.90 68.30 67.54 66.02 64.94 64.94 64.40 64.49 64.44 64.51 64.35 64.37 64.09 64.15 64.28 64.27 64.17
50.83 48.34 46.10 47.76 50.00 51.47 54.17 60.68 57.86 56.07 55.11 56.48 60.71 57.30 62.57 65.33 67.93 68.76 69.24 70.32 70.64 71.41 71.21 70.99 70.36 70.43 68.79 68.86 68.47 68.06 68.35 68.29 67.99 67.73 67.49 66.32 65.61 65.70 65.38 64.84 64.28 63.99 64.16 64.34 64.57 64.62 64.62 64.75 64.16
53.19 49.95 46.85 50.10 50.44 51.23 56.93 57.38 56.82 56.22 55.94 61.44 62.79 57.56 59.01 65.78 69.24 69.16 69.25 69.58 69.93 70.18 70.83 70.39 71.17 71.02 70.68 70.58 67.74 67.46 67.30 67.07 67.16 66.80 65.95 65.19 64.81 64.88 64.37 64.45 64.93 64.70 64.70 64.76 64.73 64.68 64.83 64.76 64.28
53.27 47.20 46.74 49.90 51.38 52.66 56.43 54.13 56.14 59.33 57.77 59.25 60.40 62.02 65.25 67.87 68.43 67.72 67.54 68.37 68.72 69.06 69.58 70.16 69.79 70.16 70.26 69.97 69.23 67.03 66.98 66.68 66.17 66.18 65.16 64.18 66.65 66.60 65.51 63.72 64.01 64.35 64.41 64.43 64.16 64.19 64.07 63.78 64.16
50.67 47.79 47.28 53.71 55.64 54.82 55.17 54.57 54.61 56.79 57.16 57.32 61.34 65.40 66.94 67.37 67.03 66.09 65.71 65.71 66.46 66.17 67.73 67.93 68.52 68.39 69.82 68.14 68.19 67.13 66.05 65.89 67.20 67.00 66.94 67.90 68.11 68.07 66.18 65.31 62.90 62.61 62.27 61.85 61.88 61.97 62.63 63.65 62.31
51.04 47.89 49.50 53.63 56.82 55.36 53.90 54.12 56.06 56.12 56.23 58.46 60.10 63.26 64.23 64.89 65.31 65.16 65.11 64.97 66.74 66.20 66.57 67.13 67.63 68.01 68.61 67.25 66.77 65.66 66.03 67.11 67.97 67.95 68.52 68.91 68.75 68.96 67.88 67.09 66.34 66.89 61.96 65.01 64.36 64.67 62.77 62.77 62.11
48.43 50.56 49.39 53.98 56.88 54.60 52.85 55.34 54.57 57.48 57.50 60.54 63.42 65.25 65.27 64.25 64.42 65.23 65.42 65.09 65.46 66.63 67.12 66.19 67.14 68.14 68.01 66.75 65.58 65.90 66.27 67.55 68.13 68.96 68.87 69.01 67.68 68.25 66.73 65.56 66.47 66.32 64.94 63.15 62.96 62.69 62.39 61.85 60.70
49.03 49.52 49.71 49.91 52.75 55.75 55.04 53.29 55.02 56.80 58.99 63.20 64.58 64.59 64.68 64.23 64.40 64.79 64.96 65.09 65.40 64.81 66.32 67.32 67.72 67.31 66.89 66.25 66.20 66.71 68.32 68.09 68.84 68.65 68.54 69.28 66.42 66.43 65.37 66.34 65.45 64.56 64.14 62.94 61.77 61.30 60.50 59.80 59.16
50.45 48.98 47.95 47.95 52.96 52.94 52.24 51.63 55.38 54.40 60.80 62.83 63.17 63.35 64.35 64.03 63.71 63.58 63.34 63.31 64.20 64.54 66.02 67.21 66.39 66.60 66.26 66.30 66.67 66.73 66.75 66.31 66.58 66.60 66.86 64.69 64.22 64.75 65.39 64.98 62.88 62.95 62.27 61.61 60.39 59.83 58.61 58.10 58.10
48.93 45.95 47.22 47.32 51.24 50.60 52.82 48.90 48.18 54.10 59.09 60.62 61.16 62.39 63.44 64.01 64.27 62.54 62.40 61.78 62.87 64.31 66.29 66.34 66.43 66.48 66.31 64.87 63.11 61.24 60.96 62.74 64.29 64.17 62.12 61.06 61.39 62.03 61.43 61.50 60.47 60.22 60.74 59.68 59.48 58.46 58.19 57.28 56.81
46.19 47.00 44.08 47.16 49.66 47.61 49.63 45.24 49.86 53.86 57.51 59.15 60.27 61.57 62.04 61.86 61.96 61.92 62.06 62.26 62.91 64.99 65.82 66.73 65.97 66.09 63.34 61.08 59.88 58.81 59.49 61.05 61.77 61.86 61.97 60.99 59.95 60.06 60.79 60.65 60.83 59.18 58.61 57.99 57.47 56.45 55.69 55.31 54.79
45.42 42.06 43.20 44.87 49.31 48.08 47.68 44.99 50.25 54.90 57.11 57.72 59.23 60.06 60.57 59.68 60.52 61.93 62.72 62.69 64.12 65.84 66.51 65.91 66.33 64.99 64.32 61.70 58.06 59.22 59.27 59.35 59.73 59.59 59.75 59.08 58.56 59.00 60.35 58.69 57.81 57.49 56.87 56.32 55.13 54.87 53.84 53.10 52.94
42.16 43.03 43.87 43.51 47.77 47.58 46.97 48.07 50.16 54.51 56.28 56.36 57.87 58.93 59.31 59.55 59.42 60.91 62.29 63.44 64.64 66.03 66.51 66.02 64.66 64.42 63.25 61.05 61.32 61.31 59.83 59.88 59.98 59.42 58.65 57.71 57.59 56.99 57.59 56.79 56.28 55.78 55.05 54.51 54.09 53.37 54.06 53.00 52.23
45.56 44.61 43.81 45.96 48.97 49.01 47.88 48.44 49.46 52.54 55.33 55.99 56.70 57.56 58.28 58.74 59.82 61.60 62.76 63.81 64.49 65.29 65.15 64.94 63.55 63.54 63.23 62.13 60.71 59.61 59.50 59.55 58.41 57.82 56.76 56.26 55.97 55.47 55.34 55.33 55.38 55.00 54.06 53.72 53.61 53.05 52.21 51.07 51.72
46.28 44.46 44.94 46.02 48.36 49.32 48.98 48.47 50.42 51.22 53.04 55.24 56.47 57.16 57.82 58.21 59.45 60.60 62.33 63.30 63.85 64.20 64.43 64.14 63.56 63.01 62.70 62.42 62.11 62.35 60.86 58.92 57.18 56.70 55.48 55.06 54.45 54.31 54.20 54.61 54.16 54.18 53.09 53.11 52.72 51.53 49.52 49.65 50.36
46.13 45.36 45.39 45.07 47.42 49.31 48.95 47.06 48.98 50.54 51.97 53.13 54.88 56.99 57.86 58.45 58.92 60.00 61.33 63.05 63.64 62.72 63.58 63.28 62.54 61.63 61.63 61.05 60.27 59.27 58.88 57.33 56.95 56.14 55.94 54.17 54.42 54.10 53.81 53.76 53.42 52.94 52.28 50.78 51.25 50.28 48.43 46.73 48.04
44.43 47.13 47.50 46.42 45.70 42.27 48.26 40.99 47.73 49.77 50.32 52.17 53.54 55.54 56.79 58.23 60.00 60.47 60.05 60.21 61.76 61.43 60.74 60.54 60.15 59.47 57.93 57.33 57.82 57.39 56.75 56.07 54.70 54.59 54.62 55.21 54.26 53.91 53.34 52.80 52.48 51.88 51.50 50.70 50.57 49.53 47.49 45.65 43.93
45.93 48.59 48.54 47.09 46.85 45.41 45.14 43.00 46.81 49.80 48.70 51.30 53.70 55.50 57.37 58.95 58.03 56.94 57.36 58.55 58.55 58.60 58.25 57.85 57.05 56.33 56.90 57.20 57.46 56.37 54.70 54.02 54.20 54.72 53.02 53.61 53.78 53.63 52.63 52.21 51.61 51.51 51.13 50.35 49.29 47.29 46.20 45.86 44.30
49.59 48.45 47.46 47.23 46.33 39.96 43.92 43.33 43.93 47.60 49.68 51.68 53.91 54.73 55.93 56.34 55.70 55.34 55.79 55.57 55.59 56.40 56.49 56.53 55.97 55.40 55.83 55.62 55.18 54.31 53.07 51.92 51.53 51.05 50.23 49.46 49.49 49.70 50.36 50.96 51.51 51.31 50.52 49.26 47.80 46.50 46.23 45.16 43.74
49.08 46.67 40.41 38.09 38.73 37.67 43.41 42.03 44.64 48.89 51.04 53.53 53.29 53.76 55.02 55.08 54.17 53.80 53.38 53.83 54.03 54.80 55.20 55.12 54.37 53.39 53.68 53.07 52.13 51.66 51.31 50.73 48.60 47.64 46.81 46.23 46.07 46.49 47.18 48.39 49.18 49.66 49.65 48.07 46.55 45.28 45.63 43.46 42.16
47.07 46.47 40.68 31.86 34.64 38.72 42.86 39.46 45.77 49.47 51.74 54.92 55.47 54.57 54.59 54.25 54.26 54.14 54.39 54.42 54.35 54.06 54.04 54.05 53.33 52.07 51.57 51.04 50.68 49.74 47.70 46.45 47.06 46.53 46.31 45.96 45.60 45.81 47.35 47.97 48.93 49.46 48.15 45.52 44.82 46.08 44.89 43.71 42.50
45.23 43.29 46.80 40.56 38.83 38.61 41.50 44.71 48.50 48.87 49.82 52.42 53.77 53.54 53.33 54.17 54.06 54.25 54.04 54.01 53.83 53.51 53.71 53.09 51.46 49.80 49.06 47.59 46.70 46.74 46.31 46.91 46.31 46.47 46.62 45.77 45.85 45.18 46.42 48.15 48.25 47.86 47.11 46.25 45.12 45.11 43.81 43.54 42.75
47.47 48.20 41.80 43.12 33.21 31.66 38.98 39.98 42.23 45.94 47.66 50.52 52.21 52.39 53.30 54.15 54.20 54.06 53.18 52.70 53.31 53.45 52.53 51.35 49.73 47.67 46.01 45.70 46.36 47.19 46.69 46.54 46.43 46.36 45.28 45.00 45.26 45.32 45.56 46.32 46.87 46.24 46.79 46.34 44.57 44.23 43.50 42.33 41.97
44.96 44.26 42.99 43.85 41.01 34.78 33.32 39.38 47.54 47.32 49.63 50.03 52.12 52.96 53.74 54.14 53.97 53.39 52.65 52.73 52.72 52.43 50.40 48.66 47.91 45.31 43.82 46.67 46.91 46.41 46.37 46.59 46.04 45.45 44.88 44.50 44.82 44.60 44.18 44.59 45.34 45.19 44.52 43.64 43.97 43.43 42.92 41.42 40.29
47.38 45.70 44.81 39.20 36.36 39.05 38.40 39.26 47.42 49.10 50.01 51.68 52.29 53.11 54.55 54.68 54.39 53.38 51.85 51.48 51.36 50.35 48.52 47.51 46.82 44.58 47.16 46.24 45.56 45.14 46.31 46.11 44.91 44.71 44.30 44.58 43.90 44.35 44.01 43.84 43.54 43.44 43.23 43.48 42.44 42.38 41.52 39.61 38.99

GFSSGP_sfc_wetblb_021.txt.gz
Wetbulb
63.66 62.96 60.20 55.63 50.69 51.55 48.70 50.78 54.44 57.43 57.69 61.90 63.22 61.45 59.10 61.36 60.33 56.26 69.08 70.66 70.91 70.41 70.33 70.70 70.90 71.17 71.43 71.57 71.76 71.78 71.25 69.99 69.45 69.18 68.33 68.06 68.11 67.74 67.62 67.89 67.78 66.28 65.14 64.77 63.97 63.90 64.69 64.81 64.56
62.94 57.04 55.04 54.69 48.63 46.61 48.30 52.77 53.18 58.75 60.27 62.28 61.83 61.23 59.76 59.05 65.74 66.44 67.85 70.72 71.10 70.61 69.07 69.34 70.58 70.99 71.39 71.64 71.89 71.52 70.82 69.69 69.06 68.50 67.69 67.69 67.40 66.98 66.61 66.39 67.03 65.74 64.82 64.45 63.74 64.51 64.22 63.78 63.81
58.33 55.95 52.97 50.38 49.41 46.86 48.09 54.03 58.55 58.45 61.75 60.99 58.77 61.50 59.59 58.91 66.14 67.17 70.36 70.91 71.18 70.43 69.84 69.60 70.17 70.66 71.20 71.03 71.29 71.06 70.94 70.25 69.55 68.77 67.29 67.08 66.53 66.04 65.46 65.47 66.55 65.64 65.33 64.58 64.49 64.42 64.08 63.90 63.45
54.69 53.59 53.98 48.73 47.79 50.38 50.62 57.44 58.14 58.42 60.01 60.19 60.23 56.49 59.93 63.22 64.50 68.56 71.07 71.30 70.75 69.52 69.56 68.91 69.63 70.28 70.75 70.49 71.21 71.18 70.40 69.80 69.52 68.81 67.13 66.26 65.52 65.09 65.14 65.47 65.94 65.52 65.15 64.76 64.60 64.36 64.41 64.47 64.45
55.20 53.63 48.26 47.97 48.85 50.49 55.31 58.14 58.76 56.04 58.27 57.52 59.52 55.78 56.34 61.87 65.77 68.97 70.91 70.26 68.36 68.52 68.97 69.20 68.49 69.34 70.06 70.70 70.74 70.67 69.96 69.75 69.31 68.58 67.48 66.07 64.66 64.53 64.95 65.36 65.53 65.23 64.74 64.64 64.51 64.55 64.43 64.49 64.33
50.48 52.61 47.07 46.44 48.77 51.30 52.59 58.75 59.22 57.17 57.78 57.49 57.70 58.07 59.87 65.74 66.27 68.17 69.88 67.16 66.47 67.59 69.00 69.01 68.99 68.68 69.10 69.72 70.23 69.55 69.35 69.23 68.78 68.15 67.04 65.01 64.81 64.62 64.81 64.91 64.86 64.67 64.57 64.52 64.33 64.66 64.65 64.73 64.38
49.94 49.30 47.05 48.46 50.34 51.65 52.56 59.72 56.44 56.98 55.98 56.63 59.90 57.09 62.97 65.03 68.02 69.74 67.06 66.03 64.56 64.98 68.95 69.07 68.74 68.79 68.38 68.62 68.52 68.12 68.15 68.38 68.10 67.74 67.03 65.58 65.48 65.41 64.79 64.57 64.48 64.36 64.69 64.76 65.02 64.83 64.87 65.05 64.41
52.01 51.04 47.43 48.67 49.56 51.50 56.54 58.82 59.94 57.77 52.64 61.79 62.26 56.38 58.84 66.01 69.33 68.40 65.87 67.54 64.52 64.72 68.69 69.64 70.03 69.93 70.11 69.81 67.52 67.49 67.28 67.27 67.34 66.38 65.86 65.20 65.35 64.56 64.57 65.16 65.08 65.03 64.91 65.28 65.38 65.04 64.90 64.92 64.90
54.58 48.14 45.74 48.45 50.89 52.75 58.09 56.23 58.56 59.17 56.13 60.05 62.04 62.45 64.94 68.45 69.17 68.01 66.85 67.99 67.59 68.33 69.19 69.72 69.31 69.32 69.63 69.48 68.00 67.11 67.24 66.85 66.57 65.34 64.91 63.63 65.92 66.04 65.12 64.22 64.02 64.05 63.89 63.91 63.12 63.51 64.17 64.30 64.77
50.16 47.07 48.03 54.09 55.24 52.14 56.09 55.55 55.70 55.65 53.96 57.78 61.72 65.35 67.14 67.39 66.99 65.90 66.51 65.58 66.64 67.01 67.53 68.58 69.10 68.81 68.84 67.06 67.80 66.51 65.17 65.06 66.55 66.32 65.83 66.87 66.95 67.13 65.71 64.42 63.48 63.04 61.99 62.79 62.20 62.84 63.90 63.74 62.54
50.42 48.59 51.21 53.16 56.54 57.91 55.22 54.61 56.74 55.45 53.57 58.51 59.95 63.19 65.88 65.83 65.81 64.95 65.13 66.12 65.98 66.31 67.17 67.71 68.42 69.34 67.47 66.68 65.99 64.76 65.24 66.69 67.56 67.96 67.53 67.93 67.12 67.33 66.31 65.96 65.17 66.06 62.50 64.65 63.95 64.03 63.04 62.92 62.17
49.13 51.42 51.11 53.71 56.05 54.80 53.18 55.75 54.50 50.51 51.64 59.71 62.97 64.97 65.52 64.95 65.46 65.95 65.42 64.50 65.24 66.40 67.56 67.26 67.65 68.86 67.59 66.00 65.04 65.35 65.96 67.10 66.85 67.30 67.98 67.72 67.02 66.79 65.62 64.56 64.84 65.07 64.71 63.88 63.61 62.95 63.04 62.11 61.17
49.59 50.51 51.81 54.92 55.42 53.83 54.98 53.83 53.83 54.79 57.69 61.84 64.15 65.30 64.24 64.62 64.28 64.55 64.39 64.71 64.91 64.77 66.34 66.92 67.57 67.18 66.57 65.88 66.43 67.01 66.89 67.91 68.29 67.71 68.17 67.97 67.06 66.34 65.79 65.54 65.00 64.45 63.81 63.26 62.66 62.00 60.74 60.69 59.82
51.89 51.24 50.38 52.62 53.98 55.76 52.93 52.53 54.82 56.83 60.09 61.38 62.80 62.59 62.13 62.08 62.63 62.83 62.86 62.91 63.54 64.54 65.87 66.43 66.15 66.25 65.83 66.66 67.55 67.22 66.61 66.22 66.37 66.59 66.04 65.44 65.55 63.95 62.27 63.19 63.82 62.54 62.60 62.02 60.95 59.83 58.89 58.95 59.03
51.03 47.44 48.83 50.54 52.93 53.21 53.87 49.26 50.71 57.32 59.68 59.40 60.19 60.85 61.65 61.71 61.92 61.34 61.82 62.16 63.53 64.55 66.06 65.91 66.37 66.50 67.33 66.85 64.42 62.53 61.81 62.21 64.02 65.05 64.82 63.79 63.39 63.64 64.15 62.76 61.54 61.37 60.92 60.51 59.89 59.35 58.43 57.39 57.02
47.97 48.43 44.80 48.88 52.34 53.02 52.91 45.78 51.90 57.07 57.88 57.61 58.67 59.92 60.63 61.76 61.64 61.51 61.90 61.94 63.39 65.07 66.16 66.68 66.06 66.96 66.11 63.97 62.46 61.31 61.19 62.11 63.14 63.17 63.21 62.35 62.21 61.35 61.43 60.81 60.40 59.98 59.64 58.28 57.83 56.97 55.88 55.38 55.23
46.60 42.29 44.76 46.48 51.87 51.67 51.08 47.20 52.16 56.76 56.64 56.86 58.48 59.98 60.62 60.77 61.77 62.52 62.60 62.57 63.15 65.71 67.01 66.75 66.70 65.81 64.63 64.10 61.37 60.38 62.26 61.67 61.77 61.86 61.37 60.94 60.52 60.43 60.69 59.61 58.96 58.68 57.57 57.11 56.31 55.82 55.42 54.39 54.22
42.65 43.27 45.10 45.38 49.69 50.72 47.38 48.16 51.02 55.31 55.76 56.98 58.20 59.44 60.11 59.92 60.66 62.97 63.65 63.61 64.07 65.92 67.46 67.06 66.16 65.09 64.50 63.45 62.91 63.21 63.12 62.90 62.21 61.43 60.46 59.85 59.08 58.81 59.26 58.50 57.75 57.16 56.37 56.09 55.93 55.06 55.06 54.06 52.97
46.84 45.52 44.06 46.87 49.24 47.79 46.66 48.29 50.56 54.18 55.37 56.03 56.98 58.45 59.69 60.37 62.47 63.44 64.17 64.74 65.14 66.65 67.02 65.01 64.13 64.31 62.99 63.84 63.24 62.68 60.25 60.63 60.50 59.55 58.87 58.41 57.77 57.05 57.04 56.98 56.80 56.71 55.57 55.14 54.93 53.98 52.75 50.32 51.46
45.94 44.59 45.20 47.19 49.03 49.25 47.55 47.89 50.86 52.97 54.31 56.05 56.59 57.36 58.53 60.05 61.07 62.45 63.74 64.52 65.04 65.53 66.06 64.61 64.44 64.18 64.68 64.50 63.39 62.23 62.08 60.52 59.13 58.66 57.74 57.22 56.77 56.45 56.09 55.93 55.49 55.30 53.89 53.42 52.55 51.96 49.82 49.35 50.35
46.20 44.77 45.60 45.67 48.77 50.00 48.92 47.30 50.30 52.95 54.82 56.33 57.78 58.65 59.18 59.61 60.20 61.43 62.82 64.07 65.04 64.15 63.95 63.84 64.08 64.52 63.96 63.53 62.32 61.41 60.31 58.70 57.55 57.48 57.03 56.14 56.26 56.08 55.63 55.11 54.46 53.57 52.25 50.40 50.98 50.69 49.62 46.65 47.66
44.69 49.07 47.98 46.99 46.47 42.24 49.10 40.34 47.71 51.34 51.71 53.41 55.61 57.63 58.95 59.73 61.20 62.12 62.73 63.48 64.00 64.35 65.31 64.65 63.71 62.74 62.16 61.22 59.58 58.84 58.72 57.21 56.71 56.59 56.22 56.42 56.08 55.14 54.65 53.60 53.05 52.34 51.52 50.81 50.32 49.95 48.77 47.25 44.44
46.87 50.19 49.32 48.34 46.90 46.05 46.27 43.17 42.53 51.32 49.91 51.88 54.34 55.91 57.83 59.58 61.06 61.63 62.23 62.53 62.94 62.41 62.11 62.11 61.14 59.01 59.04 59.48 59.45 58.19 56.90 56.31 56.13 55.65 53.46 53.48 52.86 51.77 51.10 50.85 51.22 51.82 51.23 50.95 50.32 49.37 48.21 47.01 45.73
50.94 49.36 48.76 48.85 46.31 40.64 44.11 43.33 44.22 48.45 50.63 52.74 54.94 56.60 58.45 60.11 60.52 59.64 60.30 60.22 59.63 60.19 59.60 58.82 57.89 57.53 58.22 57.89 57.49 56.45 54.43 53.06 52.08 50.67 49.16 48.66 48.39 48.58 48.90 48.61 48.95 49.45 50.14 49.95 49.65 49.11 47.53 46.67 45.72
49.63 47.12 40.33 38.82 39.08 38.36 45.80 43.81 45.31 48.72 52.69 53.88 54.92 56.60 58.81 59.18 57.79 57.02 56.94 56.88 57.18 57.30 57.64 57.69 57.15 55.99 56.42 55.19 53.87 53.41 52.15 50.07 48.72 47.85 47.08 46.62 46.65 46.69 47.20 47.97 48.11 48.16 48.98 49.50 48.86 47.56 46.45 46.35 44.06
47.91 46.75 41.20 33.26 35.59 39.33 45.87 40.43 44.91 52.27 52.61 54.46 57.05 57.46 58.09 57.47 56.34 55.91 55.88 56.27 56.47 56.79 56.73 56.48 55.90 54.69 53.86 53.03 51.49 49.96 48.58 47.29 47.54 47.72 47.33 46.62 46.01 46.18 47.10 47.07 47.87 48.47 48.71 48.26 47.30 46.20 46.24 45.57 44.19
46.95 44.29 48.82 43.19 43.22 39.39 41.54 44.62 49.91 51.48 51.53 53.58 55.80 56.28 56.48 56.12 55.44 55.44 56.21 56.55 56.56 56.42 56.08 56.31 55.40 53.37 51.74 50.70 50.42 48.09 47.20 47.90 48.39 47.66 47.89 46.44 46.49 45.78 46.15 46.63 46.52 47.47 47.58 47.57 46.91 46.24 45.75 44.70 43.90
48.95 50.22 42.61 43.22 34.01 33.07 39.79 41.39 43.91 47.84 48.86 52.15 54.28 55.02 55.78 55.91 55.54 55.91 56.18 56.36 56.57 56.34 56.43 55.99 54.00 51.17 50.59 49.61 48.40 46.59 48.14 48.40 48.74 48.54 46.65 45.84 46.00 45.88 45.52 45.30 45.37 45.67 46.24 46.71 46.84 45.52 45.09 43.82 43.71
47.02 45.24 45.62 45.52 44.16 36.71 34.88 40.54 48.14 46.83 49.84 51.18 53.66 55.56 55.77 55.81 55.94 55.97 56.00 56.01 55.94 56.14 54.98 53.30 51.25 50.75 49.93 47.99 46.91 48.28 47.63 47.67 47.91 47.28 46.67 45.70 45.55 45.32 44.60 44.57 44.42 44.31 44.36 44.58 44.18 43.80 43.70 42.80 42.44
49.87 47.73 47.38 40.92 39.03 41.45 40.46 40.20 49.12 49.94 51.18 52.50 53.32 55.35 56.44 56.87 56.73 56.62 55.98 55.37 55.14 54.44 53.27 51.31 50.86 50.77 48.58 48.44 46.79 47.56 47.72 47.81 47.00 46.85 46.34 45.91 44.89 44.98 44.22 43.95 43.79 43.89 43.85 43.46 43.24 42.54 42.59 41.65 40.57

GFSSGP_sfc_wetblb_027.txt.gz
Wetbulb
57.97 56.75 53.96 51.75 39.92 37.65 35.59 41.07 48.50 52.18 54.24 57.56 60.50 60.21 58.43 59.57 58.03 52.39 67.24 66.82 67.98 69.09 70.30 70.46 70.52 71.02 71.51 71.57 71.24 70.88 70.29 69.76 69.51 69.33 69.23 68.83 68.35 68.11 67.77 67.52 67.05 67.19 66.03 65.26 64.81 64.23 64.05 63.97 64.09
55.61 56.67 52.93 47.26 35.51 30.92 36.34 46.94 51.45 55.03 57.42 59.30 59.46 58.96 58.99 58.82 63.72 64.10 63.90 66.64 67.73 68.53 69.34 69.65 70.49 70.84 71.23 71.00 70.63 70.14 69.66 69.18 69.43 69.24 68.66 68.08 67.55 67.18 67.77 67.89 67.06 67.16 66.09 65.86 65.71 65.58 65.05 64.95 65.07
56.63 57.97 45.40 38.01 34.48 33.35 37.66 48.50 53.65 56.43 58.72 57.58 56.69 58.40 58.08 60.17 64.68 65.61 66.56 66.67 67.16 67.16 68.68 69.79 70.06 70.04 70.45 70.42 70.15 69.77 69.22 69.10 68.53 68.27 67.83 67.37 66.95 66.81 66.92 67.43 67.23 67.19 66.06 65.94 65.90 65.51 64.97 64.99 65.68
52.54 47.84 43.19 36.80 36.51 41.51 42.58 50.63 55.23 55.29 56.97 57.82 56.20 53.66 57.69 63.94 65.72 66.85 67.69 67.04 66.12 67.39 68.50 68.38 68.53 68.75 69.71 70.54 70.02 69.37 68.68 67.99 67.65 67.45 67.45 67.06 66.77 66.72 66.80 67.24 67.21 66.24 65.82 65.72 65.45 65.23 65.00 65.70 65.42
51.03 43.93 36.05 35.00 39.18 44.52 50.25 54.81 54.85 52.83 55.22 56.00 56.65 53.95 55.09 64.26 67.56 67.02 67.23 67.71 66.79 67.30 67.33 67.37 67.45 68.40 70.13 70.24 69.77 69.15 68.33 67.75 67.42 67.07 67.20 67.45 66.53 66.37 66.59 67.04 66.68 65.96 65.40 65.43 65.36 65.26 65.75 65.56 65.38
44.99 42.14 34.57 34.67 39.93 48.37 53.75 53.97 54.14 53.54 55.17 55.70 54.98 55.32 55.77 65.67 65.44 66.22 67.09 66.51 66.20 65.80 66.56 66.93 68.62 68.42 69.01 69.21 68.88 68.25 67.78 67.30 66.53 66.71 66.86 67.04 66.83 66.82 66.80 66.91 66.79 66.44 66.09 66.02 65.68 65.81 65.52 65.61 65.46
44.23 40.17 37.54 39.09 41.03 49.29 52.87 55.16 53.49 53.11 53.90 54.34 57.71 54.97 58.26 62.78 63.88 65.36 64.75 64.95 66.06 66.22 65.77 66.20 67.43 68.70 67.81 67.25 67.04 66.95 67.12 66.77 66.29 66.31 66.02 66.14 65.89 65.89 66.27 66.51 66.64 66.35 66.20 65.92 65.67 65.43 64.91 64.90 64.44
45.09 41.08 37.76 40.35 41.02 47.73 52.33 53.62 54.20 53.34 52.37 58.24 58.56 53.64 55.81 61.21 62.54 63.54 64.27 64.40 64.07 63.68 65.20 65.33 66.07 67.09 66.22 65.56 66.15 66.22 66.37 65.78 65.35 65.52 65.37 65.05 65.07 65.49 65.73 65.57 65.59 65.25 65.07 64.98 65.02 64.08 64.20 64.34 64.00
46.18 37.45 36.65 39.90 46.38 48.25 52.28 50.90 55.67 56.21 53.56 55.56 58.62 60.45 62.27 61.86 61.21 61.27 61.47 61.98 60.19 61.92 64.20 64.62 65.27 65.46 65.37 64.82 65.68 65.91 66.39 65.36 64.61 64.64 64.59 63.32 61.95 62.43 63.99 64.09 64.34 64.18 63.77 63.82 63.89 63.49 63.25 63.47 62.93
43.64 37.13 40.02 50.09 51.08 49.43 51.74 51.74 52.72 52.73 53.00 54.35 55.62 61.62 62.22 60.54 58.79 57.97 58.61 58.98 59.35 59.81 63.54 64.84 64.98 65.53 64.86 64.56 63.38 63.17 64.36 62.55 60.88 60.90 61.66 60.94 61.44 61.38 63.16 63.12 63.78 63.60 63.33 63.53 63.19 63.35 63.38 63.03 56.49
43.59 40.99 45.02 51.83 52.79 52.48 50.79 52.68 54.67 52.24 49.74 53.05 53.33 56.31 59.66 60.27 59.56 58.39 57.84 58.03 58.47 60.27 62.86 64.23 64.69 65.98 63.90 62.65 62.08 61.53 61.27 61.17 60.63 59.78 59.95 61.59 62.71 60.06 60.14 59.98 59.50 59.36 62.09 60.71 61.87 59.89 58.70 56.74 55.26
41.39 46.69 47.52 53.10 52.98 52.78 50.99 53.60 50.76 49.53 52.21 54.60 55.16 57.15 58.97 60.37 57.66 58.62 58.73 58.94 59.22 60.05 62.87 64.03 65.33 64.83 62.88 63.50 62.01 60.33 61.00 62.93 62.73 63.17 64.63 63.13 62.58 61.75 60.78 60.16 59.46 59.44 59.24 57.54 56.96 55.38 55.47 54.82 55.63
44.60 46.45 49.31 54.54 54.25 52.84 54.29 52.37 52.19 50.63 53.72 57.75 59.34 59.24 59.45 60.59 59.36 59.95 60.78 60.57 60.80 63.06 63.98 63.52 64.41 61.91 61.51 61.97 64.22 63.92 64.04 64.66 64.97 64.67 63.71 63.21 61.67 59.24 58.84 59.08 58.65 58.25 57.11 56.35 55.64 54.77 54.10 53.12 52.97
47.67 46.82 47.81 51.37 53.24 53.94 51.98 52.23 51.21 52.33 54.61 55.51 58.06 58.65 59.71 60.69 60.42 60.90 60.99 61.19 62.84 63.61 63.27 63.83 63.06 61.27 63.91 63.81 62.73 61.29 61.82 62.95 63.59 62.96 62.68 62.15 60.87 59.04 59.20 58.81 58.21 56.11 55.28 54.37 53.77 52.07 51.56 50.34 50.75
49.09 44.39 44.88 48.05 50.83 50.86 52.07 46.18 46.07 53.36 55.34 54.56 55.20 58.06 57.51 59.36 59.53 60.91 62.06 62.26 62.88 63.05 63.37 62.63 61.14 62.58 62.47 60.75 59.79 59.29 59.61 62.63 61.64 62.09 61.65 61.12 60.24 59.33 57.67 57.10 55.18 54.21 54.14 52.84 51.83 51.59 50.95 50.34 51.41
44.54 43.46 39.85 45.57 50.58 50.99 48.85 39.63 49.56 51.83 53.31 51.93 53.81 55.09 55.85 56.50 56.76 60.31 60.79 62.66 62.79 62.53 61.97 62.02 62.94 62.76 60.01 58.98 59.32 58.96 59.52 59.94 60.09 59.88 59.73 60.04 59.86 58.29 56.75 55.22 53.01 52.78 52.86 51.78 50.71 50.45 49.64 49.25 48.73
41.64 37.11 40.64 43.43 49.16 48.68 46.25 41.96 50.29 52.41 53.62 52.53 53.07 53.27 53.98 54.10 55.78 57.44 59.00 61.47 61.76 62.02 61.83 60.43 62.67 60.26 59.93 59.66 59.06 58.32 59.06 59.06 58.70 57.93 57.64 58.12 57.80 57.17 54.38 53.14 51.76 51.70 51.56 51.19 50.66 49.44 49.02 47.64 46.93
39.32 40.08 39.50 40.11 45.45 47.83 43.74 42.89 46.57 51.35 52.65 52.57 51.26 51.94 53.19 53.18 53.80 56.44 56.76 60.15 61.58 61.70 61.62 62.81 61.60 60.36 59.90 59.14 58.76 58.60 58.50 58.12 57.72 56.47 55.93 54.67 54.04 53.44 53.11 51.77 50.92 51.13 50.34 49.17 48.28 47.36 46.76 46.96 44.24
44.93 42.07 40.16 42.20 45.34 46.22 44.30 43.55 45.30 47.37 50.66 50.12 51.85 53.68 54.11 53.71 56.20 56.81 56.54 58.05 61.47 61.50 62.00 61.95 60.60 60.55 59.97 58.46 57.62 57.40 57.20 56.51 54.15 53.46 53.63 53.12 52.58 52.49 51.06 50.37 50.45 49.42 48.33 46.92 46.71 45.48 44.19 43.44 43.65
45.43 43.34 42.14 43.30 45.71 43.76 43.14 41.91 45.09 47.21 48.53 51.96 49.99 51.55 53.21 54.18 55.80 57.80 58.10 58.40 61.89 61.51 61.57 61.54 61.36 61.11 60.28 59.25 59.69 58.70 56.50 54.50 52.40 52.45 51.65 51.97 51.45 51.39 51.57 49.92 48.95 47.71 46.51 45.46 44.83 43.71 42.57 43.05 41.69
44.81 42.11 41.67 41.61 41.58 40.83 42.23 39.36 43.46 46.82 49.65 52.26 52.90 54.27 55.45 55.00 56.02 57.29 58.17 58.08 61.36 61.37 60.91 61.44 60.92 61.19 61.06 60.31 60.86 55.74 53.61 51.36 50.55 50.04 49.76 50.71 51.77 51.38 50.42 49.37 47.76 46.45 45.76 44.39 43.77 43.26 42.24 39.78 40.16
41.27 47.15 45.58 44.78 41.71 34.42 42.69 32.41 42.57 45.88 47.54 49.48 50.64 51.30 54.67 55.01 57.73 58.14 58.30 57.83 60.87 61.15 61.45 61.21 61.79 60.90 61.32 61.13 54.93 53.45 51.70 50.18 49.83 50.06 50.01 50.05 51.02 48.15 46.29 45.69 44.33 43.43 44.28 43.94 44.13 45.25 42.44 40.63 38.16
43.48 46.92 45.28 45.83 42.36 40.67 40.68 35.95 38.98 46.26 44.47 47.69 47.49 50.44 50.83 55.73 57.26 57.53 58.23 59.85 61.01 62.02 61.36 61.26 60.33 60.82 60.17 58.48 56.19 52.02 50.13 49.56 49.14 48.08 45.54 43.48 44.17 45.53 45.19 44.33 42.41 41.85 42.43 41.84 42.37 42.87 42.63 40.56 38.84
48.61 46.44 45.78 44.36 40.68 31.65 39.80 38.01 38.10 41.17 45.35 46.86 49.87 51.96 52.74 52.57 55.48 57.36 59.09 59.91 60.17 60.84 59.58 58.44 55.64 54.35 53.22 52.30 51.73 50.54 49.21 45.08 43.34 41.93 41.48 43.43 44.79 42.61 44.55 43.38 42.40 42.48 42.04 41.99 42.26 42.19 40.83 40.37 39.83
46.24 40.83 32.55 30.53 29.23 29.82 42.80 38.60 40.21 45.80 47.34 49.70 50.21 50.73 49.91 54.12 55.56 57.06 58.01 57.84 57.34 55.01 55.52 54.16 52.09 51.70 50.44 48.84 46.72 45.69 44.44 42.87 42.13 41.88 41.73 43.39 41.36 40.43 40.21 40.93 41.14 40.52 41.38 42.37 42.47 41.05 40.66 40.07 38.94
42.80 41.55 33.77 27.28 29.18 31.93 43.01 36.56 40.52 47.90 50.58 51.44 51.76 50.34 51.49 53.71 55.41 55.59 54.65 54.08 53.42 52.52 51.41 51.04 51.47 50.07 49.03 47.94 44.74 43.94 43.73 42.88 42.71 42.47 42.27 42.59 41.78 40.71 40.54 41.34 40.43 40.50 40.94 40.54 41.10 41.21 40.32 40.04 39.29
43.53 37.89 45.69 37.12 37.30 32.99 36.06 40.53 46.10 47.84 47.81 48.67 48.79 49.72 52.20 53.01 52.56 53.57 53.49 52.91 52.19 51.41 51.28 50.22 50.31 49.13 47.98 44.82 43.89 43.51 43.09 43.23 43.55 42.70 43.04 42.50 41.72 41.87 40.87 41.01 39.67 40.00 39.76 39.70 39.38 39.31 40.76 40.25 39.58
44.38 45.92 37.20 36.87 28.07 26.47 32.71 34.94 38.07 43.28 45.23 48.04 47.50 50.82 52.17 52.56 51.45 52.32 52.43 52.12 52.39 51.65 51.68 50.47 49.64 48.28 45.42 44.69 43.91 43.89 43.08 43.84 43.27 43.21 43.39 41.22 40.75 41.01 40.62 39.74 39.27 39.21 39.41 39.54 38.68 38.47 38.20 37.51 37.30
42.06 40.30 40.62 39.87 34.87 28.17 25.75 32.24 41.68 43.18 45.58 46.44 49.48 52.57 53.05 52.66 51.45 51.45 51.36 52.10 52.46 52.03 51.11 50.71 48.15 45.48 44.53 44.50 44.08 43.05 42.75 44.05 44.74 43.74 42.87 42.20 42.10 40.59 39.92 39.75 39.33 38.98 38.88 38.68 37.81 37.30 37.65 37.70 36.93
45.29 43.10 42.53 30.53 32.07 31.76 29.08 31.86 43.90 43.79 45.74 46.96 47.28 52.13 53.21 53.28 51.88 51.11 51.21 51.52 51.67 51.62 51.17 50.23 45.64 45.21 45.27 44.50 43.89 43.39 43.82 45.59 44.90 44.73 43.57 42.26 40.45 40.09 39.75 39.72 39.97 39.83 39.31 38.44 37.81 37.12 36.66 35.77 35.50

GFSSGP_sfc_wetblb_033.txt.gz
Wetbulb
56.32 53.61 50.14 48.89 38.60 34.24 30.95 36.66 39.74 42.89 51.19 56.94 59.34 57.89 57.20 58.51 55.93 49.66 65.58 66.36 69.39 69.61 70.25 69.96 70.40 70.76 70.92 70.37 70.31 69.95 69.24 68.06 67.47 67.62 67.91 68.06 67.86 68.23 67.69 67.33 67.44 67.64 66.87 66.19 65.82 65.77 65.66 65.95 66.94
53.39 52.68 48.93 40.83 32.91 28.52 32.28 37.99 41.03 44.19 55.37 58.32 57.90 58.98 58.33 57.82 62.54 62.98 64.09 68.04 69.54 69.42 69.33 68.98 70.23 70.53 70.29 69.81 69.63 69.12 68.42 67.47 67.82 67.38 67.01 67.57 67.03 67.55 67.86 67.89 67.57 67.55 67.40 66.08 65.95 65.68 65.42 65.26 66.53
52.78 53.76 46.59 36.78 29.09 30.29 31.95 39.06 50.03 52.75 55.51 54.90 53.59 56.49 58.40 59.42 62.89 63.53 67.28 68.81 69.70 69.16 68.88 69.56 69.72 69.79 69.80 69.49 68.98 68.67 68.45 68.02 67.86 67.91 67.42 67.32 66.98 66.86 67.06 67.67 67.45 67.48 66.41 66.00 65.79 65.46 64.81 65.57 65.72
49.36 46.04 41.21 34.04 31.81 35.14 37.52 41.04 46.10 52.61 54.25 56.35 54.91 51.63 60.82 64.51 63.39 65.38 68.21 68.81 68.32 68.27 68.84 68.86 68.98 69.12 69.46 69.40 69.27 68.71 67.97 67.69 67.79 68.07 68.13 67.79 67.15 66.66 67.19 67.42 67.40 67.22 65.92 65.81 65.65 65.41 66.05 65.18 64.90
46.85 40.62 35.10 31.11 34.31 38.89 49.06 51.09 52.57 51.89 53.83 55.17 55.26 55.04 58.56 63.17 65.15 66.25 66.58 67.47 66.65 66.90 68.05 68.38 68.23 68.86 69.10 69.43 68.82 68.31 67.73 67.80 67.82 67.94 67.76 67.79 67.60 66.95 67.62 67.15 67.07 66.89 65.71 65.45 65.26 66.00 66.13 65.14 64.23
41.88 38.90 33.55 31.57 36.54 44.52 50.53 51.25 52.84 53.09 54.00 54.66 54.04 55.36 58.31 64.50 63.68 65.25 66.58 65.53 66.11 66.00 66.79 67.49 68.15 67.79 68.20 68.29 68.01 67.24 67.15 67.59 67.52 67.52 67.58 67.79 67.29 67.17 66.93 66.83 66.69 66.42 66.17 65.94 65.57 65.20 65.41 65.26 64.31
40.36 37.66 34.94 35.65 36.61 39.29 50.21 52.38 51.88 51.65 52.09 53.67 56.43 54.23 58.77 62.27 64.27 65.30 64.54 63.33 62.83 63.70 65.42 66.07 65.95 66.74 67.09 66.60 66.47 66.35 66.64 67.08 67.05 67.04 66.90 66.77 66.32 66.20 66.46 66.34 66.19 66.04 65.79 65.25 64.82 64.33 64.44 65.04 63.94
42.98 39.62 35.66 36.19 35.47 37.26 50.91 52.77 53.10 51.83 50.83 57.16 58.48 54.54 55.12 60.74 62.90 63.80 62.73 62.05 61.00 61.30 62.68 63.80 64.09 65.47 64.92 64.54 65.35 65.41 65.57 66.22 66.28 66.24 65.80 65.25 65.40 65.69 65.72 65.44 65.52 65.36 64.70 64.42 64.08 63.84 64.27 64.69 63.50
42.58 37.26 34.88 37.00 38.15 45.58 50.90 50.99 53.16 55.49 55.63 57.43 59.20 58.19 60.14 62.50 62.71 61.89 61.73 60.51 59.21 59.37 60.15 61.33 63.57 63.94 64.09 64.10 64.70 64.91 65.46 65.56 65.39 65.16 64.67 62.94 61.26 61.23 61.93 63.48 64.09 63.55 63.13 63.23 63.60 63.75 62.58 60.33 62.88
40.75 35.95 39.06 42.05 44.88 46.80 50.50 48.74 52.06 52.98 53.84 54.86 55.93 59.62 61.06 61.35 60.44 59.62 58.08 58.65 57.22 56.76 58.25 59.49 60.94 64.09 63.60 64.11 63.43 61.88 62.09 61.16 61.44 61.15 60.76 59.50 59.86 60.93 61.60 62.87 62.92 62.65 62.23 62.87 62.88 61.97 60.27 57.32 53.39
40.15 39.18 41.71 43.69 49.71 49.94 49.33 48.79 52.99 52.33 50.11 53.70 53.72 55.69 58.61 59.34 59.26 58.73 58.77 59.39 58.78 58.57 59.72 58.38 59.87 63.41 62.28 61.82 61.29 60.62 59.31 59.21 59.61 59.90 59.21 59.79 60.07 60.30 58.96 57.84 57.73 58.13 59.34 55.65 55.51 54.20 53.45 52.79 51.27
39.05 43.02 43.48 44.95 51.38 50.36 49.44 50.70 48.86 48.86 51.61 56.85 56.36 57.71 57.89 57.80 57.84 57.92 58.58 59.19 59.77 59.97 60.47 60.44 62.81 63.33 61.62 60.62 60.11 59.34 57.82 58.09 58.21 58.66 59.62 59.95 58.72 58.88 57.96 57.49 57.89 55.56 54.61 53.45 52.51 51.48 50.78 50.34 50.67
41.39 43.72 44.78 48.05 51.42 50.55 52.39 49.06 50.11 50.20 54.67 57.26 57.54 57.31 56.99 57.68 58.03 58.60 59.04 58.44 59.32 59.74 60.04 61.26 63.34 63.26 61.50 59.49 58.60 58.54 59.75 60.32 62.41 62.39 61.50 59.92 57.53 57.10 56.64 55.74 55.09 54.00 53.36 52.04 50.82 49.76 49.58 49.32 49.43
46.67 45.39 49.60 50.03 50.88 51.88 49.74 49.66 51.39 50.83 56.74 56.62 56.31 55.60 55.89 55.68 57.00 56.27 56.86 56.85 58.26 59.81 61.12 62.03 62.79 63.46 60.77 59.74 59.91 61.33 62.42 62.42 61.58 61.06 59.97 58.02 57.47 57.16 55.91 54.30 53.07 52.09 51.45 50.43 49.67 48.86 48.64 48.09 48.18
47.45 42.93 48.48 48.95 49.23 49.34 50.50 45.60 47.99 52.57 56.71 55.66 55.13 55.84 56.07 55.93 56.46 56.10 56.77 56.73 58.14 59.56 61.02 61.89 61.69 60.06 60.32 60.22 60.50 60.90 61.27 61.14 60.20 60.02 59.47 58.28 58.15 56.87 54.64 53.00 51.96 51.62 50.10 49.87 49.29 48.75 48.24 47.68 47.34
42.72 41.04 38.54 46.83 48.71 49.41 47.10 40.59 46.57 52.96 54.05 54.27 55.78 56.40 56.64 56.17 56.29 57.23 57.22 57.34 58.64 60.07 61.64 62.16 62.31 60.84 59.76 58.96 58.89 59.44 59.70 59.45 59.56 59.15 58.85 58.45 57.15 55.92 53.22 51.27 50.58 50.76 50.00 48.84 48.09 47.61 46.33 45.68 43.64
39.04 34.38 37.44 43.41 48.60 47.14 44.99 41.91 47.27 51.71 53.97 53.02 55.29 55.79 55.18 55.17 56.08 57.57 58.17 58.40 59.32 61.14 61.58 59.63 60.88 59.61 58.26 57.37 57.87 58.13 58.30 58.13 58.11 57.43 57.61 57.64 56.58 55.03 51.77 50.18 50.14 49.37 47.90 47.23 47.39 44.84 45.18 43.19 42.17
34.58 35.97 35.30 37.29 40.94 45.55 44.12 41.19 48.13 49.88 52.40 52.99 51.74 54.73 55.23 54.46 55.45 58.59 58.82 59.72 60.42 61.28 60.85 60.41 59.60 58.28 57.45 56.73 56.99 57.13 56.71 56.29 56.33 55.95 55.77 53.87 53.97 52.57 50.23 49.61 48.81 47.48 45.59 44.71 44.04 42.85 42.87 42.09 41.27
41.19 39.22 37.47 40.41 44.90 43.53 42.55 42.24 47.01 48.17 48.82 48.77 49.01 50.98 55.55 55.99 57.71 59.33 59.76 60.04 61.19 59.93 59.38 59.90 58.30 57.51 56.91 56.43 55.91 54.90 54.91 54.83 54.47 54.13 51.90 51.36 51.98 50.61 48.90 47.71 47.04 46.11 44.60 43.88 43.76 42.32 41.24 41.18 39.84
42.46 40.13 40.61 42.13 43.54 42.18 41.04 41.36 44.86 47.60 49.22 50.50 49.62 49.90 51.41 56.09 57.28 58.91 59.51 60.33 60.49 59.84 59.63 59.56 58.81 57.56 56.96 57.12 56.05 56.51 55.37 53.78 52.79 51.69 49.91 50.12 49.69 49.21 48.54 46.95 45.82 44.74 43.80 42.75 42.19 41.58 40.51 40.59 38.89
40.14 39.15 39.49 40.57 41.44 39.64 39.83 37.73 40.68 44.07 48.70 49.93 50.97 51.91 52.33 53.28 55.64 57.32 58.80 59.62 59.15 58.52 59.04 59.48 58.97 58.06 57.28 56.96 56.91 53.58 51.06 50.03 48.52 47.59 47.34 48.27 49.18 48.85 47.68 46.16 44.89 44.02 43.98 41.99 41.54 41.53 40.54 38.82 39.43
37.57 42.64 41.86 40.94 37.87 32.25 37.60 30.29 37.75 41.42 45.82 48.39 50.55 49.56 51.36 52.29 55.14 55.94 58.02 58.60 58.38 57.94 59.37 59.93 59.46 58.41 57.53 57.34 56.62 54.31 52.49 50.67 47.80 47.18 47.20 47.63 47.74 45.27 43.77 42.69 41.83 41.38 41.17 40.26 40.55 41.93 40.10 38.79 37.34
40.85 43.86 41.87 41.62 38.12 34.90 35.69 32.20 35.24 40.26 40.22 45.96 48.98 50.03 51.60 52.19 53.35 53.76 56.27 58.23 58.70 58.27 58.86 59.28 59.02 59.45 58.57 57.40 56.99 54.42 51.25 48.68 47.60 46.97 46.29 41.45 42.28 42.87 43.10 42.62 42.25 41.68 40.38 39.73 39.51 39.92 39.80 38.96 37.01
45.18 42.29 40.60 39.29 37.07 29.15 35.79 33.25 33.50 38.28 41.96 44.61 49.69 50.63 50.73 50.00 51.29 53.26 54.60 57.34 57.61 58.44 58.86 58.73 59.17 58.93 58.75 57.77 55.69 54.04 50.38 47.67 46.88 44.22 40.87 40.42 40.84 41.36 41.17 41.85 41.13 42.30 41.68 40.27 40.92 39.38 39.29 39.27 38.48
42.40 36.89 29.15 28.46 27.39 27.19 37.69 34.37 36.80 41.55 43.83 45.01 45.50 48.19 48.68 51.08 52.06 54.13 56.63 57.16 57.71 58.03 58.54 58.73 58.91 58.32 57.98 57.73 53.83 51.35 49.21 48.03 47.04 43.98 41.00 41.44 40.72 40.25 41.08 42.09 41.78 41.64 40.98 41.05 40.99 39.24 38.94 37.69 36.91
39.11 37.36 29.96 26.06 24.85 29.34 37.95 32.94 37.84 44.39 45.55 46.14 46.19 46.23 46.94 49.19 53.44 55.36 57.33 58.22 57.94 58.16 58.50 59.20 58.09 52.62 52.05 53.21 49.98 47.58 47.47 47.60 48.69 46.86 44.06 42.93 42.09 41.63 41.73 41.76 41.73 41.11 41.01 39.63 36.71 36.83 37.41 38.06 37.33
40.70 35.43 39.73 32.73 31.69 29.30 32.48 37.13 41.39 44.05 44.46 44.90 44.74 47.10 48.33 49.60 52.62 55.35 57.49 58.41 58.01 58.40 57.89 57.03 52.18 49.56 47.72 46.95 45.36 44.10 45.42 45.58 45.91 45.52 43.74 42.50 42.16 42.11 41.71 41.24 40.70 40.84 39.89 37.57 36.94 36.31 36.64 37.84 37.40
42.13 43.24 33.63 32.99 27.34 26.28 29.82 31.02 34.30 40.76 42.84 43.62 44.24 45.20 48.31 50.38 52.35 53.71 55.75 55.29 55.87 54.75 51.90 51.14 49.43 47.52 45.48 45.15 45.36 45.01 45.60 45.31 44.16 43.17 42.32 41.90 42.15 42.41 41.37 40.70 40.54 39.80 38.64 37.75 36.35 36.49 37.29 36.68 35.70
39.32 37.30 36.78 36.29 31.09 26.27 23.95 30.41 38.12 41.41 43.20 43.46 44.59 45.27 47.15 50.44 52.09 53.27 54.48 54.23 53.35 51.56 50.40 49.18 47.10 44.71 44.09 45.03 44.11 43.32 42.59 43.01 42.38 42.65 42.41 42.34 42.52 41.76 41.47 41.24 39.99 38.35 37.41 37.73 37.00 36.20 35.77 35.17 34.74
41.46 38.98 37.84 29.23 30.18 28.37 26.91 30.21 40.77 41.08 42.42 43.23 46.19 46.42 47.74 50.65 52.08 53.25 53.16 52.04 50.46 50.76 50.20 48.94 48.00 45.84 45.39 44.89 44.17 43.73 42.81 42.64 43.24 42.93 42.49 42.17 41.55 40.98 40.79 39.27 38.12 37.70 37.56 37.41 36.29 35.04 35.87 34.91 33.26

GFSSGP_sfc_wetblb_036.txt.gz
Wetbulb
55.25 51.14 49.27 46.44 37.87 33.62 30.14 35.21 37.78 39.27 44.87 56.44 59.10 56.88 55.72 58.07 54.31 48.32 65.54 65.99 68.80 69.38 69.74 69.94 70.19 70.10 69.94 70.04 69.88 69.48 69.27 68.82 68.04 67.80 68.23 68.47 68.36 67.99 67.89 67.84 67.78 68.07 68.08 66.84 66.85 67.88 68.94 69.06 67.89
51.12 51.17 47.72 39.92 32.31 28.41 31.47 36.01 38.05 44.30 52.58 55.23 55.05 56.00 57.67 55.98 62.05 62.58 63.86 68.33 69.12 69.31 69.03 69.18 70.01 69.65 69.89 69.75 69.35 68.96 68.70 68.50 68.24 68.11 67.85 68.31 67.97 68.07 68.36 67.97 67.57 67.90 67.95 66.28 66.17 66.93 67.32 67.89 68.92
51.27 51.64 44.66 35.21 29.17 29.62 31.47 36.69 44.54 51.20 54.54 54.18 52.88 56.23 58.17 58.91 62.37 63.84 66.64 68.73 68.98 68.65 68.53 69.18 69.53 69.22 69.68 69.27 68.70 68.33 68.25 67.86 67.94 67.90 67.77 67.87 67.70 67.62 68.02 67.63 67.50 67.86 67.60 65.93 65.83 65.96 65.70 66.14 66.62
47.95 46.02 38.74 33.73 30.78 34.20 36.04 38.45 48.32 50.46 53.53 55.00 53.83 54.15 61.18 63.49 63.73 65.76 68.14 68.87 68.34 68.13 68.08 68.22 68.62 68.80 69.16 69.05 68.60 68.30 67.94 67.62 67.61 67.82 68.14 68.09 68.01 67.16 67.97 67.60 67.58 67.95 67.58 65.76 65.31 64.75 65.39 65.87 65.38
44.14 39.35 33.12 30.09 31.47 37.45 43.61 49.61 50.82 50.91 52.86 53.91 55.20 54.15 57.73 63.19 66.61 66.96 67.13 67.46 66.94 67.51 67.46 68.36 67.67 68.45 69.12 69.26 68.65 67.99 67.90 67.93 67.88 67.88 67.84 67.97 68.04 67.75 67.94 67.48 67.33 67.31 67.43 66.87 66.02 65.75 65.09 65.30 64.85
40.87 37.13 30.38 28.88 34.58 39.43 48.46 50.74 52.02 52.24 53.16 53.24 54.55 54.95 57.85 64.10 64.47 64.42 64.34 63.88 66.13 66.40 66.85 67.26 68.36 68.18 68.29 68.11 67.76 67.50 67.77 67.97 67.78 67.75 67.70 68.13 67.79 67.47 67.28 66.92 66.77 66.35 66.19 66.52 66.28 65.71 64.69 64.89 64.47
39.28 35.43 31.06 32.80 35.57 37.67 48.24 51.41 50.53 50.91 50.95 51.87 55.39 54.63 58.43 62.48 62.81 61.97 62.12 62.43 63.40 65.59 65.46 65.30 64.25 64.32 66.67 66.59 66.63 66.87 67.37 67.45 67.50 67.29 67.27 67.22 66.71 66.54 66.32 66.27 66.31 66.05 65.61 65.56 65.90 65.70 64.62 64.37 64.56
41.00 37.53 31.91 32.80 35.70 35.85 48.51 51.18 51.37 50.23 49.99 56.82 59.27 54.04 55.37 61.47 61.74 61.02 61.51 61.72 61.77 62.81 64.33 62.74 62.10 62.86 64.15 64.24 65.63 66.23 66.52 66.49 66.66 66.79 66.06 65.26 65.24 65.55 65.54 65.34 65.69 65.21 64.89 64.96 65.18 65.08 64.81 63.58 63.33
40.42 35.24 32.48 35.08 36.78 40.91 49.86 49.64 52.43 56.36 54.64 56.84 58.10 58.43 60.37 62.78 61.48 59.47 58.93 59.26 59.81 60.92 61.04 60.70 61.94 63.30 63.28 62.77 64.40 65.44 66.44 65.95 65.56 65.02 64.66 62.43 61.42 61.23 60.29 63.50 63.77 63.85 63.57 64.08 64.57 63.07 62.57 61.86 61.51
38.99 34.72 37.03 40.96 40.80 45.14 49.05 47.92 52.28 53.24 53.61 53.98 56.75 60.15 61.51 61.71 60.74 58.93 56.55 56.39 56.79 57.96 59.69 61.40 61.49 62.88 63.12 63.73 61.49 60.94 62.83 61.74 61.66 61.04 59.48 59.50 59.06 58.96 60.77 62.09 62.77 62.81 63.08 63.49 62.02 60.98 59.52 55.66 52.07
37.97 37.65 41.18 42.77 43.73 49.06 48.16 48.42 52.48 52.60 49.59 53.55 54.39 57.48 59.53 60.11 59.71 57.85 55.99 56.49 56.25 57.08 58.48 59.53 60.47 63.02 62.65 61.93 60.56 59.12 58.91 59.30 59.23 59.16 58.68 58.78 59.63 58.97 58.36 57.38 57.92 56.76 57.49 54.03 53.73 52.63 51.68 50.48 49.76
37.68 42.22 42.60 43.45 50.47 48.73 48.10 50.52 49.11 48.76 51.16 56.71 57.35 58.11 59.04 58.26 58.54 58.57 55.94 55.68 56.78 57.47 57.27 58.90 60.11 62.21 61.57 61.06 59.81 58.89 58.04 58.12 58.03 58.29 59.34 59.53 58.85 57.89 57.26 57.79 56.31 54.31 52.98 51.28 50.56 50.02 49.79 49.41 49.37
39.72 42.40 44.16 45.96 50.27 49.71 51.10 48.95 50.17 51.43 55.36 56.75 56.90 57.08 57.09 58.15 58.01 58.69 59.87 58.07 58.16 58.25 58.30 57.64 59.55 62.31 61.24 59.65 58.67 57.89 57.56 58.22 59.04 59.30 60.00 59.50 58.30 57.00 55.92 55.11 54.33 52.71 51.79 50.33 49.26 49.20 49.16 48.55 47.71
44.58 45.24 47.21 49.59 49.49 50.95 50.30 50.04 49.66 52.28 55.65 55.45 56.19 55.43 56.56 57.47 57.76 57.66 59.01 58.65 59.10 58.84 58.90 58.66 60.69 62.90 60.71 58.46 57.71 58.01 59.24 60.00 61.20 60.97 60.02 57.52 56.72 55.73 54.43 53.10 51.66 50.59 50.12 49.46 49.20 48.54 47.89 46.86 46.03
45.63 43.76 46.95 47.97 49.38 49.11 49.39 43.54 47.60 54.29 55.69 54.14 54.35 54.31 54.71 56.57 56.22 56.57 56.29 57.27 58.94 59.25 59.84 59.82 61.07 61.93 59.96 58.33 58.04 58.71 59.35 60.44 59.56 59.09 57.62 57.01 56.98 55.79 53.26 51.68 50.88 49.52 49.44 49.26 48.85 47.91 47.36 45.80 45.44
40.61 40.58 38.71 46.37 48.02 48.08 45.41 38.25 49.07 54.76 53.72 52.75 53.31 54.37 55.48 54.75 55.69 55.53 56.20 55.75 57.25 58.87 59.71 61.07 62.36 60.09 59.04 57.76 58.11 58.64 59.10 59.00 58.78 58.43 58.03 57.70 56.80 55.02 52.04 50.78 50.12 49.68 49.25 48.56 47.52 46.36 45.52 43.85 43.33
38.01 32.82 37.01 43.05 47.86 46.88 42.69 39.73 48.31 53.59 54.03 52.60 53.45 54.54 55.65 54.74 54.39 56.30 56.29 56.08 56.90 58.80 60.28 60.24 60.11 59.06 58.33 57.45 57.81 58.23 58.73 58.43 58.38 58.08 58.18 57.26 56.20 54.05 51.27 50.16 49.54 49.07 48.03 46.84 46.07 44.43 44.39 42.02 42.17
33.62 34.32 34.10 35.15 40.46 44.66 43.31 39.43 46.52 51.39 52.50 53.13 53.20 54.00 55.09 54.27 54.93 56.14 56.47 57.08 57.64 58.85 60.41 59.84 59.39 57.97 57.35 56.79 56.89 56.71 56.49 56.47 57.11 56.63 56.93 56.09 54.63 51.79 50.12 49.53 47.96 46.48 45.14 44.26 43.26 42.35 42.27 41.90 41.50
39.92 37.48 36.44 37.81 42.28 41.85 43.38 41.93 45.51 49.02 50.95 51.25 51.60 52.75 54.21 53.86 55.88 55.81 57.25 57.25 58.02 59.26 59.24 58.86 57.71 56.91 56.97 55.93 55.50 54.24 54.34 54.64 54.03 54.53 52.97 53.37 51.71 50.34 49.15 47.72 46.15 45.27 44.04 43.12 42.87 42.00 40.92 40.72 39.54
40.53 38.19 37.57 40.81 41.33 40.83 39.02 39.92 46.32 47.43 49.63 51.14 51.72 51.56 53.29 55.27 54.74 55.66 57.08 57.11 58.48 59.31 59.26 58.61 58.11 56.81 57.14 57.63 55.03 55.51 54.25 53.51 52.74 51.21 49.68 51.01 49.80 48.76 47.92 46.08 44.75 43.80 42.99 42.36 41.98 41.31 40.36 40.38 38.72
38.72 37.23 38.15 38.21 40.69 38.60 38.73 36.04 41.35 45.31 48.21 49.46 51.26 51.89 52.89 54.20 55.09 55.97 57.32 57.46 58.35 59.26 58.99 59.20 58.24 57.09 57.00 56.40 55.71 52.33 51.23 50.21 49.41 47.69 47.15 48.14 48.66 48.01 46.53 45.32 44.02 42.95 42.36 40.86 40.90 40.76 40.12 38.37 38.51
35.62 41.72 40.22 39.35 36.35 31.75 36.45 29.73 35.98 40.69 46.34 47.04 49.57 48.82 50.65 52.04 54.63 56.39 57.35 57.52 58.19 58.98 59.02 59.22 58.30 57.23 56.85 56.64 55.79 53.45 53.28 50.34 48.94 47.33 46.59 46.93 47.23 45.11 44.02 42.43 41.34 40.60 40.48 39.86 40.44 40.88 40.36 39.48 37.55
39.83 42.54 40.67 39.56 35.98 34.27 34.61 32.12 34.40 39.01 39.70 45.91 48.03 49.78 50.15 51.51 52.33 54.71 56.50 58.27 58.99 58.09 57.03 58.52 58.40 58.02 57.98 57.11 56.76 54.72 52.98 51.84 50.17 46.61 45.20 42.23 41.89 41.94 41.85 41.54 40.38 40.05 40.32 40.64 42.48 42.39 41.42 39.36 37.67
43.80 40.67 38.86 37.86 35.52 29.02 33.77 32.24 32.85 36.29 41.02 45.20 48.20 50.02 51.26 50.79 50.81 53.41 55.23 56.80 57.86 56.25 56.83 57.77 57.88 58.29 57.94 57.13 55.89 54.62 51.36 48.87 48.15 45.66 41.88 40.64 40.25 40.43 40.42 40.26 39.98 39.89 40.06 41.54 41.87 39.59 39.27 38.53 38.22
39.94 35.67 28.44 27.22 27.23 27.16 35.91 32.91 35.43 40.44 40.78 43.56 44.00 48.09 50.50 51.47 50.50 50.34 51.33 54.43 55.38 55.95 56.81 57.57 58.26 58.21 58.13 56.99 55.11 53.58 51.52 50.81 49.94 46.17 42.73 40.65 39.74 39.32 39.94 41.11 40.51 41.41 41.48 41.60 41.04 39.46 39.95 38.22 37.19
37.69 36.36 28.77 25.10 23.90 28.37 35.98 31.48 37.17 41.81 44.23 44.98 44.59 44.56 47.39 47.65 50.57 51.05 52.52 53.97 55.72 56.45 57.11 57.51 58.08 58.62 58.05 57.29 55.85 54.36 54.33 51.49 50.15 46.51 42.83 42.66 41.19 41.74 42.57 42.04 42.21 42.31 41.87 40.28 39.49 37.99 36.83 37.19 37.24
38.19 34.21 38.04 31.53 30.34 28.58 30.77 36.14 39.70 41.41 42.93 44.49 44.21 44.06 43.74 46.15 49.62 51.78 53.12 54.83 55.74 56.55 57.26 57.47 58.28 58.80 57.33 57.01 54.59 52.02 51.51 50.53 48.33 45.58 45.06 42.27 42.02 41.40 40.73 43.56 42.31 41.79 40.56 39.66 38.95 38.00 37.01 37.58 37.64
40.08 41.68 32.84 31.52 26.91 25.50 28.53 29.36 32.45 38.66 40.21 42.15 43.14 44.50 45.53 46.65 49.43 51.73 54.46 55.77 56.44 56.64 57.12 57.39 58.34 56.83 53.93 52.54 51.10 49.71 48.86 49.14 48.31 45.45 43.19 41.97 40.55 41.58 43.14 42.55 41.11 40.54 40.07 39.29 38.36 37.54 37.14 36.79 35.68
37.56 35.58 34.84 34.81 30.37 26.16 23.03 29.31 37.50 39.47 41.68 41.57 41.52 44.23 45.14 48.10 49.84 52.04 54.14 56.17 56.81 56.73 55.81 55.43 53.29 50.36 46.53 46.63 45.56 45.16 45.79 47.34 47.14 45.85 43.63 42.86 41.97 42.85 42.60 41.08 40.51 39.80 38.97 38.24 36.43 36.85 36.24 35.53 35.17
39.71 37.77 36.21 28.90 29.25 27.68 26.31 28.98 39.72 39.61 39.92 40.80 42.88 43.92 44.69 47.74 50.29 51.27 52.41 52.62 52.78 53.33 52.24 52.44 49.45 46.81 45.86 46.12 45.72 45.88 45.77 45.32 44.56 43.40 42.19 41.62 42.04 42.57 41.28 40.85 39.53 39.40 38.46 37.32 36.18 36.07 36.34 35.31 34.30

GFSSGP_sfc_wetblb_039.txt.gz
Wetbulb
59.58 55.36 55.51 52.29 44.92 43.18 39.89 41.37 43.85 44.75 48.85 58.80 61.22 59.32 57.73 57.84 55.91 53.38 66.50 67.47 69.66 69.32 69.81 70.32 69.85 70.47 70.50 70.25 70.23 69.97 69.92 69.32 68.74 68.88 68.98 68.83 68.42 68.40 68.54 68.56 68.35 68.65 68.82 69.11 69.54 69.12 68.56 67.99 68.61
55.67 54.14 53.43 47.45 42.10 38.12 39.85 42.18 43.71 52.61 54.74 57.53 57.12 58.16 58.55 56.51 61.82 62.62 64.25 69.00 69.77 69.57 69.63 69.42 69.54 69.71 69.92 69.73 69.78 69.47 69.06 68.45 68.52 69.00 68.83 68.47 68.57 68.84 68.47 68.13 68.05 68.29 69.06 69.24 69.74 69.90 68.88 68.11 69.03
55.32 53.94 51.83 45.65 40.13 38.30 39.76 42.40 49.47 54.30 56.34 56.65 55.73 59.95 59.81 58.55 62.27 63.73 67.63 69.57 69.25 69.13 69.57 69.39 69.13 69.15 69.42 69.17 68.97 68.44 68.37 68.03 68.39 68.47 68.55 68.84 68.91 68.86 68.49 67.89 67.66 68.17 68.52 68.06 68.53 69.03 68.77 68.39 67.77
53.30 52.99 45.26 42.27 39.29 40.28 41.63 43.35 51.90 53.10 55.81 56.97 57.25 56.96 61.60 64.01 64.23 66.37 68.68 69.66 68.57 68.98 69.43 68.82 68.57 68.72 69.02 68.84 68.70 68.26 67.97 67.57 67.90 67.72 68.42 68.86 68.84 68.74 68.33 67.72 67.78 68.18 67.75 66.76 66.66 66.68 66.97 66.56 66.10
49.53 47.24 43.03 39.40 37.96 41.22 43.04 52.03 54.09 53.15 54.57 56.01 57.26 56.50 58.18 63.43 66.87 67.38 67.66 68.80 67.38 68.12 68.87 68.54 67.86 68.45 68.87 69.09 68.58 68.23 67.89 67.61 67.77 67.95 68.15 68.32 68.54 68.39 68.12 67.71 67.67 67.60 67.30 66.49 66.12 66.05 66.07 65.81 65.39
48.07 44.95 40.32 37.87 39.61 42.31 49.41 54.13 54.68 54.38 54.98 56.21 56.69 56.95 58.12 64.62 62.73 64.19 65.34 66.53 67.90 67.14 67.74 67.84 67.82 68.06 68.11 67.91 67.94 67.67 67.90 67.80 67.70 67.76 68.01 68.46 68.16 67.57 67.72 67.36 67.14 67.04 66.95 66.27 65.93 66.00 65.49 65.15 64.92
46.45 44.43 40.38 39.16 40.17 41.73 49.66 54.53 53.02 53.57 53.31 53.53 58.12 55.25 59.66 60.46 62.27 62.72 63.14 63.88 66.14 66.16 65.51 64.57 65.06 65.59 66.97 66.75 67.06 67.02 67.55 67.70 67.57 67.75 67.55 67.36 66.77 66.63 66.67 66.43 66.35 66.41 66.37 66.31 65.39 65.17 65.45 65.33 64.50
47.63 45.42 40.15 40.38 39.90 40.70 50.87 53.44 54.10 53.42 52.91 59.23 60.17 54.72 55.96 59.52 61.95 62.23 62.71 62.89 62.91 63.77 62.59 60.54 60.57 62.25 64.23 66.00 66.46 66.62 66.77 66.93 67.17 66.94 66.11 65.37 65.64 65.78 65.76 65.51 65.63 65.64 65.78 66.18 65.34 64.41 64.55 64.27 62.50
46.60 44.02 40.13 40.49 40.81 44.04 52.45 52.02 54.56 58.35 56.37 57.33 58.80 59.31 60.92 60.39 61.04 60.15 60.10 60.02 59.34 58.88 58.66 58.27 57.84 62.05 63.53 64.78 66.66 66.66 66.93 66.46 65.65 65.50 64.87 63.70 63.99 64.34 63.84 63.99 64.08 64.42 64.81 64.66 64.62 63.44 62.29 61.59 60.63
46.79 42.59 42.12 45.09 45.29 46.87 51.51 52.22 54.07 54.53 54.71 54.91 56.84 60.98 60.65 60.07 59.20 58.00 58.05 57.28 57.04 56.44 56.60 57.44 61.30 61.82 63.72 63.19 65.22 65.20 65.11 64.47 64.18 63.75 64.00 63.71 64.17 63.94 63.37 63.05 63.00 63.51 63.32 62.59 61.79 60.33 59.24 58.89 57.91
44.65 43.20 44.79 45.96 46.37 51.02 50.80 51.41 54.26 53.71 52.10 54.91 54.67 57.32 59.64 59.84 57.77 57.41 57.43 57.19 55.86 57.33 58.16 59.26 60.60 62.42 62.86 62.10 62.30 63.12 63.13 62.95 63.37 63.64 63.23 63.57 63.63 63.60 63.01 62.97 62.93 63.17 60.21 58.83 57.99 57.57 57.08 56.97 56.52
43.41 45.56 45.77 46.28 51.32 51.50 50.80 52.44 52.94 52.36 53.29 57.54 58.05 58.88 59.29 58.12 56.44 56.57 56.49 56.86 57.70 57.65 57.86 59.56 59.16 59.76 60.98 62.68 61.00 61.64 61.65 62.16 62.19 62.65 63.56 63.63 63.05 62.43 62.07 62.39 60.33 58.84 57.79 57.45 57.45 56.62 56.61 56.03 55.03
43.66 45.42 47.12 49.27 52.02 51.90 52.65 50.67 51.44 52.91 56.44 58.61 58.97 58.68 58.29 58.86 56.70 56.72 57.11 57.52 58.18 57.54 58.72 57.86 59.29 59.89 62.86 62.52 60.97 61.19 61.59 61.94 63.08 62.46 63.41 63.11 63.04 61.84 62.10 60.29 59.27 58.10 57.68 57.09 56.49 56.30 55.64 54.94 53.84
47.38 47.47 50.32 51.41 51.96 52.61 51.60 51.93 52.27 53.86 57.01 56.51 56.25 56.32 57.99 58.07 57.75 56.74 56.70 56.88 57.27 57.94 58.73 60.16 60.20 62.15 64.37 62.27 61.54 61.10 61.86 62.02 62.07 62.29 63.68 63.78 63.61 61.97 60.65 58.88 57.79 57.20 57.17 57.01 56.61 55.87 55.01 53.74 53.62
48.27 47.14 49.54 50.86 51.59 51.47 51.75 47.97 49.69 55.16 56.42 55.31 55.47 56.35 57.47 57.75 58.37 58.12 58.41 57.79 59.17 59.67 59.61 59.49 61.04 63.73 64.11 62.60 61.97 61.59 61.92 62.69 63.07 63.88 64.01 62.71 62.51 61.08 59.77 58.14 56.75 56.27 56.45 56.15 55.89 54.94 54.39 53.05 51.83
43.98 44.65 41.84 48.96 50.74 50.55 49.15 43.74 50.79 55.58 54.92 54.13 55.24 55.61 55.93 57.24 57.95 59.74 60.33 60.14 61.05 60.67 59.91 59.80 61.38 63.41 64.00 62.24 61.44 61.82 62.93 63.81 64.08 63.93 62.84 62.02 61.22 59.96 58.60 57.18 56.26 56.24 56.22 55.73 54.78 53.79 52.37 51.79 51.66
42.55 39.41 41.30 46.18 51.10 49.65 47.76 44.77 51.03 55.73 54.38 53.39 54.55 55.12 55.97 55.24 57.13 58.62 59.74 60.62 61.10 61.77 61.45 60.80 62.22 63.15 64.03 62.74 62.03 62.64 63.20 63.94 63.77 63.22 62.38 61.51 60.66 59.52 58.53 57.21 56.09 56.12 54.91 54.00 53.28 52.57 52.71 51.04 51.00
39.62 40.44 41.51 41.48 45.54 48.51 46.89 45.70 50.77 53.86 54.00 53.32 54.44 55.41 56.01 56.81 56.43 58.70 59.47 60.00 60.69 61.49 62.04 62.20 62.76 63.71 63.24 62.51 62.01 62.42 62.97 63.50 63.36 63.35 62.95 61.18 60.60 57.96 57.19 56.02 55.11 54.73 53.28 52.33 52.02 51.30 51.05 50.71 50.40
43.49 42.30 40.96 43.16 45.79 46.13 46.95 46.53 49.27 52.42 53.14 53.24 54.32 55.26 56.10 56.87 59.05 58.65 59.58 60.09 60.28 61.07 61.75 62.37 62.78 63.19 62.14 61.22 60.54 60.78 61.40 61.81 61.78 61.64 61.67 60.79 59.00 56.61 56.16 54.88 53.66 53.49 52.81 51.53 51.49 50.50 50.13 49.87 49.92
43.71 41.79 41.28 43.41 44.15 44.05 43.42 43.79 47.34 51.24 52.50 53.97 54.61 55.14 56.26 57.43 57.86 58.34 58.80 59.33 59.92 60.11 61.44 63.01 62.92 62.48 62.32 62.22 61.46 61.53 61.32 60.56 60.21 59.38 58.73 59.42 57.23 56.13 55.30 53.97 52.84 52.26 51.00 50.98 50.96 50.79 49.38 49.82 48.91
42.56 41.89 40.96 41.43 43.15 43.26 42.59 41.91 44.40 48.88 51.57 53.31 54.68 56.08 56.30 56.61 57.42 57.15 57.91 58.90 59.95 59.92 60.81 62.09 62.74 62.08 62.18 62.42 61.04 58.48 57.99 57.19 56.66 55.59 55.84 56.70 55.59 54.94 54.05 53.15 51.92 51.49 51.54 49.91 49.94 49.58 48.51 46.09 47.04
40.61 44.41 43.17 41.88 40.75 37.55 41.32 36.54 40.14 45.63 48.76 50.48 53.25 54.09 55.32 56.25 57.71 58.84 58.23 58.67 59.56 60.02 61.55 62.11 62.58 61.93 61.71 61.23 60.64 59.50 59.56 57.46 57.32 55.92 55.16 54.46 54.17 53.15 52.63 51.74 51.08 49.74 49.15 48.66 48.24 48.38 48.22 47.25 45.22
43.23 44.90 43.71 42.98 40.47 39.82 39.50 38.54 40.86 42.72 44.41 49.15 52.11 53.10 54.46 56.16 56.75 58.23 59.32 59.95 60.77 61.39 61.92 62.45 62.65 62.39 61.87 60.84 61.27 60.23 59.31 58.76 56.24 53.79 52.70 52.32 52.07 51.71 50.12 49.48 48.71 48.36 47.98 48.21 48.20 47.64 46.28 45.47 44.16
46.16 43.88 41.57 41.49 40.63 35.84 38.15 38.95 40.21 42.20 44.83 48.08 51.44 53.72 54.19 55.56 55.87 57.38 60.11 61.19 61.30 61.98 62.03 62.43 61.98 61.64 61.21 59.74 59.82 59.28 58.90 55.61 54.04 52.16 50.28 49.70 49.34 48.52 48.30 47.69 48.16 48.01 47.21 47.31 46.07 44.73 44.61 43.33 46.81
44.19 41.14 36.01 33.73 34.47 34.00 39.30 37.90 41.85 45.40 45.40 47.21 48.74 51.43 54.71 56.35 56.53 56.21 56.95 58.81 60.74 60.77 61.28 61.69 61.51 59.62 59.53 59.21 58.62 58.39 57.16 55.83 55.18 52.26 49.53 47.17 46.74 46.98 46.04 46.97 46.24 45.98 46.74 45.36 43.55 43.37 44.37 46.47 45.86
41.99 41.74 36.43 28.80 30.31 33.97 38.45 36.13 41.94 46.74 47.98 48.56 48.86 48.90 49.70 53.59 55.96 56.23 56.79 58.15 59.79 60.65 61.13 61.17 60.90 60.12 58.97 58.85 58.70 58.89 57.64 56.28 56.09 53.43 49.78 47.90 47.86 46.41 46.49 46.46 46.97 46.49 45.96 45.38 42.56 43.38 44.75 45.56 45.46
41.71 39.54 41.78 35.64 34.15 34.64 36.60 40.21 44.53 45.90 47.36 48.66 48.86 49.35 48.97 50.40 53.11 55.21 56.09 56.93 58.47 59.88 60.32 60.97 61.09 61.07 59.39 59.17 59.51 58.50 57.78 56.47 55.23 52.24 49.62 49.13 47.31 46.17 46.41 46.97 46.93 46.38 43.26 44.00 43.78 43.97 44.56 45.08 45.37
44.19 44.52 38.25 37.38 30.71 28.86 34.22 35.20 38.05 42.94 44.88 46.31 47.97 49.63 50.57 51.60 51.38 53.22 55.07 56.20 57.71 59.47 60.55 61.02 61.26 60.90 60.92 60.38 59.58 57.84 58.15 57.47 54.82 50.71 49.23 49.17 47.36 46.39 45.86 46.60 46.72 44.35 45.24 41.55 44.43 44.42 44.17 43.98 44.90
41.46 40.62 38.84 39.60 36.57 32.45 30.23 35.36 43.38 44.51 45.72 46.98 47.22 48.11 50.39 51.53 53.60 54.29 55.50 57.73 58.54 59.39 59.79 60.09 60.60 60.93 60.56 59.22 58.45 57.83 55.97 55.54 53.38 51.02 50.01 47.67 47.00 46.89 45.72 46.36 43.56 42.20 44.23 44.28 43.95 43.10 43.03 42.77 43.45
43.58 42.56 41.47 37.34 33.84 33.61 33.21 35.55 44.50 45.64 45.31 45.26 46.74 47.22 50.30 51.41 53.51 55.09 56.43 57.71 58.61 59.15 59.21 59.12 59.42 58.96 58.16 57.05 54.84 55.03 54.21 51.90 50.90 50.15 49.11 47.69 46.96 46.32 45.96 44.58 42.41 42.25 43.61 43.60 42.71 42.04 41.26 41.60 41.56

GFSSGP_sfc_wetblb_045.txt.gz
Wetbulb
63.92 63.22 61.08 56.41 47.93 47.30 44.13 46.33 50.51 49.26 50.59 57.36 60.47 58.63 57.27 59.26 57.10 50.21 67.37 71.14 72.16 70.10 71.05 71.96 71.28 71.95 71.93 71.99 71.67 71.26 71.04 70.50 70.11 69.79 69.65 69.43 69.49 69.63 69.66 69.88 69.92 70.28 70.61 70.17 68.51 67.83 67.71 67.43 67.10
62.36 58.17 57.25 53.09 45.40 42.16 44.15 48.11 47.35 49.69 55.98 58.32 60.66 60.60 59.22 59.51 65.02 65.11 66.15 71.18 69.66 69.63 70.83 72.38 71.09 71.23 71.44 71.10 71.02 70.67 70.26 69.73 69.72 69.50 69.26 69.41 69.85 69.85 69.90 70.24 70.19 70.34 70.52 70.00 68.75 67.86 67.64 67.06 66.73
60.67 58.77 53.30 50.11 46.48 42.68 43.21 47.90 49.17 53.91 56.29 56.18 56.78 62.19 61.47 61.64 65.37 66.81 69.27 71.43 68.46 67.92 69.89 71.75 70.29 70.55 70.57 70.37 70.07 69.56 69.35 69.18 69.18 69.04 69.71 69.95 69.80 69.85 69.99 70.44 70.58 70.78 70.89 70.01 68.83 67.76 67.20 66.67 67.14
57.64 56.65 53.54 45.55 43.75 46.97 46.90 49.76 50.00 51.83 54.94 57.55 57.70 58.32 64.64 67.22 66.89 68.07 70.59 70.81 69.34 67.12 68.41 69.14 69.19 69.61 69.87 69.67 69.26 68.89 68.85 68.36 68.47 68.96 69.53 69.75 69.71 69.49 69.58 70.01 70.68 70.93 70.73 69.89 68.13 67.08 66.18 66.74 66.60
56.82 53.55 47.09 46.17 45.32 47.01 48.58 50.18 50.24 52.04 54.48 57.20 58.90 57.61 61.71 66.25 68.89 70.12 70.15 71.51 69.48 67.11 68.47 69.53 68.34 69.09 69.40 69.49 69.04 68.74 68.47 68.15 68.82 68.96 69.04 68.99 69.14 69.40 68.67 68.72 69.38 70.18 70.24 68.68 67.15 65.92 66.06 66.33 65.82
52.42 52.57 44.99 42.80 44.93 46.50 48.77 50.77 53.13 53.22 56.70 58.93 58.87 58.15 62.19 66.49 67.06 67.50 70.77 70.84 71.22 69.12 68.31 67.96 68.76 68.52 68.52 68.25 68.39 68.10 67.95 68.25 68.48 68.55 68.69 68.89 68.86 68.34 68.11 67.96 68.36 68.71 68.46 67.43 66.90 66.39 65.96 65.28 64.36
50.91 49.23 45.66 45.01 44.75 47.59 51.75 58.16 56.69 56.74 56.71 57.90 62.46 57.05 62.55 63.91 63.65 65.47 68.78 69.75 68.41 67.28 66.83 66.86 66.72 68.07 67.22 66.93 67.09 67.07 67.70 68.04 68.03 68.17 68.26 68.13 67.58 67.30 67.40 66.98 67.16 67.60 66.91 66.52 66.18 65.82 65.35 64.08 63.78
51.93 50.19 46.18 45.98 45.89 45.79 53.16 54.74 58.08 57.56 56.38 62.64 62.73 57.39 58.42 63.21 62.20 62.66 63.39 64.13 64.86 65.13 64.23 62.12 62.17 66.03 66.89 66.55 66.79 66.90 67.38 67.47 67.57 67.22 66.48 65.96 65.97 66.25 66.71 66.23 66.27 66.36 66.44 66.42 65.88 65.10 64.28 63.32 62.73
53.78 47.55 44.22 45.44 46.56 47.78 52.80 52.40 57.92 60.65 58.86 60.44 62.00 62.88 63.55 63.47 61.85 60.04 59.32 59.53 61.30 62.29 62.51 61.63 58.92 58.94 62.04 65.90 67.19 67.19 67.45 66.89 66.10 65.92 65.22 63.99 63.15 63.46 63.49 65.04 66.14 65.69 65.69 65.74 64.85 63.90 63.05 62.25 61.38
50.75 47.96 46.64 50.13 50.88 49.96 52.19 54.50 56.92 56.89 57.43 58.32 60.49 62.56 62.83 63.12 62.04 60.79 57.66 56.22 57.16 59.03 59.28 58.61 57.68 57.86 58.66 60.66 63.86 65.49 66.12 65.29 64.85 64.31 64.04 63.84 64.19 64.82 64.22 64.58 64.81 64.67 64.19 64.43 63.96 62.86 62.31 62.40 61.37
51.39 47.72 50.80 51.05 52.15 52.53 51.99 53.37 57.67 56.51 54.04 51.77 57.69 58.58 60.80 61.50 60.07 60.00 58.43 57.63 56.58 57.68 57.74 58.67 58.03 58.42 60.34 61.12 62.82 64.45 65.05 64.50 63.52 64.40 64.46 66.16 65.42 64.81 64.11 63.83 63.38 63.65 62.89 61.75 61.10 60.55 62.09 63.10 62.11
48.94 51.72 51.70 52.02 52.32 52.71 53.54 53.63 54.64 56.40 57.50 60.77 61.94 59.64 58.97 58.51 58.12 57.86 56.12 54.81 54.45 55.07 55.62 56.81 58.40 58.95 59.79 59.26 61.25 63.98 63.62 63.65 63.17 64.42 67.24 65.17 64.50 65.78 64.95 63.84 64.54 64.14 63.84 63.00 63.13 62.73 62.85 61.90 61.33
50.30 51.28 52.92 54.14 53.62 55.67 56.54 55.45 54.45 56.77 59.64 61.40 59.84 58.60 58.01 58.06 57.60 57.25 56.04 55.83 55.19 53.56 54.30 54.85 56.61 57.85 58.60 59.37 60.50 62.31 62.81 61.13 62.39 64.19 65.32 65.45 64.65 65.78 65.00 65.14 65.26 64.92 64.79 63.90 62.83 62.08 61.26 60.72 60.19
52.41 51.82 53.49 54.24 54.63 55.87 54.36 55.57 56.75 58.33 60.66 59.10 58.94 57.74 57.40 57.01 57.33 56.71 55.77 55.29 56.09 53.66 53.46 54.81 57.13 58.08 57.72 58.09 59.83 61.91 63.33 62.63 64.67 64.32 65.32 66.61 65.16 65.84 64.66 64.70 64.76 64.45 64.24 63.66 62.74 62.02 61.16 60.40 59.33
52.11 49.70 52.86 51.91 53.77 53.52 56.07 47.02 53.63 58.98 58.64 56.71 57.83 58.36 58.00 57.92 57.87 56.91 56.69 56.10 55.28 55.65 56.54 56.72 56.46 56.63 57.15 58.55 59.17 60.77 63.44 62.93 63.66 63.81 66.66 65.67 66.40 66.62 66.15 65.24 64.34 63.96 64.15 63.66 62.96 62.11 61.42 59.59 58.55
49.38 50.30 45.33 51.44 53.94 55.04 52.50 40.76 55.47 58.73 57.16 56.11 56.45 58.77 58.23 58.48 57.97 59.59 58.92 58.06 57.21 55.88 55.11 55.82 56.17 57.24 61.22 61.64 61.72 61.66 63.30 63.44 62.79 63.46 65.04 66.83 65.72 66.05 65.86 64.71 64.28 64.01 63.47 62.91 62.19 61.43 59.99 58.47 57.86
48.65 44.46 45.43 47.32 53.09 53.82 52.21 45.66 55.91 58.15 57.02 56.22 56.10 57.80 58.32 57.85 58.48 58.48 59.16 59.23 58.67 58.54 56.98 57.74 59.92 60.10 61.49 62.09 63.62 62.97 64.09 62.94 62.24 64.09 64.49 66.64 66.85 66.69 65.81 64.68 64.37 64.06 63.04 62.43 61.95 60.65 59.66 57.24 55.80
43.54 44.20 46.43 46.07 46.69 51.72 50.10 50.04 55.07 57.31 56.02 56.09 55.68 57.00 57.72 56.13 58.25 59.34 60.02 59.30 59.49 60.50 59.95 59.46 61.53 61.95 63.80 64.89 63.76 62.73 61.92 63.20 63.22 63.70 64.92 66.12 66.33 65.79 65.07 64.71 64.22 63.47 62.50 61.67 60.92 59.77 58.35 56.74 55.89
47.54 46.42 45.73 47.76 50.40 48.31 48.79 49.37 50.42 56.51 56.75 55.13 56.18 55.57 56.91 57.22 58.05 60.69 59.82 60.87 60.25 60.93 61.95 62.21 61.83 62.54 63.90 63.47 62.14 61.04 59.84 61.12 62.41 64.37 65.37 66.22 66.19 65.37 64.76 64.39 63.73 63.10 62.00 61.16 60.42 58.56 56.28 54.87 54.67
47.50 45.79 45.64 47.94 49.52 48.81 48.36 47.98 50.48 55.09 55.97 56.24 55.67 56.65 56.15 57.40 59.51 60.51 61.86 62.09 62.69 62.32 62.61 62.46 62.13 62.80 64.35 64.59 64.41 62.83 62.06 61.17 62.72 64.45 65.78 65.87 66.19 65.60 64.68 64.51 63.15 62.65 61.19 60.51 59.03 57.41 55.44 55.10 54.28
47.32 46.29 45.80 45.55 49.06 50.00 48.29 46.59 48.34 52.62 56.08 56.90 57.04 57.06 57.98 57.63 57.84 59.52 61.01 62.22 62.83 62.31 62.68 62.91 63.48 64.09 64.62 65.07 65.13 64.33 62.84 62.67 61.50 63.14 64.30 65.13 65.62 65.68 64.86 64.39 63.07 62.00 61.42 58.82 57.92 57.00 55.83 52.72 54.16
44.96 49.14 47.38 46.80 45.97 41.80 48.75 38.87 45.17 50.44 52.45 55.28 56.45 56.77 57.33 58.52 59.28 59.34 60.09 61.93 62.79 63.44 64.41 64.66 64.65 64.78 64.14 65.64 64.73 63.58 60.94 60.69 63.03 63.87 64.17 64.42 65.43 64.93 64.18 63.01 62.44 61.20 60.18 59.16 57.90 56.85 55.75 54.51 52.87
46.72 49.61 48.19 47.94 46.58 46.12 45.43 42.30 45.99 49.27 48.78 52.23 55.65 56.90 57.82 58.75 59.32 59.85 59.69 60.11 63.13 64.33 64.18 64.80 64.84 64.84 65.67 65.92 65.37 64.88 62.96 62.91 64.04 64.38 64.15 64.29 64.46 63.98 62.91 62.21 61.39 60.33 59.39 58.96 57.72 55.62 54.52 53.91 51.12
50.93 48.68 48.35 48.55 46.77 40.33 44.29 43.82 42.29 46.39 47.64 49.65 54.19 56.69 57.94 58.29 59.39 60.47 61.66 61.80 61.34 62.93 64.63 65.79 64.32 64.32 65.19 65.82 65.50 65.31 64.12 63.93 64.31 64.39 62.83 62.76 62.67 62.38 61.89 60.92 60.33 59.94 58.32 57.32 55.85 54.60 53.31 51.15 50.65
49.25 46.62 39.79 38.52 38.90 38.10 45.36 43.18 44.97 48.07 50.34 51.02 51.77 54.07 57.48 59.23 59.26 59.76 60.42 61.58 62.36 62.56 63.61 64.76 63.94 63.07 65.03 65.88 64.61 65.20 64.83 64.77 61.46 62.45 62.02 61.20 60.91 60.14 60.01 59.82 58.14 56.43 55.12 55.68 54.29 51.98 50.55 49.07 46.49
47.33 46.91 41.37 32.10 36.05 39.11 45.55 40.26 44.23 51.12 52.05 52.65 53.91 55.17 55.79 57.79 59.65 60.21 60.54 61.46 62.67 63.76 64.15 64.43 63.99 63.78 64.31 64.61 63.59 64.23 64.88 64.01 63.03 61.63 61.05 59.86 59.33 58.65 59.34 57.03 54.02 53.20 53.41 52.04 50.75 50.29 48.16 46.89 47.53
47.36 44.34 49.31 42.10 44.05 39.96 42.73 45.52 48.45 50.07 49.59 51.08 52.21 54.35 56.12 57.13 58.13 59.89 61.08 61.89 62.76 63.99 65.72 66.58 65.22 64.58 64.70 64.81 62.18 63.15 63.94 63.37 63.15 62.22 61.98 59.71 58.58 58.50 56.21 53.04 51.43 51.60 50.24 50.97 51.08 47.81 45.15 48.47 47.86
49.00 50.71 43.11 44.20 35.29 33.73 40.15 42.13 42.80 46.63 47.83 49.41 50.38 52.36 54.52 57.00 57.36 58.58 60.19 61.84 63.19 64.41 66.40 68.27 66.80 65.77 65.06 63.90 64.55 63.79 63.44 62.82 62.55 62.07 61.00 59.03 58.82 56.10 52.84 51.78 50.92 50.75 50.93 50.64 48.45 47.40 46.57 45.75 48.15
46.78 46.01 46.65 45.90 43.22 36.89 35.97 40.87 48.67 47.92 49.41 49.55 51.46 52.21 53.57 54.95 58.38 58.71 59.87 60.90 62.25 64.09 65.02 65.93 66.69 66.61 65.15 65.05 64.49 64.25 63.05 62.66 61.88 60.98 60.74 59.15 56.80 54.06 52.63 52.18 50.32 48.81 49.45 47.64 46.56 44.69 45.29 46.22 45.90
49.16 47.26 47.16 41.51 40.18 42.96 41.66 41.68 51.16 50.96 51.50 51.67 52.47 52.74 54.40 55.38 56.81 59.29 60.63 61.65 62.13 62.58 63.55 64.76 65.58 65.88 66.05 64.61 63.96 63.79 62.85 62.82 60.67 60.00 59.01 58.15 56.32 55.77 53.52 50.69 48.24 49.12 47.99 45.48 43.95 44.83 44.81 45.33 44.30

GFSSGP_sfc_wetblb_048.txt.gz
Wetbulb
62.27 62.51 61.21 57.52 46.24 45.82 42.05 43.81 48.33 46.94 49.75 55.19 58.20 54.41 51.73 54.60 53.08 52.46 62.34 63.35 62.88 63.88 71.69 72.09 71.57 72.06 72.16 72.07 71.82 71.56 71.34 71.04 70.77 70.30 69.82 69.73 70.31 70.53 70.66 70.57 70.91 71.13 69.54 68.26 68.03 67.65 66.78 66.04 66.19
61.61 61.95 57.88 51.61 43.79 40.64 41.82 47.03 45.92 50.34 55.02 56.60 55.28 53.91 52.94 51.71 59.94 64.44 63.97 63.44 63.53 68.14 70.83 71.77 71.26 71.50 71.64 71.44 71.13 71.04 70.68 70.43 70.23 69.92 69.71 69.92 70.24 70.44 70.37 70.24 70.29 70.47 69.68 68.11 67.89 67.21 66.45 65.98 66.57
59.81 59.26 51.62 48.08 45.40 41.04 42.38 47.20 48.71 51.36 55.59 55.94 54.95 56.02 57.75 54.88 56.13 65.86 69.10 67.87 68.75 68.85 70.65 70.91 70.55 70.68 71.14 70.92 70.48 70.09 69.92 69.51 69.28 69.17 70.00 70.12 70.44 70.73 70.85 70.19 70.10 70.35 69.93 68.05 67.55 66.81 66.14 66.22 66.51
57.86 55.41 52.71 45.12 41.96 45.09 46.07 48.50 50.44 50.40 52.81 55.64 56.16 52.91 63.39 66.41 65.01 68.20 70.13 68.07 67.52 68.29 69.61 69.00 69.00 69.69 70.24 70.36 69.98 69.54 69.23 68.74 68.59 69.21 69.87 70.19 70.61 71.11 70.96 70.37 70.10 70.54 69.77 67.71 66.88 66.19 65.82 66.31 65.51
56.95 52.37 45.94 44.43 44.70 47.37 48.61 49.75 50.33 48.96 51.58 53.69 54.11 54.27 59.23 64.69 67.98 68.45 69.78 68.31 67.31 68.41 69.22 69.33 68.49 68.97 69.38 69.85 69.51 68.99 68.80 68.58 69.04 69.12 69.33 69.60 70.05 70.72 70.65 70.12 70.09 70.07 69.03 67.57 66.05 65.83 65.83 65.70 64.95
51.36 51.79 43.93 41.64 44.67 47.88 52.65 52.45 54.05 51.62 52.38 55.31 53.33 53.06 51.22 62.45 64.97 66.40 70.10 68.73 68.68 68.46 68.99 68.63 69.17 68.80 68.75 68.80 68.61 68.09 68.34 68.62 68.69 68.63 68.77 69.20 68.77 68.88 69.51 69.78 69.64 68.88 67.80 67.13 66.73 66.30 65.82 65.24 64.43
49.41 47.70 44.29 44.82 45.93 48.16 50.20 53.44 49.90 53.38 55.39 53.40 55.12 51.70 50.84 58.54 62.44 65.42 68.10 67.87 67.34 67.59 67.70 67.89 67.23 67.63 67.05 67.16 67.15 67.47 67.95 68.13 68.27 68.22 68.13 67.81 67.24 67.28 68.03 68.61 68.55 67.68 66.98 66.57 66.08 65.72 65.16 64.68 63.64
51.59 48.29 44.85 45.59 44.58 45.72 51.12 53.29 54.27 54.99 52.95 57.37 55.76 55.55 55.18 60.47 62.30 63.20 63.97 64.93 65.31 65.07 64.94 64.32 65.08 65.02 64.81 65.53 66.62 66.91 67.38 67.49 67.60 67.23 66.48 66.13 66.11 66.41 66.82 66.98 66.75 66.67 66.54 66.00 65.77 65.22 64.62 63.64 62.75
53.24 45.70 43.71 45.60 46.23 47.67 52.01 51.16 55.56 55.41 56.57 55.91 56.42 58.46 61.33 61.48 61.63 60.45 60.27 61.50 62.24 62.60 62.51 62.42 62.37 62.95 63.53 64.49 66.26 67.17 67.49 66.71 66.18 65.80 65.10 63.32 61.98 61.61 63.59 65.43 66.08 66.23 65.64 65.13 64.73 64.07 63.13 62.06 61.07
49.44 45.93 46.65 49.97 50.11 49.16 50.76 51.56 54.35 50.67 54.50 51.46 51.50 57.15 61.49 61.62 61.20 57.70 57.41 57.87 58.59 58.47 59.86 61.70 60.97 59.92 60.41 63.09 64.23 65.39 65.61 64.62 64.41 62.99 62.56 61.26 61.13 62.16 62.92 64.36 64.78 65.02 64.78 64.22 63.61 62.82 62.27 61.24 56.47
50.12 46.53 50.12 50.38 51.42 51.74 50.59 52.00 54.25 54.23 52.17 51.56 51.84 56.99 59.62 59.70 60.08 58.60 56.40 56.11 57.87 57.58 57.18 57.93 59.17 59.31 59.71 60.54 61.59 62.58 62.64 62.61 63.13 62.87 63.16 63.48 61.96 62.04 62.69 62.27 61.17 61.54 62.77 59.61 59.84 59.76 58.88 59.34 58.66
47.69 50.30 51.19 51.27 52.88 51.72 51.00 55.08 54.38 56.67 57.19 57.23 58.19 59.42 59.02 58.15 58.48 56.56 55.27 55.37 56.13 56.85 56.16 56.68 58.00 58.37 58.45 58.92 60.17 60.88 62.02 62.00 61.59 62.17 63.99 63.43 61.90 61.69 61.60 61.23 61.43 60.37 59.40 57.94 58.84 58.39 60.01 58.71 58.51
49.00 50.08 51.56 53.70 53.53 52.66 54.58 53.02 52.15 56.30 59.09 60.05 58.98 58.47 58.06 57.24 56.14 56.05 55.16 54.26 54.10 53.83 55.83 57.46 57.89 58.11 57.89 57.58 59.08 60.14 61.08 61.52 61.30 61.09 63.75 63.30 62.27 62.00 61.50 61.64 61.76 61.38 61.89 59.97 60.47 59.39 58.58 57.86 57.26
50.92 51.19 50.77 53.99 53.06 54.10 49.98 49.27 50.68 56.74 59.07 58.35 58.20 57.40 56.96 56.34 55.39 54.66 54.47 53.28 53.66 53.58 54.68 56.76 57.22 57.84 57.71 56.76 56.31 58.34 60.39 61.12 59.61 59.87 63.37 63.35 63.25 62.30 62.70 63.66 63.30 63.20 61.96 61.32 59.99 58.91 58.15 57.60 56.11
51.41 47.57 49.80 52.23 53.21 52.47 52.85 47.05 47.30 52.79 57.87 57.22 57.11 56.74 56.82 56.01 56.15 54.85 55.38 53.62 54.00 53.66 55.05 56.23 56.71 57.42 57.21 56.91 58.53 58.68 59.87 61.85 62.51 62.38 63.14 63.69 64.49 62.96 63.66 62.38 62.95 61.59 61.96 61.35 60.34 58.88 58.52 56.56 56.35
48.36 48.12 44.38 50.60 52.76 53.05 51.09 42.85 49.30 54.28 55.83 54.88 56.79 57.08 56.12 55.71 56.65 56.41 55.03 53.39 53.97 53.96 55.58 55.77 56.86 55.98 56.18 57.24 58.08 58.45 59.50 61.48 62.02 61.85 63.27 63.65 64.22 63.51 63.13 63.28 62.07 62.13 61.36 60.30 59.44 58.14 56.94 56.17 54.27
47.15 42.17 45.04 47.55 52.35 51.96 50.67 44.12 49.32 53.53 56.02 54.20 56.15 55.96 56.39 56.29 57.50 57.03 56.62 55.35 55.00 55.29 55.52 54.70 55.21 55.27 55.16 56.88 55.12 56.38 58.28 60.67 61.16 61.46 62.59 63.92 64.13 64.51 63.79 62.93 62.58 61.88 60.64 60.01 59.54 58.43 57.24 54.24 52.33
42.67 43.54 45.33 45.68 49.73 50.02 49.37 48.18 50.47 54.37 55.30 54.20 54.94 55.35 55.31 54.93 55.92 57.77 57.27 56.89 56.29 56.38 56.27 55.31 54.94 54.99 57.42 58.63 55.44 57.92 59.85 60.88 61.19 61.00 61.67 64.00 64.34 64.66 63.77 62.92 61.97 60.93 60.21 59.40 58.65 57.00 55.91 54.13 52.35
46.08 44.92 45.12 48.01 50.82 49.54 47.53 48.42 49.36 50.58 53.53 53.94 54.14 55.12 54.89 55.63 57.35 58.12 57.72 57.77 57.56 55.76 56.32 55.73 54.57 56.04 58.89 58.85 57.70 58.91 58.05 59.87 60.55 60.79 61.61 64.15 63.98 64.38 63.47 62.51 61.94 60.54 59.89 58.91 58.72 56.48 53.83 50.97 50.60
46.17 44.36 44.72 47.41 50.50 48.33 46.58 47.11 50.89 50.80 53.78 54.25 54.26 54.85 54.47 55.84 57.22 57.49 56.53 57.60 57.45 56.99 57.15 57.94 58.54 58.59 59.78 60.12 60.50 60.70 59.71 59.17 60.29 61.19 62.62 64.40 63.76 63.87 63.07 62.11 61.21 60.31 59.68 58.87 57.27 55.48 52.31 52.16 51.16
45.70 44.52 45.15 45.68 48.58 49.64 47.58 44.91 48.30 53.16 54.46 54.85 55.69 56.16 56.25 55.64 56.01 56.99 57.26 57.44 58.49 58.53 58.40 58.97 59.84 59.70 60.69 62.01 62.46 62.09 60.75 59.47 58.39 59.90 62.50 63.66 64.16 63.54 63.09 62.36 61.75 60.61 59.90 57.80 56.48 55.42 53.24 49.85 49.52
43.11 48.10 47.44 46.26 44.73 40.29 47.63 38.34 45.82 48.61 50.62 53.27 54.26 55.39 55.85 56.29 57.92 58.19 58.76 58.45 58.95 59.81 60.79 61.38 61.20 61.15 61.11 63.03 62.10 61.62 59.41 57.77 58.02 58.81 61.96 63.30 63.73 63.14 63.39 63.05 61.86 60.43 59.02 57.25 56.11 55.60 53.35 51.45 48.66
45.67 49.95 48.29 47.15 44.79 44.34 44.20 41.57 44.60 48.58 47.93 51.35 54.04 55.21 56.50 57.26 57.66 58.68 59.30 60.59 60.76 61.56 61.70 61.80 61.68 61.80 62.48 62.80 62.92 61.37 60.60 59.38 60.74 59.92 61.68 61.95 62.83 63.38 62.85 62.24 61.06 59.75 59.01 58.00 56.30 55.01 53.98 50.93 48.96
50.37 48.21 47.93 47.40 45.19 38.60 43.72 42.73 41.60 44.97 46.98 50.03 54.16 55.84 56.36 57.14 57.94 58.63 59.66 61.07 61.34 62.40 62.60 62.20 62.14 62.20 63.28 62.73 62.08 61.89 60.75 60.76 60.26 61.03 61.19 61.47 61.58 61.84 61.32 61.42 59.80 59.29 58.03 57.42 56.39 54.31 52.37 48.65 48.68
48.27 45.39 38.59 37.07 37.44 36.98 45.34 42.42 44.42 48.45 50.21 51.44 53.36 55.12 56.70 57.54 57.55 58.56 58.56 58.37 60.39 61.43 61.86 62.46 62.75 62.14 62.93 63.38 62.73 62.45 62.25 62.64 61.46 61.24 60.41 59.60 59.38 59.13 59.20 59.89 58.58 57.44 56.91 54.97 53.27 51.41 50.37 48.17 46.66
46.21 45.16 40.15 32.27 33.06 37.35 44.99 40.02 44.04 50.61 52.15 52.50 52.87 54.27 56.87 57.53 58.05 58.40 59.46 59.38 59.09 60.13 62.18 62.48 62.56 61.94 62.70 62.88 63.39 62.91 62.66 62.36 62.23 61.77 60.98 59.54 59.00 59.16 58.32 58.05 57.25 55.03 53.53 51.87 50.57 49.58 48.42 46.72 45.55
46.30 42.90 48.15 41.27 41.57 38.22 41.34 44.43 49.13 50.52 49.64 50.60 51.82 53.43 54.92 55.70 58.24 58.61 59.49 60.59 60.71 60.65 60.98 61.91 62.43 62.56 62.49 63.02 63.20 62.04 61.27 61.91 62.23 61.55 60.82 60.08 59.23 58.86 57.74 57.05 52.92 51.94 50.57 49.60 48.64 47.18 45.06 45.08 46.02
47.42 49.72 42.22 43.45 34.49 32.79 39.19 40.84 41.55 46.16 47.50 49.02 49.83 52.47 54.93 56.81 57.66 58.29 59.56 60.16 60.78 61.85 61.97 62.17 62.51 62.13 62.79 63.03 63.45 62.54 59.95 60.71 62.74 62.38 60.98 60.63 59.56 57.91 55.74 52.60 51.52 50.10 49.01 49.48 47.06 45.46 44.84 45.21 45.48
45.66 44.84 46.07 46.04 42.89 36.07 34.78 39.40 47.13 48.12 49.96 49.71 51.90 52.39 55.29 56.57 57.30 58.05 58.80 60.31 60.97 61.79 62.43 63.01 63.51 63.27 63.11 63.84 63.74 62.72 62.23 61.72 62.10 60.83 60.23 60.33 58.29 54.45 52.25 51.39 50.44 49.29 48.64 48.07 46.25 44.86 44.07 44.08 43.51
48.73 46.50 46.93 40.78 38.95 42.86 41.45 40.42 51.58 50.53 51.45 52.29 51.99 53.26 54.73 56.44 57.13 58.64 59.58 60.23 60.27 60.95 62.85 64.54 64.69 64.76 63.56 63.49 63.36 62.90 62.73 61.98 59.97 59.60 58.99 57.93 54.07 52.79 51.65 51.04 49.84 48.73 47.88 47.09 45.17 42.86 42.92 44.59 43.49

GFSSGP_sfc_wetblb_051.txt.gz
Wetbulb
57.28 56.77 56.63 52.07 41.08 36.17 34.05 38.91 44.37 43.31 46.01 54.14 56.08 53.74 51.70 51.95 51.14 50.88 62.09 63.99 64.61 65.23 68.67 69.58 70.94 71.96 71.93 72.06 71.70 71.50 71.15 71.09 70.50 70.21 70.50 70.99 71.21 71.48 71.27 69.88 69.39 69.48 69.30 67.52 66.47 66.84 66.90 66.80 66.76
56.41 58.47 54.26 47.28 35.46 30.33 35.80 42.61 42.72 48.94 53.70 55.43 55.43 54.53 52.87 52.55 58.57 60.66 60.27 63.25 63.37 64.25 64.49 67.93 70.12 71.34 71.69 71.57 71.29 71.02 70.89 70.65 70.09 70.00 70.74 70.86 70.95 71.09 71.12 69.37 68.93 69.32 69.17 67.15 66.04 66.36 66.66 66.55 66.79
57.55 57.04 44.95 39.63 35.26 34.41 36.32 43.05 45.06 52.09 53.49 54.35 53.24 56.00 58.03 53.04 57.35 62.38 67.19 62.30 65.03 66.71 68.07 69.41 69.78 70.59 71.38 71.09 70.74 70.28 70.11 69.59 69.48 69.89 70.43 70.58 70.78 70.90 70.84 69.20 68.93 69.20 68.83 66.83 66.02 66.23 66.19 66.06 66.11
53.84 49.11 46.57 37.86 36.89 41.10 40.68 46.11 48.71 49.08 50.03 54.69 53.40 56.45 60.75 59.86 59.35 59.33 67.32 63.43 66.88 67.76 69.14 69.30 69.17 69.84 70.83 70.74 70.46 69.87 69.24 68.82 69.02 69.42 70.23 70.65 70.80 70.80 70.67 69.58 68.95 69.15 68.47 66.46 65.69 65.57 65.26 65.54 65.15
52.35 46.07 37.09 36.09 39.19 44.31 48.21 48.64 51.48 51.69 51.41 53.57 53.52 50.29 56.00 59.13 61.83 67.16 67.14 67.23 67.35 67.96 68.36 68.98 68.28 69.12 69.68 69.75 70.03 69.18 68.57 68.72 69.17 69.30 69.84 70.46 70.71 70.62 70.21 69.61 68.83 68.51 67.71 66.30 65.44 64.92 65.31 64.76 64.38
44.56 44.49 35.94 36.61 40.68 47.49 48.09 48.76 50.06 50.18 53.68 52.63 52.49 51.89 51.08 57.61 62.58 64.19 66.81 66.19 67.84 67.15 67.60 67.73 69.01 66.76 68.27 68.70 68.66 68.41 68.70 68.89 68.75 69.21 69.89 70.66 70.42 69.96 70.01 69.45 68.17 67.80 67.34 66.99 66.18 65.71 64.81 64.25 63.75
42.92 39.07 36.41 38.16 40.89 43.67 47.56 50.96 49.49 49.67 51.81 50.62 55.22 52.10 52.88 55.57 62.12 64.57 66.54 66.63 67.12 67.62 67.01 67.28 67.84 68.00 67.28 67.26 67.37 67.71 68.10 68.27 68.30 68.19 68.28 68.58 68.78 69.04 69.35 68.67 68.05 67.48 67.06 66.52 65.93 65.20 64.32 63.45 62.73
45.69 41.08 37.73 39.93 41.30 42.19 48.07 50.67 52.42 52.21 50.13 57.59 56.77 51.21 54.16 58.37 62.66 64.50 65.43 65.63 65.09 65.68 66.04 65.73 66.00 66.01 66.05 65.69 66.57 67.22 67.39 67.48 67.31 67.04 66.73 66.65 67.36 68.06 67.91 67.31 67.00 66.79 66.32 65.77 65.33 64.67 63.47 62.47 61.44
47.16 37.94 36.38 39.96 43.59 45.63 50.66 51.07 54.08 55.19 52.37 54.47 54.34 54.74 58.74 61.46 61.45 61.84 61.62 61.84 61.68 62.24 63.02 62.68 62.81 62.94 63.47 65.05 67.19 67.14 67.21 66.58 66.15 65.87 65.19 63.68 64.35 64.98 64.69 65.63 65.94 65.93 65.44 65.11 64.62 63.68 62.55 61.56 60.34
42.38 36.62 40.16 46.79 46.33 45.07 47.98 46.29 52.21 51.88 50.96 52.11 52.49 56.57 60.93 60.88 59.28 58.80 59.71 59.31 59.65 60.05 61.02 61.33 61.40 61.53 62.23 64.57 65.77 65.36 65.04 63.46 62.72 61.76 59.51 60.06 60.53 62.41 64.24 64.67 65.01 64.47 64.31 64.04 63.68 62.88 61.83 59.95 54.01
44.20 39.76 45.44 47.30 47.06 47.82 45.65 49.33 54.28 51.43 50.28 52.20 52.71 55.55 59.17 58.83 57.51 56.54 56.48 58.22 57.46 59.05 60.48 59.85 59.40 59.56 61.32 62.17 61.62 63.55 63.01 62.78 61.45 60.60 60.75 60.71 61.75 61.61 61.52 61.52 61.86 61.73 62.09 59.39 59.91 59.47 56.60 56.41 55.43
42.72 46.74 46.83 47.16 49.46 48.25 49.35 51.52 51.06 53.77 54.26 57.26 58.55 59.10 58.88 57.49 56.52 56.22 55.70 56.18 56.18 56.18 57.70 57.97 58.41 58.81 59.14 57.95 57.12 60.21 60.97 61.04 60.14 60.94 61.46 60.53 60.65 59.75 59.54 59.15 59.26 58.49 57.64 55.40 55.58 55.50 56.50 55.91 55.00
44.70 46.58 49.14 49.15 50.82 50.44 52.02 49.19 50.65 49.09 56.27 57.80 58.74 58.54 57.11 56.18 55.66 55.64 55.58 55.14 56.14 55.12 56.26 57.09 57.96 57.94 58.11 58.49 58.81 59.10 60.83 59.65 59.99 61.21 62.28 60.99 60.47 59.52 59.56 59.47 58.91 58.03 57.11 54.94 55.95 56.78 56.50 55.31 54.59
48.17 47.38 47.07 48.39 49.51 51.47 49.49 49.29 51.00 51.16 56.17 56.50 56.95 56.53 56.28 54.97 54.71 54.29 53.80 53.23 54.35 55.98 56.36 57.11 57.01 57.19 57.11 57.09 55.98 56.50 59.16 58.31 58.66 59.55 61.52 61.68 60.48 60.86 59.58 59.90 59.85 58.34 58.63 57.39 57.60 56.77 55.55 54.86 53.38
49.51 45.23 46.06 46.31 49.04 48.51 50.94 47.12 48.17 53.21 53.77 56.00 55.53 55.60 55.87 54.95 54.93 53.78 53.59 53.21 54.30 55.43 56.02 55.78 55.76 56.33 56.20 57.14 57.01 57.55 58.61 59.89 58.88 58.82 60.54 61.61 61.97 60.63 60.83 61.18 60.84 61.44 59.50 58.76 57.08 56.57 55.44 53.80 54.03
44.97 44.23 38.61 45.39 49.64 50.66 50.35 43.08 49.74 52.48 50.94 53.64 53.92 54.72 54.48 54.42 54.51 54.58 54.08 53.64 54.05 55.17 55.23 55.59 56.22 55.93 56.05 56.25 57.08 57.62 57.64 59.22 59.36 59.63 60.18 61.04 62.33 61.92 60.51 59.82 59.88 59.83 59.33 57.98 56.76 55.99 54.66 53.44 51.53
41.77 37.27 39.49 43.08 50.04 49.36 48.15 44.41 49.83 53.27 53.81 53.27 53.95 53.79 52.59 54.52 54.41 52.98 53.60 53.30 54.08 55.05 55.40 55.38 55.97 55.65 56.02 56.46 56.24 56.55 57.86 57.49 58.22 58.77 59.98 60.99 61.48 62.32 60.25 61.11 60.01 59.51 58.16 57.39 57.12 55.78 54.75 52.74 50.34
37.53 39.12 40.01 42.12 46.30 48.90 45.08 44.63 48.25 51.98 52.81 50.91 51.72 53.33 53.21 53.99 53.27 53.09 53.27 52.61 54.23 54.65 54.64 55.23 55.13 55.00 55.73 56.58 55.71 56.10 55.71 55.56 57.40 58.30 58.59 61.32 61.04 61.52 61.70 60.96 60.16 59.29 57.75 57.02 56.51 55.43 54.33 52.16 49.92
43.70 41.98 39.66 42.86 47.76 46.00 44.44 45.82 45.75 49.72 50.79 49.45 51.24 52.36 52.49 52.19 54.62 54.36 54.08 53.05 52.90 53.19 52.88 53.27 53.63 53.78 54.73 54.90 53.84 53.24 53.36 56.04 56.17 57.73 58.57 59.97 61.73 62.02 61.35 60.51 59.82 59.17 57.60 56.69 56.17 54.73 52.49 49.28 47.71
45.41 41.09 39.82 46.62 49.58 46.16 43.54 44.10 46.51 49.43 49.84 50.74 51.26 51.14 51.58 52.92 53.64 54.14 53.68 53.49 53.46 53.73 53.21 52.92 53.14 53.66 53.54 56.69 53.70 53.52 55.29 56.25 58.53 58.56 58.05 59.81 61.98 61.95 61.44 60.35 59.21 58.44 57.67 56.97 55.77 53.28 50.03 48.95 47.20
43.19 40.90 40.67 42.96 45.55 45.15 42.15 41.26 45.04 48.94 52.37 53.54 53.26 52.96 53.31 53.18 53.04 53.59 53.27 53.63 53.00 52.60 52.87 52.59 52.73 53.61 54.90 57.38 56.84 55.81 57.42 56.46 54.78 55.74 57.48 59.72 62.49 61.79 61.67 60.63 59.72 58.18 57.84 56.22 54.42 52.69 50.50 48.23 47.77
38.99 44.91 46.03 45.11 41.25 34.91 40.99 31.53 43.38 48.27 49.06 51.52 52.42 51.92 52.58 54.02 54.34 54.40 54.05 53.62 53.49 52.81 54.48 54.93 53.84 53.89 55.95 58.03 57.01 55.89 56.78 55.79 56.00 54.76 56.95 60.78 61.78 61.24 61.81 61.06 59.95 58.41 58.52 56.71 54.97 54.62 52.57 51.57 48.10
42.51 47.60 46.38 44.99 40.40 38.29 39.11 34.90 39.27 47.71 45.49 47.58 50.73 52.19 52.23 54.90 54.45 54.28 53.74 54.38 55.05 54.93 54.65 55.95 55.91 55.78 57.12 58.12 58.44 58.40 58.25 57.82 55.98 56.06 56.14 60.14 60.31 60.55 60.63 60.42 59.82 58.76 59.24 58.04 56.16 54.55 53.28 52.30 49.73
48.20 46.63 44.97 43.40 40.02 31.66 39.41 38.21 37.54 42.52 44.68 48.68 51.18 52.12 53.03 53.57 55.19 55.69 56.01 55.87 55.99 56.95 56.26 56.58 56.92 57.39 58.08 58.15 58.76 60.11 60.06 58.79 56.38 56.06 57.03 60.23 60.23 60.32 61.55 61.38 59.69 59.37 57.72 57.29 55.62 53.60 52.96 50.36 49.29
44.80 40.00 32.41 31.40 29.74 29.25 42.40 39.84 39.18 45.15 47.65 50.00 50.49 51.82 53.34 54.41 54.71 55.43 56.07 56.33 56.56 56.72 57.43 57.88 58.32 57.98 58.65 58.33 58.59 60.30 59.66 59.45 58.36 57.50 57.98 57.85 58.67 57.56 58.74 59.58 58.46 57.88 57.02 55.82 54.26 51.76 49.54 49.15 48.46
42.68 40.55 32.93 27.93 27.33 33.38 42.32 36.35 40.07 47.62 48.98 49.55 50.63 53.57 53.64 54.35 55.51 56.06 56.78 57.59 58.15 58.20 58.63 58.46 58.64 58.42 59.07 59.04 59.83 60.63 60.31 59.99 59.84 58.81 57.99 58.58 58.76 58.46 58.13 58.20 57.37 56.00 54.97 52.74 51.44 49.96 48.84 48.49 47.39
42.16 38.45 43.86 38.82 38.73 34.12 37.52 41.02 46.20 48.03 46.54 46.79 47.52 48.53 51.73 53.01 54.67 55.64 57.13 57.94 58.24 58.93 58.95 59.14 59.17 59.31 59.98 59.97 60.37 59.96 60.20 59.87 60.11 58.79 58.99 58.50 56.80 56.26 56.08 57.02 55.29 54.58 51.95 50.44 49.79 48.64 47.67 47.38 45.13
44.61 45.94 37.26 39.12 30.31 30.20 35.71 36.86 37.69 42.78 45.57 45.64 44.88 46.14 48.98 50.63 53.84 55.48 56.37 56.74 57.99 59.40 59.87 60.04 60.56 60.61 60.84 59.85 60.94 60.97 60.87 59.11 59.54 59.47 57.84 57.84 57.60 56.26 55.24 55.16 53.44 51.70 50.05 49.01 48.07 46.85 45.83 45.27 44.74
41.98 41.02 42.25 41.50 37.62 29.63 27.80 33.50 43.75 44.33 47.41 45.83 45.19 47.68 49.03 50.27 51.13 52.52 55.12 57.12 57.59 57.92 58.85 60.15 60.48 60.07 60.46 60.36 60.62 60.97 59.39 58.54 59.60 59.43 58.80 58.40 56.76 54.84 54.16 52.29 51.59 49.85 48.83 48.17 46.46 45.46 44.68 45.16 44.30
45.48 42.54 42.43 34.81 35.06 36.51 30.67 34.04 47.26 46.10 47.49 47.81 47.57 48.32 48.19 51.43 52.22 53.03 53.72 54.44 55.38 57.99 58.26 59.08 59.93 60.57 60.72 60.32 60.45 60.68 59.69 59.36 59.02 58.16 58.16 57.84 56.12 53.44 52.01 51.50 50.31 48.87 48.08 46.95 45.62 44.10 43.78 43.81 43.67

GFSSGP_sfc_wetblb_054.txt.gz
Wetbulb
56.18 55.77 55.18 50.92 39.46 34.67 31.47 36.67 41.35 41.57 41.93 51.45 54.89 52.14 49.71 52.76 53.38 49.56 63.32 64.13 64.35 66.62 69.87 69.91 69.91 71.68 71.86 71.63 71.37 71.22 71.00 70.76 70.61 70.95 71.52 71.42 70.66 70.15 69.84 69.52 69.03 68.56 68.76 68.18 67.98 67.77 67.54 67.57 67.33
54.72 56.58 51.94 45.23 34.35 28.53 31.85 39.06 39.52 44.61 47.54 54.15 54.89 53.87 53.15 51.61 56.60 58.92 59.87 64.02 64.20 64.90 69.10 69.38 70.12 70.69 71.22 71.23 71.08 70.78 70.78 70.61 70.61 71.04 71.50 71.50 70.39 69.89 69.59 69.03 68.50 68.22 68.47 68.31 67.65 67.50 66.84 66.02 66.68
54.99 54.50 45.13 39.21 31.69 29.87 32.47 39.13 43.93 48.49 54.18 53.26 52.49 59.58 56.13 54.06 57.71 59.02 63.36 64.09 63.28 64.49 66.68 69.41 69.78 69.51 70.14 71.14 70.81 70.32 69.92 70.01 70.42 70.71 71.28 71.50 70.32 69.89 69.61 68.88 68.30 68.03 68.10 67.73 67.39 66.64 65.61 65.60 66.00
52.02 47.74 44.36 36.68 33.90 38.48 39.82 43.48 46.44 50.82 52.79 54.34 52.50 53.16 59.47 60.33 60.64 61.87 63.98 64.21 62.77 64.94 66.41 65.48 68.05 69.46 70.16 71.01 70.44 69.67 69.19 69.24 69.73 70.15 70.70 71.31 70.28 69.91 69.24 68.39 68.13 67.87 67.73 66.71 66.41 65.61 64.81 64.96 65.62
50.56 43.50 36.04 33.08 36.55 40.47 44.43 48.32 49.33 51.55 52.12 52.23 52.82 49.38 54.66 59.14 63.51 65.39 66.86 67.28 66.62 66.93 67.22 68.02 68.17 68.69 69.31 69.54 69.45 69.14 68.96 69.01 69.49 69.77 70.02 70.58 70.21 69.60 68.86 68.19 67.74 67.41 67.01 65.67 64.91 64.57 65.17 64.84 65.75
43.79 41.90 33.71 31.48 36.79 42.61 45.53 50.32 51.45 51.48 51.41 51.75 51.08 50.42 50.78 58.03 61.24 63.42 66.84 66.91 67.78 67.56 67.74 67.38 68.38 68.12 68.62 68.19 66.60 67.74 68.60 69.01 69.04 69.48 69.64 70.01 69.93 68.97 68.65 68.02 67.45 67.32 66.95 66.17 65.41 65.09 64.76 64.60 64.52
41.39 38.09 33.98 34.81 38.89 40.58 46.00 49.79 49.73 50.93 50.43 51.20 54.54 52.01 53.05 54.80 60.52 63.51 65.94 66.29 66.32 66.68 66.77 64.94 66.46 67.74 67.00 66.42 65.79 65.77 67.97 68.81 69.11 69.23 69.17 69.14 69.00 68.38 68.15 67.75 67.48 67.00 66.34 65.62 64.94 64.27 64.00 64.03 63.55
43.14 39.90 34.42 36.64 36.98 40.77 46.39 49.87 51.43 50.89 51.18 57.01 56.02 51.10 53.84 58.36 61.76 64.29 64.26 64.01 65.23 65.66 66.10 65.81 65.80 66.01 64.54 64.47 64.71 65.23 67.42 67.60 67.91 68.45 68.27 68.03 68.13 67.74 67.31 66.70 66.73 66.22 65.69 65.09 64.48 63.38 63.28 63.08 62.45
44.65 36.74 33.79 36.89 41.24 43.78 50.05 51.09 52.14 54.58 53.24 54.18 54.81 55.29 57.58 60.58 61.84 62.09 61.74 61.41 62.35 63.04 64.37 64.97 63.92 62.92 62.89 62.79 62.98 64.51 67.19 66.86 66.91 67.15 67.02 65.99 66.28 65.76 64.54 65.40 65.59 65.69 65.00 64.33 63.71 63.04 62.07 60.12 61.34
41.18 34.81 38.06 42.84 44.02 46.24 50.87 49.08 50.76 51.79 51.77 51.62 52.20 56.40 60.23 59.34 60.19 59.80 59.42 58.33 59.92 60.22 61.25 62.77 62.89 61.77 60.55 61.02 63.32 65.17 65.39 63.99 63.47 62.27 62.84 62.73 63.25 63.62 64.09 64.57 64.53 64.21 63.80 63.35 62.78 62.00 61.02 57.74 53.25
40.07 38.60 44.40 44.88 46.66 48.33 48.89 49.33 53.23 49.64 47.19 52.79 53.85 54.56 59.32 58.05 57.42 57.61 59.02 59.67 59.47 59.89 60.28 60.96 61.49 61.44 60.39 59.66 60.79 64.38 62.97 61.56 59.75 59.71 60.54 62.48 62.86 62.15 62.36 61.94 61.53 61.27 61.60 59.55 58.77 56.82 54.94 55.77 53.23
39.27 44.44 45.65 45.28 47.90 49.08 48.61 50.68 51.42 52.40 54.04 58.21 58.21 58.88 58.05 57.08 57.17 56.29 57.15 56.95 58.47 59.21 58.97 59.47 60.44 60.51 60.46 62.51 63.67 62.73 61.37 60.19 59.61 59.96 60.32 60.53 60.12 59.40 59.69 59.80 59.64 58.84 57.45 56.32 55.01 54.12 55.40 54.34 53.71
43.65 45.16 47.38 47.52 50.54 49.10 51.26 49.27 49.92 52.19 55.98 57.85 58.33 57.67 56.86 56.44 55.97 55.81 56.13 56.87 56.79 57.35 57.44 57.94 58.61 58.52 58.60 57.92 60.57 61.26 60.45 60.00 60.51 60.61 60.01 59.42 57.80 57.59 58.27 58.39 57.41 56.66 56.27 53.60 54.08 55.25 55.04 53.14 52.98
46.58 46.96 46.29 45.88 49.24 50.13 48.42 48.86 49.68 50.61 56.49 56.18 56.36 55.57 55.61 54.80 54.74 54.77 54.77 54.97 55.63 56.53 56.52 57.45 57.49 57.36 58.12 56.51 57.93 59.81 59.84 59.29 60.60 60.66 60.18 59.05 57.88 57.87 57.54 57.31 56.41 55.90 56.26 54.45 55.31 55.33 54.20 53.13 51.62
47.58 43.15 44.61 44.76 47.38 47.50 48.58 44.51 46.55 52.87 55.81 54.58 54.07 54.53 54.94 54.56 54.92 54.09 54.40 54.41 55.91 56.35 56.58 56.70 56.27 57.58 57.14 56.27 56.84 58.24 58.61 58.83 59.47 59.40 60.69 59.82 59.48 58.80 58.05 58.54 58.62 57.65 56.98 56.27 56.40 55.38 54.52 52.92 52.55
43.48 41.87 36.93 43.22 48.38 48.55 46.01 41.09 47.03 52.69 53.85 53.21 53.36 53.43 53.39 53.55 54.54 54.35 54.03 54.58 55.57 55.55 55.59 56.30 57.35 56.72 56.22 55.61 55.80 56.95 57.51 58.85 58.46 58.11 59.87 60.36 61.07 60.19 59.66 59.68 60.11 59.83 58.93 57.21 55.90 55.29 54.21 52.39 51.50
39.19 34.93 37.72 41.10 46.59 48.28 46.11 42.23 47.77 50.14 51.58 52.86 52.47 52.51 51.93 52.52 53.46 54.13 53.91 54.13 55.23 54.94 54.74 54.92 55.71 55.27 55.71 56.16 55.65 56.38 56.65 57.43 58.33 57.47 59.35 59.79 60.53 61.29 59.76 59.85 59.29 59.25 58.10 56.83 56.72 54.75 53.83 51.77 49.99
34.86 35.64 34.62 36.72 45.72 46.21 45.31 43.45 45.44 51.31 52.93 52.18 51.59 51.20 51.54 51.50 51.87 52.33 53.96 54.10 55.25 54.59 54.65 54.57 55.40 55.22 55.77 55.96 55.65 56.03 55.93 56.06 56.81 57.54 57.25 59.16 59.80 59.89 59.86 59.76 59.31 59.16 57.00 55.77 55.16 54.38 53.76 52.51 50.72
41.32 39.62 38.32 41.74 45.86 46.54 44.06 43.22 45.26 47.95 49.39 50.88 51.54 50.35 51.01 52.12 52.96 52.17 52.87 53.39 54.38 54.50 54.34 54.25 54.34 54.96 55.58 54.85 54.03 54.07 53.52 54.20 54.94 56.15 56.89 57.40 59.26 59.55 59.08 60.01 58.94 58.48 57.50 56.51 55.55 54.32 52.94 49.71 48.33
42.05 40.03 39.83 42.51 46.86 45.15 42.28 43.03 43.92 46.25 48.33 48.98 50.57 51.29 51.47 52.37 52.04 51.97 52.02 51.93 53.33 52.96 53.59 53.98 53.51 54.30 55.10 55.36 54.57 53.71 53.27 52.83 54.96 55.80 56.35 57.11 58.52 59.77 59.84 59.57 59.01 58.32 57.18 56.03 55.17 53.49 50.20 49.72 46.46
41.97 40.52 39.54 39.94 44.53 43.10 42.91 39.94 43.74 47.80 49.81 51.52 52.52 52.90 52.71 52.02 51.66 51.96 52.08 50.78 52.71 52.16 52.22 53.23 53.22 53.21 53.89 55.13 54.06 51.23 51.59 54.46 54.29 55.23 55.49 56.49 58.14 59.49 59.96 59.75 58.73 57.56 56.92 56.18 54.82 53.03 51.37 50.21 48.86
38.76 44.77 42.53 42.57 39.34 33.82 39.46 30.94 40.14 44.89 46.01 49.91 51.34 50.63 50.98 52.23 52.66 52.73 52.30 51.09 51.68 52.40 52.71 53.22 53.60 53.05 53.20 54.28 54.72 51.39 51.70 51.78 54.57 55.11 55.83 56.18 58.16 59.69 60.52 60.48 58.85 57.75 57.88 56.39 55.51 54.32 52.20 52.52 49.43
41.83 45.65 43.43 43.43 38.72 36.11 37.09 33.45 36.67 45.08 43.70 47.29 50.18 50.92 50.98 52.52 52.76 52.09 52.42 52.21 52.57 53.23 52.40 52.76 52.69 53.32 53.46 53.46 56.25 53.75 51.75 53.77 55.84 55.04 53.68 55.61 58.31 59.91 60.54 60.14 58.78 58.15 58.18 58.45 56.71 55.05 53.04 52.55 50.21
47.24 44.29 42.62 40.79 37.77 30.87 37.29 35.34 34.34 41.51 45.54 47.87 50.01 51.71 51.89 52.60 53.08 53.51 53.61 53.43 53.16 52.74 52.33 51.96 51.60 52.79 53.56 53.27 55.47 54.99 53.23 53.94 55.25 54.66 53.51 54.65 58.10 59.17 59.81 60.47 59.39 58.39 58.38 58.04 57.85 55.95 54.46 51.84 50.19
43.82 38.39 30.67 29.47 28.90 28.65 39.56 37.18 37.85 44.78 48.34 50.02 49.84 50.74 52.05 53.46 53.32 53.53 52.70 52.65 53.18 52.05 52.02 53.15 52.13 51.50 52.61 52.96 54.49 55.48 55.18 55.15 56.56 56.73 54.79 54.57 57.58 57.33 58.99 59.80 58.85 58.54 57.75 57.98 57.29 54.40 53.19 50.06 49.02
40.86 39.53 31.34 26.83 26.77 31.36 39.77 34.41 39.20 45.71 47.31 51.56 52.11 51.98 52.82 52.41 54.34 53.71 53.48 53.56 53.64 53.77 53.25 53.50 53.85 52.66 53.16 53.51 54.80 55.74 56.12 57.10 58.73 58.98 56.68 55.85 57.48 58.17 57.95 58.06 57.38 57.09 56.87 55.53 53.84 51.92 50.18 49.39 48.98
41.28 37.77 42.01 36.16 36.52 31.44 35.06 39.68 43.87 45.18 45.12 46.52 49.52 51.31 51.10 52.02 53.12 54.52 54.78 54.19 54.31 54.60 54.78 54.34 54.69 54.76 55.01 55.37 56.03 56.43 56.93 57.54 59.10 59.24 57.45 57.54 57.27 56.89 57.19 57.20 56.17 55.05 54.93 53.00 50.85 49.37 48.33 48.80 47.91
43.22 45.12 35.91 36.71 29.09 27.04 33.86 36.56 36.39 41.43 43.18 44.05 44.55 48.56 50.53 52.42 53.22 54.18 55.48 55.77 55.93 56.05 56.32 56.37 56.44 56.05 57.02 57.53 57.55 57.52 57.68 58.99 59.46 58.31 57.92 57.37 57.21 55.79 55.55 55.17 54.85 53.75 51.83 49.98 49.40 48.25 47.75 46.61 45.83
40.45 38.79 40.67 39.88 36.16 28.92 26.94 32.82 41.63 42.36 45.22 43.77 43.31 46.53 48.29 51.44 53.06 54.12 55.63 56.55 57.48 58.06 57.60 57.17 57.39 57.88 58.21 58.82 58.61 58.40 58.56 59.12 58.40 58.82 58.43 58.09 57.99 56.61 55.29 55.07 53.01 51.07 48.84 47.71 48.21 47.19 46.24 45.60 45.02
42.02 41.17 40.76 34.25 33.38 34.20 29.78 34.00 44.43 44.47 45.92 46.57 46.56 46.60 47.93 50.42 52.71 54.27 54.66 56.29 56.93 57.55 57.87 58.21 58.36 58.45 59.12 59.39 59.66 59.20 59.70 59.18 59.22 58.43 58.21 58.81 57.31 56.09 55.63 53.36 51.47 49.94 48.42 47.19 46.80 45.43 45.87 44.89 43.85

GFSSGP_sfc_wetblb_057.txt.gz
Wetbulb
55.88 56.36 52.91 48.72 37.88 34.82 31.45 35.11 38.54 39.86 40.78 46.05 52.69 50.01 48.79 51.41 52.75 46.80 62.74 63.71 67.53 69.19 69.49 69.09 69.43 69.81 69.55 70.19 70.83 71.03 70.98 71.37 71.56 71.38 70.63 70.36 70.17 69.97 69.30 68.79 69.10 69.59 69.75 68.70 68.59 68.43 68.09 68.01 67.91
53.29 54.87 49.42 42.09 33.82 27.99 31.21 37.17 38.24 41.27 47.80 53.39 53.04 52.53 51.96 51.25 56.28 58.80 60.64 63.73 64.88 65.58 66.58 67.50 67.90 68.29 68.28 68.19 70.10 70.77 70.86 71.42 71.44 70.99 70.48 70.36 70.00 69.54 68.91 68.42 68.64 69.35 69.41 68.11 67.70 67.50 67.30 67.12 67.31
52.99 51.83 44.13 38.16 30.00 29.41 31.45 37.99 41.32 44.58 52.42 51.65 51.67 57.89 55.54 52.21 57.14 59.71 62.76 63.97 63.75 63.87 68.06 67.75 66.87 66.59 67.62 67.54 69.77 70.32 70.21 70.68 71.03 70.52 70.34 70.27 69.93 69.42 68.72 67.94 68.42 69.03 69.07 67.39 66.77 66.16 65.93 67.14 66.50
51.01 46.68 42.70 36.14 32.98 36.70 38.15 42.10 42.89 49.39 51.01 52.73 51.92 52.69 58.55 60.36 60.66 60.75 64.35 63.68 63.60 63.54 67.44 67.99 66.99 65.61 68.17 68.78 69.77 69.64 69.93 70.09 70.37 70.12 69.93 70.00 69.83 69.25 68.21 67.36 68.18 69.01 68.56 66.64 65.24 65.42 66.18 66.27 65.60
48.62 42.95 35.40 31.65 33.61 39.18 41.82 43.33 47.21 50.06 51.12 51.14 51.52 49.31 54.36 58.50 61.03 64.95 64.42 63.67 62.26 63.09 65.30 67.95 67.65 68.19 69.17 69.58 68.58 68.77 69.64 69.67 70.16 70.13 69.28 69.41 69.44 68.93 67.89 67.33 67.62 68.06 67.70 66.01 64.79 65.92 66.72 65.96 65.02
41.96 40.36 33.40 30.62 34.89 40.71 42.11 45.78 50.13 51.14 50.83 50.95 49.97 48.60 49.81 57.56 59.59 62.83 65.50 65.12 64.79 64.46 66.26 65.22 68.21 68.25 68.19 67.92 67.68 66.93 68.49 69.31 69.64 69.51 68.95 69.22 68.78 68.20 67.84 67.31 67.02 66.87 66.10 65.52 65.26 65.92 66.08 65.24 64.36
40.34 36.97 32.79 32.86 36.43 38.84 43.01 47.81 49.14 50.14 49.22 50.10 53.53 50.58 52.32 54.30 59.98 63.37 66.28 66.37 66.52 65.64 65.82 66.08 67.06 66.48 65.19 64.14 62.92 63.07 66.07 68.54 68.41 68.41 68.40 68.29 67.90 67.35 67.43 67.01 66.54 65.62 64.96 64.75 64.44 64.48 64.84 64.90 63.79
41.81 39.12 32.86 34.87 35.40 36.98 44.01 49.06 50.73 50.15 49.93 56.71 54.66 49.78 52.68 57.58 61.43 64.34 64.49 63.94 65.16 64.80 64.08 65.78 65.49 65.60 63.75 62.58 62.99 64.09 66.51 67.62 67.46 67.82 68.24 67.26 67.27 66.97 66.60 65.96 65.39 65.02 64.85 64.46 64.20 63.78 64.23 64.45 63.88
42.59 35.86 32.00 35.35 36.47 40.41 50.44 49.20 50.96 53.40 51.97 53.47 54.57 55.14 57.80 60.06 61.80 60.99 59.88 60.90 63.44 64.12 63.90 64.78 64.26 63.80 62.88 61.96 62.07 64.25 66.57 67.25 67.58 67.94 67.51 65.88 65.48 64.46 63.31 64.30 64.82 64.59 64.50 64.23 63.20 61.94 62.86 63.43 62.74
39.76 34.39 36.54 41.41 41.47 42.33 49.93 48.10 49.78 50.40 50.81 51.08 51.87 56.61 59.29 58.51 60.09 59.27 58.59 58.78 60.16 61.67 62.47 62.03 62.15 61.28 61.23 61.35 61.58 63.36 65.27 66.08 66.97 67.19 66.22 65.51 63.21 62.49 63.31 63.73 63.94 63.47 63.34 63.16 62.69 61.51 59.97 57.71 55.34
38.87 37.25 41.10 43.67 43.54 47.16 48.00 47.92 51.66 48.79 46.00 51.27 52.39 53.18 57.63 56.79 57.01 58.00 58.23 58.93 59.32 60.90 61.64 60.98 60.66 60.72 59.17 57.87 58.22 61.95 64.24 64.08 61.46 61.24 63.19 62.91 62.85 62.73 61.68 60.80 60.34 60.49 60.55 57.70 56.48 54.34 54.78 52.82 53.15
37.81 42.25 42.69 43.42 44.61 48.34 47.23 49.08 50.00 50.77 52.27 57.16 56.34 55.79 55.61 55.45 56.34 57.12 57.75 58.45 58.71 59.52 60.52 60.64 59.76 58.80 58.71 58.97 57.55 60.99 62.16 61.44 61.24 61.69 62.66 61.62 60.74 60.30 59.80 58.75 58.47 57.78 56.66 54.90 54.46 54.88 54.01 52.37 50.92
40.85 43.58 45.62 46.40 47.16 47.17 50.01 48.23 49.96 52.73 55.11 57.28 57.03 56.33 55.25 54.77 55.67 55.65 56.97 57.45 58.64 58.31 59.16 59.96 60.57 59.60 57.73 57.11 58.91 61.83 60.48 60.15 60.38 61.00 61.82 60.93 59.31 58.43 58.03 57.54 56.83 56.08 54.47 53.85 52.99 54.37 52.69 51.98 50.30
45.09 45.25 44.93 44.80 48.12 48.76 46.95 47.36 47.35 51.52 55.47 55.75 55.25 54.88 54.30 55.00 54.59 54.89 55.27 55.71 56.85 57.65 58.01 58.79 59.01 59.98 59.40 60.08 61.29 59.95 58.33 59.17 60.05 60.16 60.15 59.03 58.05 58.14 57.25 56.70 56.23 54.69 54.24 53.74 53.83 54.57 52.24 51.50 49.08
45.65 41.68 42.93 43.07 46.76 46.43 47.58 43.78 45.05 50.01 54.88 53.82 53.18 53.04 54.19 54.11 55.06 54.54 54.86 55.33 56.49 57.09 57.61 57.28 57.56 57.95 58.16 58.63 58.94 59.24 58.54 59.88 59.33 59.07 58.90 57.79 57.31 57.31 57.00 56.63 56.47 55.04 54.90 53.62 54.76 53.96 52.67 50.58 49.88
41.42 39.88 35.55 41.52 46.36 47.41 46.05 40.38 44.19 51.91 53.43 51.71 52.03 53.15 52.87 53.42 53.49 53.48 54.37 55.41 56.49 56.85 56.66 57.16 58.23 57.12 57.52 58.21 58.55 58.31 58.09 59.29 59.11 59.42 59.14 58.27 58.15 58.05 57.32 57.81 57.11 56.84 55.88 54.43 54.65 53.85 52.48 51.00 50.45
36.59 32.39 35.33 39.39 45.45 44.90 44.25 41.52 44.71 52.90 53.52 51.65 51.35 51.19 51.02 49.38 51.16 53.01 54.19 55.14 55.57 56.05 56.21 56.51 56.77 56.01 55.79 56.26 56.35 56.55 57.10 57.72 58.04 59.36 59.62 59.56 59.31 59.48 58.64 58.73 58.84 58.07 57.74 56.20 55.16 53.76 52.89 50.83 50.06
32.05 34.05 32.87 35.34 40.59 44.07 41.90 43.29 43.94 48.18 48.46 51.37 50.34 50.40 50.06 50.14 50.26 52.17 53.74 54.87 55.06 55.24 55.69 55.85 55.81 55.77 55.55 55.28 55.84 55.81 55.51 56.23 57.25 57.15 58.57 59.69 60.00 60.08 59.46 59.02 58.83 59.35 57.86 56.75 54.84 53.76 52.95 51.77 50.27
38.60 36.92 35.63 39.32 43.27 43.84 43.08 40.88 43.97 47.80 50.11 49.54 49.40 49.57 49.53 49.80 51.09 51.36 53.58 54.36 54.46 54.01 54.13 54.64 54.66 55.37 55.35 54.74 54.04 53.94 53.50 54.46 55.30 56.81 57.58 58.41 59.14 58.89 58.70 58.79 58.28 57.98 56.72 56.04 55.28 53.27 52.32 50.41 49.00
39.10 37.17 37.17 40.83 43.89 43.83 41.92 40.96 43.76 45.46 46.72 50.38 50.54 49.72 49.28 50.32 50.29 50.99 51.75 52.98 53.94 53.41 53.78 54.28 54.28 54.81 55.04 54.62 54.91 54.26 53.55 53.65 55.12 55.57 55.90 56.81 57.28 58.20 58.29 58.58 58.24 58.22 56.92 55.31 54.28 53.00 50.71 51.00 47.47
39.01 37.43 37.93 38.46 41.63 41.61 40.32 38.54 41.54 45.76 47.61 49.57 51.32 52.14 51.04 50.46 50.21 50.12 50.57 50.90 53.23 53.25 53.29 53.33 54.02 54.37 54.67 55.12 54.19 52.78 52.66 53.10 53.88 54.40 55.04 55.68 56.75 57.62 58.50 58.10 57.78 56.81 56.23 55.89 54.28 53.51 51.35 50.90 47.36
35.86 42.23 42.00 39.72 37.06 33.28 38.38 29.92 36.38 43.10 44.48 47.76 49.18 50.62 51.13 51.37 51.89 51.15 51.31 49.60 51.11 52.67 53.61 53.25 52.71 52.77 53.59 55.36 54.07 52.64 51.65 51.49 51.63 53.64 54.75 55.43 56.23 56.58 57.99 58.43 57.90 57.05 57.11 55.63 55.51 54.96 52.36 51.81 49.70
39.60 44.13 42.26 40.57 37.42 34.64 34.90 31.41 35.50 42.51 42.73 44.81 47.85 50.02 51.04 51.60 51.70 51.29 51.10 50.36 51.10 52.62 51.18 52.82 52.95 52.57 53.00 53.23 54.20 52.17 50.00 50.43 51.15 53.63 53.78 53.88 55.05 56.29 57.59 58.24 57.66 57.46 57.61 57.36 55.89 54.16 52.08 51.81 51.97
45.31 42.24 40.47 38.77 36.11 29.54 35.44 33.82 32.84 38.90 43.01 45.22 47.46 50.30 50.91 51.03 51.83 52.02 52.36 51.81 50.72 51.70 51.43 51.37 52.29 52.79 52.50 52.17 53.43 53.23 50.88 49.98 50.93 52.15 52.96 53.74 53.82 55.89 57.26 58.32 58.43 58.02 57.57 56.73 56.65 55.75 54.45 53.38 52.91
41.54 36.73 29.36 28.07 27.79 27.78 37.52 34.37 35.73 41.38 45.89 47.51 47.84 49.84 51.23 51.36 51.58 51.48 51.11 50.83 50.97 50.96 51.28 51.19 51.36 51.67 52.49 52.06 52.20 53.91 53.96 51.52 51.31 52.33 53.37 53.42 53.03 54.22 56.72 57.78 57.45 58.39 58.75 58.61 57.83 56.41 55.91 54.10 52.36
40.02 38.00 29.97 25.76 25.59 29.37 37.85 33.12 38.01 43.94 46.52 48.45 49.96 51.06 51.55 51.43 52.08 52.21 51.93 51.67 51.41 51.68 51.54 51.52 51.29 51.18 52.21 52.12 51.74 52.44 54.29 54.40 53.32 52.99 54.44 54.82 54.49 55.17 56.70 57.09 58.02 58.33 56.53 55.77 55.47 55.16 54.50 52.11 50.79
39.15 35.15 40.53 33.62 34.16 30.49 33.49 37.96 42.64 44.17 43.95 45.36 48.04 48.95 49.49 50.61 52.07 52.66 53.18 52.64 51.84 52.26 51.67 51.50 51.79 51.31 51.84 52.57 52.31 51.88 53.12 53.77 54.08 54.12 55.05 56.98 55.47 55.59 55.79 57.66 57.36 55.79 55.47 55.36 53.38 51.91 50.41 49.86 49.67
42.01 43.14 34.75 34.64 28.28 26.51 31.10 33.61 35.00 40.58 42.44 43.85 43.93 47.08 48.86 50.94 51.95 53.31 53.73 53.63 53.47 53.39 52.97 52.30 52.60 52.01 51.85 51.88 52.33 52.09 52.88 54.03 54.72 55.16 56.02 57.55 57.55 56.83 55.87 55.61 55.49 54.73 54.34 53.78 51.68 48.60 47.94 48.41 48.04
38.62 37.78 38.45 38.82 34.02 27.74 26.27 30.66 40.32 41.94 44.11 43.37 43.01 44.19 48.32 49.75 51.45 52.86 54.32 54.78 54.58 54.61 54.14 53.49 52.98 53.18 53.35 53.21 53.14 53.09 53.62 54.58 55.31 55.78 57.22 57.48 57.18 57.50 57.09 56.49 55.47 54.52 52.53 50.18 48.12 46.95 47.62 47.09 46.16
41.52 39.35 39.49 32.26 31.64 31.79 28.49 33.31 42.74 43.55 43.76 44.05 43.53 44.32 45.25 49.11 51.54 52.81 53.65 55.01 54.60 54.15 54.45 54.43 54.84 54.48 55.04 54.96 54.94 54.74 55.30 55.92 56.26 56.87 58.26 58.21 57.71 57.80 57.52 57.82 55.45 53.26 52.20 51.11 49.82 47.38 47.22 46.20 45.52

GFSSGP_sfc_wetblb_063.txt.gz
Wetbulb
59.13 58.25 56.94 53.22 45.59 44.01 40.98 42.19 43.81 43.61 44.68 47.90 54.22 51.84 51.50 54.04 52.60 50.07 64.72 66.86 70.12 69.85 70.78 70.68 70.55 71.41 71.55 71.98 72.13 72.09 72.05 72.12 71.85 71.80 71.41 71.22 70.97 70.56 70.17 69.78 69.56 69.65 69.60 68.33 68.15 67.90 67.93 67.56 67.01
56.49 56.38 53.87 48.25 43.24 40.34 41.61 42.57 42.36 45.49 47.68 53.55 54.52 55.90 54.08 53.74 58.66 60.97 62.83 65.92 70.29 70.22 70.53 70.62 70.41 70.83 71.26 71.46 71.64 71.76 72.16 71.99 71.57 71.44 71.20 70.81 70.46 70.29 69.98 69.68 69.27 69.39 69.32 67.91 67.53 67.37 67.31 67.22 66.52
55.60 53.08 50.84 44.96 40.79 40.17 40.75 43.01 45.49 46.34 48.14 51.32 52.92 59.15 56.11 55.34 58.14 62.91 64.75 66.49 69.45 70.00 70.62 70.59 70.09 70.23 70.86 71.08 71.39 71.31 71.32 70.97 70.85 70.80 70.79 70.31 70.41 70.44 70.07 69.31 69.12 69.46 69.65 68.66 67.77 66.81 66.45 66.21 66.24
53.92 52.14 47.79 44.77 40.75 42.81 43.24 46.80 46.27 46.82 51.90 54.33 54.79 54.99 59.89 61.05 59.48 62.35 65.40 66.63 66.06 67.89 69.26 68.38 68.32 69.01 70.50 70.83 71.17 70.88 70.49 69.91 70.05 69.99 70.09 70.17 70.41 70.34 69.63 69.04 69.15 69.56 69.42 69.30 67.53 66.45 65.84 65.83 65.26
51.90 49.22 44.16 41.63 40.98 43.23 44.79 45.95 46.35 46.94 52.18 52.96 53.46 52.09 55.89 60.23 61.78 64.09 65.82 65.72 64.79 66.10 68.55 68.56 66.32 68.53 69.62 70.77 71.12 70.46 69.75 69.44 69.48 69.51 69.28 69.74 70.04 69.84 69.15 68.77 68.75 68.97 68.93 68.88 66.93 65.27 64.95 65.16 64.75
48.65 47.47 42.40 40.15 40.59 43.49 45.83 47.13 47.71 50.05 52.77 52.63 52.41 51.78 53.47 59.54 59.58 62.55 64.90 65.96 64.97 66.03 68.17 67.75 66.24 67.93 68.41 69.09 69.18 69.53 69.28 69.11 69.04 68.91 68.81 69.34 69.00 68.58 68.49 68.09 67.68 67.75 68.26 67.94 66.61 65.47 65.00 64.50 64.16
47.49 45.12 41.18 39.91 40.81 42.71 45.17 50.01 51.24 51.48 51.98 52.46 54.86 51.67 55.45 55.81 60.70 63.55 65.13 65.97 65.01 65.86 65.72 68.09 67.65 67.83 67.62 67.30 66.95 67.72 68.31 68.65 68.48 68.23 67.84 68.03 67.50 67.44 67.65 66.94 67.17 67.35 67.68 66.82 65.79 65.31 64.73 64.19 63.57
47.64 46.39 40.14 40.97 41.01 41.92 46.23 50.08 52.86 52.30 51.43 56.78 56.70 51.98 53.32 59.28 61.88 64.33 64.94 65.80 66.94 64.76 65.66 67.89 66.70 67.62 67.69 67.22 65.21 66.41 67.10 67.33 67.80 67.51 66.94 66.56 66.60 66.88 66.82 66.01 66.96 67.38 67.25 66.33 65.41 64.80 64.40 63.86 63.22
47.09 43.51 40.52 41.57 40.96 44.64 46.80 48.73 52.28 55.01 53.84 54.90 55.85 55.30 57.76 60.39 61.85 61.96 62.01 63.41 63.55 64.62 65.63 66.59 65.10 65.86 66.76 65.64 65.36 65.89 65.16 66.80 66.97 67.15 66.47 65.80 67.58 66.41 64.64 64.39 65.85 66.69 65.79 65.11 64.64 64.32 63.66 62.92 62.64
46.49 42.62 42.62 45.39 45.37 45.62 47.10 47.31 48.78 51.63 51.85 52.74 53.81 56.12 59.22 59.95 60.66 60.07 59.07 59.24 61.15 61.22 63.17 63.71 63.21 62.94 63.31 62.21 62.04 63.22 64.06 64.13 65.28 66.42 66.47 65.65 65.20 63.53 62.83 64.15 64.21 64.76 64.91 64.59 64.17 63.81 63.14 61.88 61.34
44.39 43.25 44.41 45.35 46.77 46.75 45.64 48.46 52.53 51.07 50.14 52.78 52.34 54.16 57.18 58.00 58.24 59.10 59.31 59.58 60.54 61.52 62.25 63.11 60.87 60.40 60.73 59.48 59.37 61.47 63.37 63.73 63.95 65.50 64.99 64.49 63.00 63.50 64.19 63.14 62.92 63.68 64.03 64.11 63.60 62.68 61.42 61.15 60.67
42.89 45.19 45.51 46.57 46.38 46.86 45.66 50.85 51.29 52.09 52.33 56.21 56.84 56.57 57.21 55.75 57.01 57.52 58.92 59.16 59.98 60.71 60.74 60.66 60.34 60.23 59.87 59.53 58.82 59.66 60.34 61.53 62.80 63.81 65.28 63.46 61.87 62.47 61.83 61.01 60.87 61.15 61.43 62.99 62.80 60.90 61.14 60.71 60.11
42.97 45.11 45.73 46.99 47.32 47.38 50.52 50.15 50.60 51.56 55.59 58.20 57.85 57.18 56.52 55.60 56.46 56.86 58.31 59.31 59.84 60.16 60.23 60.55 61.05 60.64 59.99 59.51 60.03 60.54 60.27 61.39 61.61 63.12 64.81 62.09 60.79 60.32 61.15 60.48 60.03 59.49 60.01 60.65 59.62 60.12 59.82 59.57 59.73
46.59 45.56 46.75 47.72 47.50 49.08 48.99 48.76 49.65 51.81 57.12 56.45 55.88 55.23 55.53 55.74 55.72 56.50 57.60 57.93 58.95 59.47 59.54 59.88 59.82 59.61 59.78 59.23 60.24 61.55 61.61 61.25 61.66 63.56 64.54 63.10 60.97 60.88 60.42 59.73 59.08 58.99 59.64 59.38 59.67 59.34 59.07 58.92 59.06
47.20 44.61 45.95 46.54 46.76 47.52 50.29 46.95 47.42 52.85 56.35 53.82 53.49 54.24 54.57 55.19 56.09 56.12 57.43 57.33 58.25 58.97 58.79 58.19 58.27 58.49 57.74 59.77 60.19 60.75 60.82 61.16 61.22 63.40 64.07 62.29 61.16 61.64 61.30 60.37 58.93 58.83 59.34 58.90 58.06 57.65 57.19 56.13 56.28
44.28 43.29 40.47 44.07 47.18 47.75 48.62 43.02 47.60 52.40 54.58 52.99 53.06 53.41 54.00 54.52 55.33 55.62 56.38 57.66 59.14 58.83 58.25 59.13 59.04 57.88 57.61 59.89 59.49 60.38 60.39 61.33 60.97 61.47 62.64 61.72 61.47 61.33 60.58 59.58 59.14 59.70 59.82 59.65 58.05 57.07 55.87 54.48 53.90
40.89 38.67 38.42 41.14 46.45 47.31 47.48 44.48 48.20 53.11 53.76 53.23 54.22 53.10 53.36 53.32 53.93 54.39 55.40 57.11 58.33 58.06 58.33 58.61 58.33 58.39 58.16 59.12 59.28 59.36 60.23 61.21 60.86 60.20 60.62 60.83 60.87 60.86 60.50 59.50 59.69 59.84 59.42 59.61 58.64 57.41 57.03 54.91 53.64
37.63 37.75 38.61 39.44 44.01 45.33 44.80 45.39 48.76 51.46 53.16 53.09 53.88 54.04 52.32 51.87 52.62 53.41 54.06 55.73 57.28 57.92 58.00 57.86 58.71 58.26 58.88 58.23 59.46 58.77 58.52 60.54 60.92 60.23 59.37 60.87 60.03 60.15 60.25 60.33 60.07 60.24 58.97 59.56 59.22 58.20 57.77 56.38 55.70
40.76 39.20 38.44 41.11 43.50 42.77 43.19 43.77 46.14 47.84 51.64 52.21 53.37 53.53 52.12 51.31 53.42 53.78 54.49 55.52 56.22 56.87 56.61 56.76 56.25 57.67 58.19 57.25 56.79 56.55 57.36 59.65 60.36 60.48 59.35 60.47 59.92 60.24 60.73 60.75 60.52 60.50 59.90 59.54 59.11 58.88 57.54 56.44 56.19
41.03 39.66 39.56 42.10 43.51 43.27 44.28 43.96 47.57 47.67 49.08 51.76 52.69 53.04 52.57 52.36 51.90 53.33 53.38 55.19 54.88 55.81 56.28 56.38 55.95 56.76 57.59 58.07 57.99 57.48 58.66 58.54 59.41 59.97 59.75 60.29 59.71 60.56 60.74 60.90 60.77 60.39 60.32 59.54 59.33 58.82 58.02 58.37 56.20
40.26 39.46 39.20 39.38 41.95 43.78 42.88 42.44 44.40 47.57 48.81 50.49 52.21 53.34 53.48 52.87 51.05 51.79 52.04 53.17 54.77 54.44 55.62 56.12 55.83 55.78 56.28 57.49 56.09 55.46 55.22 55.88 56.92 57.98 59.23 60.10 60.75 61.23 61.60 61.53 61.02 61.17 61.48 60.17 60.17 59.52 58.53 57.75 56.04
37.34 42.04 41.64 39.86 38.87 36.96 42.78 35.58 42.19 45.58 46.03 48.29 50.59 53.04 53.89 53.60 53.70 52.91 52.48 52.64 53.60 55.52 56.92 56.85 56.11 56.11 56.02 56.80 55.98 55.86 55.88 54.43 56.91 57.14 59.40 58.60 60.25 60.75 60.62 60.36 60.26 60.93 61.34 60.46 60.04 59.70 59.76 59.39 57.03
40.39 43.64 41.84 40.96 39.30 38.33 38.94 37.26 40.84 43.22 44.95 47.74 50.09 51.70 54.08 54.50 53.98 53.18 52.97 53.14 54.15 54.98 56.12 56.59 55.97 56.71 55.80 56.08 55.92 54.20 55.23 56.57 55.12 55.24 57.46 58.04 58.30 59.01 59.19 58.85 60.08 60.50 61.18 61.46 61.40 60.18 59.20 59.20 58.88
44.77 42.67 41.79 40.68 39.28 33.09 38.84 38.19 39.78 41.90 45.09 47.18 49.42 50.92 52.72 54.42 54.34 54.41 54.48 53.94 53.26 54.59 55.86 56.36 55.64 56.49 55.84 55.30 56.04 55.00 54.41 54.15 53.91 53.55 54.46 55.77 57.96 57.97 59.20 59.11 59.93 61.01 60.75 60.83 61.31 61.31 60.40 59.49 58.65
43.51 40.82 33.64 32.11 32.22 32.38 38.85 36.43 40.96 45.50 47.36 47.91 49.33 50.85 52.23 54.32 54.42 54.01 52.69 52.21 52.29 52.81 55.05 55.49 55.28 55.30 55.96 55.29 55.36 55.11 56.13 55.06 55.52 54.04 55.10 56.27 57.27 57.52 58.01 59.41 59.61 60.23 60.74 61.13 61.53 61.07 60.53 60.06 58.44
40.57 40.36 34.92 28.53 29.71 33.77 37.99 35.51 41.39 47.91 49.25 49.51 49.57 50.22 51.49 53.39 54.71 54.45 54.10 53.26 52.65 52.38 54.22 54.61 54.28 54.39 55.54 55.51 55.86 56.33 56.31 56.11 55.75 55.57 55.83 56.62 57.73 58.69 58.67 58.87 59.58 60.19 60.72 60.97 61.22 60.79 60.79 60.25 56.19
39.93 37.06 43.03 35.87 35.84 34.40 37.31 40.46 44.87 47.70 47.75 47.98 48.80 50.51 51.15 52.98 54.30 54.65 55.02 54.59 53.96 53.51 53.40 53.88 54.01 54.21 55.09 55.23 56.12 56.05 56.51 56.48 56.41 56.84 57.24 56.83 57.00 57.46 58.03 58.84 59.01 59.79 60.44 60.91 61.26 60.90 60.66 59.42 57.98
43.16 44.33 36.65 36.77 30.16 28.59 34.24 35.81 38.45 43.98 45.87 47.73 48.71 49.18 51.53 52.79 53.49 54.69 55.04 55.04 54.79 54.46 54.32 54.36 54.92 54.58 54.97 55.30 55.83 55.48 55.80 56.88 57.20 57.61 56.93 56.95 57.66 57.24 57.51 58.12 58.64 59.22 59.84 60.25 60.38 60.11 59.32 58.10 58.08
39.92 39.24 39.97 40.31 36.92 32.47 30.83 35.36 44.54 46.15 47.51 47.38 49.10 49.52 49.38 52.47 53.74 54.29 55.24 55.78 55.78 55.31 54.44 54.27 54.48 54.57 55.30 55.69 55.67 55.71 55.67 55.94 56.57 56.84 57.29 57.75 57.92 57.82 57.79 58.13 58.20 58.22 58.52 59.03 58.75 57.43 56.91 55.75 56.43
42.75 40.99 41.40 35.89 33.34 35.38 34.52 36.74 45.07 47.47 47.56 47.50 48.74 49.25 49.85 48.97 52.80 54.67 55.42 55.69 55.39 55.20 54.73 54.37 54.42 54.61 55.47 55.69 55.84 55.81 56.03 55.72 55.28 55.05 56.11 57.44 57.63 57.95 57.69 58.15 57.76 56.25 57.09 57.52 56.15 55.99 54.79 52.78 52.12

GFSSGP_sfc_wetblb_066.txt.gz
Wetbulb
60.26 62.30 62.09 58.42 49.27 48.53 45.79 46.09 49.36 48.21 49.06 52.95 55.90 55.26 54.22 56.44 52.66 51.28 67.94 70.14 70.60 71.22 72.14 71.85 71.28 72.44 72.74 72.47 72.22 72.30 72.37 72.33 72.02 71.84 71.99 71.97 71.86 71.57 71.26 70.73 70.58 70.51 70.67 69.43 68.35 68.20 68.71 68.36 67.75
61.13 61.27 59.88 55.54 47.07 43.83 45.64 48.22 47.30 49.70 51.21 52.76 56.73 57.74 56.71 55.18 61.59 63.68 66.63 69.92 71.33 71.43 71.64 71.03 71.04 71.68 72.41 72.21 72.23 72.19 72.43 72.07 71.80 71.81 71.79 71.52 71.33 71.09 70.65 70.14 69.63 69.74 69.90 68.92 68.50 67.85 67.74 67.43 67.08
60.43 59.76 54.35 51.25 48.15 44.19 45.68 48.19 49.54 51.15 52.19 51.73 55.37 59.82 58.89 56.70 61.62 65.65 68.20 69.58 71.45 71.16 72.00 71.32 70.54 70.08 71.89 71.89 71.68 71.82 71.66 71.19 71.34 71.31 71.50 71.29 71.00 70.53 70.02 69.19 68.92 69.28 69.19 67.84 67.86 68.11 67.20 66.53 66.63
56.84 56.16 54.58 48.16 45.37 47.59 47.59 50.49 51.13 51.32 53.93 55.32 56.65 55.13 62.01 64.91 62.92 66.95 68.16 69.89 68.11 70.92 71.16 69.80 69.37 69.52 70.73 71.75 71.52 71.42 71.05 70.60 70.63 70.62 70.81 70.99 70.90 70.46 69.70 68.89 68.95 69.11 68.85 67.30 67.22 67.24 66.51 66.27 65.80
58.59 55.32 47.46 46.30 46.13 48.39 50.43 51.45 51.58 50.81 53.07 55.36 56.79 54.08 56.72 63.81 65.18 66.52 67.84 69.09 67.60 70.80 70.35 71.81 68.04 68.40 67.85 69.58 70.92 71.12 70.48 70.18 70.00 69.89 70.07 70.35 70.45 70.11 69.20 68.91 68.80 68.97 68.58 67.10 66.35 66.08 65.54 65.42 65.15
52.92 53.84 45.64 43.59 46.30 48.77 50.43 52.07 51.41 52.13 53.66 54.96 55.41 55.65 57.03 62.62 63.85 64.87 67.19 68.35 69.45 68.47 70.38 70.94 67.66 67.01 66.84 68.23 70.04 69.90 69.58 69.63 69.39 69.29 69.62 69.93 69.53 69.04 69.19 69.00 69.03 68.74 67.68 66.66 66.35 65.62 64.98 64.67 64.26
51.48 48.58 44.86 45.45 45.93 47.14 49.11 53.02 52.08 51.95 52.35 53.60 57.64 54.01 58.48 60.16 63.14 65.38 66.26 68.11 69.14 67.71 69.35 69.35 69.08 68.33 67.61 67.29 68.00 68.01 68.67 68.96 68.64 68.79 68.82 68.87 68.38 68.16 68.45 68.52 68.52 68.48 67.00 66.08 65.92 65.30 64.84 64.30 63.57
52.57 50.08 45.70 45.88 45.56 46.57 49.93 51.49 53.81 53.32 52.56 59.32 59.17 53.49 55.55 62.25 63.67 66.00 66.52 66.75 67.88 67.52 66.69 68.75 69.77 68.63 69.56 70.20 66.54 66.96 67.84 67.57 67.74 68.22 67.96 67.24 67.31 67.23 66.86 66.96 68.03 67.66 66.77 65.88 65.39 64.98 64.50 63.84 63.15
53.60 46.96 44.81 45.64 46.07 47.95 51.16 50.21 53.28 56.46 54.79 57.56 58.99 58.85 60.65 61.97 63.26 63.72 64.09 64.56 65.67 67.27 67.80 69.09 68.31 68.33 67.68 68.74 68.21 67.62 67.20 67.09 67.06 67.46 66.50 65.96 67.62 66.97 66.35 66.13 67.01 66.56 65.41 65.10 64.96 64.40 63.79 63.11 62.81
49.84 46.45 46.56 49.04 49.88 48.81 50.88 51.36 52.10 52.41 53.45 55.45 57.72 60.57 60.91 61.44 62.20 61.75 61.33 61.90 63.02 63.33 64.90 67.82 67.43 67.67 67.41 66.65 67.61 67.44 65.87 66.22 66.35 66.14 65.75 66.66 67.08 66.73 64.97 65.97 65.80 65.42 64.53 64.40 64.36 63.81 62.96 62.30 62.12
49.24 46.13 49.11 49.33 50.89 50.84 50.82 51.27 53.53 52.74 51.01 54.39 55.34 58.14 59.72 60.47 60.86 60.73 61.24 60.52 61.32 62.99 64.99 66.04 66.05 64.74 65.14 66.34 63.66 64.87 64.53 64.93 64.79 65.58 65.43 66.39 66.50 65.36 65.34 66.67 66.86 65.83 63.79 63.77 63.48 62.74 62.92 62.55 61.71
46.50 49.25 49.50 50.08 50.62 50.24 50.12 52.55 52.43 54.09 54.93 58.42 58.17 59.55 60.07 58.76 59.65 59.79 60.28 59.85 61.40 62.35 61.95 62.51 63.61 61.86 61.65 61.89 62.43 62.21 61.50 62.54 63.08 63.07 64.61 64.90 63.69 64.62 64.53 65.34 65.57 64.99 64.42 64.01 63.60 63.23 63.64 63.04 62.01
47.42 48.11 50.14 50.84 50.68 50.81 51.99 51.22 51.95 53.36 56.84 59.81 59.69 59.56 59.45 58.92 59.34 60.19 61.06 61.56 62.30 61.74 60.99 62.08 60.72 60.19 59.86 60.49 61.58 60.96 60.96 61.33 61.94 62.23 63.04 65.38 63.53 63.45 62.85 64.65 65.35 65.05 65.45 64.90 63.88 63.69 62.89 62.27 61.78
48.87 49.00 49.14 49.75 50.41 51.50 50.21 50.79 52.08 53.44 56.67 58.94 59.19 58.95 58.73 58.27 58.53 59.31 59.86 59.20 61.05 61.41 61.04 60.64 60.87 60.84 60.25 59.57 60.93 60.79 61.21 61.16 62.07 62.07 62.67 64.48 63.51 63.06 62.22 62.62 62.71 63.46 64.75 64.93 63.87 62.97 62.16 61.69 61.59
49.54 46.61 48.75 49.68 50.46 50.01 51.75 48.54 49.67 54.26 57.88 57.52 58.01 58.67 58.62 58.35 58.64 58.47 59.36 58.34 60.05 60.91 60.49 60.72 60.28 60.29 59.81 59.48 60.00 60.65 61.54 61.47 61.41 61.64 63.22 65.02 63.86 63.33 63.31 61.86 61.64 62.47 63.63 63.76 63.26 62.62 62.13 61.01 60.84
47.02 47.57 43.65 48.62 49.09 50.18 50.98 44.25 49.78 55.18 56.90 56.54 57.28 58.12 58.17 58.59 58.19 59.22 57.72 58.90 59.88 59.92 58.65 59.80 59.62 59.28 59.77 59.55 60.08 61.26 60.66 60.27 61.12 61.70 62.13 63.37 63.16 63.15 62.70 61.81 61.82 63.00 62.60 62.08 61.47 61.63 60.97 60.52 60.00
46.30 42.39 44.02 45.55 49.02 49.32 50.56 46.56 52.55 55.69 55.68 55.49 57.31 58.22 58.24 58.40 58.20 58.42 57.94 57.73 59.12 61.24 59.92 59.33 58.81 57.44 59.63 60.15 61.59 61.74 60.85 60.24 61.38 62.14 62.82 62.12 62.60 62.79 61.66 61.10 61.44 62.98 62.18 61.52 60.99 60.85 60.67 59.14 58.70
42.20 42.77 44.49 44.10 47.35 48.38 47.98 48.49 51.44 53.55 54.77 55.58 57.23 58.36 58.39 58.05 58.02 57.83 57.43 57.38 59.01 58.97 59.81 59.52 59.27 57.57 59.95 61.21 60.28 60.76 60.68 60.34 60.94 60.86 62.19 62.64 61.91 62.30 61.83 61.60 61.74 62.19 62.22 62.08 61.56 61.28 61.31 60.39 59.53
45.26 44.15 43.64 45.41 46.94 45.08 45.71 47.18 49.93 52.23 53.54 55.34 56.46 57.60 58.13 57.87 59.34 58.35 57.72 56.78 57.72 58.00 57.71 58.82 57.54 57.62 59.67 59.36 58.31 58.45 58.67 60.10 59.62 59.52 60.28 62.39 61.44 61.94 62.90 61.68 61.44 61.92 61.47 62.59 62.38 61.79 60.74 59.75 60.56
44.34 43.22 43.50 45.53 46.95 46.38 45.53 46.77 50.41 51.74 52.35 54.42 56.44 57.36 58.04 57.97 58.27 57.14 57.15 57.05 57.32 57.64 58.44 57.81 58.24 59.45 58.96 59.37 58.90 60.16 60.49 59.97 60.03 59.47 59.97 61.18 62.23 60.57 60.76 62.15 61.05 61.77 61.76 62.08 62.21 61.92 60.47 60.86 60.39
43.51 42.64 43.46 43.13 45.32 47.14 46.27 45.33 48.04 50.77 52.79 54.31 55.84 57.38 58.55 58.11 57.88 56.74 56.39 56.97 56.73 56.95 57.62 58.01 57.87 58.25 60.02 59.58 59.71 57.86 58.06 58.27 59.17 59.54 59.38 60.29 61.04 59.40 60.18 61.49 62.09 62.46 62.45 61.26 61.73 61.64 61.54 59.68 60.61
40.82 45.84 44.73 43.99 42.36 38.87 46.55 39.15 46.19 48.69 49.53 51.67 53.88 56.31 57.22 58.25 58.62 58.45 57.44 56.97 58.16 56.74 58.07 59.07 58.09 57.75 58.45 58.99 57.69 57.75 55.25 54.34 60.13 60.12 59.82 59.15 61.33 59.90 60.07 62.09 62.75 62.63 62.81 61.88 62.11 62.08 61.64 61.79 59.70
43.03 46.56 45.02 44.70 42.98 41.85 42.54 41.29 44.31 47.69 46.87 49.17 51.84 54.98 57.54 58.87 59.23 58.65 58.14 58.04 58.46 59.17 57.81 59.50 58.98 57.67 57.71 57.72 57.22 56.48 55.43 56.09 58.66 59.04 59.99 58.41 59.91 61.12 61.11 62.27 62.66 62.28 63.12 62.83 63.63 62.26 62.49 62.59 62.02
46.72 44.43 44.30 44.63 43.10 36.82 41.71 42.21 42.74 46.07 46.98 48.94 51.41 53.60 56.40 58.81 59.44 59.93 59.69 59.25 58.68 58.91 59.45 59.00 59.43 58.44 57.64 57.20 57.83 56.59 58.04 58.08 58.05 57.23 58.25 57.49 58.00 59.93 59.84 60.29 61.56 62.03 61.87 62.37 61.84 63.25 63.54 62.98 62.75
45.36 42.48 36.77 35.34 35.82 34.61 43.85 41.76 44.16 48.21 49.60 51.25 51.83 53.38 56.07 58.73 59.41 59.65 59.10 58.32 58.17 57.97 58.54 57.81 58.51 58.22 58.54 56.84 57.46 57.30 57.47 56.92 55.88 56.85 56.66 57.20 57.33 57.49 58.11 60.66 61.26 60.99 60.77 61.47 61.20 62.44 62.94 62.88 62.23
42.76 42.69 38.71 31.44 33.91 37.68 43.54 38.54 44.47 49.82 51.51 52.79 53.64 54.18 55.04 57.52 59.39 59.67 59.77 59.45 58.30 57.96 58.80 58.84 58.84 58.67 58.64 58.80 58.58 59.10 57.93 57.32 58.55 57.36 57.42 56.50 57.65 59.08 58.72 60.16 60.85 60.73 61.76 62.26 62.45 63.00 62.42 63.21 62.66
42.97 40.48 46.14 39.91 41.02 39.06 41.67 43.90 47.91 49.90 50.36 51.17 52.53 53.54 55.23 56.63 58.65 59.46 60.17 60.18 59.65 58.08 58.65 59.03 58.96 59.26 59.54 59.38 59.23 58.51 59.24 59.10 59.63 60.16 59.75 58.92 58.61 59.07 59.96 61.20 59.72 60.29 61.48 61.94 62.02 62.35 61.97 62.49 63.12
45.94 47.36 39.35 40.64 33.14 32.22 38.75 40.57 41.30 46.17 48.04 49.57 52.00 53.49 54.95 57.01 58.29 59.37 60.11 60.21 60.16 59.43 59.13 59.65 59.60 59.12 59.83 60.02 60.30 60.06 60.18 60.16 60.34 60.68 60.45 60.70 61.24 61.13 61.39 61.32 61.11 61.18 61.23 61.31 61.69 61.85 61.87 61.84 62.98
43.15 42.16 43.43 43.80 41.39 35.93 34.35 40.04 47.52 48.14 49.56 49.75 52.02 53.56 54.18 56.54 58.31 59.07 60.05 60.88 60.87 60.56 59.27 58.83 58.93 58.96 59.23 59.77 60.03 59.90 60.48 61.17 61.22 60.81 60.81 61.12 61.12 61.08 60.58 60.53 60.28 60.33 60.30 61.47 61.43 61.07 61.03 60.72 60.86
46.09 43.93 43.83 38.63 37.55 40.46 40.23 40.68 48.64 49.78 51.46 51.40 52.10 53.08 54.67 54.21 57.03 59.46 60.19 60.37 60.49 60.36 59.67 58.86 58.67 58.70 59.28 59.78 59.91 59.93 60.21 60.08 60.00 60.23 60.96 61.61 61.11 61.37 61.23 61.05 59.97 60.19 60.68 61.37 61.15 60.97 60.09 59.65 57.92

GFSSGP_sfc_wetblb_069.txt.gz
Wetbulb
60.96 61.07 61.93 58.77 50.24 49.48 47.03 47.94 50.77 49.18 50.03 54.02 55.47 54.70 54.34 56.19 52.63 51.41 69.25 70.74 71.28 72.18 74.02 72.17 71.60 72.74 72.90 72.62 72.40 72.42 72.65 72.67 72.23 72.01 72.03 72.05 71.82 71.85 71.82 71.40 71.00 71.19 71.03 69.62 69.84 69.73 69.67 69.38 68.87
61.24 61.44 60.51 56.23 47.28 46.12 47.56 50.27 48.32 50.52 52.08 53.98 55.44 55.99 55.19 53.83 59.58 61.06 66.83 71.05 71.28 71.76 72.53 72.40 71.27 72.22 72.54 72.11 72.15 72.32 72.69 72.43 72.13 72.20 72.28 72.28 72.04 71.72 71.28 70.94 70.53 70.41 70.32 69.10 69.52 69.42 68.82 68.05 67.71
62.14 61.08 55.69 51.55 49.07 46.23 47.14 50.12 50.34 51.71 53.22 52.90 53.57 57.22 56.56 56.30 62.72 65.32 69.72 70.97 71.85 71.56 71.90 71.75 71.08 71.51 72.16 71.94 71.99 72.00 71.80 71.45 71.43 71.72 72.32 72.16 71.82 71.31 70.77 69.84 69.84 70.11 69.85 68.38 68.80 68.53 67.66 67.02 67.12
58.64 57.04 54.83 47.82 46.76 50.33 49.37 51.01 52.03 51.76 53.55 54.67 54.75 53.29 59.85 66.61 63.89 67.79 69.69 70.76 71.35 71.69 71.28 69.39 70.08 70.61 71.03 71.75 71.75 71.71 71.21 70.67 70.94 71.20 71.58 71.67 71.45 70.79 70.08 69.47 69.45 69.82 69.71 69.04 67.58 67.42 66.81 66.78 66.40
57.93 55.12 49.39 47.69 47.95 50.56 51.84 52.14 52.44 51.33 52.36 54.31 55.77 53.51 56.05 65.62 67.13 67.55 68.99 70.01 70.53 72.08 71.64 70.37 68.60 69.51 70.20 70.78 70.04 70.07 70.76 70.40 70.71 70.70 70.64 70.63 70.62 69.96 69.20 68.74 68.70 68.62 68.70 68.45 67.16 66.64 65.99 66.05 65.79
52.91 53.48 47.43 46.04 48.01 50.56 52.11 53.12 52.63 52.00 52.99 54.05 54.56 55.07 56.48 65.56 64.87 66.87 68.11 68.94 70.04 71.27 72.03 72.05 69.26 68.97 68.79 68.06 66.94 63.05 69.07 70.09 69.93 69.93 69.95 69.96 69.53 69.09 68.73 68.47 68.03 67.67 67.36 67.24 66.72 65.85 65.28 65.18 64.88
51.60 50.85 47.52 47.39 47.24 48.95 50.98 53.98 52.31 52.21 52.36 52.75 57.00 53.54 57.95 62.41 65.02 66.68 67.15 68.75 69.29 70.79 71.31 71.05 71.19 69.31 66.76 64.21 63.00 62.15 64.83 69.36 69.34 69.12 69.19 69.00 68.29 68.20 68.57 68.59 67.80 67.10 66.82 66.46 65.91 65.48 65.15 64.54 63.96
53.55 51.33 47.28 48.06 47.03 47.37 52.22 51.85 53.69 52.98 52.45 58.88 57.68 52.85 54.67 64.82 65.76 66.67 67.25 67.83 68.50 70.01 70.24 70.96 71.02 69.30 67.44 66.70 63.57 65.93 66.81 67.95 68.31 68.78 68.36 67.77 67.89 68.19 68.18 67.89 67.10 66.75 66.36 65.83 65.41 64.98 64.74 63.98 63.44
55.05 47.76 45.89 47.24 48.15 48.88 52.55 50.64 53.86 55.12 54.20 54.89 58.34 59.49 61.38 64.00 64.56 64.92 65.12 66.16 66.60 68.41 68.65 69.70 69.87 69.47 69.31 68.91 68.74 67.03 67.14 67.31 67.83 68.30 67.25 66.38 68.24 68.27 68.31 66.86 66.11 65.80 65.36 65.23 65.13 64.78 64.08 63.46 62.93
50.75 47.23 47.27 51.19 51.29 50.08 51.76 51.84 52.64 52.13 52.61 53.40 55.95 60.83 62.61 63.18 63.32 62.83 62.62 62.75 63.63 65.89 67.53 68.29 68.74 69.11 69.46 68.87 68.85 68.40 66.53 67.64 67.85 67.94 66.51 66.35 67.02 68.01 67.40 66.44 65.11 64.76 64.60 64.43 64.39 63.91 63.18 62.25 60.98
50.91 47.02 50.38 51.35 51.45 52.01 51.49 51.57 53.46 52.14 50.99 53.73 54.99 57.28 61.13 61.99 62.39 62.07 62.27 62.50 63.52 64.41 65.33 66.59 67.36 69.06 69.04 69.35 69.50 67.49 67.45 66.56 65.90 65.90 66.47 66.20 65.75 65.09 66.93 66.78 64.80 64.08 63.57 62.45 62.33 61.90 61.51 61.18 60.50
47.94 50.37 50.81 51.10 51.76 51.16 50.50 52.41 51.55 52.56 53.28 56.41 58.27 59.59 60.50 61.33 61.47 61.24 61.27 62.07 62.74 63.05 64.77 66.20 66.89 66.61 65.52 67.81 66.01 65.92 66.47 64.66 63.98 63.88 63.82 63.11 63.28 63.74 66.13 65.61 63.84 63.00 63.29 62.50 61.49 61.69 63.59 62.44 61.31
49.00 49.86 51.02 51.49 51.02 51.33 52.03 50.88 51.34 51.92 54.57 56.78 59.21 60.71 60.50 61.19 61.13 61.42 62.08 61.86 62.28 62.63 64.04 62.83 62.44 64.77 64.15 63.01 64.47 65.69 63.58 63.67 63.07 62.57 62.44 62.00 61.99 63.44 65.34 64.68 63.87 63.60 64.95 63.22 62.40 63.25 62.62 62.20 61.70
50.94 50.41 50.44 50.64 50.93 51.22 49.87 50.69 51.75 52.86 55.19 56.00 58.40 60.01 60.92 61.08 60.76 60.43 61.60 60.84 61.33 62.68 62.82 62.26 61.07 61.01 61.81 63.99 61.87 62.82 62.71 62.22 62.03 61.95 62.14 62.14 62.43 63.57 64.50 64.78 65.32 64.65 65.19 64.15 63.57 63.16 62.31 61.56 61.47
50.89 47.54 49.31 50.20 50.30 49.72 50.93 48.20 49.59 53.32 54.51 55.22 57.65 59.97 60.56 61.04 60.97 60.01 61.63 60.98 60.87 62.55 62.62 61.62 59.93 60.53 60.18 60.56 61.24 60.68 61.24 60.94 60.44 61.01 62.19 62.15 62.79 64.29 64.56 65.08 64.22 65.21 64.21 66.01 64.70 63.05 62.35 61.36 61.26
47.94 48.03 44.17 49.58 50.40 51.03 50.30 45.33 50.59 54.10 54.95 55.40 57.88 58.97 59.97 60.77 60.82 61.18 61.48 61.90 61.32 61.85 61.61 61.87 60.58 60.31 59.85 60.15 60.65 60.36 60.89 60.62 60.01 59.67 61.52 61.83 63.36 65.23 64.77 63.72 63.43 64.74 65.24 64.64 63.14 61.96 60.63 60.48 60.56
47.38 43.17 45.09 47.19 51.27 49.81 49.12 47.17 51.66 55.48 54.72 55.14 57.22 58.65 59.72 60.33 61.13 61.21 61.04 61.68 60.87 60.73 60.83 60.30 60.71 60.22 60.10 59.89 60.91 61.23 60.62 60.76 60.44 59.90 60.74 61.92 63.49 64.29 64.21 63.06 63.37 65.65 64.20 64.05 62.96 61.98 61.69 60.37 60.11
43.07 44.06 46.06 46.06 49.79 49.10 47.82 48.73 51.28 54.22 54.94 55.32 56.47 58.52 59.69 59.84 60.36 61.01 60.36 61.41 60.55 61.49 61.14 60.03 59.82 59.76 59.38 60.83 61.03 59.93 59.75 60.03 60.63 60.31 60.65 62.42 62.68 63.17 62.64 62.82 63.99 63.82 61.85 61.62 62.28 62.37 61.99 61.34 60.53
46.97 46.27 45.57 48.40 50.39 48.23 47.89 47.85 50.27 52.42 53.73 54.34 56.19 57.24 59.19 59.91 61.36 61.43 60.58 60.61 60.08 59.23 59.44 59.02 57.88 58.42 59.07 59.43 59.39 57.98 57.69 58.54 59.08 59.23 60.84 61.84 62.92 62.68 62.89 61.54 62.50 62.58 61.92 61.67 62.92 62.64 62.38 60.81 61.48
46.47 44.88 45.27 48.03 49.11 47.41 47.06 46.43 49.19 51.36 52.56 53.83 55.37 56.71 58.24 60.14 60.15 60.28 60.02 59.45 58.42 58.67 58.90 59.27 58.64 58.80 59.03 60.49 60.23 59.69 58.26 58.89 58.07 59.24 59.96 62.53 63.20 62.43 61.95 61.69 61.86 62.41 62.18 63.48 63.38 62.74 60.96 60.89 62.14
46.14 45.02 45.39 45.22 47.96 48.74 46.97 45.35 47.71 50.87 52.65 53.31 54.83 55.94 57.88 59.69 59.52 60.00 59.54 59.37 58.89 58.43 59.39 59.09 59.16 59.20 59.60 60.34 60.14 59.45 59.20 58.95 57.44 57.89 58.53 60.58 62.27 62.21 61.67 62.95 62.56 61.90 63.31 62.91 63.41 63.65 62.74 59.42 61.61
43.07 47.67 46.74 45.71 44.72 41.20 47.98 39.72 47.10 49.53 50.70 52.15 53.73 55.42 56.51 59.05 60.59 60.62 59.87 59.28 59.56 58.50 59.19 59.84 59.67 59.75 59.52 60.50 60.02 58.57 58.70 57.22 57.30 57.28 58.74 58.92 61.84 61.24 62.00 62.68 61.66 62.28 63.52 63.52 63.40 63.65 63.40 60.99 58.40
45.24 48.39 46.81 46.10 44.52 44.20 43.95 41.74 45.23 49.36 47.78 50.00 51.84 54.17 57.09 58.75 60.62 60.53 60.21 60.07 60.64 59.75 58.45 59.43 59.18 59.22 60.14 60.43 60.44 58.49 56.70 59.77 58.38 57.60 57.88 58.79 59.78 61.25 60.71 60.68 60.72 60.37 63.35 63.37 64.02 62.88 62.65 62.04 59.52
48.64 46.85 46.52 46.10 44.62 38.28 42.94 42.89 43.64 47.13 48.59 49.40 51.59 53.37 56.58 58.46 60.35 61.14 61.33 61.16 60.03 61.33 60.11 59.77 58.66 58.57 59.43 60.18 59.92 58.70 58.19 58.63 56.67 58.06 57.87 57.73 58.92 61.32 61.73 60.05 60.01 61.00 61.54 62.70 62.12 60.87 61.05 60.98 62.21
45.70 43.53 37.62 36.24 36.60 35.67 45.29 43.07 45.08 48.97 50.43 50.91 51.76 53.47 56.37 58.46 60.22 60.77 60.22 60.26 59.64 60.16 60.62 60.05 59.32 57.84 58.32 58.46 59.37 60.49 59.21 56.78 56.70 58.77 59.26 57.91 57.93 59.09 61.12 60.01 58.88 58.80 59.71 60.89 61.81 59.62 61.21 61.56 61.99
44.33 43.68 39.16 32.75 34.35 38.82 45.50 40.35 45.44 51.11 52.18 53.13 53.73 54.72 55.50 57.71 60.29 60.89 60.67 60.92 60.03 59.82 60.55 60.80 59.80 58.65 58.62 58.14 58.30 60.07 60.04 59.58 58.88 59.91 60.85 59.45 58.72 57.73 59.93 60.29 59.49 61.05 60.77 61.55 61.66 62.03 60.47 62.43 60.57
43.10 40.85 46.34 41.12 42.66 40.55 42.95 45.86 49.06 51.10 50.55 51.71 52.30 54.00 55.52 57.31 59.66 60.74 61.36 61.33 60.95 60.24 60.20 60.59 60.17 60.55 59.82 58.81 58.79 59.26 60.84 59.91 60.28 60.30 60.83 61.05 60.96 58.54 58.25 59.31 60.82 61.56 61.70 61.78 61.79 61.48 61.37 60.20 60.44
44.82 47.74 39.60 41.32 33.34 32.78 40.31 43.09 43.62 46.76 48.64 50.50 51.90 53.52 55.51 57.51 59.17 60.54 61.39 61.53 61.69 61.13 60.74 61.28 61.04 60.54 60.83 60.35 59.95 59.19 60.09 60.74 60.93 61.14 60.89 60.63 60.89 60.66 60.05 59.83 60.24 59.96 59.63 60.44 60.53 60.44 62.00 61.50 61.85
41.22 41.99 43.71 43.80 42.04 35.84 35.39 41.28 49.73 49.06 50.20 50.41 52.55 53.67 55.19 57.55 58.92 60.20 61.24 62.35 62.34 62.05 61.11 60.79 60.84 60.99 61.04 61.19 61.20 60.49 60.93 60.84 61.40 61.83 62.26 61.99 62.39 61.98 61.25 60.96 60.88 60.45 60.53 60.97 61.35 61.15 61.22 61.02 61.25
45.21 44.22 44.57 39.50 38.14 41.95 41.33 41.41 50.39 51.31 51.91 52.38 52.32 53.63 55.06 55.63 59.31 60.22 61.44 61.83 62.16 61.96 61.47 60.66 60.88 60.69 61.20 61.88 61.34 61.95 62.19 62.01 62.00 61.75 62.50 62.97 62.39 63.02 62.13 62.53 61.87 61.80 61.59 61.82 61.29 61.09 61.05 60.81 60.66

GFSSGP_sfc_wetblb_072.txt.gz
Wetbulb
61.99 58.96 58.29 57.54 48.48 48.50 45.52 47.41 51.02 49.28 49.39 53.48 54.21 53.26 52.53 53.79 50.70 51.27 68.96 70.76 71.28 73.08 71.77 71.81 72.50 73.16 72.85 72.68 72.47 72.52 72.81 72.66 72.39 72.45 72.15 71.83 71.90 71.66 71.64 71.65 71.60 71.58 71.70 71.06 70.84 70.64 70.38 69.86 70.04
59.68 58.65 58.81 54.34 46.67 43.42 45.38 50.37 48.80 50.28 52.24 53.75 53.01 53.55 53.13 52.41 60.57 63.34 66.93 70.58 71.47 72.49 71.79 71.82 71.54 72.43 72.59 72.36 72.10 72.43 72.83 72.56 72.17 72.34 72.04 71.97 71.90 71.97 71.59 71.18 70.69 70.87 71.14 70.38 69.91 69.95 69.62 69.07 69.28
59.58 60.36 53.70 50.52 47.51 43.67 45.92 50.24 50.31 51.68 53.11 52.20 51.48 54.77 55.20 54.60 61.85 63.92 69.26 70.92 71.47 71.48 72.17 72.10 71.05 71.56 72.47 71.98 71.69 71.68 72.00 71.68 71.64 71.90 72.22 72.05 72.34 71.96 71.34 70.56 69.98 70.30 70.96 69.85 69.59 69.10 68.43 67.99 67.67
57.60 56.31 53.61 46.23 44.17 48.22 48.95 51.24 52.13 51.48 52.77 53.89 53.57 51.73 57.14 64.54 62.84 66.14 69.44 70.57 70.87 71.40 71.85 69.39 70.09 71.30 72.05 72.01 71.58 71.30 71.41 71.01 71.08 71.58 71.85 72.22 71.91 71.64 70.94 69.89 69.45 69.89 70.25 69.20 68.81 67.66 67.25 66.98 66.24
56.20 53.26 47.02 45.66 46.49 49.34 51.65 52.44 52.41 50.92 51.75 53.01 54.03 52.16 55.45 64.74 67.34 67.63 68.63 69.75 70.55 71.90 72.29 70.37 69.16 70.46 70.70 71.74 71.11 70.23 70.40 70.36 70.49 71.13 71.24 71.30 71.09 70.63 70.05 69.38 69.05 68.84 68.96 68.63 67.53 66.73 66.53 66.26 65.56
51.22 51.40 44.30 43.32 46.52 50.06 51.96 53.38 52.33 51.78 52.16 52.67 52.39 53.43 56.95 66.07 65.29 67.23 68.64 69.34 71.18 71.45 72.59 71.77 69.75 69.92 68.89 69.59 68.90 67.62 64.68 66.79 70.06 70.49 70.49 70.61 69.87 69.33 69.22 68.84 68.48 68.39 68.15 67.66 66.94 66.18 66.06 65.73 65.09
50.27 48.09 45.29 45.93 46.61 48.13 50.43 54.29 52.03 51.33 51.23 51.70 55.91 53.04 57.38 61.90 65.69 67.34 67.82 69.57 70.30 71.87 72.05 71.48 69.96 67.60 68.23 66.88 65.27 64.17 63.30 63.43 67.63 69.51 69.48 68.96 68.25 68.16 68.35 68.10 68.04 67.71 67.39 66.88 65.92 65.91 65.63 65.21 64.09
52.03 49.50 45.51 46.45 46.05 46.48 51.57 52.69 53.33 51.82 51.19 56.78 56.20 50.83 54.59 63.21 65.67 67.35 69.05 69.13 70.63 70.10 70.63 70.07 70.51 68.72 65.65 64.43 63.81 63.02 62.35 64.26 65.55 68.46 68.37 67.54 67.43 67.77 67.59 67.08 67.16 67.06 66.69 65.86 65.24 65.35 65.07 64.16 63.12
53.74 46.23 44.22 45.48 46.42 48.22 52.53 51.04 53.21 54.25 52.43 53.76 54.82 56.51 60.33 64.77 64.92 64.90 65.70 66.42 67.08 68.20 69.23 69.41 68.62 68.88 67.66 64.54 63.92 64.01 63.68 63.27 64.51 68.30 67.42 66.26 67.00 67.12 66.14 65.82 66.04 66.10 65.51 65.33 65.09 64.61 64.03 62.97 62.47
49.43 46.54 46.13 49.34 49.74 49.54 51.21 51.12 51.99 52.00 51.87 52.10 53.68 59.36 62.79 63.07 62.76 62.79 62.64 63.10 65.27 65.69 67.65 67.94 67.61 67.66 67.38 66.83 63.99 63.74 64.42 62.72 65.50 67.36 66.83 66.72 66.60 66.53 65.93 65.30 65.01 64.96 64.57 64.50 64.41 63.69 62.78 61.61 58.71
49.49 46.19 49.26 49.77 50.86 51.67 50.20 50.27 52.72 50.93 49.55 53.20 53.85 57.82 60.48 62.18 62.34 63.03 62.17 63.16 63.16 65.14 66.00 66.21 66.50 66.42 66.39 65.56 65.65 65.83 63.69 62.18 63.25 66.04 65.83 65.94 66.05 65.14 64.74 63.53 63.35 63.25 63.51 61.86 61.93 60.84 58.42 57.31 58.17
46.56 49.08 49.87 50.19 51.02 50.66 49.58 51.35 50.36 51.17 52.76 55.13 54.99 57.98 59.56 60.37 61.40 61.25 62.17 61.14 62.59 63.54 64.80 65.92 65.98 66.17 66.20 66.59 65.58 65.82 65.06 65.50 65.45 65.29 65.52 65.03 63.98 64.47 63.53 60.89 60.93 59.92 59.93 59.08 58.59 57.93 58.42 57.16 58.62
47.61 48.45 49.78 50.59 50.72 50.66 50.96 49.62 50.01 50.70 53.28 54.66 55.20 59.82 59.73 60.07 61.30 61.71 61.48 61.89 63.03 63.12 63.31 64.20 63.92 65.23 64.58 64.96 65.62 65.69 65.10 64.48 63.92 63.16 62.62 63.20 62.87 62.52 62.89 60.39 59.80 59.81 59.86 59.18 57.59 58.60 58.95 58.12 57.83
49.86 49.00 48.99 50.24 50.21 50.73 49.12 49.37 50.00 51.56 53.55 53.57 54.11 57.71 60.02 60.29 61.13 61.08 61.14 60.87 61.63 62.69 63.04 62.76 61.36 62.45 63.66 62.77 63.68 64.05 63.82 62.76 62.52 62.10 61.73 62.06 62.24 61.87 62.20 60.66 59.56 60.48 59.96 60.28 58.82 60.07 59.17 58.10 58.09
49.87 46.74 48.70 49.12 49.67 49.13 50.33 47.03 47.46 51.28 52.94 52.37 52.96 56.02 59.26 60.59 61.30 60.25 60.74 61.42 62.21 62.67 62.55 60.45 60.19 61.05 61.49 62.44 62.36 63.17 62.62 61.92 61.02 61.01 60.57 61.22 61.55 61.28 61.28 61.65 59.85 60.77 60.98 60.88 60.04 59.95 59.25 58.12 58.15
47.16 46.96 42.88 47.78 48.97 49.83 49.39 43.69 49.07 52.61 52.38 51.75 53.81 56.00 58.63 60.03 60.81 60.95 61.37 61.47 61.94 62.45 61.48 60.42 60.38 60.32 60.32 60.67 61.48 61.80 61.72 61.26 60.41 60.69 60.84 60.47 61.53 61.34 60.80 61.42 61.77 61.61 61.40 61.54 61.08 59.05 58.23 57.42 56.74
45.19 40.52 42.28 44.40 49.21 49.18 48.76 45.49 50.03 52.93 53.14 52.50 54.00 56.26 57.91 59.23 60.67 61.19 61.32 61.47 61.09 61.86 61.21 60.21 60.19 60.22 59.86 60.24 60.08 60.80 60.60 59.94 60.09 60.41 60.84 61.00 61.05 61.48 61.16 61.32 62.05 62.63 61.73 61.44 59.91 58.71 57.59 56.83 56.64
40.00 41.09 42.70 43.70 48.14 49.39 47.52 46.70 49.55 52.66 53.40 53.32 53.68 55.03 57.41 58.81 59.70 61.14 60.93 61.28 60.52 61.53 60.49 60.15 60.37 60.61 59.84 60.24 59.93 59.81 59.39 59.16 59.16 59.97 60.45 60.16 59.84 60.89 61.58 61.33 60.91 62.31 60.85 60.30 59.62 58.43 58.79 57.98 56.89
44.86 43.34 42.90 46.49 49.45 48.50 47.61 46.91 48.49 51.24 51.84 53.06 53.88 54.93 56.99 58.88 61.02 61.42 60.62 60.79 59.84 60.87 59.25 59.58 59.38 59.33 59.46 59.13 58.10 57.96 57.80 58.27 57.61 58.57 59.79 60.16 60.77 61.20 61.42 61.17 61.62 61.05 59.54 59.29 60.09 59.56 58.62 58.40 58.26
43.89 42.48 43.05 46.89 49.26 48.06 47.32 46.53 48.79 50.01 50.86 52.55 53.55 54.58 55.93 59.00 59.90 60.18 59.55 59.66 58.78 58.61 59.33 58.59 58.54 58.87 59.21 59.71 58.86 58.53 58.61 58.68 57.81 58.00 59.41 60.25 60.41 60.57 60.37 60.24 60.12 60.34 60.04 59.55 59.34 58.93 57.96 57.93 58.00
43.46 42.55 43.41 43.56 46.87 48.61 46.38 44.41 46.85 49.66 50.91 52.05 53.81 55.03 56.49 58.63 58.94 59.14 58.84 58.62 58.28 57.57 58.84 57.79 58.52 59.18 59.51 59.66 59.25 58.63 58.37 57.98 57.09 56.80 57.44 58.98 60.25 60.34 60.29 59.77 59.41 59.99 59.92 59.73 59.88 59.79 58.46 56.64 57.52
40.17 46.32 45.82 45.16 43.87 39.77 47.34 38.08 45.53 48.36 49.08 50.72 52.12 53.65 54.59 57.07 59.84 59.83 58.99 58.39 57.93 58.38 59.15 59.24 58.75 58.76 59.35 60.03 58.64 57.36 56.27 54.77 55.66 55.39 56.52 58.42 59.97 59.89 60.18 60.11 59.84 59.75 60.20 60.51 60.15 61.13 59.32 58.83 55.93
42.24 47.41 46.05 45.66 43.53 43.24 42.97 40.23 43.83 47.89 47.48 49.53 51.73 53.52 54.98 56.19 59.77 59.36 59.30 59.22 58.96 59.07 58.50 59.55 59.23 58.91 59.37 59.32 58.68 57.85 56.80 56.82 56.86 55.41 55.45 57.72 58.51 59.30 59.92 60.09 60.31 59.67 59.56 60.71 60.25 60.06 59.68 59.20 57.03
46.91 44.59 44.15 45.52 43.66 36.58 41.51 41.19 41.75 45.29 47.96 50.07 52.10 52.87 55.03 56.39 59.60 60.19 60.51 60.15 59.20 59.51 58.35 59.64 59.59 58.99 58.85 58.94 58.83 58.66 57.83 57.00 56.34 55.33 55.05 56.81 57.32 59.27 59.09 60.03 60.46 59.88 60.90 60.66 59.61 59.73 59.45 58.18 57.38
43.22 40.19 33.75 33.41 34.41 34.22 43.13 40.89 43.41 48.72 49.90 50.34 50.77 52.39 55.18 57.24 58.76 59.49 59.17 58.79 58.73 58.46 58.32 58.82 58.47 57.95 58.96 58.75 58.64 58.70 58.62 57.92 57.18 55.58 55.21 56.24 56.57 57.28 58.80 58.85 59.29 58.60 59.26 60.35 60.41 58.99 58.49 58.04 57.11
40.40 40.30 35.18 28.86 31.69 35.75 43.20 38.57 44.03 50.90 51.69 52.54 53.04 53.97 55.70 56.57 58.82 59.46 59.61 59.23 58.35 59.30 58.67 58.41 58.42 58.15 58.67 59.04 58.55 58.79 59.02 58.04 58.32 57.54 56.53 56.29 56.97 57.81 58.83 59.11 58.81 58.70 59.00 58.89 58.42 57.81 58.23 57.60 57.54
39.60 36.59 43.02 38.96 40.84 37.90 41.57 44.24 48.99 50.41 50.15 50.98 51.41 53.03 54.00 55.62 58.34 59.40 60.06 59.76 58.89 58.94 59.39 59.16 58.75 58.19 58.12 58.24 58.63 59.13 59.15 59.12 57.89 58.09 58.76 58.14 57.99 58.04 58.19 59.05 58.64 57.94 57.71 57.68 57.41 57.52 57.22 57.52 57.42
41.72 44.10 36.64 39.47 30.22 30.23 39.61 40.84 42.19 46.97 48.35 49.76 50.74 53.43 55.56 56.73 57.62 59.48 60.09 60.05 59.87 59.40 59.82 60.58 59.69 58.92 58.53 58.17 58.16 58.67 59.02 59.25 58.43 58.15 57.88 59.16 59.28 58.69 57.94 58.09 58.85 58.09 57.56 57.60 57.62 57.40 57.54 57.49 57.41
39.69 39.22 40.54 41.49 39.54 34.85 34.17 39.30 47.66 48.74 49.96 50.07 52.14 53.73 55.89 58.12 58.10 59.01 60.12 60.80 60.65 60.33 59.82 59.72 59.80 59.35 59.55 58.51 58.28 57.85 58.36 59.39 59.66 58.99 58.93 58.80 59.68 59.37 58.17 57.73 57.64 57.44 57.07 57.61 57.67 57.59 57.48 56.69 56.47
43.77 40.28 41.02 36.33 34.87 38.88 39.01 40.18 51.46 52.11 51.98 52.72 52.17 53.41 55.16 57.62 58.96 59.59 59.87 60.80 60.35 60.22 59.55 59.33 59.63 59.51 59.98 59.99 59.05 58.60 58.64 59.09 59.05 59.04 59.05 59.33 58.83 59.35 59.02 58.13 57.84 57.61 57.75 57.66 57.10 56.71 57.06 56.26 55.69

GFSSGP_sfc_wetblb_075.txt.gz
Wetbulb
59.64 56.88 52.03 50.40 41.69 38.58 35.82 41.01 44.92 44.31 45.75 48.48 51.20 50.74 48.88 49.54 49.34 48.79 66.28 68.53 70.69 69.85 71.47 72.49 71.90 72.30 72.38 72.52 72.46 72.64 72.52 72.70 72.69 72.34 72.00 71.68 71.78 71.76 71.45 71.67 71.90 72.11 72.28 71.28 70.55 70.10 70.14 70.48 70.57
55.83 55.92 50.61 47.54 38.10 33.20 38.14 44.56 44.76 46.90 49.66 50.94 50.62 50.79 50.79 52.95 63.80 64.99 65.36 69.00 70.23 70.11 70.54 71.71 72.01 72.01 72.25 72.10 72.15 72.35 72.69 72.81 72.40 72.19 71.94 71.90 71.88 71.91 71.85 71.49 71.20 71.61 71.79 70.80 70.05 70.20 70.21 70.27 69.85
57.14 56.52 46.38 42.39 37.87 36.06 37.49 43.69 44.60 48.19 50.36 49.88 48.75 50.56 52.08 56.41 61.44 64.69 67.71 69.36 69.62 69.55 69.79 70.81 71.31 71.71 71.90 71.82 71.90 72.13 72.07 71.72 71.82 71.83 71.97 72.00 72.03 72.03 71.64 70.81 70.92 71.38 71.14 70.48 70.02 69.69 69.50 69.45 69.18
52.45 49.97 47.15 38.40 36.75 42.33 44.61 47.46 47.87 48.23 49.92 50.84 50.37 49.48 58.57 62.74 62.91 65.73 68.96 69.34 68.25 68.16 69.97 69.38 70.02 71.36 71.97 71.94 71.74 71.62 71.59 71.03 71.20 71.33 71.60 72.20 72.13 71.74 70.95 70.08 70.56 70.80 70.68 70.33 69.50 68.84 68.49 67.61 67.38
49.03 45.29 38.28 35.68 38.81 44.56 47.47 48.70 49.23 49.20 50.54 52.02 51.87 49.12 54.97 63.45 65.80 66.73 67.11 68.81 67.19 67.43 68.59 69.13 69.01 70.80 71.78 71.98 71.79 71.27 70.84 69.79 70.68 71.01 71.21 71.60 71.58 71.14 70.18 69.59 69.87 69.93 70.03 69.25 68.93 68.12 67.45 66.54 66.31
43.25 43.62 34.52 33.04 39.42 45.81 47.79 49.39 50.01 50.45 50.31 50.12 48.07 48.44 56.25 63.39 63.84 65.07 66.59 66.27 67.31 67.79 68.55 68.96 69.80 70.43 70.74 70.88 70.46 69.20 65.66 64.09 63.05 64.95 70.31 71.10 70.57 69.73 69.23 69.04 69.10 68.93 68.47 67.72 67.83 67.18 66.63 66.15 65.33
41.08 38.79 35.37 37.80 41.05 44.16 47.60 49.77 49.14 48.47 46.46 48.07 53.20 50.30 56.96 60.40 63.65 64.48 65.11 66.06 66.74 66.86 68.15 67.68 68.20 68.54 68.06 67.28 66.76 65.68 66.31 64.79 63.48 63.65 68.49 68.84 68.91 68.57 68.87 68.56 68.39 68.16 67.63 67.22 66.81 66.48 66.01 65.25 64.38
45.61 41.26 37.83 40.93 40.76 41.31 48.43 49.89 50.31 48.94 48.67 55.76 53.83 47.94 53.46 59.89 63.15 63.38 63.41 63.27 65.65 66.51 66.61 67.96 67.66 65.75 65.09 63.56 64.73 64.73 64.69 64.03 63.90 63.21 65.09 67.30 67.51 68.05 68.04 67.69 67.51 67.38 67.12 66.64 66.29 65.78 65.03 64.36 63.06
47.17 41.40 38.47 39.81 41.68 44.58 49.39 49.47 49.23 50.68 48.04 51.20 52.91 52.95 59.41 63.15 63.18 61.66 61.26 61.74 62.25 65.14 65.83 65.81 67.01 64.67 63.39 62.64 63.34 64.41 64.59 64.56 63.67 63.81 62.17 65.96 66.64 66.16 65.88 66.24 66.42 66.35 65.91 65.82 65.61 64.84 63.77 63.00 62.53
44.68 39.55 40.74 45.22 46.23 45.70 47.51 44.77 48.61 49.26 48.54 49.75 51.68 60.08 62.58 61.98 60.40 59.24 59.13 59.72 60.84 61.77 63.09 64.91 64.66 65.30 63.92 63.59 63.12 61.97 62.19 62.84 63.38 63.25 61.93 66.18 65.33 64.62 65.27 65.43 65.29 65.10 65.03 64.85 64.45 63.57 62.81 60.79 57.34
44.69 41.32 44.79 46.57 48.66 48.88 46.04 45.68 47.83 46.31 44.99 49.93 50.84 56.47 59.23 58.77 58.35 58.23 58.40 58.38 58.91 61.30 62.46 62.73 63.58 63.72 64.72 63.92 62.79 62.35 61.33 61.85 62.52 61.68 62.18 65.65 64.67 64.37 64.06 63.70 63.39 63.28 63.73 62.02 61.26 60.24 57.49 56.94 56.59
43.12 46.32 46.93 47.18 48.90 48.28 46.60 46.70 46.78 47.42 48.78 52.38 50.54 53.66 58.41 57.86 57.48 58.24 58.04 56.99 58.15 59.83 60.84 61.96 62.65 63.28 63.43 64.52 62.74 63.00 60.87 61.44 62.15 64.35 65.62 65.15 63.94 63.08 62.17 61.44 61.28 60.99 60.31 58.96 57.34 55.62 56.04 56.32 57.46
45.21 46.20 47.41 48.23 48.19 48.26 48.13 46.29 45.98 47.27 48.87 49.95 51.94 57.33 55.98 56.70 57.97 57.99 58.65 57.88 58.92 59.42 60.87 59.47 60.04 62.34 63.26 63.57 63.98 64.38 62.80 62.40 61.88 64.24 64.72 64.74 63.77 61.31 60.58 60.42 59.31 57.33 58.53 57.60 55.79 55.79 54.95 55.66 56.29
47.72 47.55 47.30 48.00 47.31 47.08 46.52 46.55 44.86 47.99 49.79 49.71 50.41 55.49 56.56 56.56 57.69 57.43 57.40 56.69 58.89 60.16 59.10 58.67 58.15 59.29 62.92 62.05 63.06 64.66 64.51 64.37 63.20 63.43 63.45 64.00 63.03 60.57 59.48 58.63 57.37 57.12 56.94 55.70 56.42 57.35 55.26 54.82 55.89
48.06 44.36 46.16 46.49 46.60 45.10 47.30 43.67 44.84 47.20 48.92 48.53 48.66 51.36 56.54 56.30 58.60 56.76 56.58 56.98 58.92 59.76 58.66 57.62 58.10 58.54 61.32 60.79 62.82 63.29 63.53 63.55 62.35 62.37 62.54 62.65 62.40 61.12 59.66 57.93 58.27 58.77 57.90 56.04 56.96 57.64 57.12 55.25 56.86
44.38 44.23 38.98 44.84 46.23 47.31 44.49 40.53 45.71 47.70 46.17 45.98 46.82 48.38 55.68 56.59 57.75 56.87 58.41 58.27 58.94 59.56 58.37 58.36 60.03 58.71 59.63 61.32 62.39 62.28 62.68 62.83 62.04 61.61 61.62 61.27 61.11 61.56 60.33 58.32 58.58 59.26 58.72 57.62 57.92 57.86 56.66 54.95 54.50
40.28 35.63 38.21 42.18 47.18 46.00 44.72 41.87 46.78 48.16 48.34 47.50 46.51 49.44 53.65 55.27 55.90 56.49 58.21 58.17 58.56 60.19 58.65 56.87 57.65 59.35 59.48 60.24 61.47 62.01 61.60 61.14 61.29 60.45 60.71 60.62 60.72 60.74 60.93 59.64 59.32 60.01 58.93 58.66 59.21 57.14 56.57 54.52 53.92
36.08 37.40 38.21 39.52 44.59 45.02 43.05 42.82 46.27 48.64 48.42 48.39 48.09 48.58 51.78 54.81 55.76 57.13 57.87 58.23 58.81 59.90 59.29 57.96 58.39 59.33 59.56 59.41 60.42 60.28 60.05 60.22 60.31 59.88 59.73 60.34 60.35 60.55 60.28 60.93 60.85 60.94 59.11 59.09 58.40 57.12 55.41 55.66 55.25
41.81 40.98 39.30 42.72 46.03 45.36 44.41 43.96 45.07 47.21 46.45 47.00 47.11 48.30 50.41 54.63 56.19 57.30 57.58 57.68 58.24 58.98 59.29 58.71 58.25 58.77 59.20 58.48 58.09 58.09 57.35 58.77 59.00 59.48 59.61 60.07 60.09 60.46 60.29 60.63 60.29 60.77 59.71 58.68 57.77 56.17 55.87 54.65 55.08
41.66 39.54 38.53 43.02 46.33 45.64 44.64 45.18 44.89 45.60 45.51 46.96 48.83 48.19 49.56 53.94 55.59 55.98 56.60 56.46 57.18 58.41 58.89 58.82 58.17 58.72 59.10 58.87 58.57 58.51 57.87 58.23 59.04 59.51 59.17 59.21 59.04 59.60 59.53 59.88 59.54 60.36 59.48 58.97 57.04 56.77 56.04 55.88 55.41
37.90 36.86 40.05 40.33 44.40 45.64 43.97 41.78 42.17 46.41 47.45 48.49 49.61 51.11 51.46 55.27 54.60 54.92 55.87 55.31 55.69 57.52 58.17 57.99 57.48 58.27 59.12 59.27 58.78 58.82 58.49 57.75 57.00 57.95 57.59 58.11 59.04 59.85 59.67 60.00 59.73 59.71 59.59 58.16 57.12 56.81 56.00 55.11 55.90
33.77 41.48 42.48 42.64 41.10 34.80 44.06 34.41 40.15 44.17 45.80 48.00 47.88 49.18 50.36 55.49 55.73 55.41 55.18 54.80 54.74 55.68 58.13 58.11 58.18 58.26 59.19 59.13 57.96 57.55 56.52 55.21 55.98 56.84 57.43 57.92 59.57 59.17 58.98 59.00 58.38 58.57 58.29 57.68 57.91 58.06 56.87 56.84 55.03
37.44 44.03 42.83 42.44 39.11 38.61 39.19 36.44 39.07 43.58 43.53 45.87 47.45 48.11 48.80 55.69 55.42 54.88 54.99 55.11 55.25 55.46 57.86 57.50 58.37 58.39 58.69 59.05 58.24 57.36 56.38 56.83 56.89 56.30 56.40 57.35 58.19 59.19 58.82 58.70 57.89 56.99 57.47 57.99 58.45 57.96 58.04 57.32 55.93
44.02 40.96 42.08 40.81 38.96 32.04 37.88 37.34 36.49 40.35 43.60 46.69 48.78 49.44 49.43 55.24 55.66 55.88 56.10 55.73 55.46 56.50 57.86 57.96 57.69 57.73 58.66 58.87 58.09 57.23 56.52 55.85 55.30 55.25 55.04 56.14 57.20 58.19 58.34 58.29 57.76 57.04 57.21 58.22 58.79 58.40 58.13 57.32 56.59
40.73 37.88 31.71 31.03 31.06 29.93 40.83 37.72 39.25 44.04 47.07 48.14 47.26 47.67 49.52 55.51 55.39 55.26 55.03 54.66 55.07 55.52 56.91 58.09 57.39 56.65 58.19 58.37 57.81 57.26 56.87 55.52 55.13 54.05 53.69 54.48 56.06 56.34 56.89 57.22 57.91 57.83 57.69 58.18 58.94 58.76 58.46 57.66 56.74
38.93 37.84 33.26 27.59 27.37 31.52 40.97 34.48 39.74 46.79 49.24 48.95 48.77 49.15 51.93 54.93 55.81 55.53 55.35 55.10 55.40 55.66 55.70 57.54 57.78 57.68 57.77 58.08 57.87 58.25 57.98 56.39 55.50 54.50 53.40 54.31 56.11 56.76 58.46 57.80 59.05 57.91 57.65 59.61 58.34 58.08 58.05 57.96 57.44
38.11 35.25 40.12 35.28 36.41 32.47 38.19 40.08 44.69 47.19 48.06 47.92 48.77 49.20 49.29 53.55 55.04 55.64 55.80 55.37 55.61 55.70 55.57 56.16 56.24 57.15 58.19 57.85 58.06 58.13 58.19 57.61 57.05 55.95 54.79 54.54 56.14 57.24 57.35 58.01 57.58 58.20 57.73 57.81 57.93 57.78 57.06 57.35 57.43
40.52 42.86 33.31 34.16 28.16 27.80 34.27 37.44 36.13 42.85 44.37 46.24 46.45 46.97 48.82 51.66 55.22 55.88 56.05 55.37 56.58 56.48 56.39 56.50 56.86 56.41 56.91 58.43 58.67 58.20 57.99 58.08 57.92 57.85 55.93 55.00 55.87 56.96 57.42 57.86 58.21 57.83 57.63 57.65 57.14 56.39 56.25 56.29 56.55
38.07 36.84 37.84 37.29 35.97 30.63 30.45 35.80 44.85 46.04 47.80 46.50 47.47 49.29 50.98 51.07 54.66 55.99 56.37 56.54 56.37 57.40 56.92 56.47 57.02 56.82 56.77 57.13 57.76 58.27 58.16 58.48 58.45 57.34 57.22 56.75 56.27 56.12 56.88 57.68 58.20 58.18 57.31 56.80 56.37 56.25 55.78 55.69 55.80
40.30 38.94 38.69 33.62 33.03 35.86 33.31 34.57 48.60 48.11 49.21 48.35 49.04 49.98 50.50 53.38 53.67 55.80 56.67 56.80 55.72 56.21 57.34 57.11 57.06 56.97 57.00 56.89 56.88 56.96 58.23 58.72 58.16 57.26 56.92 57.20 57.61 57.70 56.98 56.80 57.02 57.56 57.26 56.66 55.68 55.37 55.82 55.53 55.38

GFSSGP_sfc_wetblb_078.txt.gz
Wetbulb
59.16 54.66 50.31 49.27 40.69 36.40 33.16 38.25 42.50 43.69 43.85 47.28 50.02 49.74 48.27 50.21 47.69 43.32 64.40 68.88 69.94 70.33 71.45 71.45 71.50 72.22 72.46 72.48 72.50 72.56 72.75 72.91 72.64 72.29 72.01 71.79 71.65 71.49 71.33 71.33 71.38 71.73 72.03 71.65 71.37 71.23 71.05 70.84 70.67
54.58 54.28 49.22 44.67 36.10 30.49 33.70 41.69 42.49 45.67 48.45 49.11 49.25 49.82 49.22 55.90 63.07 63.57 64.45 68.99 69.82 70.09 71.34 71.18 71.50 71.76 72.26 72.17 72.27 72.34 72.58 72.65 72.34 71.93 71.94 71.89 71.73 71.85 71.93 71.40 70.99 71.19 71.69 71.50 70.88 70.50 70.46 70.51 69.77
54.95 54.71 45.61 40.67 34.34 32.05 34.71 42.22 45.23 47.09 48.79 48.28 47.44 49.01 52.05 56.63 64.52 64.50 66.03 69.08 69.82 69.60 70.96 71.42 71.14 71.29 71.98 72.04 72.14 71.92 72.00 71.99 71.68 71.51 72.05 71.93 71.90 72.26 71.89 71.34 71.06 71.26 71.39 69.96 70.25 70.42 70.43 69.72 68.88
50.53 48.34 45.23 37.01 35.48 39.97 40.75 43.93 46.57 46.53 48.42 48.67 48.65 50.92 58.35 61.22 64.74 65.46 68.23 68.76 68.94 68.64 69.91 70.53 70.32 70.92 71.64 72.01 72.10 71.79 71.66 71.08 71.07 71.10 71.79 72.00 72.14 72.05 71.51 70.89 70.93 71.09 71.14 70.85 70.23 70.54 69.80 68.79 68.33
46.59 42.55 36.57 33.53 36.09 41.59 44.77 45.69 46.95 47.44 48.68 50.17 50.21 47.73 55.86 62.38 65.62 67.60 67.70 68.17 66.15 67.11 68.64 70.05 69.68 70.63 71.49 71.94 71.85 71.57 71.10 70.71 70.32 70.47 70.98 71.54 71.66 71.41 70.88 70.35 70.36 70.42 70.23 70.06 70.09 69.48 68.49 67.41 66.23
41.85 40.54 32.07 31.81 36.53 43.64 44.78 46.47 47.25 48.37 49.29 49.13 46.95 49.25 56.85 62.91 64.46 65.24 66.91 66.52 67.18 67.00 67.83 68.69 70.38 70.64 70.83 71.16 70.97 68.40 66.22 66.57 64.86 64.43 64.02 68.27 70.25 70.24 70.14 70.00 69.70 69.55 69.34 69.16 68.73 67.82 66.86 65.91 65.26
39.42 35.89 32.56 33.37 37.39 40.81 44.98 47.58 47.56 47.55 46.53 47.29 51.01 50.18 57.16 59.72 63.41 64.66 65.23 65.80 66.28 67.25 67.00 67.07 68.35 70.12 69.99 69.21 68.22 65.39 65.39 65.40 64.80 63.62 63.74 64.37 67.69 68.14 69.54 69.49 69.22 68.70 68.43 68.27 67.63 66.54 65.84 65.34 64.81
42.25 38.91 34.57 35.61 38.91 38.37 46.57 47.39 48.56 46.95 47.10 54.39 52.05 51.30 53.51 58.48 63.03 63.34 63.93 64.49 64.62 65.81 66.77 66.62 67.74 66.54 65.65 66.06 66.64 65.17 66.13 66.22 65.28 64.79 63.25 63.82 66.78 67.33 68.16 68.15 68.00 67.69 67.62 67.61 67.04 65.68 65.19 64.44 64.28
44.59 35.45 32.81 36.42 39.51 42.22 47.55 45.90 48.36 49.79 46.83 50.70 52.01 54.14 57.57 62.35 61.97 60.81 60.08 61.09 62.55 64.24 64.74 66.01 65.60 65.64 63.89 63.31 64.88 65.93 66.15 65.26 65.06 64.44 63.43 64.94 65.37 66.03 66.65 66.80 66.94 67.04 66.60 66.45 66.05 64.94 64.02 63.58 63.70
41.93 34.60 37.80 43.06 42.98 43.20 46.51 42.94 45.47 47.10 47.64 47.78 54.67 59.84 61.18 61.44 60.68 59.38 59.25 58.92 60.33 61.98 63.06 63.59 63.94 63.53 63.44 63.74 63.58 62.68 63.64 63.76 63.29 62.35 61.80 65.39 65.23 65.81 65.77 66.10 65.82 65.70 65.46 65.37 64.95 63.75 63.22 60.70 59.92
41.81 40.85 43.26 43.79 44.81 45.87 45.23 44.65 48.70 45.17 44.14 47.69 51.23 57.60 59.44 59.82 59.38 58.55 58.43 59.22 60.08 60.91 61.64 63.13 63.00 63.13 62.48 62.71 61.45 61.11 61.19 62.36 62.11 62.06 61.03 65.03 65.09 65.33 65.24 64.35 64.09 63.68 64.18 62.53 61.22 60.51 57.10 56.63 56.50
40.62 45.07 44.76 45.73 46.83 45.96 45.05 47.33 46.05 45.20 47.37 50.81 53.70 59.24 59.03 57.87 57.09 56.83 56.51 57.56 58.93 59.96 60.67 60.94 61.41 62.53 62.74 62.32 61.54 61.47 60.64 62.18 62.23 61.91 61.15 61.59 64.24 63.83 63.23 62.71 62.38 61.93 61.03 59.23 57.53 55.74 55.11 55.59 56.56
42.64 45.02 47.06 47.85 47.23 46.64 47.28 45.58 45.82 46.38 47.81 48.76 51.72 57.54 57.20 56.50 56.45 57.09 56.86 56.82 58.32 58.65 59.29 59.25 60.52 61.31 63.51 62.40 62.11 62.26 60.16 60.88 61.56 61.75 62.08 61.18 63.75 62.53 61.96 61.35 60.49 58.91 57.66 56.88 55.62 55.21 55.53 55.59 56.63
44.77 45.12 45.93 46.97 46.34 46.70 45.21 45.27 44.36 47.14 48.11 47.71 51.14 54.10 56.73 56.30 56.09 56.24 56.42 56.54 58.16 59.33 57.89 57.58 57.84 59.75 63.04 63.51 62.22 62.35 60.75 61.11 61.34 63.90 62.42 62.76 63.08 61.65 60.43 59.55 58.46 56.95 55.97 55.37 54.35 53.93 53.22 53.82 55.86
46.00 41.81 44.70 45.43 45.36 44.27 45.31 42.19 43.28 46.05 47.23 46.52 46.77 50.76 53.95 55.52 56.48 57.00 56.55 57.27 59.02 58.82 57.55 56.67 56.64 57.76 60.36 62.61 63.63 63.38 62.11 62.56 62.62 63.93 64.06 63.19 61.35 59.89 59.87 58.33 57.55 56.90 54.40 52.98 53.98 54.82 53.43 52.99 56.26
41.90 41.25 36.89 43.44 44.88 45.33 43.00 38.88 45.13 46.68 45.15 44.78 45.12 45.41 53.39 54.18 56.93 56.49 56.66 57.83 58.84 57.65 56.65 57.07 59.02 57.09 60.58 60.80 63.06 63.40 63.59 62.68 62.90 63.58 63.81 62.31 60.41 59.59 57.63 56.51 56.93 56.57 55.44 54.38 54.46 55.11 53.24 53.41 54.67
38.05 34.63 36.30 39.46 44.88 44.08 43.26 40.71 45.34 47.65 45.92 44.96 45.28 44.26 51.11 53.80 54.44 55.09 57.21 58.45 58.27 57.62 56.53 55.78 56.69 58.21 59.78 60.76 62.01 62.29 63.14 62.69 62.91 63.24 62.70 62.14 60.43 58.95 56.66 56.17 57.54 56.77 55.48 55.28 56.19 55.29 54.28 53.42 53.05
32.89 34.27 34.63 35.94 41.37 44.34 42.87 41.48 45.29 47.06 45.96 45.62 44.96 45.64 50.96 53.80 55.30 56.61 57.62 58.59 58.15 57.07 56.15 56.08 57.45 58.37 59.41 60.38 61.14 61.59 61.79 61.92 61.87 61.96 61.78 61.35 60.88 59.58 57.56 57.77 59.03 57.01 56.34 56.20 56.57 55.37 54.48 54.37 53.44
39.06 37.52 36.32 39.49 44.23 43.62 41.75 41.91 44.55 47.85 47.21 45.36 45.24 45.11 50.49 53.88 54.81 56.97 57.26 58.37 57.93 56.49 56.21 56.16 56.85 58.79 58.83 59.11 58.63 59.04 58.79 59.72 60.17 60.64 60.53 60.62 60.67 60.28 58.75 57.80 59.56 58.50 57.55 57.52 56.91 55.23 54.32 52.29 52.79
38.36 36.68 36.34 40.40 44.40 43.65 41.18 40.73 44.88 46.97 46.66 47.05 46.76 45.27 48.89 51.42 54.03 55.82 56.22 57.68 57.52 57.04 56.51 57.07 57.01 58.47 58.13 58.42 58.68 58.60 58.74 59.41 59.71 59.98 59.67 59.82 59.76 59.54 59.57 58.65 59.54 59.92 58.46 56.97 55.01 55.13 53.94 53.58 53.65
36.61 35.81 35.96 36.13 41.60 43.47 41.24 39.41 41.34 46.24 46.77 46.13 46.16 47.79 48.68 52.92 53.14 54.70 55.39 56.19 57.02 56.60 56.49 57.41 57.71 57.68 58.11 58.54 58.56 58.25 58.02 58.09 58.13 58.51 58.54 58.90 59.54 59.57 59.50 59.58 59.67 59.74 59.08 57.03 55.09 54.85 55.67 53.52 52.92
34.70 39.90 39.54 38.93 38.24 32.70 40.13 30.11 39.54 43.69 45.34 45.79 45.39 45.67 47.57 53.47 54.44 55.10 54.95 55.36 56.01 56.25 57.08 57.48 57.67 58.46 58.28 58.14 57.74 56.99 56.38 55.63 57.26 57.97 58.39 57.82 58.70 59.16 58.98 59.16 59.26 59.09 59.00 57.58 57.46 56.91 54.82 54.50 53.28
37.61 41.09 39.86 39.81 36.74 36.08 36.84 32.41 37.77 43.15 42.03 44.45 45.45 45.02 47.85 53.89 53.99 54.41 54.39 55.13 55.77 56.19 56.25 57.64 57.83 58.23 58.88 58.35 57.24 57.08 56.28 56.58 57.00 57.58 57.30 57.36 57.84 58.79 58.52 58.90 58.96 58.77 58.27 57.85 58.01 57.96 56.31 55.47 54.56
43.11 39.12 38.99 39.63 36.82 29.06 35.44 35.25 35.99 40.01 42.91 45.48 46.56 46.62 48.50 53.53 53.98 54.76 55.10 54.83 54.29 55.61 55.77 57.35 57.29 57.79 58.71 58.28 57.79 56.83 56.12 56.06 55.58 56.05 55.80 56.26 57.13 58.08 57.98 57.91 58.46 58.51 58.35 57.19 57.86 58.68 57.30 56.10 55.80
39.74 36.53 29.66 27.80 28.23 26.76 39.07 36.48 38.01 44.36 45.70 45.96 46.92 48.12 49.08 53.76 53.43 53.02 53.34 53.44 53.57 54.64 55.31 57.01 57.45 57.02 58.02 58.31 57.85 57.17 56.16 56.32 55.70 55.27 55.52 55.56 56.03 56.79 57.48 57.31 57.26 57.69 58.14 58.21 58.09 58.26 56.34 55.61 54.94
36.41 37.05 31.42 24.41 26.47 29.72 39.56 32.91 38.70 46.77 48.81 48.62 48.42 45.97 51.58 53.25 53.62 53.16 53.61 53.86 53.87 54.81 55.57 56.26 56.98 56.82 57.63 58.21 57.53 57.62 57.31 56.53 56.15 55.78 54.91 55.49 56.24 56.95 57.98 57.71 57.57 57.36 57.09 57.66 58.10 57.37 56.98 57.02 56.28
37.60 35.45 40.00 34.70 36.30 30.83 34.98 39.10 44.40 46.74 46.25 46.65 45.96 49.01 51.64 52.77 53.38 53.46 53.78 54.09 54.58 54.66 55.45 56.15 56.60 56.70 57.06 58.10 57.73 57.34 57.49 56.81 55.22 55.20 54.93 54.14 55.71 57.12 57.47 57.46 58.07 57.82 57.69 57.78 57.69 57.35 56.68 57.10 56.26
39.03 42.13 33.70 34.66 27.08 26.61 33.03 35.68 36.79 43.65 44.22 45.49 44.48 46.97 51.65 53.22 53.60 53.96 54.09 54.23 54.87 55.13 55.62 55.98 56.56 56.93 57.70 57.91 58.07 57.82 57.70 57.44 56.09 54.82 53.41 53.79 54.67 56.31 57.04 57.36 56.76 58.00 57.82 58.02 58.04 57.21 57.00 57.10 56.70
37.50 36.79 37.81 37.11 34.45 30.67 28.56 34.46 45.02 44.38 45.91 45.78 45.27 47.01 50.45 52.76 53.53 53.97 54.01 54.82 55.22 55.26 55.18 55.65 55.57 56.12 57.25 57.68 58.03 57.88 58.02 57.83 57.30 56.02 54.60 53.61 54.08 55.17 55.83 56.89 57.26 57.30 57.88 57.53 57.15 57.45 57.06 56.62 56.53
40.99 37.28 38.43 31.46 31.25 34.77 32.74 33.75 47.58 47.17 47.10 47.50 47.61 49.02 48.01 53.60 54.07 54.31 54.24 55.02 54.98 54.97 55.25 55.45 55.80 55.85 56.07 57.09 57.30 57.65 57.93 58.00 57.54 57.37 56.97 55.65 53.94 54.33 55.35 56.22 56.70 57.17 57.26 57.12 57.15 56.54 56.29 55.20 55.48

GFSSGP_sfc_wetblb_081.txt.gz
Wetbulb
58.40 52.63 48.69 48.36 39.99 35.35 31.70 36.21 40.01 41.86 42.86 45.99 48.49 47.80 46.97 47.61 46.24 42.43 60.59 66.86 69.22 69.29 70.51 71.01 71.38 72.11 72.23 72.15 72.39 72.45 72.74 72.94 72.69 72.55 72.36 72.22 72.25 71.94 71.92 71.97 72.05 72.09 72.23 72.21 71.86 71.99 71.50 70.76 71.13
53.08 52.08 48.17 42.76 35.68 28.91 31.81 38.95 41.62 43.53 46.92 48.42 48.24 51.92 51.50 52.81 61.36 61.78 63.61 68.70 69.54 70.10 70.19 70.57 71.31 71.87 72.08 71.89 72.33 72.47 72.68 72.63 72.37 72.18 72.07 72.01 71.86 71.79 71.84 71.64 71.45 71.77 72.31 72.26 71.44 71.32 70.73 70.72 70.34
53.24 51.99 44.66 39.53 32.88 30.40 32.43 40.62 43.55 46.10 46.98 45.96 45.81 48.13 53.84 56.24 63.11 63.35 65.58 69.18 68.99 69.93 70.48 70.29 70.93 71.22 71.83 71.85 71.91 72.12 72.01 71.89 71.63 71.64 71.90 71.79 71.57 71.77 71.69 71.06 70.93 71.24 71.92 72.01 71.22 70.95 70.32 69.81 69.04
49.16 47.34 43.79 36.17 34.25 36.85 38.15 42.33 44.34 45.51 47.46 47.50 46.19 50.45 56.19 61.49 63.70 65.38 66.93 69.17 68.07 69.05 70.30 69.77 70.04 70.66 71.55 71.78 71.91 71.92 71.68 71.06 70.93 71.06 71.41 71.60 71.97 71.81 71.31 70.64 70.81 71.25 71.52 70.57 71.47 70.44 69.83 68.43 68.01
44.87 41.88 35.55 32.10 35.10 38.14 42.47 44.71 45.12 45.67 46.56 48.37 47.61 47.51 52.74 61.58 64.73 66.31 67.22 68.96 67.29 67.07 68.98 70.07 69.14 70.39 71.20 71.98 71.91 71.65 71.22 70.47 70.63 69.87 70.38 70.91 70.99 71.36 71.11 70.31 70.37 70.10 69.67 70.37 70.38 69.62 68.86 67.68 67.04
40.10 39.23 30.94 30.31 34.50 40.42 42.49 43.65 45.36 45.94 47.50 48.00 46.43 51.77 55.43 62.11 64.58 65.73 66.81 66.23 66.80 66.62 67.63 69.81 70.06 70.37 70.65 71.18 70.96 69.98 67.99 67.66 67.01 66.47 67.39 69.27 69.08 69.19 69.45 69.79 70.05 69.82 69.54 69.38 68.92 68.65 67.87 66.78 66.44
37.61 34.56 30.99 31.55 34.45 38.70 41.70 45.54 45.08 45.30 44.23 45.90 49.93 52.30 55.76 60.32 63.54 65.31 65.64 65.78 66.09 66.31 66.82 67.63 69.66 70.29 69.63 69.36 68.57 68.01 66.22 65.18 64.82 64.69 64.48 66.20 66.49 66.84 67.77 69.06 68.90 69.24 68.98 68.54 68.11 67.43 65.87 66.88 65.89
40.57 37.33 31.66 34.13 36.27 37.27 43.78 45.06 44.93 44.66 45.41 51.85 54.48 51.88 53.12 59.41 63.07 63.75 64.40 64.41 64.80 65.38 65.74 66.05 67.65 69.75 70.01 68.69 66.13 66.29 65.35 64.97 65.08 64.88 64.20 63.26 64.84 66.49 67.38 67.28 67.93 68.17 68.44 67.60 67.11 65.50 65.87 65.85 64.90
41.82 33.99 30.00 35.07 37.99 40.68 45.31 44.47 45.98 46.89 45.35 47.57 51.68 55.90 56.95 61.38 62.21 61.39 60.92 60.92 61.80 64.01 64.68 64.85 65.37 66.16 66.81 66.86 65.93 66.02 66.22 65.53 65.44 64.89 64.35 63.36 64.05 65.02 65.95 66.04 66.81 67.61 67.15 66.53 65.90 64.83 64.87 64.24 63.98
40.82 33.46 34.97 40.36 42.73 41.98 44.03 39.72 44.60 45.06 46.17 46.17 49.79 57.98 60.07 61.18 60.48 59.82 59.06 59.69 60.80 61.57 62.73 64.01 63.20 64.12 63.26 65.62 65.85 64.93 65.23 64.95 64.14 63.83 62.81 62.99 63.85 64.63 65.06 65.32 65.29 66.29 65.98 65.55 64.81 63.96 64.22 62.87 61.06
41.61 38.59 40.12 42.41 44.87 44.35 43.15 41.15 44.63 43.37 43.13 46.04 45.88 53.13 58.57 59.01 59.00 58.97 58.81 58.82 61.35 61.98 61.56 62.19 63.08 62.51 62.29 63.54 64.30 64.10 64.10 63.11 62.07 61.49 62.22 64.05 64.56 64.70 64.56 64.97 64.83 64.64 65.04 63.07 61.93 61.30 60.60 60.13 59.55
39.51 42.38 44.79 43.55 44.79 43.06 43.07 44.68 43.28 43.40 45.36 48.89 47.95 53.91 58.20 58.07 58.28 58.04 57.71 58.26 58.42 59.88 60.88 61.79 62.01 63.11 62.73 62.27 62.09 62.57 62.41 62.89 61.72 60.65 61.31 63.93 63.47 63.67 64.12 64.28 63.53 62.73 61.65 59.28 59.06 56.94 56.75 58.20 58.02
41.00 43.53 44.62 45.66 45.29 44.17 45.02 43.71 43.73 45.34 47.18 48.49 47.21 56.31 57.45 57.74 58.42 58.05 57.70 57.73 58.35 58.72 59.65 59.67 60.05 62.47 62.70 61.96 61.40 60.92 61.35 61.77 61.98 61.14 60.63 63.80 61.91 62.99 63.86 63.17 62.43 61.40 59.60 58.50 55.38 54.59 55.84 56.47 56.64
41.92 42.74 43.13 44.47 44.65 45.09 44.25 44.75 42.41 45.97 47.19 46.81 45.33 48.68 57.13 57.16 57.25 54.60 55.37 55.85 57.69 58.37 58.47 58.33 59.32 60.14 63.14 61.77 61.15 60.35 60.67 61.21 61.15 61.02 60.74 62.65 63.45 63.65 62.87 61.76 60.40 59.56 59.07 57.51 55.29 54.90 54.68 56.18 56.47
44.41 40.26 41.99 42.74 41.72 41.76 44.39 41.31 40.69 45.12 45.70 45.46 45.07 48.20 54.35 56.35 55.55 56.03 56.62 56.50 58.19 58.90 57.93 57.21 57.51 59.26 62.95 62.33 61.56 61.44 60.33 61.19 61.09 61.13 61.17 61.07 63.83 62.99 62.01 60.75 58.77 58.17 57.06 55.33 53.78 52.70 53.21 55.20 56.87
39.65 39.13 34.59 40.12 42.93 43.55 42.32 37.94 44.32 45.73 44.06 43.46 44.29 43.52 51.15 54.21 55.35 56.62 56.28 57.33 58.26 57.68 56.91 55.99 57.84 57.41 60.91 62.79 62.64 62.20 60.66 61.20 61.19 62.96 62.58 61.48 63.05 62.60 60.99 59.36 57.77 57.41 54.68 54.09 54.41 53.04 51.90 55.18 56.00
35.22 32.28 33.91 37.08 43.61 42.15 40.25 39.07 43.40 44.09 44.36 43.46 43.55 43.88 43.42 51.09 53.99 54.78 56.14 56.93 58.00 57.20 55.86 55.58 55.56 56.18 59.76 61.32 62.67 63.09 61.31 61.59 61.89 63.63 62.79 61.59 61.22 60.81 59.50 57.99 56.16 56.52 54.92 54.31 54.85 53.55 52.74 53.52 54.36
30.11 32.19 31.79 32.64 39.64 40.75 38.77 39.37 43.05 44.90 44.40 43.37 43.47 44.15 42.77 47.98 52.86 55.35 55.52 57.04 56.58 56.36 55.34 56.32 56.20 58.14 59.60 60.30 61.47 61.99 62.23 61.55 62.40 63.16 62.60 60.98 60.24 58.91 57.36 56.46 55.24 55.37 53.89 54.18 54.86 54.47 52.57 54.11 54.78
36.29 35.10 34.07 36.45 41.10 39.95 39.61 39.52 42.29 45.24 43.70 43.46 45.97 45.92 43.94 47.46 51.84 54.75 56.82 57.45 55.94 54.74 54.68 56.28 56.38 57.74 59.09 59.35 59.13 59.74 59.72 61.10 62.12 62.51 62.14 60.75 59.32 57.53 56.01 56.47 55.11 55.01 53.36 54.65 56.01 54.62 52.64 51.70 53.27
34.71 32.79 32.58 37.60 41.34 40.49 37.45 38.33 42.14 44.15 44.53 45.64 44.91 46.29 44.15 48.85 52.93 55.23 56.82 57.40 57.14 55.72 54.70 55.50 56.04 57.72 57.31 59.14 58.87 59.24 59.77 60.14 61.15 61.34 61.48 61.33 59.18 57.23 56.37 57.34 55.30 55.67 54.70 55.65 55.44 54.02 52.09 51.45 52.06
35.44 34.23 33.77 34.20 38.72 40.11 38.35 36.95 39.64 44.01 44.90 46.39 47.56 46.59 45.48 49.98 52.32 54.07 56.14 56.71 56.80 56.04 55.43 56.20 56.08 56.58 57.40 58.78 58.45 58.43 58.73 58.85 58.57 59.29 59.85 60.26 60.11 59.14 56.91 57.72 56.97 56.82 56.89 56.22 55.90 54.57 53.48 52.01 51.46
33.28 39.69 38.48 36.36 35.19 29.14 38.58 28.83 37.90 41.13 42.73 45.13 46.85 43.87 44.20 50.45 53.23 54.42 55.69 56.09 55.96 56.02 56.49 56.74 55.62 57.25 58.07 58.59 57.81 57.44 57.14 56.18 57.69 58.56 58.91 58.77 59.64 59.30 58.96 58.61 59.29 57.88 57.52 57.10 56.22 56.01 55.28 54.03 51.73
35.23 40.89 38.38 37.38 34.01 33.56 33.80 32.16 33.60 40.48 39.91 43.43 45.87 45.56 43.54 49.99 52.78 53.78 55.05 56.39 56.44 56.37 55.80 56.36 55.83 57.36 58.13 57.82 57.91 57.23 56.18 56.67 57.91 58.61 57.63 57.74 58.28 59.02 58.74 59.12 58.89 58.88 58.62 57.96 57.14 55.72 55.01 54.17 52.49
41.48 38.75 37.05 35.72 34.83 28.18 32.86 32.56 31.45 36.47 40.76 44.82 47.30 46.37 44.95 49.06 52.40 53.90 55.09 56.34 55.54 55.99 55.92 55.40 55.78 56.64 57.88 57.76 57.08 56.78 56.37 55.77 56.50 56.93 56.56 56.91 57.33 58.17 58.40 58.61 58.80 58.79 58.28 58.05 57.79 57.58 56.14 55.45 54.38
38.02 34.77 24.76 22.92 25.10 24.74 35.52 32.18 34.83 40.74 44.80 46.37 47.08 47.63 45.23 50.59 51.83 53.07 53.42 54.40 54.36 54.50 54.94 55.24 55.47 56.24 57.73 56.68 56.42 56.45 56.42 56.12 55.07 56.18 56.36 56.48 56.50 57.22 57.70 57.99 58.02 58.01 57.91 57.66 57.76 57.62 57.20 56.14 54.20
35.21 34.71 27.50 22.62 23.14 27.65 35.49 29.29 35.13 44.42 47.51 48.85 48.62 48.32 45.92 49.75 52.37 53.08 53.11 53.82 54.54 54.76 54.99 55.47 55.59 56.46 57.80 57.45 56.99 56.54 56.39 56.33 56.22 55.55 56.48 56.50 56.68 56.95 58.06 57.34 57.79 57.88 58.03 57.15 56.94 57.08 57.14 56.58 55.95
36.39 33.52 37.89 33.70 34.13 31.07 31.52 37.12 42.00 46.68 46.04 47.56 47.65 47.49 45.93 50.37 51.91 52.69 53.35 53.38 53.89 54.33 54.80 54.87 55.53 56.14 57.25 57.98 57.21 56.83 56.28 56.47 55.97 55.85 56.16 56.44 56.54 56.56 57.39 57.40 57.00 56.95 57.59 57.33 56.94 56.56 56.49 57.04 56.65
37.67 41.05 33.94 32.85 25.19 25.30 30.42 33.10 36.30 41.69 43.24 45.37 45.29 45.54 46.97 52.18 51.86 52.49 53.38 53.25 53.93 54.52 55.09 55.05 55.83 55.76 56.58 58.15 57.80 56.89 56.34 56.02 55.97 54.64 54.33 54.01 54.27 55.17 55.79 56.55 56.39 56.92 57.09 57.36 57.26 57.03 56.83 56.65 56.86
37.14 34.31 35.80 36.47 33.65 28.99 28.26 33.09 43.35 42.93 44.68 44.33 45.63 46.86 48.64 51.69 52.37 52.62 53.48 53.76 54.29 54.82 55.09 54.93 55.05 55.31 55.60 57.72 57.86 57.37 57.15 56.97 56.57 54.68 52.89 53.08 53.08 54.15 55.35 56.62 56.89 56.69 57.01 57.10 56.85 57.12 56.84 56.26 56.16
38.85 36.36 37.52 32.13 31.89 33.91 31.87 30.96 46.04 44.51 45.04 46.59 46.15 48.31 47.47 51.83 52.72 53.17 53.14 53.80 53.83 53.87 54.50 54.50 54.72 55.27 56.11 57.34 57.83 57.38 57.70 57.51 56.62 55.23 53.87 52.53 52.36 53.41 54.82 55.56 56.72 57.05 56.81 56.64 56.76 56.23 56.26 55.63 55.45

GFSSGP_sfc_wetblb_084.txt.gz
Wetbulb
58.76 50.62 47.33 47.18 38.88 34.80 30.53 34.89 37.71 39.83 42.10 43.76 46.94 46.60 46.29 45.61 45.39 41.24 57.97 66.64 68.20 68.30 70.17 70.74 71.07 71.75 72.09 72.30 72.39 72.67 73.19 73.69 73.70 73.28 72.96 72.93 72.79 72.50 72.60 72.65 72.44 72.85 72.42 71.62 73.08 72.95 72.47 71.86 71.57
53.66 50.17 47.41 41.90 34.10 28.35 30.66 36.87 39.65 42.35 45.74 46.99 47.75 51.21 49.67 47.47 59.13 59.40 61.76 66.50 68.61 68.79 69.74 70.25 71.20 71.50 71.04 72.12 72.22 72.50 72.33 73.26 73.27 73.15 72.96 72.71 72.53 72.43 72.45 72.22 71.70 72.04 72.44 72.88 72.88 72.08 71.69 71.36 70.72
52.10 50.42 43.46 38.56 31.60 29.34 31.01 37.93 41.84 43.98 46.14 45.41 44.20 48.10 50.63 51.93 61.50 61.69 64.23 67.76 68.86 68.73 69.47 69.95 70.95 70.95 70.59 71.81 71.80 72.09 72.31 71.42 72.39 72.52 72.74 72.57 72.33 72.40 72.40 71.16 71.57 72.23 72.53 72.71 72.09 71.89 71.47 70.49 69.61
48.56 45.89 42.31 35.71 32.42 35.61 36.09 39.03 42.16 44.01 46.14 45.69 44.49 45.23 54.43 59.86 62.15 64.15 66.07 68.54 68.10 68.73 69.14 69.11 70.08 70.67 70.76 71.69 71.87 71.87 71.68 71.39 71.31 71.67 72.00 72.36 72.27 72.21 71.96 71.19 71.24 71.51 71.57 72.04 71.74 71.35 70.33 69.32 68.70
43.63 41.21 33.89 30.48 33.91 36.66 39.97 42.33 43.65 44.30 45.21 46.87 46.01 44.61 51.31 59.35 64.28 65.50 67.58 67.97 66.84 68.17 69.05 69.30 69.11 70.34 70.49 71.16 71.90 71.57 71.09 70.71 70.95 71.12 70.46 70.84 70.55 70.38 70.57 69.82 69.88 70.37 70.60 71.07 70.73 70.05 69.23 68.39 67.87
39.10 38.60 30.61 28.88 33.34 38.49 40.76 42.95 43.36 44.34 44.86 46.19 43.79 45.17 52.26 60.76 63.50 65.01 67.42 66.77 66.53 66.99 68.27 68.49 69.80 70.21 70.08 70.47 70.98 70.41 70.26 70.29 70.04 69.54 69.56 69.66 69.79 69.42 69.01 69.28 69.36 69.34 69.67 70.04 69.62 68.75 68.23 67.78 67.26
36.85 34.26 30.18 30.53 33.12 37.52 40.61 43.71 43.26 43.05 41.89 43.65 48.53 47.57 53.80 58.46 63.31 65.28 65.53 65.92 65.90 65.80 66.97 68.32 69.09 70.28 69.42 69.24 68.71 68.26 68.12 67.80 67.95 67.98 68.03 68.52 68.30 68.14 68.14 69.19 69.00 68.37 68.97 68.77 68.36 67.89 67.42 67.04 66.38
38.76 35.87 29.40 31.81 34.60 36.38 41.52 43.19 44.05 42.53 43.96 49.58 53.53 47.80 49.40 57.11 63.32 64.35 64.30 64.16 64.24 64.80 65.25 67.29 68.70 69.69 69.52 68.98 67.13 66.31 65.88 65.97 66.08 66.46 66.13 65.75 65.46 66.02 66.90 67.83 67.71 68.49 68.26 68.49 67.82 66.65 66.91 66.14 65.32
39.85 32.71 28.27 32.83 35.33 38.51 43.15 42.73 43.61 45.03 44.44 45.13 48.25 51.42 56.09 59.67 62.59 62.21 60.70 60.92 62.01 63.46 64.07 65.56 67.56 68.54 69.18 67.31 66.95 66.37 66.19 65.64 65.15 65.22 64.68 63.67 63.87 64.01 64.42 66.31 66.81 66.62 66.84 67.32 66.10 66.40 65.92 65.10 64.27
38.94 32.18 33.36 38.06 40.01 39.09 41.10 39.82 42.35 43.07 43.36 44.23 45.59 51.26 58.47 60.67 60.92 60.74 59.95 60.22 60.74 62.45 62.93 64.25 65.86 66.88 67.00 66.75 66.59 65.47 64.68 64.32 64.08 63.87 63.21 62.91 63.46 63.20 63.43 65.37 65.39 66.07 65.82 65.72 65.27 65.48 64.66 63.03 61.37
39.99 36.05 38.47 40.46 41.82 41.94 41.64 40.59 43.16 40.78 40.50 44.74 44.68 46.59 56.24 58.47 59.91 59.82 60.37 60.39 61.10 62.52 62.17 63.23 63.59 64.87 64.37 64.89 65.55 65.14 64.97 64.21 64.07 63.30 63.14 62.62 62.69 63.81 63.97 64.52 64.45 64.45 64.88 62.69 62.49 63.52 61.23 59.92 60.04
37.79 41.57 43.07 41.41 44.00 42.35 41.86 42.43 42.68 42.13 44.21 48.00 46.50 46.99 53.65 57.19 57.84 59.04 59.01 58.11 59.56 60.14 62.00 62.63 64.17 62.68 63.77 64.32 64.42 64.25 64.65 64.08 63.26 62.98 62.24 62.20 62.21 62.99 62.97 63.58 63.53 63.51 62.96 59.96 60.52 60.69 59.03 58.52 57.34
39.09 41.75 43.51 44.29 44.04 43.16 43.85 42.49 43.57 42.94 45.18 46.94 46.57 46.16 50.43 55.94 57.76 59.17 58.88 56.93 57.90 59.80 60.45 61.11 63.34 63.50 63.04 62.54 63.00 63.37 63.19 63.72 62.76 61.39 62.32 62.58 62.44 62.71 62.31 63.57 63.14 63.23 60.28 58.05 57.26 57.28 58.00 56.42 56.14
39.64 39.41 40.73 42.34 42.99 43.21 43.13 43.80 41.58 43.86 45.73 45.24 44.79 44.16 47.86 53.35 56.97 57.76 55.60 56.43 57.45 58.59 60.06 60.14 61.66 63.05 63.09 62.34 62.12 61.84 62.20 62.42 62.26 60.84 61.49 63.31 63.09 63.23 62.88 63.24 62.40 61.13 60.34 57.29 55.51 56.67 57.08 56.44 56.62
42.00 38.26 40.29 41.06 41.13 41.02 42.65 39.80 40.01 44.88 45.10 43.79 44.17 44.03 44.31 51.24 55.72 56.21 57.70 57.51 57.86 58.48 58.76 58.92 59.25 61.24 62.01 61.91 61.54 61.09 61.13 61.20 61.18 60.99 60.38 63.06 62.76 62.43 63.10 62.28 60.76 60.24 59.33 56.35 54.61 54.29 55.21 55.69 56.04
37.71 36.73 32.26 38.76 40.53 42.44 41.13 36.41 41.83 44.49 43.43 43.60 42.72 42.87 43.18 47.21 54.58 56.63 57.53 56.48 56.59 57.44 57.86 57.24 59.09 60.89 61.60 61.63 61.45 60.94 60.53 60.57 60.83 61.02 60.45 62.26 62.77 62.98 62.51 61.79 60.25 59.62 58.09 55.72 54.97 54.98 54.99 54.95 54.99
32.50 28.55 31.46 35.72 41.53 40.53 38.63 37.34 40.32 43.14 42.62 41.61 41.94 42.15 42.38 43.05 49.63 53.91 55.72 54.62 56.68 57.31 56.62 55.81 56.00 59.43 61.49 61.84 61.69 61.68 60.45 60.30 60.55 61.46 61.22 60.83 62.85 63.03 62.57 61.40 59.73 57.11 56.55 55.86 53.93 52.97 55.49 54.77 54.55
27.38 29.67 27.87 30.79 37.77 38.57 36.92 37.59 41.21 43.65 43.63 43.50 42.84 42.73 42.26 41.85 44.71 50.62 54.28 55.72 56.36 56.24 55.92 56.80 54.67 56.74 59.96 61.60 62.45 62.38 60.59 60.61 60.91 61.43 62.05 61.40 61.76 62.84 62.20 60.07 57.63 57.72 56.13 55.34 54.16 53.53 54.34 55.26 54.87
33.75 32.13 30.41 32.09 38.01 37.22 36.82 37.75 40.65 42.48 41.25 40.86 41.66 42.71 43.32 43.71 45.77 49.30 54.22 56.04 55.43 54.99 56.42 56.70 55.45 55.47 58.52 59.17 59.91 60.34 59.93 60.11 60.45 61.93 62.51 62.16 61.77 62.31 60.26 57.54 55.87 56.59 56.03 54.91 54.22 53.68 53.32 52.61 54.18
32.15 29.86 29.40 33.97 38.04 37.15 35.47 35.93 40.22 41.20 42.25 43.57 42.72 43.43 43.56 42.95 49.83 52.79 54.70 55.64 55.98 55.62 56.40 56.34 56.77 56.54 58.81 57.70 59.36 59.89 59.91 60.95 61.17 61.82 61.09 60.27 59.47 58.58 57.96 56.07 55.61 54.56 54.39 54.63 54.54 53.69 51.52 51.83 54.60
32.17 31.18 31.96 33.08 37.30 37.33 35.52 34.17 37.07 41.35 43.04 44.28 44.01 45.16 45.02 44.99 47.57 53.32 54.82 55.06 56.34 55.26 55.32 55.28 56.05 56.63 57.56 59.16 58.63 58.75 59.31 59.09 59.91 60.80 59.95 59.24 58.19 56.99 57.26 55.93 55.32 53.85 54.40 54.15 54.76 53.54 52.91 52.86 52.47
30.97 38.17 37.63 35.30 32.67 26.29 35.91 26.58 35.06 38.29 40.69 43.07 43.69 43.63 45.26 45.08 49.13 53.67 54.81 54.80 56.25 55.78 56.06 55.76 55.73 56.23 56.93 58.09 58.11 57.43 57.52 56.98 57.78 59.37 60.36 58.54 57.72 56.76 57.15 56.00 54.88 54.63 54.73 54.54 55.40 55.11 53.82 53.92 51.71
34.93 39.81 37.31 36.21 32.33 31.75 31.55 28.22 31.38 37.58 37.87 40.37 42.66 43.82 45.03 45.32 50.02 53.19 54.31 55.13 56.94 56.32 55.87 56.02 55.28 55.67 57.92 57.71 58.13 57.89 56.96 57.28 58.18 58.97 58.73 58.92 58.43 57.20 57.59 58.23 56.47 55.59 55.93 56.20 56.13 55.30 54.57 54.26 53.01
40.01 36.82 35.89 34.80 34.80 25.71 30.11 29.89 28.63 33.76 37.38 40.74 43.52 45.22 46.52 45.37 51.07 53.72 54.09 56.06 56.21 55.89 55.50 55.75 55.50 55.95 57.32 57.50 57.77 57.15 56.18 56.94 57.26 57.14 57.08 57.92 58.20 58.01 57.62 57.97 58.35 58.12 57.21 57.16 56.34 55.91 55.28 54.18 53.67
36.20 32.40 23.28 22.55 26.27 23.67 32.74 29.80 32.20 39.04 41.80 42.93 43.98 45.45 46.54 46.67 49.98 52.92 53.61 54.55 54.94 54.53 54.67 54.93 55.04 55.51 57.22 56.06 56.78 56.82 56.43 56.08 57.00 56.84 56.94 57.22 57.44 57.54 57.84 58.00 56.96 58.11 57.89 57.54 57.35 56.58 55.81 54.87 53.87
34.13 32.80 26.66 20.88 22.66 25.91 34.21 26.49 32.38 44.48 46.59 46.80 47.33 46.97 45.97 45.21 51.02 52.66 53.60 54.55 54.65 54.52 54.50 54.54 54.34 55.02 56.24 56.87 56.33 56.50 56.49 56.65 56.89 57.46 57.37 57.48 57.79 57.97 58.49 58.39 58.63 58.14 57.97 57.74 57.61 57.47 56.99 56.02 55.20
35.42 31.78 36.30 31.72 31.64 29.09 30.49 34.14 40.81 44.91 44.81 46.09 46.19 47.04 47.04 46.66 49.13 52.29 53.31 54.52 54.55 54.30 54.54 54.55 54.26 55.33 56.00 55.92 56.69 56.39 56.17 55.73 56.05 56.02 56.88 57.34 57.62 57.87 57.97 58.15 57.99 58.34 58.48 57.84 57.15 57.20 56.94 56.79 55.98
36.37 40.31 33.10 32.90 21.92 22.29 28.02 30.05 34.80 39.85 41.15 44.30 44.82 45.91 48.67 48.90 48.58 51.93 52.93 54.04 54.67 54.80 54.83 54.81 54.95 55.22 56.28 56.65 56.45 56.71 56.21 56.24 56.11 55.90 54.26 54.82 56.21 56.99 57.21 57.29 57.39 57.41 57.80 57.98 57.05 56.34 56.52 56.61 56.62
35.84 34.15 35.72 34.91 33.58 26.16 23.07 28.93 43.01 41.92 42.39 43.64 45.10 47.70 48.84 47.66 50.77 52.37 52.80 53.48 54.55 54.87 54.78 54.39 54.12 54.42 55.02 56.93 55.84 56.54 56.63 55.68 54.80 54.35 53.45 53.53 53.61 55.05 56.38 57.09 57.18 56.68 56.90 56.98 56.51 56.16 56.16 55.61 55.71
37.21 34.79 35.31 31.17 28.31 31.86 28.26 28.49 44.79 45.80 43.52 45.84 45.97 47.84 49.15 50.65 51.66 52.74 52.24 53.05 53.32 53.44 53.81 53.87 53.33 53.68 54.02 55.12 56.44 57.01 56.47 56.10 55.81 55.30 54.30 53.00 52.93 53.79 54.94 56.10 56.42 56.56 56.42 56.63 56.55 56.29 56.64 55.80 55.58

GFSSGP_sfc_wetblb_087.txt.gz
Wetbulb
62.45 55.43 54.07 54.00 46.54 45.30 41.00 42.34 44.19 45.04 46.39 48.93 50.03 50.03 50.43 51.31 52.90 48.96 64.33 69.99 70.77 70.95 72.05 71.49 70.58 71.43 72.31 72.78 72.87 73.26 73.78 73.82 73.86 73.46 73.25 73.08 73.03 72.97 72.75 72.88 72.92 73.20 73.45 73.47 73.40 73.70 73.25 72.29 71.95
57.55 52.96 53.29 49.54 42.90 38.91 40.12 43.82 44.11 47.70 49.72 50.47 50.61 53.84 52.78 51.39 59.35 62.20 65.14 69.56 70.70 71.03 71.92 71.89 70.47 70.57 71.93 72.36 72.63 72.35 73.83 73.99 73.50 73.48 73.23 73.18 72.89 72.80 72.97 72.72 72.49 72.63 73.05 73.50 73.17 73.10 72.46 71.83 71.21
55.14 53.29 50.72 47.63 41.76 38.58 39.69 42.84 47.20 48.30 50.00 48.74 49.02 53.52 53.64 54.43 63.41 64.00 67.10 70.13 70.63 70.74 71.33 71.52 69.99 70.22 71.02 71.93 72.36 71.76 72.19 73.08 72.94 72.92 73.31 73.06 72.95 73.02 72.86 72.28 71.93 72.21 72.73 73.05 72.96 72.58 72.05 70.93 70.13
53.32 52.24 48.53 43.20 39.84 42.64 42.39 45.33 47.54 48.02 49.06 49.58 49.83 48.94 56.30 61.53 64.98 67.21 68.67 70.46 70.57 70.36 71.04 69.93 69.56 70.11 71.09 71.86 72.18 71.62 71.39 71.65 72.20 72.33 72.83 72.94 72.95 72.70 71.44 71.16 71.59 72.38 72.76 72.71 71.96 71.58 70.97 69.90 69.37
50.39 48.33 42.15 39.91 40.42 43.11 44.63 46.35 47.61 47.29 47.85 49.13 49.52 48.68 53.15 62.09 66.43 67.91 69.48 70.10 70.23 70.21 70.98 70.27 69.16 69.76 70.91 71.61 71.92 71.70 71.09 70.69 71.47 71.97 71.97 72.16 72.32 71.16 70.80 70.06 70.12 70.62 71.40 71.50 71.04 70.28 69.95 68.99 68.63
45.94 46.46 38.90 36.72 39.35 43.25 45.22 47.83 47.87 47.07 47.81 49.02 48.35 48.47 53.01 63.93 66.18 68.16 69.95 70.15 70.93 70.02 70.90 69.85 69.85 69.96 70.07 70.85 71.17 70.70 70.48 70.67 70.93 71.26 71.23 70.82 70.55 69.82 70.14 69.89 69.08 69.92 70.43 70.08 69.87 69.39 69.02 68.45 67.98
44.15 42.76 39.00 38.07 39.14 41.65 44.63 48.27 46.67 47.07 47.62 48.17 51.66 49.84 55.78 61.38 65.92 68.29 69.71 70.14 70.73 70.00 68.98 69.20 70.03 71.04 69.28 68.97 69.33 69.13 69.62 70.10 69.87 69.07 69.55 69.57 69.00 68.76 69.29 69.06 69.00 68.96 69.59 69.33 69.06 68.66 68.05 67.92 67.09
45.03 43.85 37.05 38.53 39.01 40.40 45.60 46.37 48.77 48.12 47.93 51.46 55.63 50.63 50.17 59.71 66.11 67.98 68.92 69.53 69.83 70.07 68.33 68.81 69.73 70.62 70.84 70.62 68.09 68.37 68.34 68.11 67.93 67.61 67.28 67.01 67.62 68.16 68.37 68.39 68.70 68.66 69.18 68.84 68.36 67.81 67.38 66.88 65.92
45.34 40.11 36.78 38.45 39.38 41.96 45.85 45.54 48.58 49.61 48.62 48.89 50.92 53.54 55.98 62.45 66.31 66.50 66.24 67.27 68.24 68.30 68.93 68.72 69.58 70.38 70.91 70.19 68.68 67.96 67.91 67.35 67.09 67.32 66.12 65.35 68.07 68.01 67.34 66.88 67.00 67.01 67.63 67.61 67.47 66.99 66.21 65.32 64.62
44.66 39.48 39.27 42.23 43.94 43.27 44.88 46.14 47.10 46.94 47.11 47.83 49.28 52.55 57.79 62.57 64.56 65.20 64.81 65.23 65.44 64.78 66.03 67.44 68.83 69.52 70.31 68.63 67.82 68.21 68.62 68.86 67.73 67.61 66.83 67.85 67.60 67.12 65.84 66.21 65.79 66.01 66.46 66.24 66.58 65.79 64.97 64.96 65.89
44.39 40.31 42.33 43.23 44.71 45.06 44.82 44.34 47.01 45.55 44.41 47.69 47.94 51.04 56.38 58.19 62.03 64.56 65.14 65.27 65.85 66.16 65.63 66.28 67.33 68.80 68.50 67.31 67.17 66.45 66.34 66.68 67.39 65.01 64.70 66.01 65.99 64.94 64.55 65.66 65.32 65.52 65.34 64.84 66.27 65.55 65.91 65.67 65.45
41.34 43.86 44.92 44.76 46.02 46.03 44.77 47.18 45.26 46.08 47.27 50.94 51.31 52.15 51.40 54.20 57.57 61.68 64.13 64.96 64.80 65.82 66.53 65.77 66.53 66.64 66.70 66.86 66.83 65.93 64.83 64.73 64.71 65.70 63.57 64.08 63.95 63.01 63.05 65.94 66.08 64.37 64.28 64.31 65.78 65.66 65.08 64.58 64.21
42.58 43.97 45.94 46.60 46.93 46.49 47.04 45.45 45.78 46.36 49.56 51.14 51.14 49.82 50.40 51.50 54.95 59.56 63.34 64.99 64.49 64.61 66.33 65.88 65.81 65.57 65.32 65.22 66.16 65.55 65.14 64.41 64.76 64.42 63.44 63.41 63.74 62.84 63.90 65.22 65.30 63.75 62.50 62.48 64.54 64.06 63.68 63.54 62.78
42.66 42.66 43.46 44.78 45.00 45.58 44.33 45.23 46.56 47.49 50.12 49.65 49.80 49.75 50.39 51.38 52.98 56.49 61.10 62.50 62.61 64.32 65.32 67.05 64.81 65.20 64.83 64.31 64.87 64.72 65.04 65.06 64.21 64.01 63.78 63.36 63.94 63.23 64.23 65.80 63.69 63.81 61.73 62.59 63.41 63.20 63.22 62.60 62.59
43.25 39.63 42.76 43.92 45.43 44.67 45.72 42.34 42.73 48.33 49.78 48.39 49.29 50.49 50.56 51.37 51.65 54.70 58.27 60.95 62.76 63.69 64.99 65.41 64.40 65.05 64.87 63.94 64.00 63.69 63.71 64.13 62.77 62.56 63.24 63.32 63.50 64.22 64.79 63.87 63.75 62.38 60.91 61.59 62.94 63.09 62.63 61.20 60.85
39.61 40.26 35.80 42.09 43.44 44.79 44.58 38.16 45.42 48.65 47.61 47.52 48.16 49.17 49.83 50.39 50.94 54.01 58.08 60.60 62.47 63.16 63.32 64.53 63.76 63.08 64.18 64.72 63.69 62.95 62.64 62.86 62.87 62.23 62.53 63.59 63.59 64.40 63.55 62.96 62.43 62.05 60.18 61.68 61.00 61.13 60.35 60.68 60.36
35.93 32.58 34.82 38.17 44.00 43.55 42.99 40.03 44.40 47.80 47.62 47.29 48.52 49.17 49.00 49.49 51.15 52.41 56.91 60.02 61.35 62.15 62.76 63.29 63.55 61.89 63.01 64.17 63.64 62.65 61.99 61.86 61.80 62.05 61.60 63.06 63.18 63.64 63.50 62.43 61.92 60.71 59.15 61.05 60.69 60.31 60.52 59.83 59.82
30.68 32.08 34.90 35.91 41.14 41.84 39.65 39.59 43.49 45.83 46.07 46.73 48.22 49.54 49.69 50.17 51.23 53.36 53.74 58.09 60.34 61.74 62.84 62.95 62.66 62.26 63.93 63.89 63.17 62.88 61.69 61.75 61.48 61.57 61.89 62.87 62.71 63.79 63.00 62.28 59.92 60.63 60.17 59.70 59.68 59.48 60.23 59.92 59.52
36.06 34.71 33.59 36.27 39.65 37.96 37.64 38.59 41.45 44.42 45.24 45.47 46.69 48.05 49.08 50.21 52.96 53.39 52.83 57.42 59.47 61.05 61.24 61.31 61.42 60.82 61.93 62.15 61.28 60.92 59.98 60.46 60.72 61.53 62.43 61.64 62.70 63.06 62.53 60.98 59.47 60.11 60.23 59.51 59.63 59.72 59.15 58.83 60.08
35.65 33.29 33.03 36.77 39.04 39.32 39.12 39.03 42.44 44.27 44.44 45.26 46.41 47.62 48.80 49.85 51.35 52.38 55.50 57.63 58.66 59.41 60.42 60.00 60.88 60.70 60.52 61.92 62.10 62.06 61.50 61.55 61.67 61.58 62.40 61.83 61.59 62.63 61.18 59.15 59.05 59.41 60.71 59.37 58.20 58.64 58.33 58.43 58.97
34.34 33.27 33.81 34.39 39.01 41.05 38.76 37.26 39.87 43.21 45.08 46.08 46.89 48.09 49.09 49.81 50.88 52.34 55.31 57.07 58.43 58.49 59.24 58.84 60.31 60.18 60.40 60.68 60.64 60.75 61.31 61.02 61.04 60.62 61.21 61.63 61.68 62.02 60.32 59.33 59.58 60.51 59.72 58.52 58.75 59.13 58.72 56.11 58.13
32.54 38.49 37.70 37.18 35.46 30.46 39.50 29.80 38.07 41.31 42.99 45.07 46.78 47.84 48.31 49.57 51.17 52.24 55.07 56.71 57.60 58.11 58.52 59.26 59.82 60.05 60.35 60.81 59.86 59.07 58.49 58.12 58.75 60.61 59.92 59.16 60.07 60.49 58.68 59.41 59.54 58.68 58.24 58.79 58.40 58.16 58.11 58.58 57.09
36.51 40.85 38.55 37.49 35.33 34.37 34.00 31.48 35.85 41.07 41.04 43.98 46.59 48.19 49.51 50.93 52.11 52.44 55.21 57.10 58.31 57.71 56.88 57.83 59.01 58.48 58.99 59.57 59.70 59.14 58.18 58.92 60.11 59.87 58.66 57.53 57.15 57.53 57.64 58.29 57.55 56.92 57.48 58.47 57.77 56.38 58.35 60.00 58.61
41.62 37.95 37.57 37.50 35.48 27.84 33.02 33.02 34.16 38.30 40.79 44.32 47.78 49.19 49.52 50.88 51.77 52.93 56.70 57.81 58.19 57.10 56.65 56.89 56.55 58.04 57.93 58.25 59.27 59.26 59.08 58.80 58.53 58.22 57.37 56.59 56.25 57.17 56.47 56.42 56.30 56.74 57.75 57.78 58.45 58.19 58.12 58.27 59.11
38.68 34.88 28.54 26.60 26.10 25.80 34.70 32.14 35.63 41.63 45.42 46.97 47.39 48.92 50.72 51.60 51.67 54.92 55.81 56.68 57.48 56.04 56.37 56.66 56.02 57.55 57.91 58.34 58.83 59.07 59.15 59.51 58.65 57.47 57.67 56.87 55.79 56.59 57.51 57.25 57.12 57.32 58.33 57.08 57.21 58.65 57.54 56.78 57.23
35.80 34.86 29.33 21.77 24.46 28.33 35.97 30.87 36.78 46.09 47.41 48.71 49.64 50.37 52.05 52.86 53.27 54.07 56.36 56.93 57.01 55.77 55.73 56.23 56.13 56.75 56.89 57.54 57.96 58.58 58.63 58.68 58.44 58.08 57.99 58.03 57.23 56.79 57.10 56.66 56.77 57.85 57.99 57.83 57.39 57.82 58.15 57.27 58.29
36.16 32.70 38.01 31.52 32.97 28.82 32.64 37.75 41.59 46.41 46.77 47.86 48.49 49.88 50.11 51.49 53.13 53.00 56.18 57.14 56.87 56.35 55.27 55.77 55.84 56.26 56.92 57.07 57.67 57.60 58.19 58.09 58.17 58.67 58.22 58.18 58.87 58.35 57.19 56.55 55.93 55.79 55.42 56.57 57.74 57.31 56.85 57.32 58.63
38.62 41.02 31.92 32.41 22.92 22.56 30.59 32.89 35.55 41.94 43.36 45.84 46.81 48.41 49.83 51.10 52.80 52.39 55.07 56.56 56.97 57.46 55.71 55.95 56.06 55.99 56.47 57.06 57.55 57.15 56.96 57.48 58.18 57.83 57.65 57.84 58.10 58.77 58.51 57.96 57.10 56.45 56.28 55.29 56.40 56.88 57.97 57.65 57.36
36.25 34.37 34.92 35.23 33.29 27.47 26.38 32.38 44.45 43.06 44.45 45.02 46.58 48.16 49.05 49.78 52.73 53.73 55.29 56.72 56.61 55.88 55.56 55.07 55.47 55.51 56.13 56.80 57.89 57.25 56.77 56.91 57.22 57.36 58.39 57.77 57.40 57.73 57.81 57.94 57.85 57.86 56.86 55.62 55.10 54.79 56.73 56.80 56.50
39.29 36.14 35.85 29.54 27.92 32.06 30.72 31.97 45.41 43.39 45.48 46.62 47.10 47.66 48.37 48.84 53.29 54.11 53.80 54.09 54.56 54.47 54.59 54.61 55.19 55.32 56.40 57.04 58.14 57.91 57.63 56.69 56.43 56.76 57.16 57.95 58.52 59.22 58.85 58.21 57.55 57.35 57.37 57.60 56.78 55.35 55.60 56.54 56.53

GFSSGP_sfc_wetblb_090.txt.gz
Wetbulb
61.39 62.61 59.34 57.81 49.27 47.95 45.36 45.82 50.06 50.00 50.36 53.04 53.68 52.70 52.81 54.65 54.87 52.47 67.51 72.04 72.75 73.20 74.19 72.71 71.22 72.05 72.88 73.23 73.47 73.68 73.76 73.90 73.93 73.66 73.57 73.36 73.64 73.66 73.42 73.40 73.15 73.34 73.94 73.48 73.04 72.89 72.89 72.55 72.75
61.98 57.94 57.00 55.52 45.39 43.33 44.53 48.58 47.80 50.29 52.35 53.72 53.76 53.49 53.71 53.07 57.74 61.90 67.49 72.32 73.41 73.34 74.43 73.95 70.86 71.57 72.55 73.00 73.22 73.53 73.99 74.11 73.84 73.64 73.49 73.57 73.59 73.37 73.13 73.01 72.77 73.11 73.49 73.69 72.91 73.08 72.82 72.32 71.67
60.16 57.24 52.38 48.84 46.43 42.73 44.53 47.56 49.28 52.13 52.59 52.63 52.83 55.81 55.69 55.11 62.01 63.41 68.83 72.57 73.53 73.12 73.79 73.78 70.43 70.48 72.12 72.54 72.87 73.12 73.45 73.48 73.32 73.31 73.72 73.49 73.35 73.40 73.38 72.58 72.47 73.01 73.46 73.46 72.94 72.70 72.34 71.47 70.54
56.53 54.55 53.23 45.99 43.94 46.83 46.95 48.68 51.22 51.82 51.75 52.50 52.77 51.71 55.56 61.36 63.99 66.36 69.53 72.27 72.32 72.35 73.31 70.65 69.42 70.47 71.72 72.47 72.59 72.02 72.72 72.49 72.56 72.81 73.21 73.35 73.33 73.31 72.91 72.06 72.25 72.96 72.62 72.60 72.20 72.03 71.32 70.30 69.70
56.84 53.13 45.99 44.34 44.46 47.09 48.94 49.69 52.36 51.59 50.92 50.54 51.97 51.86 53.71 61.60 66.66 69.67 69.71 71.58 71.03 72.11 73.13 72.94 68.74 69.91 71.14 72.18 72.35 71.24 71.85 71.98 72.13 72.57 72.62 72.75 72.93 72.55 71.70 71.37 71.68 72.09 72.17 71.56 71.46 71.47 70.29 69.62 69.17
50.71 51.12 43.59 42.18 44.52 47.08 49.29 50.90 50.98 50.58 50.91 50.76 50.92 51.74 54.39 64.16 66.39 69.29 71.18 72.06 72.41 72.58 73.24 73.40 69.83 69.92 70.19 71.35 71.66 70.54 70.61 71.26 71.52 71.53 71.90 72.36 72.00 70.85 70.75 70.55 70.72 70.82 70.66 70.40 70.56 70.17 69.51 68.88 68.39
49.02 46.91 43.29 43.98 43.84 45.32 47.72 51.19 49.31 49.08 49.34 49.58 52.83 51.13 56.44 60.66 66.78 70.52 71.88 72.11 73.06 73.67 73.39 72.18 71.88 71.06 69.20 69.07 69.70 69.36 69.62 70.12 70.74 70.79 70.61 70.67 69.67 69.35 69.72 69.91 70.28 70.04 69.88 69.96 69.72 69.08 68.65 68.36 67.69
50.64 48.20 44.12 44.40 42.73 43.47 48.42 49.06 50.54 49.84 49.19 54.28 55.11 51.22 54.08 58.54 65.90 70.74 72.05 72.18 72.69 72.69 73.25 72.01 71.46 71.86 72.12 72.25 68.49 68.87 69.14 69.29 69.57 68.71 68.99 68.57 68.30 68.80 69.07 68.94 69.11 69.52 69.61 69.48 69.01 68.01 68.03 67.43 66.56
52.27 44.84 42.76 44.14 43.56 45.05 48.82 47.45 50.83 52.15 50.89 51.72 53.40 53.89 56.34 61.16 64.80 67.94 70.21 71.00 71.22 72.10 71.80 72.15 71.26 72.16 71.61 72.63 71.82 69.31 69.41 68.76 67.75 68.11 67.14 67.58 71.68 70.91 69.76 67.26 66.89 67.44 67.70 68.36 68.12 67.23 66.81 65.98 65.54
48.48 45.15 45.24 48.98 48.06 47.10 48.59 48.19 49.12 48.81 49.15 50.00 51.82 54.38 55.54 58.15 61.37 62.18 66.18 68.10 69.12 70.31 71.40 70.21 72.16 71.93 71.36 71.44 72.66 71.89 71.90 71.95 72.13 71.66 71.01 71.92 70.85 69.87 68.31 66.35 65.82 66.63 66.62 66.99 66.79 65.89 65.22 66.01 67.51
48.43 44.76 48.77 48.04 48.80 49.61 48.56 48.63 50.06 48.05 46.73 49.47 49.96 52.25 54.12 57.34 57.54 59.31 61.97 66.54 67.96 69.92 70.14 68.81 70.79 71.39 71.61 71.14 70.81 71.49 71.79 71.70 71.11 70.88 70.95 70.41 69.37 68.55 68.06 67.35 66.99 67.21 66.22 66.47 66.00 65.35 67.59 67.24 67.35
45.24 48.05 48.59 49.13 49.34 48.49 47.27 49.23 48.03 48.86 49.43 52.03 52.32 53.31 54.03 54.55 55.61 56.88 59.56 62.53 67.03 68.57 69.92 69.04 69.51 70.48 70.47 71.10 69.51 69.71 69.57 70.35 69.48 70.19 69.21 68.31 66.98 67.42 67.25 64.81 65.23 65.74 66.45 65.33 64.91 65.62 67.49 66.89 66.49
45.61 46.50 47.70 48.87 48.86 48.77 49.24 47.62 48.19 49.27 52.03 53.12 53.40 53.78 54.37 54.61 55.22 56.66 58.49 60.91 64.18 67.59 69.84 70.06 69.17 69.60 69.90 69.17 68.57 68.04 68.44 68.40 68.95 69.00 68.81 67.65 65.81 66.00 65.98 64.12 65.14 67.22 65.48 64.58 64.13 65.14 66.12 66.28 66.11
46.63 46.08 47.12 47.77 47.68 48.21 46.70 47.89 49.02 50.15 52.43 52.13 52.80 53.43 54.33 54.81 55.60 56.13 57.88 60.27 62.32 65.98 68.69 70.88 68.32 68.88 68.48 68.29 68.14 67.23 67.38 67.52 67.88 68.15 66.45 68.24 65.11 65.21 65.36 64.87 65.78 66.66 65.76 64.60 64.27 64.43 65.77 65.49 66.09
46.78 43.59 46.32 47.21 47.84 47.30 49.17 46.03 47.12 51.08 52.30 51.42 52.17 53.27 54.00 54.99 55.95 55.85 57.56 59.17 62.86 64.99 67.61 69.79 69.09 67.72 67.09 67.19 68.03 67.66 67.67 67.42 66.56 66.56 65.29 65.98 64.72 64.70 64.69 64.65 64.20 65.91 65.16 63.44 63.61 65.23 65.86 65.08 65.25
42.47 43.17 39.10 44.37 46.27 47.17 47.48 41.71 47.75 50.46 50.46 50.01 51.58 52.64 53.36 54.55 55.47 56.50 57.58 58.70 60.83 64.09 65.87 69.09 68.73 67.39 67.33 66.25 66.20 66.76 67.42 67.00 65.98 65.80 64.95 63.62 63.87 64.28 66.43 63.80 63.55 65.29 63.74 62.85 62.75 64.37 64.38 64.10 64.22
40.87 36.12 38.38 40.60 46.22 45.86 45.85 43.02 47.25 50.36 49.92 49.68 51.28 52.43 53.25 54.20 55.49 56.57 57.61 58.76 60.74 63.08 65.47 67.73 69.29 66.77 66.75 66.15 65.27 66.21 66.65 65.68 65.13 63.93 63.77 63.46 63.34 64.08 64.61 64.70 63.70 63.35 62.13 60.89 62.52 63.22 63.90 62.99 63.19
35.22 35.30 36.96 37.81 42.89 44.80 43.28 43.11 46.55 48.51 48.18 48.27 49.32 51.20 52.29 53.11 54.66 56.82 57.87 58.81 59.53 63.32 65.45 66.91 68.44 66.98 66.01 66.10 66.36 66.19 65.53 64.60 64.47 63.00 62.93 63.17 63.71 63.85 63.89 63.08 62.66 62.00 60.54 60.30 61.59 62.69 63.76 63.54 62.84
38.03 36.97 37.45 40.97 42.99 40.78 40.53 41.08 43.58 46.67 47.56 48.14 48.87 49.90 50.73 52.33 55.50 57.06 58.09 59.11 59.97 62.95 64.73 65.73 67.19 64.91 64.84 65.01 64.38 63.99 62.87 62.89 62.55 62.90 62.62 62.79 63.30 63.33 63.46 62.71 61.69 60.75 59.84 60.03 62.52 62.63 62.88 62.38 63.05
38.06 35.65 35.74 39.27 41.69 41.45 41.35 41.89 45.79 47.08 47.66 48.76 49.12 49.97 50.99 52.19 53.32 55.38 57.12 58.34 61.27 62.41 64.13 65.02 66.46 63.63 65.60 66.81 66.54 64.96 62.95 63.08 63.00 62.59 62.21 62.62 62.57 63.53 63.07 61.74 60.96 60.68 59.53 59.38 62.82 62.44 61.92 61.87 62.51
37.37 36.03 36.91 36.92 40.57 43.14 42.34 40.66 43.48 46.02 48.20 49.05 50.06 51.24 51.76 52.11 52.51 53.86 55.47 57.56 61.44 62.24 63.54 64.46 65.88 64.71 66.45 66.30 65.64 64.12 63.61 62.75 62.39 61.52 61.19 61.73 62.66 63.21 62.42 61.10 60.77 60.40 60.13 59.31 61.80 62.91 62.17 59.89 61.49
34.54 40.38 38.84 37.99 38.12 34.96 41.67 34.17 41.04 43.92 45.04 48.04 50.08 52.23 53.04 53.66 53.94 54.08 54.79 56.71 60.34 62.63 63.88 64.64 65.30 65.82 65.55 65.75 64.58 63.50 62.21 59.84 61.54 61.04 62.03 61.94 61.46 61.98 61.32 60.94 60.59 60.55 60.55 60.66 62.20 63.56 62.86 62.22 59.63
37.51 42.35 40.90 40.30 39.12 38.20 39.02 36.34 40.35 44.03 43.88 46.86 51.01 53.26 54.55 55.31 54.52 54.86 55.28 56.65 59.85 62.82 63.30 63.86 65.00 64.97 64.92 64.65 64.54 62.60 61.12 61.54 63.48 63.28 61.34 60.88 61.33 61.23 60.40 60.29 60.24 59.81 60.14 61.60 63.02 62.95 62.67 61.92 61.38
43.77 41.17 40.48 40.26 38.65 32.33 37.94 37.57 39.44 43.41 44.34 48.28 51.78 53.52 54.76 55.84 56.84 55.96 56.83 57.78 60.43 62.75 60.68 62.01 63.73 63.94 64.33 64.04 63.29 62.80 61.75 60.50 61.47 59.84 59.57 58.49 57.93 59.87 59.70 60.07 60.10 59.80 60.00 61.22 61.79 61.40 63.05 62.58 62.66
41.59 37.35 31.12 30.02 29.82 30.14 38.87 36.81 40.51 44.91 48.46 50.22 50.92 53.09 55.27 56.53 57.41 57.39 57.61 59.28 60.44 60.59 57.93 60.04 62.69 62.53 62.84 62.64 62.19 61.66 61.34 61.99 61.81 59.12 57.20 56.34 56.04 55.88 56.87 57.72 57.70 58.23 60.15 61.23 61.03 61.47 62.26 61.85 62.08
38.44 38.43 33.00 25.47 28.46 33.45 38.58 34.03 41.37 48.31 50.71 51.79 52.85 53.47 54.79 55.73 57.59 57.97 57.81 59.76 60.56 58.36 56.79 58.40 59.98 61.73 61.24 61.05 60.79 61.05 62.36 61.51 61.36 59.43 58.32 56.28 56.64 56.36 56.72 56.44 56.88 57.93 58.99 60.01 60.54 60.85 60.22 60.73 61.20
38.20 35.02 40.77 33.99 35.80 32.38 36.44 40.26 45.61 48.37 48.94 50.21 51.03 52.16 53.09 55.05 57.34 58.01 58.09 59.91 60.99 59.24 56.75 57.55 60.19 61.81 61.16 60.18 59.57 60.78 61.49 60.77 59.91 59.37 58.85 57.50 57.58 57.16 57.47 57.37 57.86 58.48 58.56 58.72 59.71 59.38 57.65 59.00 60.32
41.12 43.14 33.30 35.87 25.54 25.74 33.97 36.20 40.21 42.98 45.15 47.83 49.08 50.53 52.33 54.47 56.67 57.94 57.01 58.95 60.85 60.08 57.14 58.03 60.53 61.11 59.99 60.02 59.35 60.35 60.22 60.32 60.70 60.41 58.89 58.45 57.62 57.26 56.58 56.38 56.58 56.65 56.20 56.66 56.81 57.12 57.36 57.35 57.33
38.15 36.95 37.73 37.58 35.71 29.33 30.49 36.51 46.37 44.23 45.35 45.50 48.41 50.44 51.74 52.52 54.25 56.36 57.58 58.52 59.87 59.21 56.84 57.02 58.84 58.71 58.63 58.73 58.79 59.99 59.11 59.64 59.53 59.22 58.72 58.12 58.68 57.40 56.36 55.57 55.43 54.55 54.23 54.65 53.76 53.69 55.53 57.42 57.13
41.34 38.66 38.69 33.09 30.72 34.63 31.91 35.32 47.34 47.15 45.55 45.70 47.67 49.73 51.13 48.99 49.68 54.02 54.67 56.83 56.81 55.96 56.16 56.39 57.05 57.11 58.92 58.15 58.50 58.68 58.38 59.68 58.45 58.62 59.06 58.11 58.35 58.86 58.75 58.03 57.30 56.63 55.63 54.58 53.97 53.74 53.77 55.94 56.37

GFSSGP_sfc_wetblb_093.txt.gz
Wetbulb
62.74 63.15 60.84 56.63 49.16 49.23 45.73 47.97 51.65 50.22 51.10 54.90 55.51 53.81 53.39 56.23 54.31 53.92 67.35 70.99 71.53 72.43 73.64 72.84 71.64 72.46 73.05 73.47 73.59 73.89 74.02 73.91 74.06 74.00 73.82 73.89 73.89 74.10 73.95 73.94 73.88 73.95 74.23 73.55 73.31 73.13 72.83 72.62 72.45
62.16 61.14 57.64 53.26 46.93 44.03 46.38 50.47 49.27 51.08 53.72 55.64 55.19 54.72 53.73 53.98 58.81 63.23 66.03 71.72 72.24 71.99 73.81 73.49 71.45 72.12 73.00 73.23 73.54 73.85 74.18 74.19 73.91 73.95 73.72 73.50 73.98 73.94 73.81 73.39 73.32 73.55 73.73 73.56 73.23 73.08 72.84 72.63 71.96
61.74 59.81 52.25 49.17 46.72 44.44 45.45 50.72 50.67 52.34 54.05 53.90 54.14 56.28 55.90 55.37 59.71 61.36 69.60 71.99 71.73 71.11 73.35 74.11 71.06 71.67 72.65 73.01 73.24 73.53 73.70 73.57 73.44 73.44 73.42 73.83 73.86 73.80 73.77 72.91 72.95 73.32 73.83 73.63 73.30 72.74 72.56 71.76 70.91
59.44 56.02 52.89 46.83 45.65 48.56 49.19 51.08 51.36 51.87 53.28 54.28 54.25 52.40 57.44 61.51 63.02 64.35 70.22 71.50 71.02 71.08 72.44 70.25 69.97 70.85 72.11 72.79 73.08 73.26 73.23 72.74 72.91 72.87 73.32 73.79 73.50 73.55 73.27 71.91 72.78 73.10 73.43 73.24 72.89 72.12 71.55 70.59 70.09
57.37 53.09 46.46 45.29 45.95 48.74 50.83 51.69 51.65 51.33 52.92 52.59 53.64 52.45 54.58 60.81 64.18 67.18 69.51 70.46 70.30 71.19 73.11 73.13 69.06 70.35 71.79 72.47 72.68 72.17 72.49 72.28 72.43 72.59 72.88 72.17 72.97 72.11 71.45 71.76 72.18 71.97 72.49 72.34 72.04 71.52 70.59 70.05 69.55
51.77 52.04 45.33 44.41 46.72 49.67 51.34 52.30 51.58 51.89 53.35 53.73 51.86 52.48 54.95 63.52 64.47 67.39 69.04 70.58 71.38 71.58 72.99 73.61 70.17 70.22 70.81 71.74 71.67 70.85 71.40 71.74 71.83 72.08 72.24 72.55 72.14 70.90 71.56 71.52 71.33 71.69 71.38 70.89 70.91 70.29 69.92 69.49 68.99
50.73 49.26 45.67 46.75 47.17 48.82 50.63 52.73 51.16 50.87 51.33 52.28 54.47 50.98 55.37 60.32 66.11 69.25 70.12 71.48 71.94 73.26 73.50 73.66 72.37 71.48 69.63 69.70 70.33 69.63 70.21 70.96 71.09 71.06 71.06 70.72 70.65 70.01 70.94 70.75 70.39 70.24 70.72 70.54 70.17 69.70 69.00 68.80 67.46
52.93 50.33 46.87 47.78 46.50 47.28 51.30 50.41 52.22 51.07 50.61 54.56 54.27 49.97 51.94 60.43 64.77 69.40 71.42 71.46 72.67 73.61 73.88 73.56 73.39 72.56 72.44 72.38 69.22 69.12 69.30 69.78 70.38 70.24 68.90 69.22 69.00 69.37 69.15 68.92 69.72 69.58 69.82 69.68 69.25 68.76 68.35 67.62 66.50
55.15 47.24 45.10 46.64 47.06 48.78 51.05 48.96 52.07 53.41 51.47 52.50 53.78 54.02 58.09 59.79 62.48 65.64 70.20 71.36 71.92 72.66 73.37 73.44 73.00 72.90 73.10 72.74 71.75 69.72 69.52 69.49 69.12 69.66 68.43 68.15 72.09 71.65 70.60 68.87 67.99 68.28 68.06 67.86 67.93 67.15 66.88 66.39 66.10
50.92 47.01 46.87 50.35 50.90 49.87 50.10 50.02 50.90 50.13 50.20 50.77 52.02 55.11 56.55 57.01 58.48 61.36 64.69 68.58 70.04 71.22 72.00 73.19 72.99 72.59 72.96 71.85 72.86 72.03 71.93 72.01 72.09 71.96 72.01 72.13 71.69 71.46 69.89 67.96 66.19 66.61 66.88 67.01 66.99 66.31 65.51 66.29 67.73
50.51 46.49 49.96 50.79 52.03 52.15 50.65 50.42 52.52 50.41 48.85 51.57 51.49 53.29 55.05 55.28 56.57 59.50 60.01 64.16 68.49 70.74 71.51 71.85 72.56 73.25 72.84 71.67 71.73 71.67 71.83 71.38 71.70 72.32 71.55 71.17 70.86 71.11 70.91 68.52 67.05 66.64 66.63 67.42 66.68 65.48 66.65 68.08 68.08
47.53 49.90 50.43 51.16 51.69 51.22 49.62 51.27 50.04 50.88 51.43 53.63 53.59 54.21 54.50 54.68 55.58 57.25 57.91 60.19 64.14 68.73 70.40 72.17 71.72 72.56 72.64 72.42 70.90 71.47 70.99 71.50 71.06 71.43 72.60 71.47 70.61 70.51 69.30 67.76 67.33 66.58 65.90 66.83 65.71 65.50 65.41 66.26 67.16
47.90 48.66 49.81 51.08 50.69 50.57 51.09 49.21 49.45 50.23 53.20 54.47 54.48 54.26 54.38 54.46 55.04 56.43 57.48 59.03 61.61 65.16 69.45 71.96 70.64 72.04 72.00 72.56 71.51 71.11 71.07 71.10 71.63 71.28 71.20 70.63 69.57 68.99 68.44 65.99 66.74 67.11 66.05 64.62 64.28 64.48 64.62 64.50 65.84
47.56 47.20 47.75 48.21 48.62 49.65 47.51 48.37 49.92 51.18 53.51 53.25 53.53 54.01 54.79 55.29 56.07 56.39 56.50 57.72 59.80 62.41 66.96 72.75 71.47 71.57 71.79 71.66 70.94 70.88 70.54 69.98 70.69 70.60 70.48 70.37 69.76 68.68 66.89 66.34 65.61 65.43 65.52 64.79 64.37 63.99 63.55 63.84 64.17
48.95 45.50 47.32 47.83 47.82 47.52 49.80 46.29 46.83 51.60 52.84 52.46 52.99 53.85 54.34 55.18 56.35 56.60 57.42 57.68 59.72 61.64 63.82 71.68 72.90 70.37 70.92 70.34 70.07 69.64 70.00 69.70 68.69 69.59 70.83 69.68 69.45 68.15 67.11 65.22 65.39 66.99 65.12 65.85 63.85 63.75 63.69 63.17 64.04
43.34 44.21 40.10 45.05 46.26 47.21 47.17 42.07 48.62 51.67 51.69 51.54 52.38 53.06 53.93 55.22 56.28 57.38 58.29 57.87 58.87 60.98 63.22 67.47 70.98 69.81 69.41 69.18 69.72 69.05 69.52 69.53 69.05 68.27 69.17 68.61 68.28 67.15 66.15 64.09 65.68 65.16 64.79 64.51 63.27 62.71 62.12 61.96 62.72
42.42 36.20 38.03 41.73 46.21 45.45 45.83 43.53 48.47 51.10 50.74 50.46 51.75 52.99 53.70 54.78 55.84 57.27 58.42 58.33 58.25 60.23 62.41 65.92 70.36 69.54 68.09 68.39 69.10 68.58 68.83 68.34 68.63 68.98 67.82 67.22 66.84 66.67 64.94 66.39 64.52 64.62 63.10 63.39 63.70 62.25 62.06 61.21 62.77
36.43 36.20 38.90 38.47 43.14 44.50 43.22 44.33 47.40 49.19 49.55 49.51 50.14 51.01 51.92 53.24 54.39 56.85 58.08 59.02 58.63 59.79 62.71 65.50 69.13 70.43 67.73 67.74 67.58 67.07 67.25 67.54 66.53 66.54 67.02 66.06 66.06 65.53 66.16 64.81 63.71 65.10 62.50 62.23 62.66 61.42 61.75 61.98 62.12
39.94 38.53 38.20 39.97 43.64 43.39 42.48 42.75 43.87 46.41 47.00 46.67 48.34 49.58 50.28 51.27 53.97 56.27 57.82 59.38 59.67 60.37 61.94 65.08 67.28 70.10 67.39 65.65 64.48 65.07 64.68 64.50 65.10 64.92 64.83 65.34 65.10 64.26 63.93 63.28 63.55 63.55 61.25 61.58 61.72 61.40 60.36 60.36 64.11
39.12 37.93 37.82 40.28 42.14 41.40 40.74 41.46 44.64 46.40 47.42 48.29 48.93 49.98 50.84 51.98 52.95 54.40 55.98 58.29 59.63 59.97 61.43 64.56 66.21 68.63 67.03 65.42 66.56 67.52 65.96 65.76 65.17 65.29 64.28 64.52 64.17 64.08 63.20 63.42 62.78 61.91 60.85 60.73 60.35 60.83 59.43 59.79 62.22
38.79 37.94 37.79 37.73 40.41 43.24 41.75 39.62 42.78 46.89 48.78 49.30 50.12 51.05 51.87 52.61 53.05 54.18 55.13 56.84 59.16 60.02 62.12 63.74 65.69 67.69 66.87 67.62 67.81 67.00 66.00 64.06 63.13 63.69 64.15 64.32 64.26 63.57 63.32 62.92 61.92 61.03 60.83 60.60 60.35 60.92 59.78 59.23 60.95
35.00 41.15 39.33 38.62 37.62 32.93 43.89 35.12 42.71 45.54 45.89 47.52 49.51 51.88 54.92 56.04 56.42 56.61 55.98 56.25 57.80 60.43 63.10 64.51 65.66 67.60 65.76 67.84 67.29 65.86 62.46 61.05 62.72 63.49 63.69 62.75 62.66 62.51 62.83 62.34 61.69 60.70 60.85 60.09 60.30 61.10 60.50 61.03 59.17
37.75 41.99 40.61 40.09 37.37 37.15 39.48 37.26 40.36 45.10 43.18 47.16 50.54 53.16 55.11 56.57 57.14 57.18 56.61 56.83 57.37 60.13 62.63 64.76 65.57 66.85 66.64 67.83 67.40 66.10 64.61 64.77 64.06 63.64 63.75 63.05 62.09 62.00 62.19 61.66 61.09 60.44 60.34 60.39 60.43 60.49 61.57 61.47 61.17
43.41 41.37 41.38 40.63 38.77 32.65 36.87 36.91 39.09 42.25 45.39 47.93 51.66 53.75 55.40 56.85 57.99 58.56 58.48 58.17 57.19 59.61 64.12 65.01 65.18 65.84 66.45 66.84 66.65 66.15 64.95 64.29 62.37 63.33 63.08 62.08 61.43 61.06 61.05 60.97 60.82 60.63 60.27 60.46 60.50 61.50 61.35 61.79 62.76
41.77 39.00 31.13 29.58 30.48 29.01 40.33 38.06 39.64 46.54 49.73 50.07 51.34 53.38 55.24 57.03 58.18 58.57 58.50 57.37 58.07 59.92 63.57 64.50 64.43 64.85 65.86 65.75 65.73 65.65 64.67 63.82 62.42 62.47 62.50 60.09 59.10 59.45 60.22 60.08 60.18 60.17 60.14 60.41 60.69 60.77 62.36 63.09 62.47
38.85 38.39 32.02 26.07 28.40 33.19 40.34 34.74 39.72 49.75 51.38 52.05 53.06 54.17 55.17 55.83 58.34 59.27 59.38 60.03 60.42 61.77 62.77 61.96 63.97 64.28 65.03 65.04 64.98 64.76 64.10 62.34 63.00 62.79 61.26 59.57 57.62 58.35 59.53 60.08 60.08 60.15 60.20 60.20 60.77 61.49 62.49 62.39 62.31
38.40 35.75 41.12 35.51 36.81 33.76 37.18 41.15 47.26 49.07 48.64 49.44 50.90 52.72 53.32 54.76 56.03 59.18 59.88 59.85 61.69 62.27 59.24 59.34 63.36 64.16 64.08 63.90 64.21 63.18 62.58 62.08 62.36 61.72 60.00 58.32 57.65 56.84 57.32 58.26 59.08 59.55 59.91 59.99 59.96 60.05 59.98 60.93 61.24
41.06 42.61 33.97 36.46 27.07 26.77 33.99 36.73 38.96 43.87 44.80 47.48 48.34 50.80 52.60 53.53 53.95 54.87 59.64 59.48 61.90 61.21 58.32 58.76 62.48 62.62 62.46 62.44 62.98 61.79 61.25 62.05 62.26 61.09 58.51 57.33 57.62 56.98 56.74 56.98 57.18 58.04 58.94 59.23 59.02 58.95 59.86 60.61 61.30
37.88 37.08 38.24 38.57 36.89 30.48 29.98 35.14 46.37 44.81 45.64 45.37 47.52 50.52 51.79 51.55 49.84 49.64 55.73 60.60 61.64 61.39 58.35 58.14 60.73 61.59 61.32 61.73 60.46 60.50 60.22 60.87 61.34 61.24 59.27 57.43 57.02 56.88 56.81 57.11 57.14 57.20 57.54 58.37 58.59 59.12 58.59 58.52 58.12
41.81 39.33 39.44 33.06 31.84 35.83 34.95 35.70 47.27 47.42 46.43 47.56 48.73 50.42 51.67 50.84 47.47 47.03 48.45 55.85 58.36 58.04 58.11 57.42 60.17 60.39 60.09 60.34 59.76 59.74 60.24 60.09 60.08 59.71 59.02 58.12 56.81 56.68 56.51 56.10 55.74 55.08 54.91 55.20 54.94 54.53 55.09 54.61 54.61

GFSSGP_sfc_wetblb_096.txt.gz
Wetbulb
61.95 61.23 60.72 56.98 46.64 47.03 43.50 45.24 50.05 49.37 50.41 53.81 55.07 53.84 52.57 54.31 55.67 54.26 67.37 69.96 72.63 71.12 72.44 72.48 72.17 73.07 73.44 73.59 73.98 73.56 73.56 73.82 73.94 73.95 73.82 73.85 73.92 73.98 73.91 73.64 73.91 74.16 74.50 74.00 73.30 73.20 72.83 72.92 72.45
60.00 59.81 58.72 52.58 43.89 40.99 43.14 48.54 48.25 50.62 53.30 55.79 54.99 54.45 53.16 52.52 60.43 62.89 66.36 70.50 72.90 71.69 71.60 72.17 71.81 72.48 73.22 73.26 73.48 73.92 74.07 74.00 73.83 73.98 73.82 73.82 74.00 73.23 73.50 73.61 73.59 73.68 73.92 73.93 73.35 73.10 72.88 72.51 71.93
58.97 59.27 52.92 47.45 44.17 41.17 43.62 49.07 50.41 52.34 54.51 54.22 52.96 54.94 54.21 53.80 59.55 63.64 69.12 70.72 71.51 71.44 71.62 72.04 71.16 71.89 72.95 73.08 73.23 73.65 73.76 73.60 73.43 73.45 73.88 73.72 73.61 73.57 73.65 72.92 73.26 73.36 73.77 73.83 73.37 73.21 72.71 71.63 70.90
55.76 56.38 53.33 44.19 42.63 46.35 46.48 49.36 51.29 51.37 53.39 53.59 53.06 51.23 56.38 62.98 63.01 64.76 69.80 70.37 69.80 71.01 72.17 69.50 70.48 71.32 72.52 72.93 73.08 73.20 73.23 72.80 72.93 72.91 73.33 73.82 73.48 73.48 72.94 72.52 72.93 73.33 72.68 73.26 73.30 72.97 71.75 70.52 70.00
54.91 53.52 45.27 43.28 43.53 46.55 49.74 51.53 52.33 50.52 51.27 53.26 52.94 50.81 53.81 60.43 65.73 68.34 69.61 69.86 69.55 71.26 72.29 70.86 69.66 70.96 72.17 72.73 73.02 72.89 72.63 72.21 72.32 72.63 72.82 73.05 73.12 72.88 71.95 71.60 72.23 72.43 72.35 72.65 72.16 71.87 70.77 70.17 69.56
49.90 50.99 43.39 41.91 44.38 48.03 50.32 52.03 51.57 51.01 51.46 53.04 52.00 51.43 54.91 63.47 63.56 67.40 69.96 70.75 72.28 73.18 73.10 71.18 70.33 70.77 71.23 71.99 72.05 71.72 71.60 71.84 71.90 72.12 72.37 72.53 72.38 71.28 71.33 71.45 71.38 71.68 71.55 71.55 70.75 70.55 70.21 69.79 69.39
50.05 47.89 44.18 44.76 45.62 47.35 50.08 53.86 51.50 50.71 50.45 50.86 54.70 51.01 55.03 58.19 66.39 69.22 69.73 70.86 72.90 73.57 73.17 71.13 70.53 70.69 70.20 70.12 70.08 69.66 70.31 71.14 71.37 71.46 71.45 71.46 70.59 69.93 70.90 70.92 70.86 70.43 70.37 70.08 70.54 69.88 69.36 69.24 68.90
53.51 50.40 45.51 46.51 45.50 45.96 51.09 52.26 52.29 51.06 50.44 55.38 54.38 50.33 51.85 62.17 65.97 71.59 73.63 70.60 72.53 73.38 73.68 71.69 71.35 70.90 70.55 70.76 69.15 68.96 69.53 70.17 70.77 70.96 70.56 70.15 69.83 69.24 69.64 69.89 69.70 69.52 69.75 69.43 69.33 68.59 68.18 67.49 67.86
54.89 46.34 43.86 45.28 46.28 48.04 52.23 50.55 53.30 53.00 51.01 52.00 53.54 53.67 57.82 62.38 64.08 67.60 69.70 70.63 71.25 72.65 73.02 72.95 71.94 71.45 71.38 71.08 70.52 69.49 69.73 69.66 70.05 70.44 69.53 67.94 70.83 70.20 70.02 68.80 67.97 68.10 68.19 67.95 67.63 67.24 66.81 65.71 65.47
48.49 46.58 45.59 49.28 50.04 49.13 51.02 50.80 51.27 50.26 49.96 50.26 52.02 55.36 56.55 58.35 58.85 61.34 65.93 67.43 69.32 70.49 72.11 72.07 72.17 71.54 71.74 71.17 70.72 70.42 70.72 70.46 70.62 70.96 70.96 70.46 70.40 69.98 69.51 68.06 66.77 67.31 67.08 67.08 67.04 66.74 66.03 65.63 65.53
48.06 45.58 49.49 50.20 51.23 51.47 50.30 50.40 52.33 49.39 48.23 51.24 51.26 53.48 55.41 55.79 56.20 58.05 60.65 65.81 68.01 70.28 70.81 71.83 71.42 72.06 71.92 70.19 71.10 70.21 70.39 70.07 70.55 70.89 70.88 71.05 69.78 69.41 68.59 66.79 66.46 66.55 66.57 66.19 66.20 65.89 65.80 66.06 65.83
45.06 48.34 49.51 50.24 51.09 50.34 49.25 51.53 50.11 50.94 51.49 53.95 53.75 54.60 55.18 54.69 54.64 55.80 58.76 59.04 61.47 68.90 70.68 70.97 71.59 71.82 72.04 71.21 70.84 70.30 69.76 69.78 70.03 70.22 70.48 69.79 68.71 68.70 67.74 66.77 65.70 65.19 65.16 64.87 65.60 64.99 64.67 64.81 65.78
45.81 47.13 48.75 50.28 50.43 50.31 50.95 48.86 49.36 49.97 52.52 53.42 53.83 54.08 53.96 53.91 54.56 55.14 55.60 58.63 59.04 62.04 69.38 70.74 70.67 71.27 71.81 71.50 70.31 70.76 69.72 69.62 70.15 70.19 70.53 70.02 68.53 68.08 67.50 66.73 65.90 64.65 64.61 64.80 64.61 63.85 63.20 63.97 64.12
47.23 47.16 46.84 47.99 48.50 48.74 47.36 47.74 48.54 49.80 52.28 52.07 52.61 52.44 53.52 54.14 54.64 55.06 55.86 56.07 57.45 60.03 64.03 70.83 70.15 71.14 71.09 70.64 70.65 69.92 70.79 70.79 70.25 70.05 69.77 69.75 68.81 68.29 67.12 66.08 65.20 65.11 64.84 65.09 64.37 63.78 62.45 63.27 63.67
47.18 43.62 45.33 46.19 46.45 45.97 47.93 44.28 45.63 49.82 50.77 50.19 51.33 52.67 53.32 54.12 55.09 55.13 56.43 56.56 57.14 58.31 61.81 70.59 70.07 70.59 70.78 70.30 70.61 70.26 69.70 69.45 69.26 69.41 69.57 69.10 68.48 67.61 66.31 65.58 65.01 64.86 65.08 64.04 63.58 63.15 63.24 62.81 63.34
44.14 44.40 39.43 45.49 46.98 47.51 47.03 40.77 46.64 49.72 49.63 49.68 51.03 51.99 52.77 53.71 54.69 55.69 57.14 57.37 56.88 57.72 59.89 69.52 71.02 70.15 70.20 70.20 69.85 68.34 69.65 68.94 68.34 68.56 69.19 68.91 68.34 67.42 66.06 65.34 64.79 64.83 64.41 63.94 63.29 62.86 62.64 62.02 61.64
41.83 37.00 38.87 41.23 45.20 44.33 43.98 41.60 46.14 49.14 48.54 48.13 50.03 52.12 52.49 53.10 54.46 55.80 56.87 57.44 57.60 57.51 60.17 63.79 70.70 70.10 69.38 69.46 68.11 67.58 68.28 68.53 67.90 67.74 67.56 68.24 67.94 66.87 65.71 64.66 64.72 64.51 64.03 63.69 62.80 62.32 62.12 61.08 61.01
36.09 36.88 38.75 38.64 42.56 43.12 41.28 42.28 45.35 47.68 48.53 49.24 49.54 50.89 51.42 52.27 53.92 56.06 57.16 57.38 58.26 58.22 58.73 63.20 70.49 69.84 69.05 68.93 67.60 67.46 66.83 66.82 68.03 67.56 66.86 66.83 67.03 66.57 65.68 64.68 64.16 64.31 63.17 62.85 62.42 61.19 61.66 61.12 60.65
39.63 38.90 38.03 40.93 43.04 41.99 41.34 41.16 43.32 47.19 47.39 45.87 47.24 48.54 49.04 50.38 52.61 53.83 56.98 59.28 59.00 59.62 60.14 62.86 67.18 69.22 68.20 67.12 65.85 65.41 64.72 65.40 65.76 66.85 66.61 66.40 65.68 65.16 65.08 64.19 63.58 63.48 62.53 62.23 62.15 61.20 60.34 60.12 61.01
39.56 37.86 37.72 40.61 42.56 41.19 39.99 39.78 42.26 43.79 44.45 45.83 45.98 46.86 48.09 49.61 51.15 52.58 53.89 57.14 58.84 58.66 59.94 61.98 65.86 68.86 67.60 66.94 66.47 65.62 64.68 64.97 64.99 64.74 64.90 65.08 64.81 64.48 64.31 64.06 63.12 62.69 62.07 61.65 61.60 60.87 59.57 59.98 60.65
38.83 37.95 37.60 37.21 40.22 41.12 39.85 37.56 40.82 44.26 46.08 47.04 47.60 48.86 50.14 50.61 51.41 53.52 55.11 55.93 57.34 58.87 60.55 61.59 64.06 68.78 68.19 67.17 65.91 65.58 65.46 65.40 64.39 63.72 63.02 63.65 64.30 63.92 63.53 63.46 62.96 62.42 62.06 61.05 61.15 60.56 59.25 58.30 59.44
34.99 41.13 40.09 38.55 36.68 31.60 39.76 31.14 38.36 43.84 45.15 46.27 47.12 48.27 50.64 55.00 56.34 56.73 56.66 56.97 57.05 58.91 61.06 61.10 62.94 64.78 68.17 66.66 65.29 64.92 64.01 62.09 62.44 62.59 62.81 63.05 63.56 63.42 63.43 62.92 62.73 62.17 61.64 61.03 60.79 61.14 60.05 59.20 57.24
38.25 42.00 39.97 39.28 36.57 35.77 35.75 33.25 37.74 43.31 42.46 45.00 49.37 52.62 55.27 56.70 57.08 57.08 57.55 57.74 57.64 57.92 60.97 61.89 62.66 63.82 67.06 66.03 65.85 65.30 64.07 63.05 62.58 62.59 62.30 62.41 62.53 62.78 62.65 62.74 62.38 61.47 61.31 61.01 60.80 60.56 59.93 59.77 58.44
43.37 40.25 39.53 39.02 36.72 29.24 35.05 34.67 35.52 39.57 43.10 47.11 51.04 52.97 54.67 55.68 56.85 57.99 58.78 58.57 57.41 58.11 60.71 62.40 62.81 64.35 66.31 66.00 65.87 65.78 63.30 63.00 62.13 61.50 61.76 61.38 61.44 61.51 61.83 62.06 61.80 61.00 60.81 60.59 60.53 60.67 60.28 59.69 59.23
41.26 36.99 28.37 26.98 27.86 27.00 37.24 35.11 37.66 42.62 48.68 50.01 50.50 52.10 54.06 55.54 56.00 57.39 57.27 58.12 57.60 57.42 60.55 62.70 62.76 63.23 65.39 64.93 65.42 65.95 64.42 63.99 63.07 61.72 61.51 61.47 60.39 60.25 60.77 61.26 60.90 60.35 60.38 60.46 60.93 60.46 60.19 59.68 59.18
37.96 37.51 30.25 23.47 25.57 29.65 37.50 31.84 37.97 46.40 50.61 51.51 52.01 52.79 53.47 53.49 54.51 54.86 55.43 59.19 59.35 59.48 62.49 62.60 62.92 63.04 65.06 64.56 65.15 64.75 63.33 63.35 62.39 61.33 61.97 60.80 59.64 59.79 60.91 60.52 60.60 60.53 60.29 60.39 60.58 60.22 59.92 59.68 59.40
37.58 34.22 40.16 33.41 34.26 29.64 34.26 38.59 45.02 47.39 48.11 49.67 49.92 50.80 51.29 51.70 51.98 52.37 53.93 56.92 60.35 61.95 62.04 62.09 62.18 62.84 64.55 63.77 62.95 62.73 63.11 62.07 61.27 61.50 61.08 59.95 58.83 58.73 59.35 59.93 59.93 60.12 59.97 60.05 60.25 59.87 59.06 59.02 59.68
39.65 41.88 32.87 34.38 26.66 25.14 31.76 33.46 35.62 41.59 44.78 46.29 46.58 48.98 50.09 50.50 50.06 49.37 51.54 52.38 58.34 60.20 59.97 60.63 62.12 62.22 62.78 62.16 62.01 61.55 61.12 61.47 61.48 60.91 59.35 58.08 57.96 57.62 57.61 58.01 59.61 59.54 59.62 59.79 59.93 59.47 59.56 59.26 59.39
37.78 35.48 36.71 36.54 34.39 26.98 27.91 33.33 42.84 40.66 42.91 44.73 47.59 49.12 48.96 48.25 47.28 46.07 46.75 49.14 51.54 59.46 58.56 59.01 60.29 60.53 60.35 60.66 60.75 59.99 60.16 60.49 60.70 60.19 58.79 57.87 57.09 56.97 56.79 56.85 57.17 58.81 59.03 59.34 59.20 59.14 59.05 58.65 58.70
40.37 37.96 37.65 31.15 30.43 34.65 33.45 32.92 43.43 44.36 45.09 47.22 47.87 48.81 48.27 47.11 45.36 43.71 43.17 44.08 45.06 49.52 57.77 57.74 58.92 58.68 59.54 59.88 59.47 59.49 59.57 60.10 60.40 59.16 58.50 57.51 56.71 56.96 56.81 57.01 56.59 56.23 57.25 59.00 58.44 57.84 57.95 58.04 57.32

GFSSGP_sfc_wetblb_099.txt.gz
Wetbulb
57.81 57.25 55.34 51.16 39.82 36.42 32.93 38.46 44.65 44.52 45.42 47.86 51.17 50.67 48.72 50.82 54.74 51.73 66.37 69.47 70.23 69.85 71.43 71.81 72.11 73.08 73.50 73.42 73.22 73.16 73.61 74.02 74.01 73.75 73.68 73.67 73.91 73.81 73.65 73.69 74.00 74.22 74.63 73.79 73.62 73.27 73.29 72.68 72.41
55.33 56.76 52.68 47.06 35.22 30.29 34.29 42.90 43.49 46.17 49.60 52.45 52.17 51.07 49.95 50.96 60.30 63.36 66.17 69.15 70.30 70.72 71.13 71.46 71.68 72.43 73.14 73.25 73.08 73.23 73.78 73.97 73.95 73.83 73.73 73.92 73.93 73.86 73.74 73.36 73.40 74.16 74.40 73.79 73.54 73.19 72.67 72.20 71.70
55.43 55.96 45.61 41.00 34.72 33.87 33.98 42.58 45.50 47.79 51.51 51.37 49.80 50.59 51.58 53.21 61.66 63.15 68.96 69.36 69.65 69.44 70.77 71.26 71.20 71.76 72.51 72.72 73.01 73.00 73.29 73.28 73.42 73.48 73.91 74.01 73.90 73.98 73.74 73.05 73.04 73.75 73.73 73.91 73.39 73.12 72.25 71.42 70.64
51.41 49.25 47.28 37.32 34.59 38.24 41.67 44.06 46.47 46.64 49.94 50.15 49.00 48.56 53.45 61.25 62.49 65.45 69.62 69.67 68.56 68.63 70.53 69.52 70.24 71.28 72.19 72.56 72.76 72.93 72.77 72.33 72.58 72.91 73.45 73.72 73.74 73.76 73.44 72.72 73.16 73.64 73.43 73.56 73.74 72.97 71.62 70.42 70.01
48.02 45.06 38.38 34.26 37.09 40.87 44.44 46.30 47.58 47.79 49.25 51.07 49.83 46.73 50.19 62.10 66.75 67.61 67.41 68.50 67.42 68.30 69.19 69.43 69.43 70.89 71.88 72.54 72.74 72.58 72.36 71.98 72.11 72.34 72.69 73.10 73.36 73.21 72.52 72.07 72.42 72.40 72.90 73.03 72.39 71.77 70.65 69.97 69.49
41.81 43.02 34.06 35.95 39.18 43.00 45.28 46.87 48.09 48.90 49.64 49.23 47.76 47.42 52.06 61.19 64.27 65.52 66.71 66.56 69.98 69.22 69.02 69.53 70.34 70.67 71.12 71.70 71.65 71.37 71.35 71.38 71.17 71.92 72.24 72.75 72.47 72.02 71.72 71.60 71.26 71.72 71.80 71.45 71.21 70.76 70.16 69.79 69.40
41.48 38.02 35.97 36.48 39.15 42.17 45.91 49.51 48.53 48.69 47.97 47.65 51.58 47.74 50.18 61.75 63.16 65.40 65.97 69.77 70.40 70.10 68.84 68.85 69.32 70.42 70.13 69.80 69.95 70.18 70.57 70.86 70.48 71.01 71.17 71.59 70.93 70.23 70.78 70.91 71.05 71.04 70.90 70.16 70.21 69.90 69.47 69.48 68.71
45.91 42.83 39.69 40.67 40.24 41.24 47.55 49.53 49.47 47.18 46.98 53.27 50.92 46.55 46.83 59.62 64.57 65.46 65.57 68.59 70.14 69.66 68.49 67.95 68.11 68.49 68.13 69.42 68.67 68.96 69.64 69.46 70.10 70.72 70.53 69.97 69.57 69.59 69.97 69.33 69.59 69.57 70.21 70.35 69.16 68.56 68.22 67.97 66.70
48.53 42.33 39.74 40.76 42.18 44.63 49.73 48.75 51.60 50.32 46.97 48.84 51.49 52.26 58.81 62.25 64.31 64.12 64.36 65.84 68.96 69.44 68.63 68.29 68.15 68.04 67.91 68.09 68.93 68.98 69.36 69.64 69.81 70.50 69.81 68.15 69.30 68.85 69.17 68.84 68.51 68.85 68.58 67.81 68.24 67.68 67.17 66.18 65.78
40.70 39.14 41.35 45.33 46.28 45.53 48.36 46.74 47.16 48.19 47.61 47.44 50.25 53.74 58.69 60.08 60.80 62.29 63.09 63.74 66.34 67.48 68.74 68.46 68.28 68.02 68.13 69.81 68.56 67.46 69.03 68.93 69.86 70.52 69.92 68.36 68.34 68.31 69.14 67.73 66.85 66.90 66.76 66.90 66.76 66.49 66.45 66.56 65.93
41.86 39.45 43.52 45.51 48.47 49.26 46.84 46.88 48.36 46.81 45.21 47.77 48.05 49.94 51.96 53.57 54.56 59.16 63.12 64.10 66.80 68.37 69.73 68.98 69.22 68.54 68.35 68.52 67.93 68.43 68.38 68.34 68.53 68.65 68.90 68.22 68.65 67.50 66.19 65.06 65.85 65.75 66.18 65.39 64.62 64.41 65.48 65.64 65.53
40.10 44.38 44.73 45.40 47.64 48.09 47.04 48.08 47.00 47.59 47.86 50.55 49.60 50.53 51.44 51.12 50.94 52.41 55.98 63.19 65.00 67.46 69.39 69.18 69.13 69.33 68.70 67.86 67.73 67.81 68.04 67.82 68.02 68.61 68.27 68.52 66.42 65.63 64.99 64.61 64.61 64.89 64.91 64.19 63.49 64.39 65.21 65.10 65.81
40.93 42.63 45.20 46.63 46.94 47.13 47.55 46.17 46.54 47.28 47.85 50.24 50.92 50.76 49.92 50.39 51.37 51.69 52.92 54.53 57.91 65.21 68.62 69.07 68.78 69.35 69.48 67.57 68.19 67.52 67.78 67.67 67.92 67.97 68.01 67.75 66.22 65.82 65.23 64.33 64.30 64.23 64.21 63.46 62.69 63.25 62.86 63.49 64.25
43.29 43.40 43.43 44.89 45.27 44.63 44.57 44.96 44.33 46.97 47.62 48.47 49.53 48.91 49.77 50.05 50.67 50.44 51.06 50.75 53.92 54.91 67.66 69.29 68.95 69.24 69.23 69.02 67.47 67.37 67.46 67.18 67.81 67.89 68.06 66.85 66.67 66.21 65.44 64.22 63.49 63.18 63.72 63.23 63.42 62.38 61.98 62.85 63.63
45.00 40.69 43.14 43.23 42.26 42.00 43.50 40.66 41.49 44.92 46.97 47.12 48.25 49.05 49.63 50.24 51.68 51.12 50.96 51.44 51.80 53.17 57.56 68.20 68.91 69.35 69.38 68.86 67.80 67.12 66.94 67.31 67.16 67.64 67.76 66.92 66.76 66.27 65.18 64.69 63.74 63.90 63.49 63.87 63.20 62.66 62.17 62.09 63.32
40.12 39.65 34.85 41.66 43.43 44.40 41.10 37.16 43.31 45.80 45.77 45.86 46.94 48.05 49.76 50.87 51.28 52.63 51.73 52.23 52.88 53.28 54.42 68.28 69.25 68.88 69.24 68.75 68.22 67.53 66.63 66.15 65.84 66.90 67.47 66.70 66.30 66.03 64.71 64.03 63.34 63.83 63.64 63.80 63.01 62.65 61.45 61.12 61.68
35.80 31.50 34.25 37.82 42.96 42.54 40.08 38.53 43.39 45.14 46.33 45.88 46.62 47.24 48.39 49.68 51.72 52.39 52.82 53.38 54.17 54.29 53.81 66.27 68.64 68.28 68.33 68.11 68.27 67.03 66.56 65.68 65.32 65.09 66.58 66.41 66.07 65.67 64.66 63.88 64.03 64.34 63.88 63.28 62.78 62.40 61.65 60.68 60.98
28.93 31.66 34.15 34.69 40.43 41.03 39.34 38.55 41.86 43.09 43.54 42.86 43.38 45.17 46.39 47.94 50.58 52.51 53.00 53.87 53.41 55.27 54.64 63.50 68.54 68.01 67.82 67.86 66.63 65.85 66.12 67.01 65.62 64.37 65.17 65.89 66.00 64.82 63.83 63.23 63.25 63.32 62.84 62.61 62.44 61.88 62.22 61.76 61.14
34.70 33.64 32.47 35.99 39.91 38.84 38.05 35.82 39.56 42.26 42.87 42.33 42.94 41.90 43.01 46.68 48.82 49.80 50.48 52.11 52.60 53.83 54.74 60.86 67.73 67.47 67.76 66.51 65.37 64.74 64.35 65.67 65.87 66.07 64.58 66.10 66.39 65.36 64.56 64.02 63.64 63.42 62.60 61.76 62.06 61.57 60.98 59.98 61.29
34.91 32.33 31.91 36.19 39.68 39.00 36.61 35.33 36.99 39.16 39.65 41.79 41.67 42.29 43.04 43.38 45.80 47.82 49.62 48.28 52.06 52.02 53.25 60.73 67.72 67.39 67.30 66.74 66.13 65.27 65.14 65.13 65.23 65.49 65.40 65.52 65.32 65.18 64.57 63.86 63.31 63.22 62.43 61.95 61.53 60.88 59.98 60.03 60.73
35.68 33.24 33.10 33.65 37.73 37.30 35.39 34.16 35.63 40.77 41.97 43.54 44.85 43.92 45.31 44.76 44.80 46.71 48.62 48.71 48.94 52.53 53.07 63.25 67.47 67.14 66.73 66.22 65.27 63.89 63.36 64.34 63.74 63.91 64.16 64.33 64.78 64.43 63.96 63.61 63.14 63.03 62.71 61.66 61.59 60.84 60.03 58.37 59.54
31.38 38.22 36.99 35.47 34.66 28.12 34.35 26.39 34.36 38.03 40.28 42.19 43.87 46.04 45.80 45.23 46.32 50.45 52.82 52.59 51.63 52.06 53.24 63.00 67.31 66.53 65.80 65.40 64.65 63.04 62.46 61.64 63.10 63.46 63.58 63.60 64.09 63.69 63.40 63.48 62.88 62.68 62.41 61.48 61.41 61.21 60.23 59.48 57.64
34.37 38.79 37.80 36.43 34.57 30.47 31.84 26.95 32.52 38.82 38.63 41.64 45.43 44.41 45.72 47.15 51.40 53.32 53.93 54.06 54.20 52.85 53.50 60.20 66.73 66.16 65.48 64.94 64.12 63.31 62.15 62.10 62.96 62.87 62.12 62.59 62.70 63.30 62.63 62.58 62.63 62.12 61.83 61.38 61.10 60.80 60.14 59.96 58.84
38.85 37.16 37.31 35.90 32.95 24.98 31.67 30.17 30.40 35.65 39.14 42.55 48.05 50.23 51.61 52.27 52.46 53.66 54.58 55.04 55.86 56.34 52.83 55.24 63.91 65.97 64.98 64.04 63.35 62.85 62.32 61.58 60.94 60.68 60.74 61.43 61.50 61.87 62.11 62.41 62.30 62.31 62.00 61.26 61.11 61.06 59.98 59.88 59.38
36.49 33.15 24.45 23.53 24.16 22.78 34.43 31.20 32.81 40.05 42.77 45.72 47.81 48.40 49.17 49.95 50.53 50.93 51.63 52.08 53.50 54.13 53.47 55.98 59.08 64.47 64.10 63.20 63.11 62.91 62.56 61.77 60.09 59.64 60.00 59.25 59.97 60.33 60.76 61.68 61.39 61.63 61.66 61.21 61.03 60.76 60.46 59.91 59.03
33.29 33.38 26.19 19.50 21.58 25.39 34.73 28.48 34.43 42.30 45.37 48.18 49.51 48.66 48.40 48.45 48.77 48.01 49.01 50.53 51.27 55.98 55.55 57.07 60.96 63.20 63.31 63.07 62.45 62.57 63.03 62.95 62.25 60.36 60.37 59.84 60.01 59.96 60.17 60.75 61.32 61.42 61.32 61.08 61.07 60.74 60.63 60.02 59.39
33.32 30.09 34.52 29.46 32.66 27.74 31.70 36.76 42.73 43.99 45.42 45.28 46.95 46.17 45.75 45.47 45.72 45.23 46.25 47.74 48.10 55.71 56.98 56.77 57.99 60.13 61.88 61.46 61.70 62.14 62.98 62.24 60.80 60.84 60.52 59.03 57.79 59.05 60.21 60.92 60.62 60.69 60.58 60.51 60.53 60.28 59.84 59.77 59.54
37.09 39.12 29.62 31.48 23.88 22.42 31.03 32.99 32.34 36.76 38.92 43.46 44.07 42.98 43.07 43.32 42.54 42.72 43.50 45.37 46.06 48.23 55.08 56.70 58.00 58.24 60.24 60.89 61.61 61.46 60.65 60.86 60.52 59.81 58.04 56.61 56.59 57.84 57.89 59.35 59.93 60.11 60.16 59.96 60.03 59.67 60.06 59.56 59.20
34.02 32.50 33.86 34.62 32.03 26.99 25.92 30.56 35.61 37.65 42.72 43.06 42.18 41.82 41.06 40.12 39.70 40.19 40.93 43.06 43.85 45.32 46.67 51.29 56.91 57.33 58.02 60.74 60.11 59.68 59.57 60.19 59.76 58.67 57.30 56.98 57.07 56.79 56.75 57.11 57.93 59.01 59.41 59.59 59.35 59.39 59.34 58.65 58.59
38.24 34.28 35.03 26.86 28.06 31.98 30.75 29.63 39.84 41.42 43.19 42.23 42.23 42.20 40.75 39.37 38.10 38.14 38.36 39.22 40.35 40.82 42.06 44.26 49.06 57.62 58.42 59.04 59.42 58.82 59.46 59.62 59.28 58.26 56.59 57.35 56.61 56.83 56.65 56.81 57.13 57.45 58.57 59.05 58.97 58.39 58.54 58.08 57.91

GFSSGP_sfc_wetblb_102.txt.gz
Wetbulb
56.61 55.09 53.62 49.67 38.61 34.08 30.24 36.19 40.25 42.15 43.11 45.12 48.91 48.48 47.23 50.19 53.14 48.86 65.48 68.25 69.38 69.88 71.74 72.00 71.89 72.68 72.91 73.16 73.05 73.10 73.58 73.89 73.83 73.38 73.39 73.69 73.85 73.89 74.06 74.17 73.96 74.07 74.37 73.84 73.42 73.52 73.32 72.96 72.63
52.91 54.97 50.73 44.04 34.11 27.98 31.15 39.09 41.23 44.12 47.00 48.71 50.39 49.47 48.54 54.02 60.76 64.09 65.08 69.14 69.57 70.10 71.22 71.62 71.86 72.36 72.68 72.70 72.82 73.12 73.82 73.82 73.56 73.44 73.74 73.72 73.85 73.80 74.01 73.76 73.64 73.83 74.13 73.70 73.27 72.88 72.69 72.18 71.79
53.54 54.19 44.47 40.04 31.86 30.54 31.91 39.78 43.74 44.63 47.05 46.61 48.32 49.14 49.62 52.44 64.31 64.71 66.93 68.88 69.78 69.76 70.56 71.28 71.47 71.93 72.44 72.37 72.42 72.79 73.24 73.14 73.16 73.35 73.76 73.87 73.85 73.81 73.82 73.32 73.32 73.80 74.16 73.77 73.20 72.36 71.98 71.37 70.81
49.97 48.33 44.76 36.27 32.96 36.59 36.85 40.90 42.62 44.11 46.91 47.84 48.20 46.56 53.25 60.81 64.33 66.31 68.31 69.50 68.70 69.46 70.20 70.10 70.35 71.36 72.31 72.51 72.54 72.52 72.70 72.35 72.39 72.74 73.53 73.85 74.07 73.88 73.26 72.81 73.23 73.73 73.75 73.87 73.17 72.07 71.31 70.25 69.89
45.90 43.03 36.84 32.68 35.81 38.44 41.29 43.37 44.86 44.97 46.66 48.34 48.43 46.18 50.44 62.52 66.42 67.95 67.57 67.66 67.08 68.17 69.38 70.01 69.52 70.91 71.77 72.70 72.55 72.35 72.03 71.65 72.05 72.47 72.74 73.14 73.43 73.45 72.54 72.34 72.60 72.76 73.01 73.25 72.83 71.78 70.46 69.78 69.50
40.77 40.16 31.98 33.46 37.44 40.96 42.33 44.76 45.23 45.93 47.76 48.01 46.02 46.00 53.46 62.71 66.60 67.15 67.44 65.67 67.63 67.64 68.70 69.49 70.39 70.66 70.93 71.53 71.62 71.27 71.14 71.41 71.45 71.87 72.21 72.59 72.57 72.28 71.98 71.34 71.77 71.91 72.06 71.83 71.41 70.60 69.94 69.51 69.39
38.58 34.99 31.49 32.13 35.63 39.22 43.00 46.33 45.65 46.76 44.81 46.43 49.00 46.28 53.71 59.58 64.10 65.61 65.95 67.27 67.93 67.74 67.80 68.60 69.63 70.53 69.99 69.50 69.77 69.88 70.53 70.78 70.89 70.93 71.18 71.49 71.01 70.71 71.15 71.26 71.08 71.40 70.83 70.85 70.61 69.97 69.48 69.42 68.82
43.17 39.20 33.85 34.63 36.81 37.74 45.10 47.35 46.92 46.74 47.35 51.58 49.29 45.73 48.13 59.72 62.94 64.50 67.66 67.90 67.80 67.31 67.54 67.85 68.53 69.05 69.78 68.89 68.82 69.16 69.61 69.44 69.33 70.43 70.53 69.88 69.87 69.75 70.18 69.94 70.21 70.11 69.81 70.13 69.22 68.96 68.52 68.63 67.40
46.05 36.61 35.21 36.65 39.84 42.06 47.91 46.98 49.99 48.51 46.54 48.28 49.09 49.24 54.35 62.38 63.97 64.60 66.55 66.84 67.04 67.33 66.95 67.40 67.69 68.05 67.90 68.73 69.14 69.45 69.92 69.44 69.02 69.61 69.90 68.87 69.74 69.04 69.37 68.70 68.79 68.60 68.97 67.96 68.35 68.07 67.47 66.62 66.28
40.24 35.83 39.05 44.08 44.20 44.18 46.97 45.86 46.88 46.60 46.63 47.28 47.90 52.08 59.12 61.48 61.76 62.81 64.83 65.55 66.39 66.03 66.16 66.91 66.95 67.20 67.40 69.10 67.35 66.86 68.64 68.42 68.95 69.38 69.03 69.38 68.30 67.81 68.96 68.14 67.51 67.20 67.09 67.19 66.85 66.77 66.42 66.22 65.39
38.55 39.00 43.41 43.89 44.54 45.21 44.21 44.97 47.72 46.29 43.85 47.48 47.10 48.56 51.03 54.36 57.49 60.61 63.50 65.85 66.56 67.50 67.20 66.86 66.93 67.24 67.33 67.92 68.03 67.46 68.10 68.39 68.69 69.14 69.09 68.01 68.19 67.47 67.06 66.11 65.91 65.82 66.02 65.14 65.11 64.47 63.69 64.92 64.60
39.09 43.39 43.32 43.37 44.96 43.90 43.70 46.25 45.35 45.82 46.78 49.89 48.66 49.15 49.37 49.83 52.31 54.97 60.59 64.47 65.56 67.22 67.73 67.53 67.33 67.25 67.47 67.53 67.56 67.46 67.89 67.58 67.70 68.23 68.90 68.57 67.46 65.29 65.18 65.18 64.42 64.90 64.63 63.21 62.42 61.93 62.42 63.61 64.57
37.76 40.26 42.16 43.71 44.84 44.95 45.83 44.13 44.97 46.11 47.58 48.81 48.36 48.87 48.63 48.51 49.40 50.22 51.25 59.86 65.41 66.47 68.31 67.70 67.75 67.61 67.69 67.42 66.92 67.04 67.07 67.31 67.52 67.56 67.85 68.30 66.79 65.30 64.53 64.05 64.21 64.13 63.99 62.77 61.99 62.02 62.15 62.71 64.05
42.18 41.57 41.58 42.25 41.54 42.49 42.26 43.03 41.83 45.62 47.21 45.99 46.90 46.23 47.33 48.03 48.70 48.49 48.99 50.03 56.17 66.47 68.15 68.41 68.20 68.27 68.25 67.65 67.04 66.64 67.18 67.15 67.22 67.67 67.76 67.99 66.98 65.40 64.47 63.65 63.83 64.17 63.50 62.27 62.17 62.12 61.54 60.94 62.79
41.93 37.73 40.40 42.04 40.67 40.45 40.70 39.32 40.09 42.59 45.06 45.09 45.08 45.35 47.28 47.09 48.50 48.35 48.97 48.82 50.22 56.22 67.65 68.37 68.02 68.60 68.29 67.77 67.54 66.86 67.04 67.11 67.02 67.16 67.18 67.29 66.62 65.32 64.13 63.46 63.29 63.87 63.43 62.12 61.48 61.24 62.50 62.24 62.62
36.31 36.43 31.11 38.34 40.50 41.55 40.60 35.91 42.67 42.71 42.57 42.78 44.16 46.36 47.21 48.15 48.59 48.97 48.66 49.11 49.99 51.08 61.08 68.37 69.04 68.00 67.83 68.36 67.61 67.13 66.91 66.88 67.02 66.82 66.93 66.22 66.24 65.64 64.46 63.35 62.80 63.37 63.51 62.98 62.56 61.93 61.34 61.56 61.95
31.83 29.09 31.13 35.02 39.75 39.61 38.92 36.69 42.72 43.15 43.68 44.13 45.18 45.96 46.70 47.47 48.39 49.02 50.08 50.38 51.82 52.38 53.93 66.73 68.09 67.49 67.75 67.75 67.71 67.21 66.31 66.60 66.19 66.68 66.71 65.79 65.84 65.44 64.70 63.63 63.15 63.69 63.55 63.13 62.66 62.05 61.18 60.06 60.83
24.08 28.01 28.61 30.64 37.24 38.23 36.94 37.27 41.45 44.10 42.56 41.74 42.00 43.39 44.64 46.02 47.10 49.18 50.26 51.68 51.98 53.02 53.21 64.12 67.10 67.55 68.04 68.08 67.68 65.65 65.64 65.53 65.99 65.96 66.35 65.20 65.50 64.85 64.35 63.49 63.40 63.45 62.95 62.77 62.54 61.70 61.67 60.31 60.33
32.47 30.35 28.76 32.47 36.81 35.64 34.68 35.20 38.27 42.05 38.33 39.08 41.45 40.40 40.99 42.85 46.27 47.47 48.35 49.48 50.29 51.16 52.02 58.90 65.31 66.80 67.71 66.89 66.04 64.86 64.84 65.44 64.78 65.19 65.58 65.54 64.62 64.24 63.74 63.21 63.24 63.88 63.13 62.53 62.51 61.83 60.97 60.63 61.21
32.53 29.89 29.43 33.53 36.49 35.44 34.12 34.19 38.28 38.14 38.89 39.28 39.10 39.06 39.97 40.85 42.66 44.48 45.42 46.21 47.92 50.38 51.38 55.91 64.56 66.41 67.46 67.08 66.67 65.80 66.01 64.75 65.07 65.09 65.44 66.62 65.79 65.01 64.30 63.53 63.41 63.52 62.76 62.30 61.81 61.00 60.49 60.57 61.31
32.77 31.43 31.67 31.71 35.64 36.71 33.65 32.34 35.50 39.20 39.18 41.02 42.19 42.31 42.05 41.71 42.65 44.07 45.06 44.75 44.49 46.81 49.32 55.31 63.09 66.21 67.20 67.28 66.61 63.88 64.10 62.85 62.26 64.17 64.83 65.08 65.50 65.12 64.52 64.04 63.77 63.41 63.07 61.67 61.46 60.87 60.46 58.87 60.18
28.54 35.12 34.61 33.32 31.29 26.51 32.89 24.26 34.03 37.20 38.43 40.66 41.77 42.38 42.98 43.84 45.32 47.17 51.17 51.49 51.62 49.91 48.14 54.74 62.09 66.04 66.76 66.90 65.44 64.14 63.73 62.74 63.82 63.90 64.56 64.53 64.50 64.70 64.17 63.70 63.25 63.05 62.96 62.03 61.73 61.84 60.82 60.00 58.11
30.59 36.37 34.37 33.93 30.82 29.99 30.83 26.27 32.60 36.06 35.66 38.08 40.28 46.32 47.94 48.93 50.40 50.71 50.77 51.94 53.03 53.58 53.55 61.02 63.97 65.88 66.64 66.01 65.36 64.15 63.19 63.38 61.91 62.52 63.31 63.34 63.75 63.77 63.24 63.53 62.87 62.77 62.91 62.30 61.92 61.42 60.58 60.25 59.00
37.51 34.36 34.20 34.74 31.28 23.01 28.68 28.42 29.58 33.24 36.24 39.03 46.68 47.95 47.59 47.45 47.87 48.65 50.30 50.85 51.23 54.36 56.56 57.67 65.46 65.75 65.79 65.46 64.80 63.78 62.53 61.52 61.41 62.16 62.03 62.24 62.80 63.11 62.97 62.80 62.73 62.63 62.52 61.93 61.82 61.43 60.70 60.24 59.12
33.70 29.05 22.30 19.36 21.94 21.19 32.12 28.61 31.14 38.11 41.14 41.92 44.44 45.46 46.00 46.02 45.23 45.01 45.90 47.07 48.10 49.27 55.05 53.34 64.94 64.97 65.17 64.49 63.89 62.98 62.16 61.37 61.34 61.17 61.08 61.41 61.33 61.48 61.98 62.06 61.85 61.97 61.99 61.72 61.60 61.21 60.63 60.28 59.28
28.53 30.35 23.11 16.85 19.25 24.10 32.34 25.51 30.77 42.32 45.31 46.36 46.20 44.82 43.34 42.29 42.47 42.47 44.39 45.27 45.86 46.94 48.58 55.73 60.36 64.15 63.81 62.87 62.55 62.57 62.25 61.64 61.36 60.91 60.08 60.53 60.58 60.11 61.22 61.71 61.85 61.75 61.85 61.76 61.46 60.95 60.69 60.44 60.03
32.00 28.83 33.62 26.81 28.47 24.98 30.16 33.93 39.99 42.63 42.45 42.35 41.89 40.98 39.61 38.75 39.29 39.54 41.51 42.44 43.33 44.03 45.46 48.09 56.69 59.01 62.02 61.56 61.82 60.98 61.15 61.15 60.97 60.03 60.64 60.63 60.15 59.75 60.47 60.62 60.35 61.23 61.45 61.35 60.97 60.51 60.24 60.04 59.90
35.08 38.01 25.43 27.87 19.29 19.56 28.07 31.54 32.62 34.91 38.96 40.19 37.34 36.64 36.68 36.46 36.40 37.48 39.37 39.40 41.13 42.12 43.57 46.00 48.26 52.78 58.41 60.12 61.20 61.63 61.16 60.17 59.79 60.03 60.12 59.47 58.71 59.03 58.92 59.45 60.15 60.49 60.45 60.76 60.63 60.13 60.37 59.91 59.61
33.69 31.76 32.31 31.71 30.01 23.21 23.87 27.54 33.51 33.90 36.45 36.32 36.32 35.52 34.73 34.32 33.96 34.52 35.98 37.53 38.67 40.17 40.65 42.62 44.92 47.29 51.45 57.97 58.40 59.30 58.98 59.37 58.94 59.25 58.44 57.64 56.82 56.30 57.35 58.49 58.77 59.41 59.69 59.88 59.73 59.77 59.88 59.34 59.15
36.33 33.55 32.99 24.70 26.15 30.47 28.71 27.84 36.16 34.61 34.40 34.38 33.74 34.11 34.02 33.43 32.35 32.29 33.93 35.16 35.67 36.77 38.21 40.75 42.88 42.80 46.30 54.79 57.28 58.54 59.61 59.45 58.53 57.96 57.64 57.06 55.38 55.90 56.76 55.42 56.72 57.10 57.81 59.35 58.99 58.79 59.07 59.02 58.52

GFSSGP_sfc_wetblb_105.txt.gz
Wetbulb
55.05 52.75 51.91 47.96 38.07 33.17 28.77 34.32 36.27 38.09 40.60 43.10 45.94 45.69 46.44 48.08 51.19 46.34 63.63 67.83 69.09 69.70 71.23 71.68 72.05 72.84 72.82 72.96 72.82 72.98 73.30 73.42 73.33 73.50 73.60 73.68 73.93 73.98 73.98 73.88 73.95 73.84 74.15 73.40 73.40 73.36 73.18 72.91 72.39
51.12 53.33 48.78 41.92 32.32 26.81 30.18 36.35 38.99 41.28 44.79 47.22 46.80 47.61 46.71 50.68 59.44 62.62 64.06 68.17 69.37 70.37 70.95 71.34 71.88 72.40 72.63 72.55 72.74 72.98 73.53 73.36 73.22 73.33 73.57 73.67 73.89 74.12 73.92 73.69 73.40 73.65 73.97 73.51 73.46 73.28 72.95 72.36 71.80
52.85 51.87 44.27 39.46 29.94 28.40 29.85 36.37 40.54 43.04 44.86 44.69 44.48 46.97 47.98 53.11 62.42 63.79 66.22 68.56 69.32 70.00 70.80 71.03 71.38 71.79 72.30 72.40 72.44 72.68 72.92 72.55 72.62 73.07 73.68 73.80 74.00 74.10 73.99 73.35 73.16 73.61 74.09 73.31 72.63 72.66 72.34 71.50 70.79
48.83 47.43 43.25 35.38 32.04 34.96 35.58 38.64 40.78 42.79 45.23 45.37 45.19 44.78 49.37 59.16 64.05 65.16 68.20 68.96 68.74 69.58 70.39 70.34 70.45 71.20 71.89 72.25 72.36 72.65 72.30 72.00 72.08 72.39 73.39 73.73 73.81 74.11 73.63 72.95 73.33 73.69 73.87 73.23 72.39 71.83 71.31 70.32 70.00
44.44 42.12 34.74 30.98 33.71 37.71 39.08 42.53 42.82 43.45 44.85 46.36 46.51 44.19 46.98 60.30 65.44 67.57 67.74 68.61 67.80 68.53 69.37 70.07 69.84 70.75 71.64 72.26 72.36 72.15 71.66 71.34 71.73 72.20 72.58 73.27 73.35 73.29 72.70 72.10 72.87 73.06 72.90 73.10 72.24 71.51 70.47 69.89 69.48
40.04 39.00 31.10 30.32 34.20 39.29 41.73 43.63 43.74 44.62 45.67 46.47 45.14 44.56 47.51 62.53 64.69 66.12 67.47 67.13 67.86 67.99 69.15 69.95 70.58 70.78 70.98 71.53 71.42 71.12 70.97 71.05 71.32 71.61 72.08 72.84 72.80 72.14 72.16 71.63 71.83 72.14 72.01 71.50 71.35 70.36 69.82 69.45 69.27
37.07 33.99 30.26 30.93 34.17 37.65 41.60 45.21 43.78 44.28 43.59 46.03 47.52 44.58 49.91 60.57 64.44 65.69 65.18 65.24 66.61 67.53 68.40 69.51 70.18 70.34 69.82 69.60 69.69 69.44 70.12 70.50 70.61 70.97 71.21 71.64 71.06 70.78 71.27 71.35 71.34 71.49 71.14 70.62 70.30 69.69 69.40 69.28 68.74
41.43 37.36 30.73 33.06 34.74 35.72 43.56 45.24 45.44 44.82 46.36 50.41 47.89 43.57 50.09 58.49 63.29 64.78 65.12 65.43 65.13 65.77 67.14 68.31 69.13 70.17 69.75 69.40 68.88 68.92 69.28 69.55 69.73 70.23 70.03 69.66 69.91 70.16 70.49 70.24 70.36 70.30 69.56 69.61 69.78 69.20 68.93 68.77 67.67
43.68 35.65 30.56 33.78 37.10 39.03 45.79 45.27 47.24 47.54 45.32 47.45 48.99 48.29 52.28 60.51 65.15 65.81 64.83 64.05 64.10 64.99 65.34 67.41 68.24 68.88 69.08 69.17 69.35 69.38 69.80 69.19 69.15 69.78 69.35 68.16 69.80 69.51 69.66 69.21 68.94 69.00 68.87 68.99 68.98 68.46 67.68 67.39 66.65
39.96 33.86 36.47 41.48 41.53 41.22 45.24 42.44 45.72 45.29 45.64 45.43 47.58 50.81 51.60 56.92 59.38 63.16 63.57 62.97 63.42 63.85 64.48 66.15 67.50 67.39 67.50 68.40 69.19 69.86 69.76 69.01 68.29 69.30 69.31 69.71 68.38 68.38 68.94 68.16 67.95 67.89 67.53 67.73 67.93 67.30 66.54 66.23 65.25
36.78 37.10 41.02 42.11 43.58 43.76 40.55 42.62 45.22 44.11 43.34 46.08 46.57 48.00 49.68 50.18 53.73 56.29 61.32 64.23 64.43 65.07 65.07 65.88 66.56 66.90 66.92 67.59 68.15 68.31 68.47 67.11 66.85 67.28 67.55 69.06 68.29 67.68 67.77 66.68 66.62 66.53 67.03 65.25 65.67 65.46 64.64 63.74 64.20
36.43 41.05 41.26 40.37 43.12 42.06 42.06 43.98 43.16 43.64 44.57 48.32 48.43 48.67 48.32 49.18 48.90 49.93 55.72 60.45 64.65 65.51 65.70 66.09 66.07 66.49 66.78 67.37 67.66 68.08 68.31 66.76 67.19 67.27 67.68 68.25 68.02 67.36 66.75 66.14 64.90 64.75 64.41 63.19 62.85 62.44 62.45 62.94 63.10
36.72 38.68 39.97 41.51 41.84 42.06 43.30 41.92 42.39 43.52 46.33 47.11 48.07 47.86 47.42 48.16 48.67 48.56 50.22 57.84 61.19 64.15 65.98 65.80 65.98 66.03 66.51 66.56 66.81 67.07 67.49 67.42 67.36 67.33 67.90 68.22 68.38 67.24 65.97 64.72 64.85 64.36 63.18 62.86 61.77 61.88 61.37 61.73 62.37
39.98 39.52 39.16 40.99 40.84 39.70 39.31 40.73 39.35 42.71 45.08 44.72 45.78 45.27 45.99 46.74 47.74 47.64 47.88 47.64 52.30 62.38 65.87 66.77 66.00 66.09 66.32 66.02 66.09 66.12 66.72 66.92 66.63 66.95 67.42 68.20 68.27 66.83 65.65 64.43 64.43 64.52 63.15 62.41 62.29 61.06 60.96 61.25 61.77
38.31 35.38 38.10 40.38 39.37 39.08 40.24 38.78 38.63 41.82 43.38 42.54 42.74 43.80 45.23 45.52 46.42 47.63 48.12 48.13 48.25 56.12 65.39 66.77 66.88 66.81 66.38 66.25 65.80 65.82 66.34 66.61 66.12 66.54 67.52 68.11 67.68 65.22 64.64 64.50 64.40 64.52 63.45 61.74 61.38 60.20 60.62 61.40 61.31
34.47 33.61 30.79 37.53 38.61 40.47 37.35 34.19 40.24 42.59 40.82 41.25 42.06 44.14 44.75 44.75 46.21 46.33 47.79 48.47 49.63 49.09 58.96 66.68 68.11 67.23 66.74 66.41 66.31 66.21 66.23 66.11 66.38 66.47 67.12 67.66 67.21 64.89 63.83 63.64 64.21 64.45 63.34 61.53 60.94 60.70 60.54 61.45 61.75
29.68 26.20 28.18 31.70 37.87 37.34 35.75 33.70 38.64 42.29 42.64 42.34 43.44 43.26 43.72 45.55 45.81 46.08 46.89 47.63 49.11 49.72 50.51 60.89 67.59 67.23 67.39 66.87 66.61 66.56 65.98 66.16 66.07 66.29 66.49 66.97 66.54 64.92 64.11 63.15 63.82 63.61 63.05 62.15 60.91 61.29 61.03 60.45 60.80
23.50 25.23 25.42 27.20 33.23 34.23 32.08 32.15 36.74 39.59 39.55 39.66 41.35 42.78 43.42 43.76 44.97 46.61 47.58 47.75 48.04 49.16 49.72 53.38 65.42 67.48 67.64 67.48 66.40 65.95 65.52 65.95 66.00 66.13 66.18 65.82 66.22 64.88 64.18 63.01 63.11 63.07 62.68 62.59 62.31 61.18 61.35 60.69 60.54
32.01 29.84 28.93 32.72 36.05 33.23 32.57 32.74 35.24 38.29 38.60 38.31 39.40 39.95 40.58 41.57 44.57 45.35 46.05 45.83 45.76 47.05 48.22 52.04 61.06 66.63 67.16 66.79 65.88 65.30 64.96 65.46 65.31 65.80 66.07 65.32 65.71 64.70 64.20 63.73 63.45 63.34 62.19 62.31 62.53 61.70 60.56 59.96 60.46
32.22 29.51 28.54 32.18 35.15 33.82 33.18 32.92 36.54 37.92 37.93 39.09 39.70 40.43 39.69 39.93 41.10 43.46 44.06 43.66 43.75 44.84 47.11 50.22 59.64 65.05 66.67 67.00 66.81 66.22 65.70 65.44 65.47 65.64 65.57 65.69 64.99 64.56 64.55 63.96 63.22 63.34 62.53 61.96 62.18 61.51 60.59 60.46 60.62
30.32 28.76 28.66 29.18 33.40 33.82 31.96 30.44 33.59 37.71 39.26 40.22 41.51 40.33 40.32 42.74 43.17 42.21 42.93 42.11 43.85 43.80 43.32 48.55 57.47 63.00 66.17 67.04 66.63 63.28 62.81 63.29 63.73 64.11 65.04 65.48 65.08 64.50 64.21 64.12 63.82 63.52 63.39 62.25 62.18 61.69 60.56 59.26 60.59
25.74 31.79 31.61 30.38 28.35 23.29 29.52 21.19 30.99 35.34 36.97 39.48 40.83 41.95 45.66 45.70 47.25 47.64 49.90 50.50 50.39 51.50 52.06 48.38 53.48 62.16 65.28 66.57 65.71 64.02 63.61 62.98 64.04 64.41 64.90 65.62 65.44 64.84 64.62 63.83 63.67 63.55 63.41 62.44 62.10 62.26 61.25 60.27 58.52
28.49 32.48 31.70 31.54 28.27 27.62 28.35 24.07 28.97 34.65 33.76 37.07 39.30 45.17 44.50 45.59 45.88 45.68 47.08 48.72 49.32 51.08 53.66 54.12 50.93 60.26 64.22 66.04 65.72 64.45 63.42 63.64 62.77 63.81 63.58 64.43 64.54 64.32 64.48 63.91 63.53 63.27 63.23 62.52 61.93 61.62 61.05 60.96 59.73
35.49 32.07 31.41 30.52 28.06 20.70 26.84 25.30 26.55 30.11 34.36 37.35 42.56 42.45 42.32 42.27 42.98 44.44 46.08 47.49 47.80 48.40 49.53 54.33 58.62 61.32 64.54 65.74 65.35 64.14 63.41 62.53 62.44 62.92 63.04 63.25 63.34 63.79 63.79 63.69 63.56 63.24 62.99 62.31 62.09 62.02 61.35 60.75 60.38
30.60 26.52 18.35 14.93 17.78 18.43 29.03 25.85 28.55 38.44 41.51 41.91 41.29 40.44 40.10 39.70 39.75 41.43 42.66 43.25 45.02 44.95 46.58 50.15 58.41 63.03 64.50 65.34 65.10 64.59 63.61 62.29 61.98 62.43 62.95 62.56 62.35 62.25 62.75 63.09 62.59 62.48 62.86 62.48 62.21 61.77 61.39 60.75 59.99
26.86 26.24 20.09 14.55 16.24 20.20 29.79 24.25 31.28 40.61 41.42 41.04 39.91 38.28 37.75 37.30 37.04 38.53 40.43 41.41 41.94 43.00 43.98 46.01 49.09 53.13 65.01 64.98 64.65 64.50 62.62 61.82 61.98 61.92 62.75 61.76 61.75 62.55 62.64 62.62 62.61 62.66 62.32 62.12 62.16 61.79 61.51 61.08 60.47
28.91 21.97 29.53 24.53 25.99 21.41 23.98 30.69 38.02 36.15 35.96 36.04 35.05 35.66 35.17 34.50 34.04 34.48 36.85 39.21 40.26 41.06 41.54 43.74 45.96 48.76 52.21 63.70 63.94 63.28 61.57 60.39 60.69 60.75 60.98 61.34 60.66 59.76 61.02 62.01 61.84 61.64 61.60 61.70 61.40 60.90 60.26 60.62 60.29
31.55 33.35 22.33 25.49 18.35 15.67 24.22 27.68 26.46 29.62 31.53 34.25 33.01 33.31 33.40 33.03 32.28 32.68 34.23 36.10 38.09 39.71 40.90 41.80 44.68 45.64 48.61 56.87 62.38 61.35 60.52 60.47 59.64 59.42 58.64 58.76 58.72 59.40 59.38 59.50 59.95 60.27 60.80 61.01 60.90 60.58 60.17 59.83 59.97
30.33 30.09 30.79 29.62 27.39 19.44 19.45 23.19 31.92 29.82 31.18 31.45 32.02 32.17 31.84 30.55 30.44 31.13 32.45 34.31 35.52 38.07 38.76 40.42 41.81 43.74 45.71 48.71 56.14 59.93 59.41 58.82 59.02 58.86 58.06 58.78 59.02 58.74 58.91 58.95 58.83 59.09 59.80 60.22 60.20 60.28 60.01 59.43 59.39
31.52 29.29 33.04 26.47 24.35 28.16 27.02 22.39 34.25 31.74 31.65 31.17 30.02 30.86 30.77 30.17 29.98 30.67 31.25 32.40 33.87 34.57 36.09 37.89 40.42 42.13 43.88 46.49 50.78 58.58 58.60 58.88 58.56 57.92 58.08 57.78 57.50 57.42 58.02 57.56 57.66 57.82 58.00 59.12 59.26 59.16 59.42 59.05 58.75

GFSSGP_sfc_wetblb_108.txt.gz
Wetbulb
54.26 51.57 50.24 45.69 36.84 32.71 27.74 32.84 34.72 36.56 37.91 41.34 44.33 44.29 43.80 45.10 47.44 45.58 62.90 66.91 68.23 69.14 70.71 71.54 72.03 72.80 72.85 72.85 72.77 72.90 73.36 73.65 73.83 73.68 73.85 73.86 73.90 74.00 73.94 73.97 73.86 74.05 74.09 73.86 73.41 73.38 72.99 72.89 72.59
49.82 51.99 47.98 40.47 31.30 26.54 29.37 34.18 36.67 38.99 42.70 44.86 44.83 44.68 44.39 46.27 56.41 60.97 63.56 67.52 69.02 69.80 70.44 71.25 71.71 72.33 72.59 72.50 72.73 72.78 73.57 73.57 73.39 73.65 73.74 73.92 74.02 74.06 73.96 73.62 73.37 73.59 74.01 73.94 73.41 73.14 72.92 72.35 71.96
51.07 50.30 42.74 37.86 28.22 28.07 29.64 34.35 38.01 40.67 43.27 42.90 42.96 44.64 45.46 47.74 59.33 62.56 65.12 67.96 69.33 69.41 70.21 70.98 71.46 71.73 72.32 72.42 72.50 72.68 72.48 72.47 72.84 73.09 73.80 73.97 74.02 74.06 73.88 73.09 73.08 73.58 74.15 73.76 73.37 73.09 72.43 71.66 71.00
48.08 46.49 41.73 34.15 30.21 34.00 34.09 37.46 39.76 41.79 44.17 43.96 43.37 43.82 47.29 54.00 61.19 63.65 67.52 68.61 68.70 69.13 70.08 70.18 70.63 71.28 72.10 72.29 72.52 72.55 72.04 71.66 72.08 72.71 73.39 73.77 74.10 73.96 73.41 72.77 73.10 73.60 73.68 72.59 72.12 72.39 71.81 70.46 70.04
43.44 41.27 32.86 29.46 32.27 36.34 37.99 40.10 41.45 42.57 44.06 45.17 44.13 43.61 44.68 51.14 65.01 66.99 67.35 68.58 67.99 68.76 69.32 70.18 69.69 70.90 71.81 72.41 72.59 72.14 71.46 71.21 71.66 72.36 72.80 73.27 73.62 73.66 72.88 72.50 72.86 72.81 72.87 72.32 71.29 71.95 70.59 69.99 69.72
39.26 38.16 30.04 27.19 31.63 37.92 40.35 41.77 42.72 43.21 44.44 45.57 44.14 43.03 45.88 57.37 63.67 65.81 67.00 66.77 67.68 68.09 68.72 69.62 70.47 70.63 70.94 71.54 71.66 70.92 70.78 70.75 71.24 71.83 72.14 72.72 72.81 72.46 72.19 71.82 72.19 72.11 72.15 71.58 71.36 70.46 70.00 69.65 69.22
36.11 33.76 28.70 29.60 32.58 36.87 40.21 43.77 42.60 42.53 41.89 45.27 46.43 43.50 46.09 55.55 63.13 64.84 64.80 65.62 66.45 67.26 68.87 69.46 69.66 70.38 69.89 69.62 69.67 69.51 69.96 70.36 70.65 70.94 71.24 71.64 71.08 71.03 71.38 71.54 71.49 71.36 70.71 70.91 70.51 69.74 69.38 69.46 68.64
38.14 35.72 29.10 31.47 34.04 34.97 42.27 44.00 43.88 43.45 45.07 49.71 46.95 42.99 44.57 51.32 62.13 64.50 64.72 64.27 65.02 66.50 68.23 68.58 69.45 68.99 68.95 69.35 68.65 68.86 69.33 69.46 69.69 70.18 70.25 69.83 69.73 70.25 70.44 70.19 70.45 70.45 70.53 70.34 69.72 69.11 68.97 68.70 67.54
41.36 33.59 28.89 32.76 35.71 37.43 44.36 43.68 46.20 46.31 44.64 46.31 48.26 47.89 49.69 56.11 64.46 64.08 63.33 63.06 62.40 64.35 66.63 67.82 67.97 68.61 67.80 68.86 69.06 69.37 69.76 69.22 69.17 69.76 69.28 68.13 69.71 69.37 69.73 69.50 69.18 69.59 69.35 69.14 69.07 68.51 68.08 67.39 66.85
38.52 33.18 34.05 40.20 40.04 39.96 43.83 40.57 44.39 44.29 44.06 44.85 46.84 49.52 50.74 54.73 59.54 61.91 61.47 60.34 61.50 61.92 63.27 66.58 66.96 67.81 68.56 68.86 69.19 69.69 69.91 69.91 69.89 69.84 69.56 69.15 68.04 68.00 69.42 68.72 67.95 67.98 67.75 68.27 68.13 67.66 67.01 66.77 64.77
36.19 33.66 39.09 41.27 42.94 42.52 40.55 41.64 43.93 42.39 41.13 44.57 45.40 46.98 48.91 48.48 52.94 58.83 59.09 62.19 62.27 62.56 62.97 65.12 66.32 67.21 67.18 67.70 68.14 68.85 69.19 68.74 68.27 68.83 69.21 69.37 68.36 67.05 67.88 67.75 67.98 66.80 67.39 67.03 67.10 66.42 66.13 64.71 63.99
34.49 38.85 39.53 39.47 41.81 41.17 41.07 41.67 41.14 42.33 43.29 46.59 46.76 47.39 47.07 48.16 47.39 49.67 54.42 58.60 62.09 64.27 63.90 64.14 64.89 65.89 66.31 66.80 67.52 67.31 67.81 67.50 67.02 67.28 67.80 68.34 67.89 67.66 66.89 66.50 65.42 65.60 65.58 64.12 64.98 64.77 63.50 63.55 63.92
35.20 37.07 38.11 39.83 40.38 39.47 40.71 38.52 39.73 41.09 43.78 45.26 45.75 46.53 46.08 46.65 47.31 47.47 48.87 51.12 58.36 63.69 65.67 65.04 64.69 65.54 65.63 66.43 66.87 66.91 66.96 67.74 67.17 66.72 66.59 67.48 68.05 67.78 67.57 66.39 65.72 64.77 63.54 63.42 62.74 62.31 62.47 61.85 62.74
36.87 35.68 36.25 37.44 38.95 39.13 38.47 39.94 38.62 41.77 43.74 43.29 43.23 43.52 45.11 45.25 46.86 46.31 46.84 49.52 49.92 58.49 63.53 66.05 65.42 65.28 65.72 66.10 65.53 66.16 66.90 67.38 66.95 66.52 66.21 66.92 68.11 67.70 67.06 65.76 65.75 63.93 63.78 62.81 62.48 62.15 62.02 61.89 61.80
36.16 32.47 34.03 35.81 35.61 36.68 38.08 33.69 36.01 40.22 41.77 40.99 41.27 41.52 42.63 43.86 44.85 45.24 46.78 46.14 47.27 49.07 56.55 64.71 65.87 65.72 65.23 65.71 64.62 65.09 65.78 66.43 66.52 66.22 65.50 66.68 67.35 67.37 66.54 65.64 65.46 65.20 62.53 61.43 60.91 59.90 60.00 60.15 61.09
32.19 30.27 26.40 33.24 36.02 36.41 35.56 30.63 36.71 38.81 40.01 39.49 40.02 41.38 42.90 43.38 43.81 45.14 45.42 46.75 47.05 47.10 49.98 57.37 66.39 65.56 65.43 65.38 65.32 64.84 64.84 65.04 65.12 65.59 66.27 67.12 66.98 66.83 65.98 65.35 65.05 65.12 63.29 61.43 60.94 60.21 59.86 60.08 60.95
27.61 22.66 24.41 28.98 33.76 33.88 32.90 31.12 35.45 40.17 38.08 38.21 39.16 37.89 39.47 42.43 43.93 44.16 44.98 46.02 47.41 47.48 48.09 50.86 63.12 65.60 65.53 65.54 65.38 64.83 65.06 65.29 65.63 65.52 65.63 66.24 66.71 66.39 65.53 65.29 64.83 64.45 63.13 62.30 61.45 59.90 60.15 60.14 60.53
22.30 23.07 22.53 24.24 32.31 33.37 30.32 31.34 36.24 37.30 36.92 37.65 38.38 38.83 39.02 40.50 42.45 44.83 45.33 44.59 45.91 47.26 46.86 47.91 56.41 65.50 66.01 66.25 65.67 65.60 65.17 65.13 65.47 65.65 65.48 65.89 66.30 66.01 65.80 64.48 64.16 63.78 62.93 62.09 61.46 60.59 61.48 61.08 60.89
28.73 27.57 27.01 29.71 33.95 31.70 30.67 31.52 34.71 37.32 36.22 36.49 37.59 38.86 39.14 39.64 43.29 43.06 42.83 42.95 43.32 43.74 45.22 46.76 48.04 57.51 65.74 65.94 65.33 65.18 63.98 64.95 65.02 65.41 65.61 65.94 66.14 65.63 65.31 64.27 63.55 63.09 62.38 62.14 61.78 61.64 60.46 59.70 60.79
29.29 26.98 25.91 30.01 33.15 31.78 30.10 30.52 34.17 35.98 35.59 36.97 38.46 38.94 39.19 39.76 44.31 48.25 47.56 42.23 40.83 42.35 43.16 45.02 46.84 49.46 64.07 64.95 66.05 65.81 65.63 65.65 65.90 65.76 65.60 65.51 65.70 65.39 64.98 64.21 63.41 62.81 62.47 62.36 62.17 61.54 60.30 60.29 60.28
28.10 26.59 26.78 27.77 29.39 30.51 28.71 27.32 30.18 34.96 37.55 39.03 39.83 41.03 41.81 43.81 44.49 45.69 46.92 47.94 49.33 49.15 49.73 48.30 45.84 50.47 61.36 64.76 66.20 65.31 65.29 64.66 64.14 64.23 64.83 65.24 65.38 65.07 64.96 64.62 63.87 63.23 62.79 62.18 62.34 62.04 60.90 59.36 60.00
23.47 30.86 30.33 28.24 25.31 21.35 29.51 19.01 28.64 31.91 34.22 36.84 38.71 40.17 42.71 43.86 44.34 44.39 44.81 45.88 47.14 47.51 48.55 50.26 53.16 49.59 60.95 65.00 65.36 64.43 63.38 62.47 63.58 64.17 64.65 64.98 65.09 65.07 65.16 64.76 64.03 63.40 63.44 62.64 62.30 62.58 61.61 60.31 58.83
26.95 31.41 28.99 27.96 25.07 24.54 25.29 20.70 26.14 32.15 31.09 35.36 40.25 41.44 40.25 40.56 41.74 41.96 43.01 43.76 45.43 46.81 46.02 47.29 49.90 53.22 56.66 64.26 64.88 64.70 63.53 63.39 63.55 64.52 63.99 64.32 64.62 64.97 64.76 64.58 64.27 63.66 63.45 63.14 62.63 62.09 61.69 61.01 60.10
33.33 30.30 29.39 27.84 24.33 17.64 24.18 21.84 23.39 27.41 34.74 36.76 39.66 39.62 39.61 38.89 38.88 39.54 41.02 42.17 42.41 43.75 44.75 45.41 50.23 55.02 54.76 63.40 64.72 64.36 63.31 62.48 62.03 63.49 63.36 63.28 64.34 64.29 64.47 64.10 63.94 63.89 63.46 63.21 62.65 62.18 61.78 61.16 60.76
29.35 24.38 16.18 13.56 17.24 16.19 25.64 22.76 25.10 34.41 35.54 35.18 35.02 35.84 36.42 36.45 36.40 36.80 36.33 37.81 39.91 41.29 42.25 44.26 46.94 51.51 59.10 62.40 64.38 64.12 63.18 62.46 62.15 62.79 63.13 62.73 62.66 63.35 63.53 63.50 63.46 63.29 63.40 63.09 62.71 61.93 61.71 61.17 60.69
24.12 24.82 19.05 12.41 15.00 17.80 26.53 20.37 30.45 35.76 36.06 36.15 36.03 35.61 34.32 33.45 33.96 34.02 34.80 36.24 37.43 39.54 41.05 41.80 44.66 47.04 50.79 61.76 64.32 64.65 63.15 61.95 62.11 62.67 62.98 62.88 62.11 63.02 63.08 62.99 63.00 63.22 63.27 62.97 62.52 62.11 61.73 61.64 61.07
25.96 21.87 27.41 21.78 23.08 18.19 21.57 26.68 34.00 32.99 32.58 33.41 33.52 33.39 31.82 31.01 31.65 32.45 33.38 34.62 35.73 37.89 39.77 41.97 42.53 44.90 47.88 51.12 62.65 63.86 63.40 62.20 61.48 61.96 62.26 62.98 62.07 61.23 61.31 62.39 62.42 62.81 62.49 62.21 61.82 61.78 61.18 61.20 61.19
28.36 31.85 21.04 24.44 12.84 14.60 20.05 23.38 22.36 26.41 28.45 30.50 30.33 30.40 29.95 30.27 30.68 31.00 31.77 32.83 34.17 35.91 38.26 41.35 41.90 43.04 45.63 48.69 52.46 62.41 61.64 61.09 60.34 60.30 60.71 61.08 61.02 60.48 61.34 61.10 61.43 61.47 61.59 61.37 61.21 60.98 61.20 60.55 60.60
27.24 26.36 26.80 26.05 25.04 17.83 14.40 19.08 30.37 27.32 28.38 27.78 28.96 29.47 28.98 29.05 28.99 29.65 30.79 32.17 32.42 34.66 36.26 37.64 40.35 40.98 43.49 45.88 49.73 58.10 60.61 60.32 60.38 60.24 60.10 60.00 59.18 59.12 59.66 60.12 59.96 59.56 59.98 60.09 60.09 60.44 60.23 59.68 59.74
29.07 26.78 27.07 20.55 24.25 26.71 23.75 20.80 31.33 29.18 28.86 28.08 27.23 28.12 28.47 29.13 28.37 28.87 29.83 30.89 31.15 32.42 34.35 34.95 38.72 40.38 41.53 44.95 49.72 58.32 59.22 59.66 59.30 58.94 58.74 58.56 58.24 58.46 58.08 58.42 58.05 58.26 58.32 58.78 59.28 59.26 59.76 59.21 58.91

GFSSGP_sfc_wetblb_111.txt.gz
Wetbulb
57.93 55.88 56.36 52.72 44.45 43.29 38.74 40.25 42.58 42.81 44.24 47.41 47.75 47.41 47.65 48.77 47.25 49.38 67.35 68.86 70.52 71.66 73.12 73.17 72.08 72.56 72.68 72.94 73.05 73.25 74.14 74.52 74.35 74.03 73.79 73.70 73.75 73.80 73.77 73.89 74.05 74.28 74.39 74.24 73.91 73.59 73.59 74.02 73.10
54.53 55.12 53.92 48.26 40.62 37.06 38.59 41.27 41.59 44.89 46.26 47.73 47.88 48.16 48.11 48.27 54.20 60.54 66.93 69.54 71.01 72.05 72.97 73.34 71.96 72.25 72.55 72.57 72.76 73.18 74.03 74.24 74.09 74.05 74.08 73.87 73.83 73.92 73.91 73.63 73.41 73.85 74.26 74.27 73.53 73.33 73.35 72.86 72.22
55.47 53.56 50.20 46.77 39.43 37.69 38.76 40.21 43.48 45.08 46.53 46.71 47.51 49.26 49.29 50.81 56.55 63.79 69.31 70.63 71.42 71.67 72.60 73.08 71.55 71.70 72.23 72.40 72.46 72.86 73.13 73.25 73.35 73.76 74.09 74.07 74.15 74.16 73.88 73.12 73.08 73.74 74.31 74.24 73.56 73.30 72.59 71.93 71.19
54.08 53.20 48.24 41.82 38.67 40.59 40.43 42.20 43.72 45.80 48.29 48.41 48.23 48.23 51.98 56.50 62.43 66.83 69.54 70.59 71.10 71.47 72.38 71.09 70.73 71.44 72.04 72.51 72.60 72.57 72.37 72.20 72.55 72.98 73.78 74.07 74.12 74.13 73.52 72.88 73.26 73.69 74.06 74.24 73.79 73.06 71.86 70.79 70.64
50.75 48.63 41.66 39.32 39.11 42.16 44.15 44.45 46.15 46.18 47.14 48.39 48.53 48.33 50.47 55.49 65.14 68.30 69.27 70.50 70.40 71.33 72.33 71.97 69.95 71.09 71.97 72.45 72.56 72.05 71.44 71.41 71.97 72.66 72.90 73.37 73.77 73.56 72.67 72.43 72.79 73.27 73.18 72.73 73.08 71.97 70.92 70.32 70.05
45.73 46.27 39.20 37.02 39.02 42.59 45.17 46.53 47.07 46.59 47.56 48.76 48.38 48.76 51.37 56.09 62.26 67.37 69.71 69.89 70.99 71.13 71.93 72.35 70.36 70.74 71.09 71.62 71.67 70.85 70.64 71.12 71.46 72.02 72.36 73.09 73.00 72.49 72.21 72.35 72.34 72.31 71.87 71.20 71.34 70.88 70.32 70.05 69.74
43.44 42.35 38.32 37.41 38.99 41.79 44.40 47.64 46.64 46.98 47.48 49.18 50.47 48.24 52.27 54.98 64.56 67.03 68.31 69.38 70.23 71.08 71.59 71.86 71.38 71.18 69.95 69.77 69.86 69.36 69.93 70.29 70.75 71.18 71.43 71.83 71.30 71.11 71.66 71.81 71.68 71.83 71.31 71.08 70.63 70.18 69.80 69.66 69.02
44.43 43.70 37.10 38.80 39.17 40.43 45.27 47.37 49.05 48.39 48.37 52.33 51.97 48.10 50.08 54.81 66.08 67.38 67.99 68.54 68.80 69.28 71.16 71.36 70.73 70.88 72.15 72.73 68.82 68.84 69.07 69.42 69.92 70.42 70.33 70.02 70.20 70.44 70.75 70.68 71.16 71.20 70.66 70.49 70.11 69.40 69.31 68.97 68.12
46.42 41.32 37.30 39.04 39.52 41.95 46.81 46.19 49.99 51.14 49.67 50.10 51.56 51.63 54.08 55.44 64.35 66.37 66.37 66.73 67.96 66.93 68.54 69.78 70.02 70.15 71.58 72.33 71.69 69.67 69.50 69.20 69.27 70.22 69.57 69.13 73.26 73.07 72.47 70.86 69.62 69.96 69.76 69.44 69.24 68.75 68.26 67.54 67.27
45.66 40.77 39.66 43.49 44.12 43.91 46.66 46.45 47.62 47.36 48.42 48.64 50.02 52.68 53.80 53.76 55.92 56.70 64.36 64.91 65.72 66.27 65.97 67.76 68.41 68.82 70.50 70.85 71.47 72.22 71.61 71.81 71.95 72.07 72.45 72.65 72.73 72.75 72.05 70.56 68.08 68.46 68.26 68.21 68.16 67.96 67.36 67.63 69.92
42.18 38.60 42.73 44.93 46.69 47.11 46.38 46.12 48.15 46.13 44.23 47.22 47.14 49.07 51.19 52.09 52.84 53.67 59.06 66.08 65.79 66.79 67.27 66.84 67.00 68.27 69.15 69.52 69.23 69.98 70.68 70.54 70.58 70.87 71.20 71.81 71.37 72.08 72.03 72.13 71.54 72.00 69.05 70.85 69.27 69.20 69.77 70.02 69.73
40.22 42.81 43.74 44.39 45.18 43.58 42.84 45.23 44.04 44.92 45.47 48.64 49.19 50.04 49.76 50.29 51.70 52.12 54.65 58.61 66.33 67.44 67.27 68.11 68.32 67.18 67.90 68.40 68.39 69.03 69.63 69.54 68.92 69.26 69.99 70.15 69.06 69.86 70.70 71.00 71.51 71.27 71.21 71.12 70.44 70.28 69.95 69.90 69.40
39.75 41.24 41.62 42.51 41.73 41.93 43.34 42.04 43.20 43.71 47.29 48.33 47.40 47.64 48.05 48.40 49.59 51.17 52.28 53.79 59.25 65.85 68.44 67.70 68.36 68.24 67.21 67.02 67.48 68.18 68.26 68.36 68.37 68.73 69.28 69.27 68.32 68.55 69.24 70.01 70.65 71.01 70.68 69.99 69.80 69.34 69.30 69.08 68.70
40.88 39.60 39.55 40.48 41.38 41.61 40.64 42.14 42.07 44.58 45.70 45.16 45.21 45.77 46.42 46.78 48.21 49.58 51.33 51.98 53.85 56.90 63.49 69.39 68.12 68.42 68.15 66.78 66.75 67.38 67.76 68.04 68.01 69.30 70.27 69.34 68.98 68.54 68.72 68.35 69.33 69.79 69.80 69.41 69.33 68.48 68.37 68.47 68.35
39.05 36.25 38.02 40.06 41.23 40.80 41.07 38.32 39.48 43.10 43.82 43.35 43.99 45.09 45.73 46.49 47.60 48.38 50.18 51.16 52.58 54.09 56.34 64.49 68.83 68.67 67.89 67.91 67.85 67.31 68.07 67.98 67.62 69.37 70.94 70.38 70.59 69.85 68.43 68.01 67.50 68.63 68.58 68.69 68.29 68.16 68.32 68.02 67.64
36.96 35.27 32.68 37.78 38.92 39.43 40.76 34.16 41.26 42.59 42.46 41.96 43.05 43.92 44.61 45.84 46.68 47.80 49.89 50.39 51.68 52.82 53.92 57.03 64.14 68.52 68.24 68.38 68.51 68.45 68.32 68.75 68.77 69.50 69.92 70.45 70.50 69.94 68.70 67.11 67.24 68.19 67.15 67.37 67.14 66.94 66.72 66.73 66.69
33.38 31.07 30.39 33.83 39.11 37.93 38.12 34.70 40.21 43.34 41.82 41.38 42.69 43.52 44.25 44.98 46.34 47.49 48.66 49.93 50.86 51.77 53.76 55.22 58.03 65.65 68.16 68.59 68.62 68.51 68.44 68.38 68.76 69.16 69.06 69.48 69.89 68.41 68.09 67.32 66.56 66.98 66.24 65.64 66.10 66.14 66.46 65.35 65.16
30.08 29.92 30.37 31.56 36.84 38.13 36.25 35.82 39.58 41.13 41.22 40.96 41.89 43.03 43.33 43.97 45.10 47.52 48.28 49.12 49.55 50.79 52.61 53.83 55.50 59.33 66.76 68.31 68.75 68.22 67.85 68.21 68.45 68.06 67.53 67.84 67.84 66.99 67.51 67.28 66.15 66.00 65.05 64.45 63.98 64.35 64.84 65.45 65.35
33.43 31.41 30.99 34.26 37.38 34.97 35.01 35.05 37.01 39.42 39.55 39.77 41.35 41.79 42.69 43.91 46.52 47.52 51.26 52.97 51.44 50.22 49.86 50.97 52.65 55.76 62.03 65.48 65.56 64.95 64.03 65.40 66.91 66.91 67.28 67.16 67.13 66.69 66.81 67.16 65.28 65.44 64.54 64.06 63.26 63.54 62.89 62.64 63.53
32.46 30.72 30.81 33.89 36.01 35.02 33.93 33.01 36.30 37.57 38.56 39.64 40.01 41.54 42.81 44.32 47.00 49.68 50.28 50.55 51.31 52.41 53.57 54.63 54.58 52.19 54.60 63.56 66.40 66.50 65.66 65.58 66.76 66.24 66.29 66.58 66.65 66.47 65.91 65.99 64.88 64.82 64.52 63.61 63.01 62.70 61.77 62.30 62.69
31.42 30.22 30.05 29.82 32.96 34.04 32.59 31.34 34.37 37.31 38.72 40.20 43.41 45.01 45.16 44.67 44.50 46.26 47.15 47.94 48.40 49.70 50.56 51.34 53.24 55.34 56.38 56.13 64.49 67.20 67.41 67.26 65.01 64.99 65.49 65.33 66.13 66.20 65.73 65.66 65.18 64.53 64.40 63.29 63.29 63.02 62.29 60.60 61.31
27.54 33.04 31.99 30.26 28.52 25.11 32.98 23.26 31.66 34.56 36.29 40.85 41.56 40.96 40.01 40.21 40.85 41.68 43.13 44.03 45.70 47.43 48.62 49.70 50.77 52.12 55.13 57.70 59.66 65.25 64.29 63.00 64.10 65.11 65.86 65.51 65.75 65.91 65.76 65.06 64.91 64.31 64.13 64.12 63.61 63.59 63.10 62.79 59.83
30.51 33.48 31.56 31.38 29.17 28.14 28.68 24.80 30.56 34.49 33.90 35.21 36.72 37.34 37.16 37.02 36.45 37.00 38.15 39.49 41.34 43.30 44.24 45.66 48.08 51.00 54.68 57.40 59.77 65.34 65.32 65.75 66.21 66.63 66.48 65.53 65.20 65.53 65.16 65.15 64.62 64.04 64.44 64.66 63.56 63.30 63.20 63.53 61.94
34.69 32.30 31.75 31.39 28.59 20.78 27.00 26.30 27.48 31.23 32.31 33.32 34.83 35.97 35.63 34.81 34.25 34.98 36.95 37.43 38.43 40.33 41.24 42.93 44.83 47.70 53.09 58.08 58.83 64.76 65.69 65.15 65.49 65.87 64.66 64.62 65.06 64.52 64.88 64.78 64.42 64.38 64.00 64.24 63.43 63.81 63.56 62.50 62.33
31.79 27.96 21.48 19.50 19.85 19.60 28.60 25.78 29.02 33.26 34.86 33.96 33.45 33.57 34.73 34.76 32.99 32.96 33.46 34.73 36.21 37.65 38.71 40.83 43.22 44.39 48.40 53.23 58.28 64.53 66.02 66.39 65.99 65.65 65.44 64.34 63.78 63.59 63.90 64.57 63.91 63.93 63.89 64.20 64.31 63.61 63.17 62.84 61.98
28.16 26.87 21.56 14.09 17.38 21.35 28.17 22.68 29.57 34.44 35.63 35.64 35.08 34.14 33.57 33.06 32.10 31.60 32.53 33.60 34.02 35.76 37.97 38.72 42.22 42.84 46.15 49.64 55.70 63.88 64.05 64.24 65.74 66.19 65.86 65.35 64.84 64.07 64.40 64.26 64.28 64.17 64.05 63.93 64.15 63.72 63.08 63.02 62.31
26.99 23.99 30.47 23.64 25.02 20.29 24.13 28.56 32.03 33.32 32.66 32.81 31.86 32.09 30.96 31.07 30.98 30.56 31.59 32.44 33.39 34.08 35.06 38.31 40.50 42.39 44.59 47.11 50.65 61.58 63.98 64.00 64.68 65.81 66.51 66.42 66.04 64.56 64.49 64.51 63.45 63.67 63.52 63.14 63.71 63.70 62.40 62.44 62.31
30.55 33.11 24.29 25.19 16.21 15.53 23.61 25.57 27.99 26.81 27.86 29.39 28.86 28.80 29.48 29.92 29.43 29.81 30.13 31.28 32.83 33.73 34.38 36.96 39.33 41.29 43.25 45.32 49.02 53.07 64.31 63.58 63.87 65.06 65.26 65.48 65.52 64.16 63.73 63.57 63.31 63.20 62.63 63.25 62.70 62.67 62.59 61.89 61.91
27.65 26.37 28.00 27.77 25.32 20.68 20.05 23.79 29.78 26.58 27.37 26.66 27.60 28.33 28.49 28.51 28.46 28.51 29.44 30.61 31.88 32.65 33.15 34.29 35.43 38.59 41.84 43.38 46.52 52.74 61.71 62.57 63.24 62.99 64.93 64.93 63.89 62.60 62.73 63.30 64.07 62.87 61.56 62.29 62.06 62.05 61.59 61.00 61.19
30.78 28.52 28.17 22.67 21.93 25.77 24.89 23.55 29.29 28.25 27.73 27.37 26.87 27.52 28.38 28.69 28.35 28.64 28.44 29.39 30.14 30.33 31.09 32.25 33.29 35.10 38.86 42.89 45.38 47.66 51.65 60.81 60.76 60.82 60.85 61.42 60.80 62.42 62.54 62.20 61.28 60.60 60.98 61.25 60.66 59.88 60.38 60.42 60.68

GFSSGP_sfc_wetblb_114.txt.gz
Wetbulb
60.38 59.29 60.57 57.06 48.30 46.99 45.06 45.15 47.96 46.77 47.49 50.99 51.21 49.82 49.52 51.92 50.09 50.62 62.75 72.40 72.55 73.53 75.65 74.38 72.11 72.76 72.95 73.33 73.56 73.98 74.50 74.85 74.23 73.85 73.97 73.77 73.87 74.04 74.21 74.11 74.20 74.48 74.81 74.28 73.70 74.46 74.18 73.64 73.63
58.09 57.52 58.15 54.27 45.96 44.12 45.94 48.08 46.09 47.93 49.11 50.37 50.91 50.82 51.24 50.98 56.32 59.58 65.28 71.51 72.32 74.06 75.13 74.72 71.82 72.39 72.77 72.82 73.28 74.07 74.77 74.78 74.20 74.00 73.92 73.92 73.80 74.09 73.96 73.90 73.94 74.22 74.71 74.59 73.51 73.77 74.29 73.29 72.59
57.57 57.92 53.52 50.22 47.30 44.73 46.08 47.88 47.89 48.19 49.75 49.73 50.25 52.77 52.68 53.13 59.65 62.47 67.59 71.97 72.91 73.88 74.80 74.74 71.45 71.62 72.43 72.49 73.01 73.64 74.06 73.81 73.86 73.65 74.04 74.07 73.98 74.10 73.91 73.39 73.56 74.09 74.73 74.51 73.72 73.74 73.23 72.25 71.49
55.73 54.59 52.60 46.71 46.06 47.79 47.92 49.00 48.08 48.19 50.34 51.41 51.58 50.54 54.73 61.22 60.53 65.08 69.60 72.82 72.86 73.91 74.91 71.86 70.68 71.45 72.01 72.37 72.69 73.12 73.01 72.79 73.17 73.25 73.71 74.08 74.02 74.07 73.63 72.90 73.56 74.11 74.53 74.46 74.24 73.22 72.12 71.20 70.72
56.31 54.21 47.46 45.90 47.04 49.16 50.09 49.93 49.53 48.59 49.85 50.96 51.88 50.62 52.85 58.60 63.36 66.11 68.95 72.65 72.15 73.72 74.80 74.52 69.74 71.03 72.01 72.48 72.62 72.35 72.24 72.21 72.65 73.13 73.23 73.65 73.96 73.81 72.98 72.62 73.17 73.59 73.94 73.87 73.56 72.31 71.20 70.65 70.37
50.55 52.11 45.35 44.76 46.87 48.91 50.70 51.29 50.26 50.17 50.95 51.15 51.50 51.88 53.68 58.63 60.57 66.00 69.01 72.18 73.49 73.68 74.65 74.70 71.34 71.11 71.29 71.80 71.67 71.04 71.18 71.61 72.09 72.40 72.75 73.42 73.31 72.73 72.48 72.38 72.54 72.90 72.84 72.54 72.15 71.18 70.67 70.34 70.14
49.43 48.34 46.05 46.43 46.16 46.81 49.63 51.40 49.89 50.30 50.81 51.18 53.33 50.41 55.01 57.27 59.57 66.46 69.23 72.14 73.51 74.00 74.40 74.18 72.85 72.67 70.22 70.01 70.00 69.66 70.28 70.87 71.21 71.55 71.96 72.07 71.63 71.29 71.97 72.21 72.20 72.07 71.28 71.15 71.16 70.47 70.05 70.14 69.58
49.92 48.48 45.13 45.66 45.09 45.73 50.49 50.01 51.34 50.68 50.04 54.87 54.73 50.83 52.40 57.81 58.74 62.96 65.71 71.26 72.46 72.94 74.22 74.38 72.61 73.50 73.97 73.85 69.34 69.11 69.26 69.80 70.23 70.70 70.80 70.51 70.53 70.79 71.22 71.04 71.45 71.31 70.81 70.83 70.56 69.87 69.51 69.42 68.64
51.04 44.24 42.93 44.76 44.63 46.38 49.30 48.54 51.88 53.71 52.03 52.95 54.15 54.10 56.25 57.48 57.48 58.10 59.78 66.15 71.41 71.17 71.95 72.39 71.87 71.95 73.39 74.28 72.68 69.70 69.76 69.69 69.58 70.80 70.08 69.98 73.84 73.87 73.41 71.31 70.08 70.56 69.89 69.93 69.67 69.11 68.66 68.17 67.79
46.47 43.54 44.29 47.23 47.86 46.64 48.33 49.34 50.16 49.76 50.38 50.85 52.35 55.01 55.16 55.14 55.73 56.00 56.62 58.64 65.45 70.11 71.20 71.15 71.55 70.99 71.73 73.20 74.17 73.61 73.21 72.81 72.92 72.93 73.38 73.64 73.63 73.50 72.86 71.12 68.82 68.39 68.28 68.73 68.57 68.19 67.61 68.01 70.86
45.67 42.96 45.99 46.83 48.26 48.84 48.38 48.83 50.40 48.16 46.80 49.83 49.25 50.81 52.86 54.05 54.55 55.05 55.75 56.79 60.70 68.34 70.86 71.26 70.78 71.54 71.46 72.80 71.85 72.46 72.48 73.04 73.18 73.63 73.62 73.38 72.82 73.23 73.15 73.02 72.60 73.09 69.75 72.05 69.86 70.08 70.93 70.65 70.46
42.94 45.64 45.70 46.42 48.11 47.65 45.90 47.56 46.27 47.23 48.02 50.90 51.34 52.08 52.12 51.92 53.26 53.78 54.45 55.17 56.78 64.34 69.63 71.25 71.79 71.39 72.07 71.68 70.31 71.00 72.75 71.65 71.59 72.56 73.64 73.06 72.15 72.92 72.34 72.60 72.49 72.20 72.78 71.92 71.28 70.60 70.50 70.42 70.41
43.20 43.88 45.03 46.89 46.32 46.03 46.55 45.15 45.59 46.46 49.64 50.83 50.15 50.35 50.48 50.80 51.55 52.67 53.39 54.68 55.81 58.03 64.52 70.29 71.36 71.34 71.33 71.24 70.70 70.14 71.51 71.85 72.28 71.59 71.38 72.89 72.31 71.33 71.60 72.20 72.08 72.26 71.66 72.06 71.02 70.58 69.89 69.49 69.57
44.18 44.71 44.42 44.77 44.80 45.20 43.41 44.15 45.65 46.82 48.22 48.13 47.71 48.22 49.27 50.01 51.02 52.05 53.52 54.23 54.85 55.64 57.42 62.10 69.55 71.27 71.33 70.87 71.17 70.87 71.46 71.83 70.94 70.45 70.73 71.39 72.13 71.52 70.25 71.58 71.91 71.87 71.44 71.60 71.20 70.81 70.35 69.70 69.70
43.23 40.08 42.21 43.15 43.82 43.01 44.38 42.15 43.03 47.14 47.47 46.56 47.33 48.12 48.43 49.20 50.34 50.77 52.45 53.24 54.67 55.50 56.68 59.01 63.05 69.30 71.14 70.87 70.76 70.87 70.79 70.77 70.38 69.42 71.39 70.58 70.75 71.76 70.24 69.91 71.25 71.26 72.04 71.30 71.16 70.21 69.92 68.85 69.09
41.44 41.06 37.23 42.00 42.42 43.11 42.77 38.23 43.05 47.10 46.47 45.95 46.63 47.25 47.61 48.93 49.73 51.01 51.96 52.75 53.91 54.92 55.84 57.30 58.38 62.84 69.38 70.66 70.50 70.30 70.44 70.63 70.34 70.12 71.80 72.07 69.89 70.90 70.41 69.50 69.74 71.27 71.40 70.70 70.27 69.28 68.70 68.70 68.00
40.41 35.90 36.79 37.96 42.06 41.48 40.82 38.43 42.43 45.64 45.22 44.77 45.87 46.52 47.19 48.17 49.18 50.59 51.46 52.36 52.81 54.19 55.20 56.18 57.81 59.06 65.55 69.04 70.51 71.06 70.76 70.43 70.47 70.53 70.94 71.55 71.79 71.85 71.31 70.15 69.32 70.52 69.24 69.59 69.55 69.16 68.66 67.56 66.86
36.31 35.60 37.37 36.56 39.76 41.26 39.88 39.88 43.23 44.36 44.27 44.36 45.18 45.73 46.61 46.84 47.97 50.12 51.71 53.35 55.83 57.13 58.18 57.86 57.22 57.74 59.82 65.81 69.03 69.17 69.95 70.66 70.61 70.35 70.75 71.49 71.77 71.72 71.52 70.46 70.41 69.26 67.46 67.66 68.84 68.49 68.46 68.29 67.09
38.35 36.91 35.91 38.87 41.46 39.38 39.04 39.65 41.07 43.05 43.07 43.00 43.77 44.82 45.31 48.40 52.07 53.55 54.55 55.47 55.76 56.57 56.75 57.87 58.63 59.93 57.48 57.84 63.44 65.06 66.83 68.27 69.71 70.46 70.69 70.98 71.83 71.56 70.64 69.79 69.53 67.68 66.71 66.98 67.93 67.52 66.99 67.19 68.01
37.85 35.90 36.15 38.77 39.70 38.80 37.83 37.46 40.24 42.07 42.10 42.66 43.18 46.17 48.24 48.49 48.81 49.56 50.47 51.85 52.62 53.10 54.49 55.31 55.89 57.18 58.66 58.83 58.24 64.93 66.44 67.36 68.10 70.25 71.04 71.06 70.49 70.65 70.59 69.77 68.50 67.21 66.48 66.04 66.48 66.06 64.47 64.93 66.20
36.96 35.61 35.79 35.10 37.32 38.45 37.43 36.00 39.36 40.51 41.62 43.88 46.38 46.70 46.68 45.36 44.91 45.99 46.91 48.13 49.03 49.72 51.13 51.81 53.38 54.83 55.99 57.80 60.23 58.97 65.38 66.82 66.70 68.31 69.45 70.38 69.89 70.13 70.56 69.43 67.84 66.64 66.80 64.88 65.22 65.90 64.67 62.50 63.85
33.47 38.16 35.55 34.36 33.69 31.16 37.48 28.81 37.11 40.26 39.73 42.01 43.38 44.32 43.88 44.14 44.19 43.93 43.86 44.70 45.34 46.18 48.06 49.46 50.95 52.05 53.89 56.10 57.59 58.83 59.68 62.58 65.74 66.50 67.87 68.90 70.35 69.35 69.30 68.76 67.91 66.78 66.49 65.26 65.06 65.74 65.88 64.58 61.48
34.37 36.81 35.63 34.95 33.22 33.05 33.96 31.20 35.99 39.21 37.04 39.11 40.41 41.38 42.58 43.06 42.67 41.89 42.14 42.24 44.11 45.60 45.30 45.94 47.88 48.96 51.58 54.30 56.11 58.33 58.49 64.73 65.73 67.40 67.17 67.80 67.95 67.45 67.65 67.73 67.81 66.56 66.75 65.44 64.98 65.04 65.31 65.17 63.77
37.84 35.51 35.69 35.47 33.36 26.69 33.22 32.56 33.44 36.87 34.14 35.15 37.47 37.29 40.03 40.53 41.02 41.27 42.06 41.92 42.61 43.98 43.85 43.58 44.37 45.87 47.21 49.14 53.19 56.53 59.86 61.56 64.51 65.61 66.39 67.35 67.15 65.86 66.09 66.26 66.58 66.74 66.16 65.35 64.86 65.13 65.57 65.08 64.64
35.98 32.60 27.21 25.82 26.09 25.79 32.68 29.78 33.36 36.61 35.92 35.40 34.71 36.01 38.26 38.85 38.49 38.07 38.13 38.44 39.16 39.08 39.40 39.50 39.76 40.52 42.56 45.68 48.81 52.92 58.20 61.45 65.37 65.39 66.93 66.65 65.02 64.47 65.00 65.42 65.29 65.44 65.80 65.70 64.82 64.38 64.93 64.75 63.67
33.45 32.54 27.13 20.15 23.79 27.83 32.59 26.98 34.83 37.65 38.35 38.58 37.56 37.13 36.88 36.12 35.45 34.82 35.24 36.43 36.59 36.90 37.43 38.17 37.22 37.56 40.10 43.57 46.48 50.13 56.56 62.40 65.40 66.53 66.43 67.07 65.51 65.21 65.28 65.61 65.42 65.50 65.74 65.50 65.46 64.60 64.19 64.42 64.55
31.52 27.96 34.41 27.45 29.13 25.00 29.00 33.18 36.29 36.53 35.95 36.08 35.17 35.04 33.94 33.95 33.51 33.33 33.68 34.65 35.55 33.28 34.80 34.83 34.82 36.23 38.72 42.02 45.71 48.89 55.91 63.15 65.78 66.77 67.79 67.16 66.66 65.20 65.40 65.35 64.64 64.91 65.11 64.95 64.73 63.73 63.59 63.91 64.12
32.94 35.72 26.21 28.06 18.53 19.12 28.22 29.98 31.59 29.18 29.98 31.70 30.74 30.61 31.23 31.91 31.44 31.61 31.40 32.03 33.96 32.55 33.08 34.43 33.70 34.92 37.31 40.76 45.28 47.74 53.82 59.43 66.13 65.39 65.15 65.59 67.29 67.14 66.60 65.48 65.37 64.20 64.33 64.44 64.16 63.63 63.64 63.41 63.74
31.18 29.35 30.54 31.50 29.00 23.05 22.90 27.76 30.44 27.94 28.05 27.75 30.57 31.40 31.40 30.16 30.20 30.79 30.76 31.30 32.70 32.39 31.35 31.59 32.31 33.57 36.21 40.73 45.10 47.58 52.36 63.72 65.99 64.74 64.77 66.51 66.87 66.39 65.39 66.10 64.45 63.34 63.34 63.53 63.32 63.47 62.99 62.32 63.17
34.63 32.15 32.25 25.55 24.96 28.78 27.54 27.17 30.32 28.59 28.64 29.00 29.46 30.75 31.14 30.78 30.22 30.11 29.79 29.66 30.55 30.28 30.19 30.19 31.01 32.73 35.52 39.43 43.05 44.52 46.72 51.23 63.16 63.52 64.66 65.51 64.70 65.22 64.51 64.27 62.85 62.17 62.39 63.03 62.59 61.68 61.64 62.11 61.71

GFSSGP_sfc_wetblb_117.txt.gz
Wetbulb
62.48 60.22 59.81 57.53 50.15 49.48 47.54 49.03 51.20 49.12 49.15 52.74 53.06 51.34 50.93 52.41 51.44 51.53 63.99 70.29 72.01 72.78 76.81 74.14 72.21 72.97 73.50 74.04 74.06 74.16 74.26 74.54 74.26 74.14 74.21 74.11 74.13 74.35 74.53 74.31 74.42 74.98 75.37 74.33 74.24 74.06 74.03 73.99 74.41
61.71 58.42 58.52 56.05 47.90 46.47 47.90 51.64 48.81 50.89 51.58 51.94 51.60 51.67 51.65 51.94 56.98 60.36 64.01 69.35 72.87 73.60 76.60 75.13 72.00 72.64 73.19 73.60 73.96 74.16 74.68 74.59 74.28 74.05 74.08 74.01 74.24 74.46 74.33 74.28 74.07 74.22 74.99 74.13 74.28 74.17 74.02 73.60 72.95
59.92 58.75 55.01 51.77 49.63 46.79 48.15 51.42 50.78 51.40 51.39 50.81 50.76 53.72 53.14 54.83 60.03 62.55 66.72 72.33 73.69 73.80 75.83 75.45 71.68 71.99 72.77 73.17 73.70 74.09 74.30 73.91 73.79 73.83 74.17 74.25 74.27 74.47 74.36 73.87 73.83 74.46 74.76 74.26 73.64 74.51 73.60 72.37 71.79
57.45 56.20 55.06 48.87 47.97 51.21 50.94 52.18 51.11 50.54 51.89 52.44 52.30 50.89 55.72 61.18 61.04 64.86 67.49 72.47 73.37 73.98 75.26 71.59 70.88 71.47 72.27 72.89 73.54 73.76 73.60 73.14 73.05 73.29 73.74 74.10 74.30 74.42 74.00 73.31 73.58 74.54 74.81 74.64 74.39 73.82 72.52 71.46 71.11
57.97 55.41 49.67 48.40 48.84 51.70 53.60 53.29 52.44 51.28 51.97 52.40 53.26 51.67 53.45 59.79 61.59 66.02 67.68 72.25 73.40 73.76 75.41 74.73 70.23 71.10 72.09 72.78 73.33 73.26 72.84 72.73 72.86 73.05 73.31 73.58 74.05 73.91 73.21 72.91 73.30 73.89 74.29 74.33 73.88 72.73 71.46 70.98 70.76
52.43 53.20 47.61 46.74 49.38 52.11 53.28 54.31 53.11 52.38 53.04 53.31 52.44 52.99 54.80 60.45 60.48 64.13 68.32 70.95 74.39 73.85 75.29 75.78 71.50 71.24 71.46 71.83 72.18 71.84 71.92 72.31 72.52 72.82 72.97 73.39 73.41 73.06 72.67 72.58 72.71 73.17 73.29 73.11 72.48 71.46 70.98 70.76 70.45
50.62 50.50 47.49 48.36 48.81 50.33 51.34 54.19 52.08 52.14 52.69 52.56 55.34 51.57 55.84 58.38 61.07 61.10 64.02 70.53 73.77 74.76 74.84 75.38 74.01 72.59 70.72 70.30 70.21 70.10 71.11 71.56 71.90 72.01 72.20 72.48 71.98 71.62 72.05 72.29 72.47 72.80 72.46 72.12 71.49 70.71 70.40 70.30 69.94
52.10 50.92 47.40 48.48 47.63 48.25 52.87 52.87 53.12 52.08 51.85 56.18 55.63 51.48 53.78 58.84 60.41 60.54 62.04 65.48 71.93 74.02 75.21 75.68 74.24 73.97 73.28 72.98 69.63 69.47 70.05 70.39 71.00 71.27 71.38 70.87 71.07 71.10 71.35 71.37 71.91 72.05 71.15 71.12 70.85 70.16 69.78 69.83 69.13
53.69 46.50 45.41 47.10 47.43 49.11 52.43 49.48 53.29 54.42 53.22 54.17 54.95 55.46 57.32 58.84 58.41 58.62 60.09 62.07 69.20 72.16 72.87 74.92 73.68 73.58 74.13 73.57 72.36 69.91 70.07 70.14 70.26 71.26 70.72 70.40 74.08 73.80 73.26 71.39 70.43 70.58 70.07 70.08 70.00 69.53 69.16 68.66 68.35
49.31 46.48 46.91 50.25 49.36 48.62 49.79 49.95 50.97 50.97 51.08 52.03 53.35 56.27 56.90 56.70 56.34 56.50 57.47 58.55 60.70 67.67 71.69 72.48 72.95 72.81 74.86 73.63 73.94 72.78 72.49 72.11 72.51 72.81 73.55 73.84 73.52 73.66 72.46 71.04 69.62 69.40 69.00 69.02 69.00 68.62 68.24 68.19 70.41
48.52 45.56 49.06 49.61 49.59 50.17 48.57 48.67 50.73 49.11 47.70 50.92 50.91 52.65 54.08 54.66 55.34 55.79 56.55 57.61 58.59 63.97 71.49 71.98 71.85 72.35 72.57 73.90 74.00 72.96 72.96 72.49 72.62 72.96 73.43 73.09 73.20 73.94 72.61 73.25 72.41 72.75 69.59 71.82 70.11 69.71 70.30 70.11 69.92
45.58 47.87 48.12 48.47 48.76 48.42 47.17 49.33 47.43 48.28 49.10 51.76 52.02 52.81 53.22 53.24 53.57 54.40 55.34 56.44 57.66 60.14 68.22 72.17 72.54 71.97 72.33 73.80 72.93 72.93 72.62 73.08 72.71 73.02 75.07 73.82 73.20 73.53 73.10 72.12 72.29 72.65 72.35 71.86 71.47 70.47 70.44 70.95 71.02
44.58 46.03 46.94 47.28 47.24 47.42 47.50 45.42 45.64 46.69 49.69 51.13 51.66 51.55 51.94 52.09 52.94 54.36 55.25 55.94 57.33 57.93 61.60 68.65 72.17 72.40 72.47 72.63 72.68 72.48 72.97 72.20 72.86 72.96 74.45 73.68 72.34 73.50 72.97 72.33 72.56 71.89 72.12 71.79 71.61 70.18 70.30 69.76 69.93
47.14 46.08 46.48 47.07 46.64 46.28 44.20 44.35 45.23 46.76 49.60 49.76 49.96 50.02 50.24 50.62 51.78 52.73 53.96 55.22 56.47 57.52 58.16 60.95 64.13 72.09 72.02 72.32 72.95 72.83 72.98 73.09 72.73 72.58 72.92 74.78 73.56 73.09 72.24 72.40 71.28 72.24 71.81 71.00 71.88 70.87 69.26 69.51 69.44
45.65 42.42 44.29 45.01 45.56 44.68 45.62 42.03 42.88 47.86 49.64 48.74 48.93 49.84 49.83 50.37 51.08 51.48 52.71 53.52 55.27 56.12 57.90 59.25 61.32 64.22 70.25 71.39 71.88 72.01 71.72 72.09 72.36 72.08 73.80 71.76 73.84 74.11 72.90 71.53 71.67 70.91 71.98 71.91 72.20 71.67 70.48 69.19 69.67
43.03 43.97 40.30 45.47 44.45 44.88 43.79 39.34 45.16 48.05 47.55 47.40 48.01 48.43 48.80 49.69 50.20 51.87 52.88 53.11 54.02 54.77 56.06 57.99 58.33 60.58 63.75 68.63 70.41 71.26 71.57 72.07 71.87 72.33 71.72 72.42 71.07 73.17 72.76 70.59 71.59 72.30 72.22 71.88 70.69 70.19 69.80 68.10 67.65
43.22 39.18 41.23 42.80 45.33 43.70 43.46 40.87 44.62 46.63 46.94 45.77 47.14 48.06 48.55 49.00 50.34 51.51 52.64 53.67 54.06 55.85 57.56 58.33 60.01 59.84 61.14 63.75 68.59 70.49 71.82 71.78 71.34 71.61 71.53 72.26 72.18 72.62 72.69 70.90 70.42 72.98 72.00 71.68 70.41 69.14 69.40 68.89 68.70
40.02 40.53 41.85 40.55 43.69 43.69 41.69 41.88 44.77 46.40 46.33 45.96 46.89 47.47 47.89 48.31 49.31 54.58 55.95 57.06 57.56 58.21 58.64 58.86 59.59 61.11 61.63 60.34 63.48 67.40 69.41 70.75 71.46 71.43 70.96 71.48 72.89 72.52 71.96 71.17 71.21 71.03 70.97 70.91 71.03 69.63 69.18 68.27 67.97
42.22 40.42 39.04 41.44 43.70 42.14 41.43 41.57 43.31 45.21 45.36 45.25 45.59 46.19 46.74 49.23 53.20 53.48 53.69 54.38 55.10 55.89 55.92 56.47 57.40 58.96 59.77 60.63 58.24 61.29 66.73 68.78 70.49 70.70 71.81 70.99 72.15 73.06 72.14 71.75 71.69 70.98 69.23 68.98 70.07 69.80 68.85 67.56 68.77
40.83 38.58 38.40 41.22 43.11 41.72 40.76 40.31 42.48 43.95 44.52 45.42 45.42 45.68 49.46 49.99 50.18 50.47 51.30 51.92 52.45 52.75 53.56 54.27 54.63 55.84 57.11 58.40 59.93 60.08 61.89 66.53 69.61 70.66 71.10 72.17 72.49 72.73 72.51 72.24 71.64 71.33 69.07 67.27 67.79 67.99 67.88 69.01 69.55
39.18 37.78 38.16 38.00 40.64 41.49 39.60 38.16 41.49 44.68 44.05 44.68 47.98 48.34 48.00 47.86 47.54 48.35 48.54 49.12 49.91 49.95 51.03 51.08 52.28 53.34 54.98 56.21 57.36 58.64 61.43 61.07 66.72 68.54 69.27 70.66 71.87 72.35 72.49 72.32 72.01 71.37 69.98 68.39 66.86 66.68 66.16 64.76 67.93
36.03 40.76 39.50 37.74 36.15 32.90 40.79 31.80 39.38 42.67 43.25 44.39 46.16 46.38 46.61 46.58 46.63 46.70 46.80 46.99 47.61 48.08 49.99 50.50 50.37 50.64 52.23 54.28 54.55 56.08 56.75 58.02 62.91 67.65 68.68 68.98 71.19 71.60 72.39 72.49 72.02 71.40 69.86 68.20 66.69 66.70 66.02 64.97 63.02
37.70 40.87 38.15 37.71 35.85 35.18 35.56 32.20 37.65 42.07 40.73 43.20 43.77 43.60 44.40 45.26 44.86 44.09 44.12 44.51 45.47 46.72 47.03 47.45 47.78 48.32 50.13 51.54 52.11 53.25 55.37 58.08 60.92 62.29 67.86 68.36 69.90 70.54 71.59 71.82 71.32 70.58 69.41 68.62 67.73 66.18 65.60 65.45 64.05
40.73 38.03 37.43 36.80 34.23 27.54 34.43 34.44 35.61 39.24 38.41 40.04 40.95 41.85 42.40 43.08 43.04 42.55 42.81 42.38 42.32 44.05 44.17 44.11 44.77 46.12 47.65 48.45 49.05 49.66 51.86 55.27 57.93 61.01 63.72 65.99 67.76 68.94 70.70 70.36 70.21 69.23 68.38 68.23 68.17 66.88 65.59 65.37 64.48
38.35 35.01 28.48 27.42 27.97 27.46 37.25 34.95 36.02 40.24 40.12 38.84 38.63 39.99 40.95 41.02 40.52 39.77 38.96 38.29 38.54 39.15 40.36 40.01 40.63 41.37 43.75 45.10 46.03 46.55 48.29 51.82 55.32 57.99 61.32 65.49 66.19 67.17 68.50 68.60 67.49 68.33 68.14 67.66 67.90 65.60 65.24 65.28 64.38
36.68 35.82 29.02 21.93 24.47 28.74 36.10 30.77 36.35 41.01 41.71 40.93 39.68 39.34 38.43 37.57 37.52 36.08 35.62 35.63 35.52 35.79 36.61 36.60 36.69 37.88 40.24 41.17 42.19 43.66 45.56 48.56 53.44 57.76 61.25 61.67 66.88 67.95 68.80 68.38 66.70 66.41 68.27 67.00 66.48 65.52 65.22 65.11 64.76
34.79 31.87 36.55 29.50 30.53 26.62 30.87 35.11 39.62 39.89 38.58 37.79 36.62 36.75 34.83 34.99 34.32 33.94 34.25 33.69 33.08 33.68 33.98 34.71 33.93 35.57 37.09 37.44 39.15 40.35 43.94 47.01 50.60 57.33 62.81 64.33 66.61 68.47 68.49 68.19 65.52 65.43 65.66 66.22 65.39 64.52 64.12 64.91 65.05
35.50 37.53 28.66 29.66 19.87 20.63 29.24 32.17 29.76 29.39 30.73 33.23 33.03 33.83 33.57 33.56 32.27 32.35 31.96 31.96 32.50 32.74 33.33 34.38 32.52 33.31 34.12 36.26 38.15 40.67 43.48 47.44 50.80 58.27 63.01 65.56 66.96 68.38 67.19 67.01 65.22 64.65 65.00 64.94 64.83 64.27 64.23 63.69 64.27
33.94 31.08 31.86 32.37 30.38 24.42 23.95 28.08 31.30 28.06 29.37 30.04 32.79 34.05 33.58 32.48 31.79 32.53 32.12 31.30 31.33 32.39 31.82 31.83 31.39 32.02 33.94 35.37 37.98 40.14 45.18 47.57 51.68 59.44 64.36 66.48 66.75 66.31 66.32 66.45 64.69 64.25 64.07 64.34 63.98 63.54 63.38 63.00 63.48
36.55 34.36 33.55 26.28 25.82 29.33 28.63 28.91 31.71 30.32 31.62 31.51 30.67 32.25 33.57 32.82 32.05 32.96 32.10 31.11 31.18 30.91 31.31 30.59 30.87 31.04 32.93 34.39 37.30 41.82 42.97 45.44 48.07 55.63 63.48 65.88 65.31 65.68 66.04 66.30 65.48 64.85 63.51 63.34 63.03 62.66 62.81 62.58 61.61

GFSSGP_sfc_wetblb_120.txt.gz
Wetbulb
61.09 59.44 58.28 56.38 48.23 48.39 45.53 47.49 51.95 49.24 49.37 52.21 52.15 50.59 49.52 51.15 50.37 51.12 65.59 69.44 72.66 73.86 73.65 72.61 72.48 73.39 73.96 74.26 74.36 73.94 74.06 74.31 74.15 74.07 74.04 73.96 74.13 74.31 74.39 74.33 74.47 75.04 75.63 75.38 74.78 74.23 73.92 74.48 73.94
60.20 60.31 57.41 53.69 46.86 44.15 46.21 51.17 49.45 49.70 50.94 52.28 51.50 51.35 50.71 51.15 58.42 60.53 63.16 69.25 73.05 73.93 74.19 73.16 72.22 72.80 73.55 73.76 73.92 73.96 74.49 74.31 73.97 74.02 74.12 74.12 74.29 74.36 74.44 74.09 73.96 74.56 74.95 74.40 74.25 74.12 74.63 74.27 72.93
60.39 60.01 52.63 50.62 47.73 44.60 46.22 51.01 50.29 50.82 51.99 51.36 50.59 53.23 52.70 55.28 59.89 61.73 65.68 69.97 73.17 74.18 75.70 73.92 71.76 72.19 73.11 73.50 73.68 73.80 74.07 73.79 73.74 73.66 74.20 74.20 74.35 74.49 74.44 73.74 73.54 74.40 74.75 74.28 74.30 74.61 73.97 72.76 71.87
56.87 55.50 53.57 47.46 46.01 49.74 50.67 52.24 51.66 51.31 51.91 52.63 52.26 50.53 55.41 60.57 60.71 63.65 66.71 70.51 73.12 74.07 75.32 70.32 70.81 71.68 72.75 73.42 73.75 73.86 73.63 73.03 73.06 73.26 73.89 74.08 74.40 74.55 74.11 73.43 73.68 74.67 74.62 74.43 74.51 74.21 72.60 71.39 71.10
57.15 53.95 47.70 46.81 47.42 50.45 52.53 53.89 53.96 51.38 52.22 52.91 53.16 50.91 53.71 59.41 61.58 64.95 67.27 70.60 72.91 74.29 73.90 72.22 70.25 71.38 72.32 73.42 73.74 73.54 72.99 72.56 72.64 73.20 73.49 73.81 73.94 74.09 73.44 72.92 73.36 74.02 74.20 74.24 73.89 72.98 71.40 70.97 70.71
51.15 52.60 45.79 44.81 47.78 51.45 53.34 54.42 53.51 52.83 52.93 53.21 52.53 52.12 54.30 60.67 59.94 61.85 65.42 69.79 73.99 74.81 75.24 72.39 71.32 71.25 71.65 72.51 72.78 72.31 72.17 72.12 72.25 72.58 72.89 73.31 73.36 73.06 72.84 72.54 72.85 73.23 73.25 73.19 72.48 71.44 70.99 70.73 70.49
48.94 48.51 45.79 47.00 47.55 49.23 51.81 54.66 52.28 51.93 51.78 52.46 54.95 51.60 56.99 58.14 60.68 61.85 63.28 66.56 73.06 75.53 75.57 74.28 72.59 71.65 70.91 70.46 70.65 70.68 71.37 71.75 71.88 71.98 72.06 72.39 71.97 71.90 72.12 72.18 72.36 72.66 72.68 72.40 71.52 70.73 70.31 70.34 70.02
51.14 49.35 45.51 46.85 46.35 47.43 52.52 52.94 52.93 51.59 51.04 56.19 55.61 50.78 52.91 58.45 60.29 61.35 63.87 67.42 72.76 74.46 75.74 74.83 73.80 72.36 71.80 71.37 69.97 70.00 70.61 70.88 71.15 71.52 71.50 71.01 71.19 71.22 71.55 71.55 71.73 71.30 71.89 71.71 70.87 70.11 69.89 69.81 69.45
53.79 45.91 43.26 45.78 47.13 48.37 51.76 50.55 52.77 53.89 52.10 53.40 54.72 54.74 56.93 58.82 58.41 58.55 60.33 62.97 68.24 72.48 73.85 75.42 73.58 72.91 72.16 71.51 70.98 70.04 70.86 70.85 70.68 71.41 70.83 69.58 72.37 71.85 71.60 71.02 70.46 71.30 69.43 70.39 70.09 69.54 69.23 68.91 68.65
48.21 45.38 46.11 49.92 49.88 48.45 49.74 49.66 49.44 48.92 49.66 50.75 52.49 55.89 57.39 56.55 56.48 56.06 55.90 57.44 60.83 66.77 72.11 73.43 73.30 72.84 73.06 71.94 71.52 70.89 71.04 71.30 71.89 72.31 71.98 72.44 72.42 72.25 71.87 70.67 69.30 69.72 68.60 69.20 69.18 68.87 68.38 68.11 68.61
48.07 44.31 48.04 48.82 50.00 49.20 48.14 48.29 50.22 48.31 47.03 50.26 49.94 51.70 53.81 54.64 55.24 55.82 55.39 56.20 57.90 61.54 70.49 72.39 72.38 71.66 73.04 72.46 71.96 70.64 70.84 70.38 71.04 71.73 72.09 72.18 72.03 71.95 70.63 70.62 70.05 70.30 68.85 69.82 68.94 68.40 68.70 68.62 68.20
44.81 47.52 48.14 48.55 48.37 47.77 46.49 48.56 46.86 47.61 48.52 50.75 50.97 52.24 53.42 52.99 53.55 53.68 55.16 55.00 56.90 58.64 61.89 71.72 72.09 71.12 71.34 72.94 72.49 71.48 70.77 70.66 70.31 70.61 71.65 71.09 71.28 71.09 70.00 70.48 70.46 70.42 70.06 69.93 69.48 68.74 68.15 67.97 68.10
45.48 46.24 47.18 47.77 47.65 46.71 47.17 45.52 45.24 45.32 47.58 49.30 49.98 50.73 53.82 51.99 52.44 53.76 54.69 55.17 56.82 59.08 62.20 68.41 71.60 71.04 70.95 71.22 70.96 71.36 70.60 70.65 71.06 70.94 71.43 71.58 70.31 70.49 70.85 70.02 70.63 70.06 70.30 69.63 69.29 68.68 68.00 67.62 67.79
45.94 45.94 46.19 46.33 46.35 45.99 45.04 44.79 44.94 45.89 47.88 47.38 49.23 49.44 50.70 51.14 51.90 52.44 53.32 53.80 56.70 57.70 59.65 60.95 63.13 70.64 70.94 70.48 69.77 71.07 70.83 71.24 71.34 71.15 71.37 71.59 71.04 70.49 70.26 70.01 70.30 69.94 69.96 70.07 69.46 68.87 68.10 67.54 67.86
46.10 42.75 44.40 44.73 45.13 44.60 46.12 42.41 42.81 47.33 48.26 47.56 48.50 49.34 49.75 50.60 51.20 51.84 53.53 54.43 54.81 55.75 57.74 61.38 61.32 62.52 67.16 69.80 69.52 70.28 70.50 70.46 70.40 70.33 71.75 71.43 71.32 71.00 70.73 70.18 69.21 69.80 69.94 69.77 68.86 69.35 68.42 68.04 67.86
42.47 43.01 39.11 44.87 47.11 45.48 44.10 38.37 45.05 48.06 47.29 46.81 47.88 48.71 49.07 49.41 50.18 51.39 54.03 55.24 55.97 56.74 57.60 58.73 60.31 60.10 61.09 62.62 68.79 68.68 69.55 69.65 69.94 70.69 70.51 71.03 71.34 71.51 69.86 69.22 69.42 70.25 69.22 69.44 68.54 68.29 67.72 66.92 67.02
42.85 37.68 40.22 42.94 46.54 44.74 43.33 40.22 45.04 47.42 46.32 45.93 46.98 47.06 47.72 48.82 50.16 54.23 55.05 54.77 55.16 55.88 56.36 56.81 57.98 58.62 60.34 60.84 61.05 62.83 68.69 68.54 69.49 70.07 70.07 71.01 70.59 70.28 70.60 69.75 69.01 69.66 69.52 69.05 68.76 68.12 67.93 66.74 66.23
38.37 39.78 41.47 41.18 44.75 44.53 42.49 41.45 44.14 46.34 46.34 46.37 46.54 47.42 47.77 48.04 51.32 53.03 52.73 53.36 53.56 54.13 54.97 55.06 56.01 56.96 57.91 58.82 60.31 59.63 60.18 68.50 69.39 69.53 69.19 70.02 70.40 69.66 69.30 70.20 69.09 68.81 68.62 68.44 68.35 67.74 67.64 67.46 66.45
42.44 40.78 39.63 42.20 44.88 42.47 41.83 41.64 43.06 45.33 45.71 45.36 45.84 46.18 47.32 48.38 51.67 51.71 51.91 51.77 51.44 51.81 51.91 52.64 52.86 54.18 54.96 55.42 56.11 57.51 57.60 60.96 67.73 69.10 69.54 69.34 69.40 69.78 69.17 69.22 69.09 68.57 67.41 67.85 68.42 67.51 66.55 66.27 66.57
41.21 39.36 39.01 41.47 42.96 42.14 41.07 40.28 42.81 44.23 44.49 45.04 45.29 46.93 48.19 48.55 48.86 49.28 49.77 49.93 49.65 49.64 49.97 50.14 51.34 51.95 52.36 53.06 54.46 55.20 55.81 57.49 59.42 66.71 68.98 69.40 69.17 69.45 69.59 69.00 68.54 68.39 67.11 67.00 67.95 67.80 65.92 65.96 66.53
39.82 38.74 38.47 37.74 40.67 41.54 39.75 37.53 40.08 43.79 45.97 46.65 47.46 48.12 47.87 46.77 45.91 46.13 46.49 46.96 47.16 46.79 47.18 48.12 49.25 49.82 50.45 51.09 52.03 53.50 54.95 56.28 57.10 58.66 63.20 68.45 69.15 68.81 69.93 69.37 68.42 68.37 68.05 66.72 67.23 67.10 66.44 64.45 65.67
36.12 41.34 40.01 38.34 36.35 31.45 39.37 29.86 37.21 40.84 41.96 44.57 45.57 45.42 44.62 44.80 45.15 44.87 44.16 43.86 43.96 44.50 45.52 45.88 46.21 46.42 47.95 49.21 49.24 50.31 50.80 51.71 54.92 56.76 59.90 66.17 68.39 68.83 69.25 69.52 69.32 68.71 68.77 67.50 66.99 66.82 65.87 65.42 64.17
37.72 41.30 39.31 38.11 35.23 34.34 34.32 31.60 35.97 40.86 39.47 40.80 42.33 42.81 42.88 43.31 42.77 41.98 41.74 41.71 41.86 42.14 41.67 42.24 43.06 43.12 44.01 46.04 47.44 47.14 47.87 50.30 53.35 55.34 57.07 59.60 63.54 67.31 68.48 67.89 68.62 68.82 68.26 68.10 66.82 65.88 65.27 65.81 64.40
41.40 38.32 37.62 37.09 34.96 27.56 32.97 32.86 33.52 37.22 38.65 38.64 40.03 40.66 40.93 40.60 40.51 40.19 40.14 39.80 38.77 39.11 38.72 38.88 38.94 39.87 40.75 41.93 43.57 44.28 44.86 46.03 47.61 50.50 53.15 56.20 59.88 64.04 66.66 67.11 67.74 68.51 67.88 66.62 66.88 65.71 65.27 64.92 64.82
39.07 34.49 26.77 25.66 27.24 26.60 36.44 33.99 33.65 38.10 38.67 38.27 37.64 38.32 38.38 38.45 37.47 36.71 35.86 35.21 35.29 35.31 35.81 36.52 36.29 35.99 37.58 38.50 39.95 41.38 42.17 43.40 44.71 46.62 50.07 53.25 56.17 59.88 63.64 65.88 66.59 67.70 68.04 67.12 67.12 65.61 64.96 64.93 63.94
36.03 34.77 27.91 20.24 22.67 26.89 34.66 28.85 32.13 39.90 39.99 39.07 38.54 38.05 37.26 35.83 35.22 34.39 33.83 33.78 33.30 33.49 33.73 33.95 33.86 33.95 34.92 36.35 37.49 39.03 39.95 41.19 42.88 45.06 47.93 51.46 54.98 58.36 62.40 64.22 65.21 66.87 67.18 67.36 66.92 66.43 65.67 64.89 64.25
34.41 30.99 36.44 29.79 30.72 25.71 29.19 33.43 37.86 37.88 35.61 35.82 36.03 35.63 34.23 33.88 33.49 32.74 33.11 32.59 32.21 32.08 32.51 32.86 32.95 32.73 33.45 34.25 35.84 37.02 38.63 40.06 41.76 44.24 47.08 49.68 53.12 57.62 60.27 63.47 64.07 65.55 66.53 66.74 66.40 65.60 65.03 64.61 64.06
35.92 37.68 28.32 29.97 19.44 18.42 27.28 29.36 27.05 29.03 30.09 32.42 32.87 32.93 33.09 33.23 32.35 32.60 32.30 32.21 32.63 32.87 32.84 33.22 32.78 31.99 32.35 33.64 35.38 36.55 38.89 40.87 42.33 44.29 46.07 48.35 50.99 56.31 60.43 61.85 63.33 63.01 64.70 65.10 64.71 64.70 64.25 63.76 63.34
33.89 32.15 31.86 31.22 28.15 21.03 20.55 26.19 31.32 28.56 29.83 30.21 31.53 32.83 32.66 31.93 31.84 31.92 31.86 32.35 33.13 33.35 33.06 32.53 32.23 31.66 31.79 33.00 35.54 37.29 40.52 42.64 44.73 46.64 48.95 49.31 51.71 55.21 59.88 60.17 60.10 57.75 62.81 63.31 63.73 63.89 63.43 62.93 62.96
36.39 33.10 33.20 25.85 23.56 27.99 26.85 26.51 32.11 30.59 31.87 31.40 30.70 31.85 32.15 31.88 31.23 31.64 31.54 31.18 31.72 31.73 32.35 32.41 31.83 31.02 31.72 33.44 35.35 37.08 38.71 40.06 40.69 42.68 46.04 50.87 53.71 56.86 60.68 61.38 61.32 59.66 62.79 63.28 63.43 62.94 62.79 62.57 61.94

GFSSGP_sfc_wetblb_123.txt.gz
Wetbulb
57.80 55.18 52.66 49.79 41.22 38.72 35.10 40.83 43.44 43.82 44.10 45.29 47.16 46.81 45.79 48.06 50.95 49.13 62.62 67.27 70.74 71.32 71.95 72.61 72.13 73.27 73.75 74.10 73.54 73.42 73.73 74.11 74.11 73.92 73.73 73.78 73.78 74.00 74.00 73.91 74.39 74.88 75.26 74.86 74.37 73.94 73.46 73.91 73.25
56.98 58.27 51.67 46.21 38.01 33.11 37.27 44.55 42.19 44.40 47.40 49.09 48.75 48.69 47.94 52.37 57.79 59.12 61.50 66.90 71.08 72.09 71.69 72.13 72.03 72.75 73.52 73.64 73.64 73.46 74.19 74.23 74.03 73.90 73.73 73.80 74.00 73.87 73.80 73.61 73.58 74.60 75.10 74.96 74.54 73.81 74.07 74.16 72.42
57.61 57.90 45.62 41.65 37.62 35.51 37.58 43.45 43.87 46.53 49.25 48.76 47.74 49.79 50.70 54.36 59.56 60.36 64.49 70.00 71.55 71.99 71.88 72.30 71.40 71.99 73.03 73.30 73.40 73.36 73.62 73.49 73.42 73.53 73.95 74.03 74.10 74.05 73.82 73.30 73.23 74.50 74.65 74.59 74.29 74.44 73.91 72.61 71.46
52.03 49.03 46.33 39.03 37.66 42.74 44.32 48.07 46.90 47.05 48.87 50.05 49.38 47.94 55.17 58.78 59.73 61.61 66.67 70.68 71.28 71.99 72.43 70.30 70.63 71.41 72.64 73.17 73.19 73.30 72.99 72.30 72.76 73.05 73.56 74.12 74.17 74.15 73.47 72.84 73.37 74.29 74.30 74.44 74.74 74.22 72.42 71.18 70.69
50.76 45.84 38.81 37.53 40.33 44.45 47.55 49.20 49.09 49.61 50.39 51.82 49.97 47.88 52.59 57.04 60.05 63.11 66.36 70.56 71.11 71.31 70.82 70.77 70.16 71.21 72.36 73.24 73.40 73.11 72.52 71.94 72.25 72.76 73.00 73.49 74.03 73.90 72.98 72.42 73.03 73.67 73.68 73.97 73.70 72.54 71.31 70.58 70.40
44.47 44.61 36.65 35.60 40.89 45.85 47.43 48.58 49.98 50.29 50.55 51.29 50.20 48.94 52.41 57.31 56.56 57.35 64.14 68.86 71.20 71.91 71.13 70.82 71.17 71.17 71.64 72.46 72.55 72.04 71.70 71.69 71.66 72.14 72.56 73.21 73.22 72.65 72.36 72.38 72.46 72.97 72.67 72.61 72.16 71.22 70.56 70.32 70.19
41.25 39.69 37.36 39.35 41.44 43.84 47.32 49.78 49.06 48.27 47.81 49.34 52.58 49.55 53.04 54.73 55.75 56.57 57.40 68.70 69.79 72.29 71.00 69.87 70.43 71.10 70.77 70.65 70.74 70.54 70.96 71.29 71.40 71.65 71.85 72.03 71.81 71.54 71.63 71.94 72.12 72.29 71.99 71.73 71.31 70.48 70.08 69.92 69.79
44.41 41.43 38.20 38.29 40.66 41.89 47.68 48.64 48.37 48.19 49.69 55.82 52.84 48.28 48.28 53.87 54.89 55.14 55.94 59.56 68.34 70.23 72.11 70.40 70.02 70.11 69.30 69.71 69.68 70.07 70.34 70.38 70.76 71.07 70.94 70.58 70.79 71.00 71.03 71.03 71.48 71.59 71.47 71.05 70.53 69.75 69.46 69.48 69.17
45.37 37.88 34.95 38.90 40.78 43.17 47.89 47.09 48.16 48.81 47.52 50.77 53.07 53.34 53.98 55.19 54.26 53.46 53.15 54.15 67.19 68.87 70.43 70.80 70.05 69.80 69.25 69.07 70.06 70.18 70.65 70.36 70.29 70.65 70.38 69.19 71.06 70.83 70.88 70.43 70.37 70.66 70.11 70.22 69.74 69.08 68.82 68.57 68.46
41.22 36.21 38.77 44.75 43.94 42.14 44.92 43.16 45.43 46.14 46.26 47.06 49.54 52.33 52.93 52.92 52.24 51.60 51.71 51.73 52.61 64.47 68.37 70.54 70.31 69.57 69.44 70.45 68.79 68.78 70.17 70.43 70.70 70.88 70.91 70.59 70.49 70.43 70.99 70.11 69.02 69.59 68.67 69.05 68.91 68.44 68.04 67.86 67.29
39.97 38.02 43.27 45.23 45.45 45.54 42.09 43.28 45.24 43.26 42.31 47.09 46.14 48.40 50.93 51.60 50.72 51.64 52.10 51.72 51.16 55.06 69.35 70.31 70.37 70.21 70.79 69.45 68.39 68.54 68.53 69.28 70.00 70.25 70.27 70.52 70.75 70.47 70.31 69.94 69.46 69.46 68.60 68.58 68.35 67.81 67.70 67.50 67.05
38.12 42.91 44.01 44.20 45.73 43.44 41.80 43.14 42.76 43.70 44.23 46.71 45.58 47.40 49.49 50.17 50.33 50.47 50.88 50.69 50.49 51.69 58.83 69.89 70.08 69.46 68.99 69.77 69.69 68.31 68.55 68.20 68.98 69.83 70.51 70.33 70.04 69.70 69.28 69.00 68.69 68.96 68.67 68.08 67.97 67.18 67.20 66.89 67.12
39.90 41.91 43.30 44.18 43.43 43.17 43.94 41.72 41.99 42.65 44.54 45.75 46.49 47.31 47.16 47.86 49.16 49.40 49.93 48.72 49.49 52.13 54.59 67.80 69.01 68.84 69.31 69.65 68.15 69.46 68.84 68.41 68.97 68.86 70.29 70.41 69.28 68.10 68.23 68.41 68.75 69.04 68.80 68.80 67.90 67.34 67.09 66.85 66.51
43.04 42.90 42.07 43.16 42.40 42.40 41.83 41.23 40.49 43.37 44.39 44.57 44.96 44.29 46.65 47.24 47.83 46.95 47.58 47.66 50.65 54.20 54.92 56.11 57.58 61.61 67.12 67.14 66.42 67.18 68.33 69.36 68.47 68.95 69.72 70.18 69.52 68.36 68.65 66.88 68.80 68.76 69.01 68.74 68.55 67.48 66.67 66.27 65.96
43.10 39.13 40.66 41.77 42.88 40.88 42.47 38.09 38.73 42.82 44.31 44.10 43.09 44.75 46.06 45.64 46.54 48.80 50.62 51.22 52.58 53.28 54.57 54.57 55.83 56.71 57.05 58.27 62.65 66.65 67.23 68.35 67.95 69.30 69.53 69.92 69.95 68.89 68.86 68.13 68.04 68.65 68.89 68.52 68.18 67.81 66.87 65.82 65.82
38.80 38.78 33.71 40.66 42.69 43.90 40.50 35.36 39.92 42.65 42.42 41.12 43.54 44.67 44.67 45.16 49.08 49.53 49.96 50.37 50.92 51.84 51.71 52.99 54.54 53.79 54.03 54.56 56.48 59.15 62.45 65.68 67.71 68.18 69.07 70.18 69.97 69.67 68.42 68.48 67.58 68.58 68.48 68.36 67.62 67.41 66.47 65.95 65.69
37.41 32.12 35.41 38.95 44.13 40.60 38.22 35.67 41.19 43.28 43.05 42.14 42.28 42.66 43.13 43.35 48.00 48.18 48.98 48.55 48.98 49.24 50.02 50.06 51.06 51.29 51.82 52.81 54.35 55.64 57.26 60.84 65.34 67.36 68.08 68.71 69.31 69.47 68.33 68.53 68.17 67.59 67.77 67.53 67.54 66.86 66.83 65.69 64.97
32.32 34.32 36.12 36.08 40.68 40.05 37.06 36.11 39.45 42.70 42.08 40.56 39.57 41.15 41.68 45.04 45.77 47.91 47.43 47.54 47.32 47.43 47.86 47.91 49.33 50.22 50.74 51.29 51.71 52.91 54.07 55.62 58.25 64.74 66.84 67.59 68.57 69.26 68.66 67.93 66.45 67.34 66.33 66.38 67.03 66.06 66.74 66.04 65.29
38.16 37.21 35.12 37.31 41.68 39.66 37.84 37.38 38.10 40.88 39.52 38.89 40.29 40.22 44.14 44.00 45.74 45.78 45.49 44.61 44.35 44.46 44.74 45.50 45.90 47.23 48.26 48.41 48.22 48.34 49.05 51.59 53.24 56.19 59.33 66.82 67.49 68.30 67.89 68.15 66.69 66.63 66.47 66.71 66.04 66.18 65.56 65.14 65.46
38.83 35.71 34.70 38.41 41.60 39.66 36.42 35.35 37.81 39.01 39.59 40.32 41.61 42.04 41.89 41.99 42.64 43.54 42.80 42.11 41.74 41.89 41.95 42.39 42.76 43.39 44.19 45.72 46.75 47.65 48.36 50.36 52.30 54.57 56.49 58.21 63.39 67.51 67.92 66.73 66.90 67.66 66.37 65.42 66.02 66.04 65.16 64.89 65.44
36.74 35.07 34.84 34.88 37.27 35.84 34.41 33.14 35.57 39.64 41.02 43.81 42.59 41.94 41.32 40.05 39.23 39.88 39.93 38.64 38.89 38.35 38.40 39.30 39.49 40.22 41.35 42.59 43.42 45.13 47.15 48.03 49.02 51.18 53.42 56.13 59.38 64.76 66.97 66.88 66.73 67.09 67.02 65.20 65.94 66.52 65.41 63.69 64.52
32.39 38.54 37.98 36.42 32.42 26.08 33.69 23.74 33.16 37.22 38.81 40.13 39.50 38.34 37.74 37.79 38.32 38.05 36.90 36.31 35.91 35.82 36.58 36.99 37.54 37.50 39.34 40.09 39.40 39.34 40.57 42.69 46.01 47.70 50.43 51.85 55.06 58.28 62.96 66.89 67.06 66.42 66.99 66.53 64.78 66.95 66.52 64.76 63.08
35.06 39.33 36.30 34.92 30.14 28.65 31.01 24.16 31.28 36.56 34.52 35.45 36.43 36.72 35.94 36.26 35.84 35.38 34.93 34.53 35.11 35.12 34.55 34.95 35.38 36.47 36.78 36.76 37.43 36.98 37.67 41.84 44.03 45.27 45.97 48.09 51.19 55.23 59.13 62.76 66.06 66.79 66.26 67.19 66.00 65.08 66.16 65.29 64.13
39.38 35.90 34.28 32.71 28.81 21.62 29.62 27.78 26.52 30.71 33.36 34.27 35.76 35.42 35.10 34.09 33.63 33.58 33.87 34.05 33.03 33.07 32.91 32.82 33.34 34.01 34.95 35.50 35.53 35.34 35.57 38.20 40.22 42.01 42.29 44.39 47.32 50.89 55.25 58.66 62.43 65.43 66.60 66.06 66.82 66.44 66.21 65.54 64.20
35.15 29.68 19.84 19.41 19.58 20.67 32.89 30.12 31.93 33.54 34.51 34.64 34.16 34.05 34.27 33.11 31.97 31.43 31.57 31.39 31.04 30.90 31.33 32.19 32.98 32.67 33.38 33.21 33.43 34.20 35.83 36.99 37.93 39.25 41.31 42.34 44.44 47.46 51.17 56.32 58.78 62.98 64.50 65.93 66.57 65.47 64.93 64.40 63.39
32.82 30.99 23.34 17.90 17.53 21.07 31.10 25.23 28.93 34.48 36.00 36.45 35.62 34.44 33.58 31.89 31.83 31.14 31.13 30.24 30.45 31.19 31.26 32.13 32.27 32.36 32.62 32.52 32.58 34.04 35.31 36.41 37.58 39.12 40.53 41.95 43.51 45.58 48.78 51.68 55.62 60.28 63.13 64.25 65.20 65.09 63.48 60.88 61.38
32.62 26.19 33.93 27.22 26.57 22.01 24.99 28.97 32.87 34.34 32.38 33.69 33.10 32.92 30.44 30.05 30.24 30.27 30.14 30.18 30.50 31.09 31.44 32.40 32.66 32.09 32.50 32.68 33.49 34.45 35.82 36.75 37.52 39.08 40.74 41.89 43.61 45.62 46.99 50.03 53.18 57.30 61.15 62.67 63.27 64.09 63.46 63.12 61.92
33.12 35.32 22.67 23.97 17.24 16.28 21.99 26.15 27.30 28.14 29.13 31.54 31.28 30.77 30.06 29.75 29.08 29.22 29.30 29.61 30.61 31.42 32.51 33.85 32.48 31.66 31.89 33.15 34.27 35.72 37.05 39.03 40.44 41.44 41.60 42.74 44.24 45.94 46.46 47.70 50.20 54.63 58.94 61.54 61.73 62.34 62.98 63.03 63.20
31.28 27.30 29.38 27.68 24.16 16.55 13.34 15.00 30.54 26.85 29.69 29.51 30.39 31.15 29.88 29.09 27.83 27.87 28.33 29.85 30.49 31.96 32.24 33.10 31.99 31.54 31.66 33.25 34.22 35.62 36.82 38.73 39.28 40.39 42.15 43.43 45.95 46.46 48.30 48.90 50.44 53.81 58.04 60.07 58.91 60.56 61.51 62.25 63.01
33.58 30.70 30.47 19.26 21.22 24.53 22.96 19.11 30.80 29.54 31.63 30.50 29.60 30.40 29.89 29.17 27.25 27.47 28.10 29.11 29.51 30.62 30.96 31.64 31.50 30.90 31.81 33.19 33.84 34.45 35.19 36.33 37.58 37.34 38.84 41.03 42.39 46.94 49.77 51.23 52.08 55.04 54.14 55.32 55.32 55.70 57.51 54.31 61.35

GFSSGP_sfc_wetblb_126.txt.gz
Wetbulb
56.11 54.15 51.51 48.65 40.74 37.10 33.84 38.90 41.14 41.07 41.99 43.88 46.00 46.68 48.85 49.23 51.64 48.22 62.28 65.96 71.34 70.36 71.90 72.49 72.49 73.44 73.68 73.40 73.14 73.38 73.67 73.90 73.93 73.69 73.54 73.76 73.83 73.74 73.93 74.00 74.36 74.92 75.21 74.42 74.17 73.82 73.52 72.90 72.66
55.84 56.66 49.56 43.98 36.73 32.10 35.54 41.44 40.00 41.93 45.82 47.43 47.31 47.78 50.22 52.16 58.03 58.77 60.77 67.89 71.27 70.73 71.39 71.94 72.25 72.80 73.41 73.17 73.07 73.20 74.00 73.95 73.67 73.56 73.59 73.66 73.90 73.90 73.74 73.58 73.68 74.52 75.22 74.49 73.89 73.79 73.71 73.06 72.06
55.18 55.97 44.48 39.87 34.52 33.14 36.25 41.62 42.96 45.39 47.18 47.40 46.73 48.39 52.21 54.19 59.10 60.55 64.69 70.70 71.46 70.85 71.20 71.89 71.61 72.11 72.94 73.06 72.91 73.08 73.31 73.08 73.22 73.24 73.84 73.84 73.91 74.01 73.58 73.10 73.47 74.24 74.77 74.42 73.97 73.99 73.68 71.93 71.11
50.59 47.17 44.30 37.88 35.52 39.78 41.77 45.98 47.37 45.52 47.44 48.39 47.57 48.78 54.29 57.59 60.63 62.87 68.29 71.66 70.60 70.58 71.41 70.16 70.34 71.60 72.60 73.11 72.99 73.05 72.81 72.29 72.44 72.74 73.57 73.86 73.99 73.96 73.23 72.66 73.48 74.02 74.39 74.60 74.56 73.97 72.13 70.83 70.56
48.35 43.35 37.48 35.13 37.44 41.92 45.68 47.40 48.44 48.01 49.17 50.24 48.77 48.03 50.73 55.50 62.01 66.32 68.24 71.46 70.45 70.12 70.41 70.48 69.31 70.97 72.38 73.03 73.08 72.72 72.23 71.78 72.04 72.42 72.70 73.39 73.54 73.42 72.48 72.24 72.94 73.27 73.43 73.74 73.79 71.80 70.97 70.36 70.16
43.75 41.61 35.01 33.27 37.91 43.08 45.76 46.70 48.59 48.82 49.37 49.72 48.73 48.92 51.15 55.67 54.35 60.71 68.24 70.28 70.81 70.32 70.29 70.49 70.51 70.82 71.40 72.16 72.17 71.48 71.32 71.33 71.62 71.86 72.28 73.02 72.80 72.18 72.04 72.07 72.28 72.49 72.31 72.32 72.10 70.89 70.44 70.15 69.87
40.21 37.43 33.48 34.69 38.35 40.97 45.13 47.82 46.10 45.84 45.98 48.49 50.87 48.34 51.28 52.80 53.48 55.57 66.91 68.44 70.99 70.41 69.63 69.67 70.17 70.67 70.19 70.08 70.17 70.13 70.55 70.68 70.82 71.08 71.35 71.80 71.15 70.99 71.36 71.65 71.97 71.97 71.74 71.77 71.11 70.41 69.87 69.74 69.60
42.16 39.09 34.03 34.57 37.27 38.28 44.77 46.67 45.98 45.49 47.02 52.62 51.14 46.49 46.41 51.81 52.90 53.01 56.03 66.21 69.44 69.82 69.01 68.57 68.78 69.61 69.88 70.22 69.32 69.54 69.63 69.88 70.03 70.42 70.42 69.95 70.10 70.43 70.56 70.68 71.19 71.51 71.48 71.29 70.64 69.68 69.41 69.30 68.88
43.58 36.85 33.33 36.44 38.35 41.01 44.79 43.77 46.59 47.01 45.03 47.97 50.35 49.37 52.10 53.96 52.73 51.83 50.87 56.28 65.79 69.12 69.72 68.64 68.24 68.62 68.60 68.91 70.03 69.84 70.26 69.81 69.36 69.99 69.68 68.93 70.73 70.60 70.45 70.02 69.72 70.34 70.17 70.03 69.60 69.08 68.63 68.16 67.99
39.96 35.87 38.07 42.99 42.05 41.46 43.54 38.99 41.92 44.05 44.23 45.63 46.00 49.09 50.48 51.18 50.13 49.72 48.68 48.95 49.59 55.31 67.60 69.05 68.53 68.39 68.17 69.82 68.82 68.91 69.93 70.80 71.05 70.69 70.22 70.81 70.37 70.06 70.56 69.62 68.59 68.93 68.82 69.11 68.57 68.16 67.81 67.70 66.83
38.04 36.26 41.39 43.86 44.34 43.40 40.19 40.55 42.12 40.60 39.62 44.80 43.74 44.94 46.82 49.47 48.39 48.64 48.57 48.33 48.91 51.15 65.99 69.07 68.91 68.23 67.76 68.14 67.85 68.01 68.46 69.63 69.29 70.19 70.42 69.79 70.28 69.68 69.68 69.32 69.29 69.21 68.51 69.14 68.19 67.42 67.40 66.79 66.49
37.34 41.33 41.18 42.41 42.78 40.93 40.33 41.86 40.99 42.11 43.32 46.00 44.37 44.97 45.72 47.22 47.14 47.31 47.41 47.72 50.98 53.45 57.82 62.62 63.65 66.89 67.29 68.69 67.83 67.51 67.99 68.14 68.84 69.34 69.49 69.05 69.61 69.43 69.14 69.02 68.96 68.73 69.14 68.35 68.28 67.61 67.38 66.70 66.66
37.86 39.98 41.88 42.46 41.65 40.73 42.01 39.93 40.85 41.28 43.61 44.28 44.86 45.47 44.71 46.18 46.82 46.63 49.53 51.30 52.26 52.06 53.56 54.86 56.24 56.57 58.66 60.85 64.12 67.99 67.29 67.26 67.78 69.07 69.86 70.00 69.29 69.07 69.01 68.81 68.55 68.84 69.02 68.06 67.47 67.04 66.50 66.18 66.16
41.52 41.00 40.62 41.68 41.85 40.56 40.64 40.39 38.61 42.58 43.45 43.28 43.21 43.22 44.13 45.75 47.35 48.61 49.15 49.23 50.21 50.96 51.31 52.88 52.75 53.48 54.47 54.82 56.26 59.09 63.69 67.00 67.58 67.99 69.40 69.38 69.40 68.98 69.33 68.51 68.23 68.39 68.64 68.30 67.72 67.25 66.41 65.98 65.80
41.80 38.02 39.79 41.36 40.48 40.33 41.28 37.49 39.04 42.97 41.94 42.65 41.45 41.40 44.15 47.20 48.35 46.74 47.24 47.60 48.16 48.93 49.77 50.29 51.27 51.06 51.22 51.69 53.82 55.50 57.42 60.19 63.45 67.74 68.88 69.03 68.94 68.69 68.50 67.77 68.07 68.23 68.43 67.97 67.67 66.88 66.32 65.28 65.11
38.01 37.66 33.09 40.20 41.44 42.48 40.25 34.79 40.10 41.12 40.33 40.27 40.93 43.73 45.14 46.56 45.99 45.97 45.96 46.07 46.13 46.42 46.36 47.83 50.03 49.15 49.42 49.96 50.52 52.24 53.80 55.88 57.95 61.27 64.06 67.21 68.58 68.37 67.20 67.73 67.55 68.60 68.33 67.74 67.27 67.20 65.98 65.01 64.34
34.85 29.78 34.22 38.01 43.05 40.74 38.14 35.02 39.91 41.53 41.91 40.98 39.82 41.05 43.96 43.46 43.74 43.67 43.93 43.52 43.37 43.68 44.24 44.28 45.51 44.83 46.44 48.01 49.07 49.24 50.10 51.65 53.11 54.50 57.43 60.40 64.95 68.16 67.02 67.87 67.66 66.84 67.40 67.71 67.04 66.35 66.19 65.08 64.30
29.56 31.20 30.04 32.87 39.30 37.94 35.67 34.31 38.40 40.84 40.38 38.28 38.80 40.68 41.67 41.18 40.87 41.94 41.30 41.64 41.08 40.68 41.39 41.43 42.33 42.06 43.23 44.59 45.72 46.84 47.53 48.46 49.78 51.68 54.71 56.71 58.16 60.90 66.17 67.35 66.34 65.96 66.71 66.33 66.73 66.15 66.26 65.57 65.11
34.84 33.23 31.95 34.61 39.02 37.43 35.85 32.55 34.95 39.12 38.73 38.84 39.87 39.53 39.31 39.20 40.12 39.98 39.32 38.86 38.05 37.81 37.76 38.28 38.25 38.98 40.03 40.55 40.14 41.53 42.61 44.94 47.26 49.16 51.38 54.60 57.84 58.68 60.14 65.91 62.99 65.55 66.26 66.31 66.22 65.84 65.25 65.27 65.30
35.73 33.69 32.97 35.29 38.75 37.07 33.69 33.71 33.75 37.89 38.31 38.45 37.38 36.39 36.36 36.32 36.72 37.34 36.77 35.87 35.39 35.18 35.37 36.19 36.27 36.69 37.40 38.79 38.96 40.05 40.75 43.00 44.68 47.32 49.36 51.65 53.23 54.63 56.67 57.89 65.02 63.61 65.68 65.55 64.88 64.91 64.58 64.94 64.73
35.68 33.57 32.60 32.44 34.96 33.64 31.91 31.45 32.09 38.20 39.19 38.34 36.92 36.35 35.47 34.45 33.55 34.02 34.13 33.44 33.73 33.17 33.12 34.41 34.53 34.90 36.41 37.05 36.61 37.27 38.25 39.41 40.83 43.44 44.92 47.62 49.31 50.02 52.50 54.43 57.90 63.85 62.06 61.29 64.80 65.32 64.59 62.70 64.57
30.83 36.73 35.78 33.62 29.86 24.06 31.55 21.50 30.01 34.12 34.17 34.80 34.17 33.03 32.38 32.44 33.06 33.04 32.45 32.11 31.95 32.07 32.69 33.12 33.51 33.96 35.63 35.32 34.45 34.23 33.86 33.50 36.48 38.76 42.26 43.74 46.57 48.08 50.27 52.89 55.70 58.55 63.70 63.26 64.33 65.42 65.11 64.24 62.34
33.65 37.20 34.35 32.67 27.58 26.28 26.33 22.98 27.56 34.02 30.94 31.39 32.28 32.73 31.62 31.67 31.55 31.08 31.34 31.49 31.54 31.82 31.35 32.09 32.77 33.43 34.08 34.44 33.78 33.15 32.70 34.09 35.61 37.15 38.71 41.21 43.13 44.73 47.10 50.30 52.67 55.85 59.79 63.47 64.07 64.66 63.95 64.68 63.58
37.88 33.98 32.17 30.03 27.21 20.67 27.40 25.22 24.23 28.12 30.44 31.51 32.48 32.19 31.73 31.50 31.04 31.64 31.64 31.57 30.88 31.63 31.98 32.13 32.46 32.72 33.66 33.03 32.89 32.18 31.40 31.95 32.93 34.76 35.81 37.74 40.52 42.68 45.09 47.85 51.28 55.50 57.61 58.70 63.22 64.30 64.68 64.25 64.30
33.35 28.00 19.69 18.76 19.08 19.21 29.58 25.43 27.22 30.58 32.55 31.67 31.06 30.95 30.85 30.72 30.05 29.56 28.94 28.88 29.86 30.23 31.33 32.46 33.00 32.08 32.56 32.77 32.48 32.30 32.54 32.53 32.62 33.85 35.67 36.82 38.18 39.82 42.09 45.37 47.51 50.79 53.60 56.91 60.46 62.94 63.37 63.96 63.38
30.71 29.27 21.88 17.75 18.04 19.46 29.22 22.06 25.96 32.52 34.25 34.53 33.34 31.46 30.48 29.29 28.86 28.69 28.75 28.76 29.39 30.40 31.21 32.61 32.26 31.67 31.96 31.99 32.11 33.63 34.83 35.18 35.80 36.56 37.52 38.25 39.50 40.34 42.29 43.37 44.75 46.59 49.69 51.88 55.27 61.00 62.80 62.91 63.14
31.12 25.47 31.90 25.15 24.44 19.67 23.00 27.05 31.78 32.57 31.81 32.58 31.85 30.40 28.83 27.99 27.47 27.64 28.27 29.12 29.50 29.83 31.11 32.90 31.39 31.62 31.66 31.92 33.36 34.03 35.88 36.66 37.53 38.37 39.04 39.54 40.95 42.22 43.26 44.12 44.97 46.66 48.28 51.11 54.23 58.73 60.84 60.66 59.89
32.45 34.21 23.73 24.29 18.34 16.16 20.48 22.02 22.23 26.68 29.26 30.74 29.66 28.05 27.92 27.25 26.63 27.08 27.66 28.51 29.27 30.59 30.66 33.07 31.74 30.87 31.68 32.35 33.56 34.62 35.50 36.37 37.83 39.48 40.02 41.55 43.52 44.20 44.69 45.09 46.07 46.96 47.50 48.79 51.99 56.17 59.92 59.82 58.40
29.09 25.85 27.54 26.77 24.41 17.15 13.58 13.38 23.06 24.53 27.94 27.03 28.10 28.54 27.31 25.77 25.30 26.22 27.11 27.33 28.07 29.58 29.44 31.54 30.53 30.54 30.92 31.80 33.28 34.17 34.67 35.54 36.42 36.86 37.74 38.50 40.22 41.85 44.94 47.18 47.11 47.65 48.77 49.38 51.57 55.15 58.87 59.17 59.17
31.51 29.03 28.74 20.37 21.62 22.63 21.50 18.92 30.65 28.82 29.25 28.62 28.21 29.50 29.06 27.55 25.32 25.68 26.05 25.92 26.73 27.48 27.91 29.24 29.38 29.45 30.05 31.50 32.14 33.12 34.75 34.32 34.28 34.53 35.80 37.10 36.95 38.03 38.76 40.07 41.12 43.10 44.49 47.78 49.95 52.33 57.77 58.54 57.62

GFSSGP_sfc_wetblb_129.txt.gz
Wetbulb
56.19 52.94 50.71 47.49 40.20 36.44 33.35 37.53 39.74 40.44 41.99 42.60 44.55 49.31 49.34 48.99 50.23 45.14 61.62 67.70 70.28 70.08 71.65 72.14 72.16 72.82 72.91 73.18 72.93 73.10 73.40 73.64 73.47 73.54 73.26 73.39 73.85 74.03 74.15 74.13 74.09 74.07 74.12 73.37 73.12 73.14 72.75 72.57 72.25
54.16 54.73 48.01 42.41 35.82 31.76 35.51 39.62 39.20 41.18 44.77 46.53 46.89 48.37 51.18 51.15 57.32 58.55 61.40 68.10 70.56 70.71 71.27 71.81 72.11 72.71 72.77 72.50 72.87 73.19 73.51 73.63 73.19 73.42 73.59 73.35 73.66 73.72 73.88 73.82 73.80 74.34 74.45 73.84 73.39 73.32 72.63 72.27 71.57
52.93 52.79 44.16 38.33 32.48 32.39 34.34 40.77 43.47 47.97 46.62 46.10 45.38 50.73 51.76 53.34 59.25 60.99 64.28 70.67 70.48 70.06 71.12 71.61 71.57 72.18 72.93 72.53 72.46 72.78 73.15 73.06 72.83 73.05 73.61 73.76 73.47 73.69 73.65 73.22 73.34 74.01 74.59 73.69 73.42 73.49 72.69 71.73 70.80
50.06 46.59 42.70 37.17 34.32 37.82 39.41 44.39 45.47 45.57 46.97 48.15 47.70 48.87 53.71 55.62 59.94 63.50 68.04 70.72 69.83 69.52 70.68 70.32 70.41 71.40 72.69 72.68 72.52 72.52 72.43 72.12 72.04 72.54 73.26 73.63 73.84 73.76 73.20 72.66 73.33 74.17 74.70 74.48 73.94 73.52 71.94 70.64 70.33
46.42 42.42 36.54 33.99 34.77 39.60 43.16 44.92 46.09 46.74 48.04 49.15 48.51 46.59 49.59 54.87 63.73 66.68 68.41 70.24 69.25 69.42 69.87 70.15 69.56 70.90 72.16 72.92 72.71 72.35 71.88 71.66 71.78 72.06 72.59 72.98 73.35 73.20 72.47 72.36 72.95 73.31 73.77 73.94 73.76 72.18 70.96 70.20 70.05
42.17 40.78 34.32 32.05 34.80 41.42 43.22 43.56 45.78 46.09 47.70 48.44 48.41 47.71 49.62 53.74 52.79 63.31 68.18 68.50 69.71 69.26 69.60 69.88 70.38 70.68 71.22 71.89 71.96 71.33 71.29 71.08 71.32 71.65 71.97 72.73 72.51 72.08 71.83 71.96 72.30 72.33 72.26 72.67 72.13 70.85 70.36 70.09 69.89
39.87 37.48 33.94 32.86 35.94 39.07 41.87 45.56 44.47 43.93 44.59 45.80 49.47 47.27 49.50 51.20 51.95 55.54 65.31 67.72 68.75 68.89 68.92 68.66 68.95 70.41 70.05 69.78 70.01 69.90 70.33 70.57 70.81 70.94 71.01 71.55 71.01 70.69 71.10 71.45 71.74 71.66 71.58 71.66 71.04 70.18 69.78 69.81 69.63
41.03 38.59 33.55 33.55 36.07 36.81 42.89 44.16 43.78 43.83 44.59 49.89 49.15 44.44 45.05 50.24 51.80 52.40 57.11 65.60 68.46 68.46 67.82 67.64 67.40 68.25 68.75 69.36 68.79 69.20 69.61 69.72 69.96 70.28 70.10 69.92 69.94 70.16 70.35 70.49 71.05 71.31 71.20 70.98 70.62 69.72 69.25 69.14 68.76
41.49 35.61 31.95 34.71 36.93 39.68 44.08 43.01 44.58 45.18 43.34 46.56 48.86 47.66 49.17 52.25 51.54 49.78 48.99 52.79 62.16 64.98 67.62 66.81 66.95 67.73 67.89 68.43 69.85 69.56 69.94 69.47 69.11 69.58 69.45 68.02 69.92 69.72 69.76 69.53 69.53 70.27 69.94 70.00 69.68 69.08 68.47 68.05 67.94
38.62 33.77 36.26 41.05 41.39 41.60 42.58 40.36 42.02 42.80 42.68 44.13 44.66 47.58 47.84 50.33 49.05 48.68 48.29 47.49 48.90 51.84 62.53 67.28 66.74 66.68 67.33 69.13 68.34 68.52 69.38 70.41 70.10 69.83 69.11 70.48 70.54 68.88 69.71 69.06 68.18 68.90 68.77 69.00 68.75 68.14 67.67 67.44 66.76
35.39 34.62 38.90 41.15 42.16 42.18 39.98 38.48 41.11 40.57 39.20 43.40 43.06 45.03 46.21 47.58 46.73 47.53 46.42 49.31 51.25 53.85 54.71 56.52 60.64 65.88 67.08 67.91 67.71 67.32 67.73 69.69 69.35 69.79 70.23 70.43 69.72 69.64 69.04 68.38 68.32 68.23 68.23 68.97 67.96 66.81 66.69 66.38 66.24
34.54 39.16 39.75 40.49 40.46 38.43 38.63 40.51 39.55 40.94 42.67 45.78 44.88 44.35 44.18 44.46 46.30 48.11 49.08 49.31 49.40 51.16 52.17 52.86 53.97 55.36 57.26 58.68 60.77 66.12 67.71 68.43 68.13 68.71 69.11 69.04 68.88 68.72 68.83 68.89 69.05 69.08 69.31 68.71 68.65 67.62 67.06 65.70 65.84
35.59 37.76 40.11 41.09 40.28 39.10 39.88 38.84 39.63 41.07 42.96 43.44 43.77 44.17 44.11 45.68 46.91 47.84 48.31 48.23 48.82 48.23 49.93 50.69 50.78 51.21 53.41 54.43 56.18 57.68 59.31 62.01 66.77 68.41 68.93 69.00 68.52 68.35 68.40 68.49 68.48 68.67 69.01 68.26 67.51 67.39 66.77 65.97 65.29
39.41 38.72 38.81 39.65 39.81 39.29 38.91 38.81 37.80 42.52 41.85 43.05 42.84 43.01 45.94 45.55 45.67 45.19 45.02 44.70 45.70 46.32 46.59 48.80 48.87 48.81 50.16 50.62 52.30 54.15 56.51 59.26 61.51 63.36 64.90 67.64 68.05 67.71 68.35 68.16 68.57 68.00 68.60 68.06 67.29 66.60 65.94 65.57 65.77
40.09 36.22 37.94 38.73 38.12 38.03 39.74 36.69 38.17 41.90 40.98 41.42 42.74 44.01 43.56 42.96 43.33 42.12 42.38 41.67 42.44 43.63 44.08 44.29 45.34 44.59 45.68 47.93 49.15 51.11 52.88 55.68 56.91 59.19 60.37 60.91 61.41 66.07 67.40 67.79 68.05 67.84 68.66 68.09 67.34 66.63 66.50 65.23 65.58
36.63 34.52 31.26 38.54 40.12 40.22 38.36 34.23 39.74 41.32 39.99 40.44 40.56 41.35 40.70 40.43 40.30 40.27 40.40 39.48 39.58 40.16 39.91 41.24 42.89 41.39 41.89 43.43 45.56 47.47 49.29 50.75 52.22 53.81 56.31 59.19 59.90 60.08 60.17 66.66 66.95 67.46 67.78 67.58 67.26 66.23 65.38 65.01 64.73
32.03 27.26 31.09 35.73 40.51 39.80 38.06 34.96 40.54 41.06 40.65 38.66 40.13 39.89 39.29 37.82 37.78 37.82 38.25 37.36 37.26 37.33 37.60 37.77 38.84 38.62 39.02 40.62 42.32 43.56 46.05 47.26 48.66 50.23 52.76 54.35 56.02 58.91 59.83 64.09 65.27 65.35 66.21 66.86 66.88 66.34 65.65 64.72 64.26
27.83 28.48 27.32 29.95 37.12 36.87 33.84 33.66 37.91 39.03 38.76 38.13 37.11 37.07 36.40 35.64 35.47 36.80 36.38 36.44 36.06 35.60 36.15 36.54 36.84 37.02 37.37 38.70 39.53 40.64 42.94 42.92 44.66 47.18 48.60 51.29 53.87 56.84 58.72 60.15 60.00 62.60 62.53 65.65 66.52 66.07 66.00 65.47 64.55
32.42 30.46 28.92 31.32 36.89 34.86 33.70 32.21 33.25 37.73 36.25 34.45 34.38 34.19 34.04 34.12 35.93 35.93 35.51 34.87 34.19 34.17 33.67 34.24 34.20 34.89 35.46 36.32 35.04 36.36 37.26 37.69 41.63 42.16 45.53 48.98 51.17 53.46 54.61 57.17 57.81 56.69 62.11 63.02 64.72 65.72 65.37 64.68 64.58
33.23 30.60 30.30 33.70 36.78 34.91 31.25 29.96 32.49 35.02 34.00 33.86 32.92 32.06 32.14 32.44 32.98 34.09 33.81 33.03 32.31 32.32 32.50 33.19 32.99 33.54 34.22 35.08 34.49 35.11 35.52 37.05 38.39 41.13 43.57 45.00 47.74 48.84 48.46 50.30 53.25 56.15 59.84 62.11 62.39 64.20 63.65 64.38 64.69
32.69 30.82 30.82 31.43 32.64 31.85 29.83 28.07 30.75 34.74 35.25 34.89 33.61 32.81 32.16 31.24 30.47 31.63 32.00 31.04 31.02 30.83 31.19 32.33 32.73 33.02 33.68 34.49 34.25 34.08 34.46 35.41 35.92 36.84 37.40 40.43 42.70 44.48 47.63 48.93 50.41 54.06 57.17 60.76 60.47 62.11 63.31 61.70 63.87
29.57 35.12 34.41 31.61 28.63 23.76 29.42 20.58 29.19 32.18 31.14 32.06 31.35 29.98 29.53 30.01 30.82 31.14 30.35 29.92 30.00 30.66 31.66 32.26 32.96 32.95 34.09 34.17 32.73 31.62 30.63 30.24 32.89 33.86 35.72 37.30 40.31 42.32 44.71 46.19 46.90 50.03 53.55 56.22 60.66 61.54 60.28 61.69 61.16
32.19 35.98 33.22 31.49 26.48 24.14 24.21 21.76 23.67 31.07 28.85 29.22 29.77 30.28 29.54 29.75 29.92 29.43 29.43 29.78 30.36 30.86 31.30 32.78 34.15 33.19 33.45 32.96 32.67 31.97 30.97 31.82 32.68 33.50 33.90 35.72 37.75 39.89 41.99 44.55 46.54 47.91 51.44 54.92 58.56 60.54 59.76 60.30 61.40
36.78 32.49 30.51 27.69 25.55 20.23 25.59 24.02 21.54 26.83 28.97 29.55 30.55 30.13 29.55 29.23 29.08 29.33 29.76 29.91 29.46 30.81 32.07 32.85 33.73 31.73 33.16 33.02 32.97 32.40 31.66 31.91 32.65 33.69 33.87 34.53 36.60 38.63 40.14 41.82 43.47 46.55 50.24 53.39 57.47 58.98 61.29 61.34 62.18
32.00 27.81 20.08 18.79 18.58 18.90 27.63 23.95 25.19 29.16 30.98 31.26 29.81 28.90 28.58 28.56 27.73 27.44 27.17 28.26 29.15 29.95 30.97 31.70 31.75 30.94 32.05 32.10 32.24 32.36 32.48 33.55 34.50 35.02 35.54 36.23 37.54 39.02 40.30 41.07 42.16 43.38 45.31 47.75 48.71 50.62 56.53 60.78 61.85
28.82 28.34 21.57 17.12 17.55 20.85 27.15 21.33 24.82 31.45 32.95 32.84 31.24 29.80 29.01 27.58 26.54 26.40 27.12 28.12 28.38 29.28 29.54 30.60 30.74 30.64 31.38 32.11 32.31 33.43 34.41 35.11 35.86 37.00 37.78 38.05 38.46 39.53 41.04 42.00 42.63 42.78 43.90 45.11 47.01 49.17 51.61 55.93 60.81
29.62 25.16 29.53 24.56 23.81 19.04 21.91 25.53 29.69 31.21 30.91 31.24 30.11 28.99 26.78 25.56 25.44 25.87 27.47 27.97 28.08 29.21 28.59 30.56 30.07 29.76 30.23 31.47 32.12 33.08 34.38 35.16 35.54 36.81 38.36 38.93 40.93 41.97 42.75 43.29 43.72 44.07 44.61 45.74 47.21 47.47 49.28 54.47 58.79
31.35 33.31 23.37 24.52 18.65 16.78 20.41 21.23 21.52 26.18 28.80 30.55 27.98 26.42 25.84 25.17 24.91 25.42 27.03 26.80 27.49 28.14 27.56 29.25 29.31 29.16 30.20 30.80 30.82 32.17 33.40 34.97 35.58 36.01 35.99 37.21 38.75 39.93 40.65 42.88 42.98 45.11 45.50 46.37 47.27 47.40 49.03 51.37 55.54
28.21 25.58 27.22 27.11 23.91 17.64 17.15 15.50 22.85 25.61 28.56 27.14 26.71 26.47 24.82 23.87 23.16 23.58 23.99 25.63 25.94 26.76 26.80 28.06 28.29 27.98 27.79 29.35 29.48 30.52 31.55 33.57 34.39 34.02 34.74 35.51 36.82 36.94 37.77 39.02 40.45 44.78 46.91 48.45 48.90 49.10 49.19 50.94 55.26
30.13 28.04 27.93 20.70 20.94 21.99 20.39 20.59 30.25 26.29 27.34 27.26 26.73 27.45 26.42 24.27 23.96 23.70 22.53 21.18 23.33 25.52 26.17 26.56 27.16 26.77 27.09 28.71 28.72 29.12 30.39 32.89 31.86 32.04 32.57 34.13 34.62 35.73 35.85 36.52 37.27 37.80 39.69 43.33 46.91 50.19 51.94 53.50 55.22

GFSSGP_sfc_wetblb_132.txt.gz
Wetbulb
55.01 51.90 48.98 46.65 40.21 35.99 32.78 35.69 38.19 40.42 41.33 41.96 46.61 44.61 46.10 48.29 49.40 43.79 60.88 66.73 69.88 69.48 71.23 72.04 72.13 72.72 73.03 72.99 72.89 72.83 73.37 73.82 73.59 73.34 73.57 73.83 73.95 74.10 74.12 73.92 73.95 74.25 74.12 73.32 73.05 72.93 72.28 72.16 72.23
52.88 53.15 47.10 41.55 35.80 31.37 34.14 38.67 39.68 42.30 44.96 44.84 47.64 50.00 50.50 50.35 56.55 58.03 61.46 66.82 69.90 70.08 70.83 71.33 72.02 72.26 72.66 72.62 72.68 72.97 73.62 73.67 73.52 73.38 73.50 73.63 73.79 73.81 73.68 73.60 73.35 73.74 73.97 73.50 73.12 72.93 72.36 72.36 71.51
51.21 49.57 43.98 37.36 31.71 31.45 33.57 39.84 42.85 44.85 46.37 44.37 45.95 50.96 51.53 53.07 58.56 60.22 63.62 69.90 69.88 70.05 70.71 71.43 71.57 71.75 72.21 72.28 72.39 72.69 73.00 72.79 72.94 72.95 73.60 73.77 73.79 73.82 73.68 73.28 73.11 73.68 74.13 73.75 73.20 73.18 72.66 71.42 70.61
48.49 45.95 42.18 36.65 33.43 37.29 38.15 42.52 42.86 44.07 46.01 48.87 47.62 48.00 52.59 55.23 57.87 61.70 68.24 70.02 68.87 69.31 70.43 69.49 70.35 71.45 72.25 72.30 72.30 72.58 72.32 72.00 72.12 72.62 73.19 73.52 73.84 74.13 73.70 73.05 73.22 74.06 74.32 74.07 73.80 73.67 72.12 70.54 70.07
44.90 41.82 36.01 33.43 33.88 37.89 41.63 43.16 43.41 45.39 45.83 47.72 47.54 45.02 49.83 54.75 57.36 65.28 67.08 69.49 68.57 68.55 69.49 70.09 69.40 70.88 72.17 72.61 72.49 72.20 71.90 71.45 71.59 72.10 72.69 73.12 73.39 73.40 72.72 72.32 73.00 73.55 74.04 73.69 73.68 72.92 71.13 70.28 69.77
41.82 40.16 34.61 31.70 34.69 39.31 41.35 42.18 43.17 45.04 44.90 46.22 47.77 46.15 48.05 52.37 51.92 55.11 64.51 68.66 69.33 68.82 69.12 69.13 70.40 70.62 70.88 71.80 71.82 71.06 70.97 71.05 71.07 71.32 72.04 72.69 72.79 72.25 71.98 72.01 72.40 72.59 72.75 72.39 72.46 71.25 70.60 70.00 69.83
39.60 37.35 33.42 33.25 35.37 37.46 40.48 43.78 43.05 41.78 42.12 44.51 47.65 45.93 48.31 49.84 50.93 54.55 62.69 68.63 69.14 68.90 68.54 67.96 68.12 69.80 69.94 69.63 69.95 69.72 70.06 70.46 70.56 70.62 70.78 71.34 71.05 70.62 71.26 71.72 71.92 71.67 71.65 71.84 71.33 70.27 69.76 69.87 69.72
39.48 37.65 33.49 33.17 34.92 35.85 41.76 42.79 43.22 42.38 42.59 48.53 46.79 43.29 44.17 49.42 50.78 50.60 61.78 57.08 62.61 64.23 67.33 67.15 67.24 68.14 68.16 68.64 68.37 68.27 68.98 69.45 69.43 70.12 69.81 69.47 69.36 69.80 70.16 70.29 71.01 71.20 71.02 71.25 70.71 69.65 69.31 69.31 68.83
40.14 34.76 31.63 33.04 35.99 38.53 42.31 42.28 42.73 44.31 41.73 44.98 47.16 46.55 47.48 48.75 50.56 49.19 47.91 52.12 54.22 59.42 61.90 66.97 66.60 66.86 67.04 67.85 69.15 69.45 69.94 68.34 69.09 69.54 69.34 67.82 69.59 68.79 69.13 69.44 69.63 70.23 69.82 69.82 69.98 69.17 68.47 68.07 68.00
37.59 33.13 34.60 38.89 39.23 38.76 41.10 37.74 40.84 41.25 41.25 42.48 43.32 46.49 47.92 48.28 47.72 48.00 49.75 50.57 50.88 51.64 54.00 56.39 58.94 61.15 66.84 68.45 67.46 67.06 69.60 69.48 69.98 69.87 69.65 69.72 70.27 69.96 69.42 68.79 68.21 68.88 68.52 68.73 68.73 68.25 67.69 67.40 66.69
35.03 34.02 36.70 39.10 39.21 38.69 36.98 37.39 39.46 38.63 37.59 42.31 42.07 43.82 45.16 46.46 48.57 48.83 48.85 48.70 48.69 49.91 50.48 50.65 51.95 54.64 55.43 57.34 61.22 66.28 68.14 69.34 69.61 68.90 69.06 70.07 69.71 69.69 69.90 68.48 67.80 67.93 67.98 68.79 68.16 67.10 66.76 66.35 65.94
32.68 36.89 37.08 37.97 38.85 38.06 36.75 38.70 38.73 39.63 42.02 43.94 43.12 42.77 47.08 46.69 46.25 46.16 45.59 45.65 45.49 45.71 47.36 48.71 47.84 49.15 50.83 53.14 54.88 56.64 58.80 62.16 66.39 67.65 68.13 68.32 67.93 67.51 67.76 68.69 68.98 68.77 69.22 69.26 68.72 67.76 66.49 66.51 65.52
33.91 36.19 38.66 39.10 38.89 37.91 39.17 38.24 38.90 40.51 42.16 42.19 46.15 46.05 44.65 43.68 42.81 42.70 42.23 42.54 43.03 41.95 42.76 44.31 44.39 43.77 46.63 48.82 50.14 52.34 53.87 57.09 60.17 63.60 62.86 65.20 67.78 67.46 68.05 68.16 68.34 67.89 68.45 68.46 67.60 67.46 66.84 66.15 66.12
37.66 37.18 37.56 37.96 38.61 37.58 37.23 37.61 36.08 40.41 41.71 42.65 42.36 40.88 40.50 39.95 39.88 39.42 38.83 37.96 38.99 39.70 39.96 41.01 42.17 41.10 41.82 43.75 45.53 48.19 50.25 52.70 55.16 57.55 59.77 61.52 62.54 63.75 67.37 67.21 67.98 67.51 67.97 68.30 67.90 67.15 66.57 65.57 65.30
38.47 34.77 36.44 36.46 36.10 36.35 38.04 35.33 35.49 39.48 41.63 40.01 38.81 38.62 38.20 37.78 37.77 36.56 37.13 36.15 36.46 37.41 38.48 38.47 40.04 39.43 38.73 39.80 41.94 44.10 47.22 49.56 50.12 51.51 54.49 56.53 59.70 59.61 60.22 62.97 66.07 67.11 68.16 68.00 67.20 66.82 65.75 65.36 65.25
33.90 32.96 30.26 36.16 38.92 38.73 37.04 32.94 37.39 38.67 39.82 37.22 37.52 37.39 36.40 36.34 36.03 36.25 35.96 35.80 35.72 35.70 35.72 37.18 38.26 37.36 37.01 37.88 39.74 40.76 43.41 46.37 46.85 47.42 51.19 52.92 52.83 55.77 58.13 59.29 62.99 63.86 64.73 67.31 66.84 66.55 65.07 64.90 64.50
30.65 26.42 28.85 34.23 38.73 37.22 36.48 33.81 36.35 38.73 40.00 37.22 35.42 35.01 35.32 34.70 34.96 35.32 35.11 34.82 34.40 34.20 34.19 34.60 35.37 35.30 35.61 36.87 38.07 38.49 40.72 42.77 40.88 44.78 45.93 47.61 49.59 54.76 55.06 57.39 59.33 63.68 61.83 58.23 64.89 66.03 65.69 64.27 64.22
25.55 26.57 24.97 27.68 34.95 34.74 32.23 33.39 34.53 37.23 36.33 34.04 32.37 32.68 32.82 32.79 33.08 34.66 34.47 34.15 33.40 33.03 33.70 34.06 34.64 34.62 35.01 36.04 36.00 36.72 37.80 38.13 38.96 41.30 41.67 44.89 49.12 49.85 52.23 53.74 55.53 57.51 58.77 58.29 60.09 62.28 64.68 64.52 64.74
30.92 28.51 26.81 29.74 34.99 32.76 32.91 31.57 31.59 34.90 33.11 31.37 31.38 31.26 31.48 31.73 33.50 34.13 33.71 32.73 32.16 32.49 32.57 33.19 33.13 33.80 34.05 33.49 33.07 34.00 34.79 35.07 37.52 38.63 41.25 43.48 42.46 47.51 47.63 47.59 49.29 51.70 54.30 56.41 60.51 60.36 61.39 61.67 63.78
31.57 28.52 28.60 31.89 35.22 33.60 31.40 29.32 30.41 32.27 31.63 31.43 30.76 29.69 29.93 30.42 31.15 32.50 32.03 31.34 30.77 31.12 31.63 32.50 32.60 33.18 33.50 33.73 33.49 33.42 33.25 34.18 35.38 37.45 37.96 38.67 41.22 41.35 42.47 43.82 46.96 49.30 51.03 54.03 58.21 60.09 59.04 59.42 61.34
30.41 29.14 29.21 30.45 31.39 30.12 28.18 26.73 30.25 32.58 32.91 33.23 31.72 30.82 30.47 29.18 29.14 30.20 30.39 29.78 29.85 29.91 30.36 31.99 32.32 33.25 33.41 33.88 33.19 33.05 33.32 33.39 33.62 33.89 34.33 36.10 37.61 39.12 40.87 43.02 45.02 46.21 48.72 50.51 53.93 59.16 60.02 58.14 59.96
27.07 34.22 33.66 31.25 27.29 23.09 27.56 20.72 26.43 30.36 30.27 30.94 30.25 28.87 28.40 28.68 29.54 29.71 29.23 28.94 29.02 29.49 30.71 32.14 33.17 32.80 33.17 33.58 32.48 31.91 31.31 30.64 32.73 33.51 34.49 34.95 36.56 37.85 39.77 41.03 41.79 43.16 44.37 46.96 50.19 54.16 60.80 60.48 57.20
31.93 34.28 31.17 29.60 25.31 23.13 22.99 20.68 21.73 29.23 27.93 28.62 28.57 29.35 28.02 28.39 28.52 28.07 28.22 28.48 28.97 30.48 31.76 31.15 33.78 31.87 33.25 33.27 33.19 32.27 31.45 32.66 33.90 34.15 34.89 36.27 37.41 38.00 38.60 40.20 41.07 42.51 45.01 46.09 48.48 52.40 54.75 60.00 59.41
35.39 31.61 29.71 26.48 24.17 18.93 24.31 23.38 21.05 25.74 28.83 28.75 29.31 29.17 28.52 27.87 27.23 27.81 28.31 29.18 29.70 31.30 30.37 29.81 32.37 31.58 32.56 31.95 32.69 31.72 31.65 31.86 32.13 33.02 34.09 36.67 38.00 39.15 40.06 41.01 41.28 40.85 41.98 43.79 47.75 52.66 54.80 57.77 59.00
31.31 26.91 19.46 18.57 17.72 18.88 26.05 22.06 25.61 28.58 30.83 31.51 30.37 28.10 27.40 27.21 26.06 25.73 26.84 27.07 28.52 28.31 27.95 28.73 30.04 29.00 29.91 30.44 31.77 31.91 32.64 33.25 33.45 34.00 35.14 36.26 37.69 38.57 39.68 41.20 41.48 42.09 42.00 42.97 43.93 45.94 47.96 50.06 58.34
28.39 27.43 21.02 16.53 16.59 19.74 25.07 20.58 24.56 30.69 32.03 32.08 30.85 28.88 28.09 26.05 25.37 25.26 27.10 25.86 26.99 27.09 26.81 27.54 27.72 27.91 28.98 29.46 30.35 29.90 32.18 32.71 34.30 34.91 35.92 37.02 37.77 39.22 41.27 41.62 42.06 42.37 43.25 42.84 43.10 43.99 45.37 48.14 50.10
28.86 24.56 28.64 24.45 23.16 18.22 22.01 24.18 28.19 30.16 29.58 29.40 28.66 28.52 25.72 24.63 24.24 24.61 26.04 25.52 25.72 26.60 26.00 26.88 27.16 27.49 28.52 28.78 29.76 29.49 30.71 32.87 33.47 34.46 35.75 36.39 37.50 38.55 39.87 40.65 41.32 43.70 44.13 44.40 44.48 44.79 45.23 48.99 50.82
30.60 32.31 22.54 22.80 17.49 16.52 20.60 20.77 23.74 25.79 27.98 29.81 27.73 26.04 25.11 23.75 23.78 23.99 24.69 24.68 25.06 25.60 25.80 26.27 26.83 27.15 27.72 28.20 28.55 29.25 29.37 32.79 32.75 33.26 33.20 34.72 36.05 36.54 37.16 38.56 39.83 41.45 44.52 44.73 45.11 45.51 46.67 47.80 48.73
27.57 25.76 26.53 26.10 23.36 17.49 16.22 17.78 22.78 23.51 28.26 29.55 27.13 26.35 23.87 21.66 21.09 21.57 21.62 22.59 23.28 24.17 24.71 25.49 26.52 26.24 25.90 26.56 27.87 28.16 28.50 30.49 30.92 30.59 31.65 31.83 34.54 35.02 35.33 36.22 36.76 37.83 40.24 42.91 46.26 46.57 47.93 48.50 49.14
29.04 27.00 26.81 19.10 20.87 21.72 20.44 21.25 28.82 25.65 25.67 28.16 25.87 25.97 24.60 23.37 21.73 20.68 18.41 18.07 19.09 20.58 23.39 25.38 26.08 24.50 24.16 25.84 26.68 26.61 27.31 27.95 28.81 28.51 28.97 31.00 31.46 34.33 34.09 34.75 34.94 35.21 36.90 38.72 40.29 43.55 47.85 49.87 50.48